GFSSGP_sfc_wetblb_000.txt.gz
Wetbulb
65.86 59.76 58.59 57.93 51.10 50.89 48.25 51.38 55.24 54.01 53.21 52.62 54.06 52.10 50.91 52.87 51.81 49.07 62.81 64.03 66.46 67.34 69.03 71.30 72.72 71.86 70.53 69.13 68.03 67.76 66.91 66.93 66.63 65.81 67.10 67.83 66.68 66.00 65.79 65.43 64.84 65.67 66.15 65.26 64.49 64.89 65.14 64.74 65.77
61.96 59.59 57.69 55.36 47.33 45.28 47.68 53.93 53.85 55.08 53.57 53.31 52.88 52.98 51.27 50.43 57.52 58.94 60.83 64.87 66.67 67.86 68.64 70.46 72.76 71.84 70.30 69.06 68.06 67.39 66.43 66.65 66.13 66.63 67.15 67.93 67.07 65.76 65.93 65.75 64.69 63.49 64.28 63.93 63.65 64.07 64.44 64.09 64.47
63.12 59.13 52.74 50.16 48.45 45.62 48.46 54.29 54.08 53.96 53.91 52.91 51.32 52.12 52.10 51.93 55.87 59.98 63.47 65.20 65.90 67.07 67.92 70.43 72.82 71.40 70.23 68.81 67.94 67.23 66.33 66.73 66.26 67.88 67.68 67.53 66.78 65.41 65.25 64.30 63.40 63.59 63.47 62.82 62.83 63.18 63.50 63.36 64.84
57.31 54.90 52.25 47.30 46.35 51.05 53.03 54.81 55.97 54.27 53.42 52.28 51.83 51.44 54.92 56.50 56.35 62.50 64.68 64.99 64.43 65.10 68.30 71.66 72.77 71.49 70.65 69.82 68.14 67.44 66.71 66.76 66.30 66.28 67.49 67.05 66.83 65.91 64.63 63.23 62.70 63.02 62.75 62.71 62.03 62.23 62.72 62.93 63.30
57.32 51.90 45.74 44.58 47.40 51.76 54.67 55.80 54.85 53.68 53.93 52.57 51.84 51.47 53.45 57.81 62.77 63.41 63.70 64.58 63.84 64.33 68.33 70.26 72.97 71.06 70.16 68.57 68.34 67.30 66.72 67.04 66.32 66.22 66.08 65.46 66.30 65.16 64.43 63.98 63.49 63.77 63.60 62.87 62.26 62.18 62.27 63.00 62.58
51.24 50.16 42.81 42.37 46.16 51.08 53.94 56.65 56.25 54.07 54.65 52.40 50.84 50.92 53.85 59.42 60.98 62.90 64.03 63.12 64.86 64.29 67.92 69.53 70.79 70.44 70.19 69.08 68.30 68.01 67.77 67.51 67.22 66.42 65.52 64.68 63.90 64.71 64.40 64.13 65.19 64.54 64.10 63.03 62.12 61.98 62.47 62.85 62.61
50.34 46.44 43.17 43.96 45.30 49.10 53.17 57.22 53.95 54.30 54.17 52.35 52.59 49.95 54.89 57.60 61.64 63.33 63.00 63.50 64.17 64.71 65.57 67.55 67.55 68.53 69.37 69.50 68.81 68.71 67.82 68.08 68.18 66.39 65.35 65.72 65.90 65.36 65.12 65.37 65.60 65.42 63.53 62.33 61.34 60.61 61.52 62.86 63.04
52.74 48.55 43.93 44.69 44.89 47.59 55.23 55.54 56.21 54.38 52.21 53.54 53.27 50.62 51.04 58.29 62.33 63.14 62.72 63.17 63.00 62.93 63.77 64.23 65.87 66.18 64.27 63.40 68.53 68.04 68.24 67.78 67.92 67.33 66.69 65.67 65.62 66.07 66.01 65.74 65.79 64.92 63.27 61.92 60.04 59.70 60.69 62.50 63.33
55.54 44.71 42.05 45.84 47.39 50.33 54.69 53.37 55.70 54.61 52.55 53.18 53.23 54.93 59.30 62.29 62.38 61.46 60.50 61.59 62.08 62.66 62.26 62.07 63.48 64.12 63.65 63.02 65.49 67.53 67.92 67.08 67.08 66.03 65.12 64.27 61.64 62.81 63.51 64.14 65.10 64.42 63.35 61.86 59.97 60.12 60.97 61.26 61.72
50.67 45.06 45.21 49.78 51.11 51.89 54.17 54.13 54.21 52.26 52.86 52.15 52.47 56.86 61.21 61.59 60.28 60.15 59.42 59.43 60.27 60.77 61.55 62.08 62.14 62.60 62.30 63.07 63.91 61.80 63.98 63.45 62.94 62.47 62.14 61.32 60.17 60.77 63.04 63.36 64.52 63.87 63.60 62.65 60.90 60.26 60.62 60.64 53.98
51.46 46.74 50.54 50.16 53.88 53.97 52.85 52.72 55.83 51.98 51.22 53.95 52.87 55.19 58.84 60.46 59.62 59.67 59.75 59.79 59.96 61.38 61.97 62.77 62.44 62.71 61.66 59.31 62.54 62.36 61.59 61.99 61.98 61.22 60.59 60.96 60.95 60.21 60.11 60.42 60.99 60.32 62.45 60.06 59.54 58.00 56.98 54.32 52.96
48.92 51.70 51.39 51.91 54.08 52.84 51.33 54.30 52.68 53.22 53.23 55.10 54.97 57.07 58.29 59.13 59.50 59.21 58.91 59.15 59.75 60.55 61.65 62.71 62.97 62.56 61.86 60.36 58.34 59.89 60.47 61.33 60.39 61.05 60.54 59.78 58.67 58.12 58.42 58.18 59.32 58.24 58.60 58.32 56.91 55.20 55.06 53.20 52.79
50.03 50.55 51.97 52.44 52.75 52.96 53.24 50.99 51.89 52.65 55.37 55.65 55.69 55.64 57.33 58.32 58.90 59.80 60.13 60.01 59.08 59.34 60.75 61.75 62.51 62.48 62.78 60.74 58.72 58.47 59.56 60.08 60.22 60.33 60.33 59.79 58.85 57.50 57.17 57.24 57.56 56.76 56.66 56.36 55.62 54.91 54.11 53.72 52.45
51.18 51.71 51.07 52.64 52.68 53.64 50.93 50.79 50.84 53.35 55.25 54.53 54.57 53.80 54.32 57.17 58.53 58.66 59.24 59.08 58.67 58.78 59.75 61.58 63.33 63.10 63.50 63.03 61.18 59.24 59.26 59.62 59.53 59.65 60.24 60.18 59.32 58.57 57.40 56.67 57.12 56.74 56.61 56.63 56.17 54.77 54.11 54.22 54.94
51.40 47.37 50.03 50.85 51.63 50.33 50.29 47.71 48.69 52.83 53.83 52.59 53.36 53.06 54.43 55.21 56.46 56.70 59.06 59.27 59.53 59.42 60.34 60.35 61.66 64.53 63.53 63.00 63.15 61.84 60.65 60.97 59.43 59.35 60.02 60.30 59.84 59.05 58.49 56.70 56.29 57.25 57.66 57.72 57.06 56.44 55.63 54.46 55.37
47.22 46.98 42.57 49.61 50.91 50.15 48.75 42.64 50.12 52.82 52.71 51.14 52.59 52.41 53.18 54.71 55.70 56.19 57.65 58.85 60.66 60.62 59.97 60.34 62.23 62.76 64.11 63.50 63.09 63.23 62.69 61.18 60.67 59.89 59.63 60.22 60.63 59.75 59.02 57.99 56.81 57.57 57.71 57.43 56.94 56.65 55.69 55.14 54.53
45.22 38.57 41.99 45.26 50.98 49.49 47.85 44.45 50.43 52.11 51.00 49.94 50.81 51.09 52.37 52.86 53.58 54.65 56.26 57.15 58.52 59.98 60.69 60.69 60.64 60.43 62.16 63.67 63.76 63.34 63.38 62.45 61.71 61.20 60.44 60.33 60.97 60.94 60.33 59.82 58.84 57.81 57.42 57.61 57.49 56.66 55.76 54.89 54.89
40.15 40.05 42.97 42.62 47.50 47.17 45.70 45.19 49.02 49.53 49.54 48.82 48.92 48.10 49.34 50.40 50.98 52.06 53.37 53.41 55.03 57.24 58.67 60.03 61.33 60.94 60.77 61.83 63.21 63.11 62.95 62.80 62.64 62.79 62.61 61.48 61.60 61.24 60.66 60.55 60.34 59.20 57.88 57.91 57.60 56.43 56.08 55.63 55.38
45.93 43.55 42.01 44.26 48.19 44.02 44.24 44.91 45.98 47.38 47.36 47.70 47.04 47.64 48.23 49.20 51.24 52.47 53.00 53.46 53.08 53.19 54.64 57.37 58.49 60.41 60.92 60.82 60.89 61.50 61.71 61.52 62.22 63.14 63.30 63.14 62.68 61.94 61.17 60.91 60.62 60.68 59.30 58.23 58.46 57.96 56.64 56.65 55.85
45.39 42.46 42.12 45.18 47.81 44.09 44.32 44.32 45.59 45.86 45.34 45.94 47.09 47.54 48.83 49.55 50.35 51.51 52.47 53.03 53.15 53.32 53.64 54.26 56.33 58.62 59.91 60.72 61.38 61.74 62.02 62.54 63.24 63.65 63.81 63.96 63.50 63.09 62.14 61.44 60.97 60.85 60.71 59.99 58.56 58.27 57.41 57.44 56.75
43.83 41.91 42.18 42.44 45.41 46.45 43.47 42.10 43.18 45.81 48.00 48.08 48.81 49.49 49.89 49.81 50.05 50.85 51.35 52.00 52.57 52.94 52.97 54.58 55.01 55.90 59.08 59.95 60.59 60.59 61.04 60.88 60.44 61.59 61.99 62.68 63.10 63.28 63.03 62.54 61.93 61.41 61.40 60.97 60.50 59.10 57.89 56.75 56.73
41.05 46.09 45.77 44.77 41.45 37.14 43.39 33.97 40.39 44.29 45.96 46.98 46.73 47.85 48.53 49.07 50.09 51.21 51.78 51.41 51.72 52.96 54.00 54.51 54.52 54.85 56.57 58.27 58.96 58.83 58.40 58.34 59.89 60.47 61.26 61.92 62.76 63.06 63.32 63.20 62.70 62.31 62.53 61.92 61.78 61.67 60.04 59.63 57.84
44.11 47.21 43.97 43.39 39.84 38.62 40.18 36.01 39.03 44.53 43.77 45.45 46.23 47.72 48.82 49.17 49.52 50.44 51.57 52.75 52.96 53.08 52.64 52.96 54.19 54.71 55.25 54.92 54.95 55.84 58.11 59.10 59.98 60.47 60.05 60.08 60.98 63.13 63.17 63.10 62.67 62.66 63.29 63.57 62.77 62.76 62.08 61.28 59.48
47.49 43.63 43.06 41.47 38.77 33.31 36.26 36.38 36.62 41.50 43.90 45.58 47.20 48.19 49.41 49.71 49.49 50.66 52.18 52.78 51.90 52.21 52.20 51.97 52.10 52.30 52.93 54.48 56.02 55.62 54.39 54.77 55.88 56.74 57.23 57.96 58.93 59.87 61.64 62.74 62.63 62.74 62.88 63.03 63.16 63.22 62.59 61.53 60.59
43.35 38.92 34.04 31.90 31.87 32.81 37.77 35.48 38.46 43.78 46.90 47.40 47.51 48.07 49.00 49.51 48.88 49.41 49.89 50.43 50.91 50.86 51.28 52.08 51.77 51.38 51.95 52.01 51.99 52.18 53.35 55.58 56.66 57.16 57.46 57.85 58.14 58.65 59.52 60.53 61.79 62.33 62.65 63.11 63.49 63.43 62.97 62.34 61.14
41.11 39.60 35.27 30.49 31.78 33.33 37.90 34.13 40.25 45.16 47.03 47.57 49.14 49.27 49.80 48.95 48.55 49.15 49.82 49.91 49.93 50.86 51.25 51.51 51.92 51.80 52.00 51.71 51.53 51.51 51.55 51.67 52.89 54.14 54.77 56.21 57.51 58.78 60.20 60.62 61.04 61.13 62.11 62.57 63.15 63.52 63.11 62.85 62.23
41.19 38.57 40.43 37.87 37.71 33.41 37.63 40.85 43.49 45.16 44.61 45.15 46.95 48.85 47.90 48.24 47.95 48.54 49.38 49.49 49.54 50.03 50.72 50.99 51.03 51.40 51.74 51.54 51.46 51.26 51.36 50.96 50.81 51.29 51.45 52.29 53.00 55.04 54.80 56.15 58.22 59.57 61.73 62.33 62.23 61.84 62.22 62.10 62.16
39.04 41.65 35.79 37.32 29.44 27.41 34.94 35.44 37.41 40.62 42.14 44.63 46.20 46.51 47.73 48.79 48.42 48.65 49.01 49.50 49.74 49.69 50.55 50.71 51.01 51.01 51.50 51.44 51.10 51.67 51.56 51.79 51.59 51.26 50.82 51.01 51.32 51.78 51.96 52.37 52.89 54.07 56.05 58.06 59.71 60.70 61.20 60.82 61.03
38.85 37.97 38.24 37.34 36.03 30.47 29.33 34.19 41.68 42.78 44.17 43.86 45.80 48.02 47.58 47.44 47.89 48.37 48.70 49.47 49.82 49.90 49.99 50.06 50.17 50.39 50.42 50.85 50.84 50.66 51.17 51.82 51.74 51.44 51.86 52.03 52.23 51.88 51.68 51.58 51.55 51.69 52.24 53.46 54.61 56.35 58.03 59.09 59.73
41.04 40.11 40.50 34.33 32.99 34.47 31.37 32.74 44.58 44.06 45.66 46.89 47.28 48.62 47.20 47.89 48.29 48.71 48.74 49.00 48.92 49.30 49.60 49.12 49.39 49.31 49.96 50.36 50.48 50.49 50.79 50.79 50.33 50.47 51.11 51.97 51.73 52.55 52.57 52.66 52.69 52.50 51.96 52.30 52.28 53.33 54.63 55.36 56.01

GFSSGP_sfc_wetblb_003.txt.gz
Wetbulb
65.18 58.97 53.78 52.85 47.55 46.08 42.93 47.97 50.04 52.30 50.29 49.43 51.06 51.01 50.27 49.58 50.14 44.64 59.69 63.59 66.74 67.44 69.68 71.05 73.44 72.36 70.82 70.01 69.00 68.04 67.02 67.13 66.71 66.37 68.09 68.41 67.80 66.77 66.05 65.94 65.69 66.79 66.04 65.20 64.69 65.16 65.86 64.91 67.09
62.41 59.01 52.34 49.27 42.93 40.29 43.27 48.67 50.97 53.04 51.90 50.92 50.86 50.84 48.59 48.20 56.25 57.68 59.14 63.46 66.79 67.98 69.69 70.91 73.43 72.46 70.65 69.39 68.93 68.00 67.74 67.23 67.00 67.33 68.77 68.70 68.08 67.17 66.58 66.01 64.86 64.11 64.91 64.28 64.34 64.00 64.11 63.92 63.98
60.61 58.54 47.67 45.01 43.03 40.70 43.30 50.39 52.08 54.21 51.81 50.94 49.17 51.24 50.66 49.84 56.05 58.34 60.69 63.66 65.73 67.40 69.23 71.08 73.22 72.57 70.72 69.57 68.69 67.85 67.10 67.48 67.00 68.43 68.18 68.48 67.74 66.57 65.63 64.72 63.86 64.07 63.80 63.50 63.40 63.42 64.03 63.49 63.26
54.18 49.69 46.47 42.97 41.58 46.03 47.72 51.27 55.30 54.12 51.43 50.47 49.87 49.42 52.08 55.84 56.27 60.81 62.66 63.55 64.13 64.38 66.74 72.05 73.16 72.17 71.43 70.54 68.75 68.01 67.15 66.97 67.19 68.53 68.38 67.33 67.95 66.58 64.90 63.98 63.24 63.68 63.33 62.97 62.48 62.79 62.96 62.87 63.10
51.36 45.51 40.43 38.55 41.53 46.19 48.05 55.68 56.39 52.08 51.57 50.15 49.62 49.55 50.87 56.76 60.71 61.73 62.06 63.14 62.55 65.86 69.04 71.27 73.13 72.30 71.23 69.51 68.94 68.19 67.57 67.49 67.12 67.91 67.34 66.54 66.82 65.30 65.42 64.58 64.11 64.24 63.89 63.26 62.66 62.53 62.82 63.22 62.94
47.04 44.21 36.66 36.15 40.62 45.44 47.80 56.67 56.31 52.44 52.06 49.43 49.68 51.15 51.22 57.53 59.72 60.82 62.09 61.48 63.47 66.30 68.90 70.73 71.83 71.53 70.97 70.27 69.57 68.65 67.81 68.08 67.40 66.96 66.74 65.90 65.67 65.76 65.94 64.64 65.27 65.06 65.10 64.34 63.09 62.58 62.91 63.66 63.14
45.58 42.15 37.23 37.78 40.15 43.36 47.22 54.66 53.44 52.48 50.83 49.75 51.27 49.78 51.95 54.57 59.55 61.57 61.08 61.13 62.53 67.44 68.37 68.98 68.68 68.94 70.27 70.09 69.66 69.33 69.43 68.05 68.54 67.06 66.50 66.27 66.16 65.88 65.67 65.53 66.10 65.59 65.58 63.93 62.99 62.03 62.39 63.73 63.82
48.08 43.87 38.65 37.25 40.12 42.40 49.14 53.10 53.90 51.97 49.14 51.95 51.26 49.92 50.31 55.16 60.24 61.31 60.52 60.79 61.06 65.09 66.97 66.62 67.16 67.12 66.19 66.24 69.06 69.23 68.67 68.13 68.31 68.11 67.07 65.96 65.39 66.45 66.97 66.98 66.85 66.15 65.08 63.89 62.78 61.31 61.05 62.07 63.53
50.82 41.54 36.75 40.40 42.97 45.42 52.07 51.03 54.11 53.05 50.69 51.64 52.29 53.08 56.14 59.76 60.39 59.06 57.95 59.61 60.37 61.21 62.44 65.75 65.82 65.54 64.15 62.83 66.17 67.98 67.86 67.20 67.31 66.75 65.87 64.46 61.81 63.16 64.62 64.92 66.05 66.14 64.76 63.79 62.31 60.68 61.20 63.28 63.81
46.68 40.96 42.19 45.84 47.07 46.61 51.18 50.47 51.44 51.58 50.87 49.94 52.18 57.67 59.11 59.38 58.45 58.07 57.75 58.04 59.00 59.40 60.11 61.83 64.53 64.49 63.47 64.10 63.72 63.41 64.49 63.84 63.83 63.39 62.61 61.33 60.56 60.12 63.25 63.38 65.57 65.38 64.79 64.27 62.70 61.20 61.77 62.10 55.11
47.80 43.48 48.45 50.27 51.17 50.67 50.12 50.44 52.27 50.69 48.50 51.51 50.68 55.49 58.14 57.48 57.66 58.37 58.30 58.47 58.67 59.59 59.94 61.08 60.80 62.94 62.44 61.36 62.89 60.98 61.73 61.61 61.88 61.17 61.11 60.60 60.90 59.48 61.02 60.85 61.92 60.93 62.24 60.50 60.65 58.09 56.41 54.98 53.44
46.32 49.86 50.08 51.61 52.05 50.90 50.02 50.96 49.24 49.96 51.36 53.51 52.78 55.81 57.93 57.66 57.42 57.95 58.30 58.32 58.69 59.34 60.65 61.59 61.48 60.76 60.60 59.41 61.72 60.80 60.45 60.94 60.69 61.01 60.13 59.79 58.70 57.85 58.07 59.90 59.35 58.93 59.60 59.42 58.13 56.43 55.48 54.62 52.51
46.96 49.33 51.06 50.74 50.19 49.47 52.04 49.42 48.44 49.71 53.23 53.22 54.40 56.58 56.79 57.77 58.03 58.60 58.75 58.87 57.68 58.85 60.23 61.29 61.56 61.04 60.29 58.77 58.82 59.30 60.05 60.95 60.60 60.05 60.14 59.64 58.66 56.63 56.94 57.50 57.37 58.46 57.80 58.77 56.67 56.53 54.75 53.87 51.93
48.95 49.07 48.60 50.01 49.55 49.79 49.80 48.99 48.00 50.75 52.51 52.12 52.75 53.49 55.16 56.47 57.72 57.32 58.02 57.95 57.59 57.36 59.83 61.15 62.07 61.34 61.59 59.89 57.43 57.35 57.37 58.83 59.22 58.90 59.27 59.01 58.99 57.74 56.49 56.14 56.90 56.70 56.96 56.70 56.23 55.26 54.92 52.67 52.25
49.76 44.91 46.64 48.23 49.14 48.57 48.22 45.56 46.48 50.36 50.21 51.68 50.89 50.46 52.50 54.98 56.46 57.14 58.38 58.88 59.40 57.36 58.28 59.97 62.15 62.88 61.75 61.53 60.05 58.28 57.97 58.73 58.44 58.38 58.88 59.06 58.97 58.21 57.92 56.71 56.22 56.81 56.21 55.37 55.03 54.81 53.69 52.42 52.78
44.58 42.50 38.72 46.09 48.02 49.01 47.76 41.43 48.04 50.06 49.29 50.50 50.10 49.30 49.45 51.90 53.13 53.46 54.98 57.26 58.15 57.70 57.51 59.18 63.09 63.32 62.58 61.88 61.89 61.19 59.91 58.90 58.71 58.66 58.62 59.29 59.73 58.82 58.06 58.04 57.19 56.49 56.51 56.54 55.71 55.71 54.92 53.95 53.38
40.26 35.35 37.57 41.91 47.55 47.44 45.49 42.00 47.54 49.37 48.17 47.34 47.73 47.91 48.14 48.22 49.02 49.52 51.05 51.27 53.12 56.94 58.12 57.82 59.49 62.07 62.98 63.18 63.23 61.91 61.95 60.43 59.64 58.83 58.77 59.09 59.42 59.79 59.25 59.10 58.83 55.69 56.06 56.83 56.89 56.03 55.90 55.14 55.07
36.65 35.69 38.06 38.36 44.13 45.26 43.27 43.44 46.56 47.21 45.39 44.71 43.49 44.59 46.35 48.28 48.95 49.78 52.50 52.12 52.65 51.81 53.54 56.99 58.59 59.62 62.86 63.29 62.90 61.65 61.34 61.88 60.00 60.35 60.08 58.88 59.51 59.47 59.10 59.47 58.97 56.78 56.26 56.51 55.76 56.42 55.30 56.41 56.26
41.23 38.92 38.18 40.58 45.74 43.89 42.87 42.59 44.82 45.81 44.19 44.18 43.78 45.28 46.46 48.15 49.10 51.34 52.12 52.30 52.53 52.19 52.52 52.40 54.51 58.01 59.43 58.83 60.34 60.28 61.59 60.43 60.55 60.54 60.91 60.43 59.94 59.45 58.55 59.45 58.43 58.13 58.02 57.35 56.73 57.07 55.93 56.35 54.26
41.57 39.56 38.48 42.58 46.17 42.82 41.07 42.81 43.33 43.75 43.43 44.58 46.28 46.15 46.66 48.02 49.66 50.42 51.05 50.93 51.66 51.93 51.96 52.64 53.34 54.01 57.57 58.93 60.11 60.92 60.62 60.68 61.34 61.93 62.06 61.75 61.41 60.85 59.74 59.64 59.58 59.29 59.29 58.69 57.09 56.76 56.70 56.97 55.64
41.50 37.62 38.91 40.41 43.71 43.15 40.83 39.77 40.23 43.55 44.87 45.62 46.83 47.26 47.68 47.97 48.63 48.83 49.37 49.79 50.35 51.06 51.45 53.23 52.78 53.47 54.88 58.28 59.61 59.59 59.88 59.44 59.40 59.69 60.45 61.85 62.19 62.42 61.86 61.84 60.65 60.22 59.82 59.64 59.45 58.06 57.02 56.28 55.88
37.68 43.95 44.11 42.69 38.67 34.52 40.65 32.15 36.77 41.61 42.86 44.13 43.95 45.26 45.81 46.43 47.77 49.21 49.91 50.07 50.47 50.51 50.36 51.29 52.35 53.32 55.11 54.20 55.06 56.54 56.70 56.68 58.05 58.83 59.57 60.37 61.50 62.31 62.69 62.65 62.16 61.01 60.92 60.46 60.59 60.97 59.35 58.24 57.11
42.32 45.51 42.73 41.54 36.73 34.64 36.78 34.32 36.91 41.24 40.63 42.55 43.92 44.98 45.60 46.17 47.59 48.94 49.60 50.99 50.68 50.60 49.67 49.89 50.99 51.59 51.73 52.26 53.81 53.24 52.92 54.94 56.64 57.33 57.58 58.09 58.88 60.42 61.90 62.32 62.22 61.70 61.86 61.70 62.23 62.41 62.03 61.08 59.12
45.82 41.55 40.57 38.39 36.34 30.89 35.20 35.35 34.46 39.66 41.45 42.24 43.56 45.49 46.68 46.67 47.46 48.91 49.94 50.61 49.92 49.57 49.70 49.93 50.69 50.67 50.91 50.92 50.41 50.11 50.08 52.00 53.52 54.81 55.35 56.24 57.24 58.31 59.09 61.21 61.86 62.12 62.17 61.97 62.47 62.87 62.77 62.50 61.95
41.26 36.60 31.62 30.12 29.58 30.22 36.05 34.09 36.32 42.57 45.15 45.89 44.94 45.42 46.04 46.43 46.94 47.98 48.33 48.40 49.08 49.06 49.29 50.73 50.27 50.15 50.38 50.22 49.97 49.57 49.21 49.21 49.49 50.13 51.57 51.50 54.01 55.78 56.31 57.85 59.42 62.02 62.77 62.79 62.92 62.76 62.43 62.53 62.26
38.00 37.80 33.20 29.63 29.41 32.30 35.98 31.97 38.58 44.02 46.69 47.09 47.25 46.86 46.41 46.02 46.74 47.71 47.79 47.67 48.07 48.91 48.88 49.08 49.44 49.68 50.04 49.82 49.80 49.61 49.59 49.62 49.65 49.29 49.33 49.80 50.45 51.21 52.06 51.70 52.79 54.30 58.50 62.11 62.81 62.94 62.85 62.57 61.91
39.46 36.82 40.42 35.44 34.67 31.40 34.45 37.70 41.35 42.30 43.21 44.81 45.64 46.10 45.48 45.55 46.47 47.62 47.68 47.61 47.76 48.20 48.87 48.77 49.11 49.49 49.94 49.73 49.55 49.53 49.78 49.90 49.73 49.36 49.34 49.58 50.23 52.77 51.99 50.87 50.77 51.49 52.03 52.71 55.03 57.01 59.47 60.52 60.88
38.23 40.29 35.59 34.88 28.46 26.19 31.68 33.40 35.13 37.87 39.57 42.38 44.14 44.20 45.06 45.61 46.38 46.84 47.49 48.05 48.34 47.91 48.14 48.05 48.29 48.25 48.56 49.09 49.11 49.87 49.45 50.12 50.05 49.97 49.58 49.98 51.47 51.23 51.27 50.72 50.64 50.72 50.95 51.34 51.42 51.94 53.10 54.08 55.79
38.54 36.37 36.32 35.74 33.40 29.09 26.56 31.79 39.41 40.66 41.07 42.05 43.57 45.16 45.34 45.34 45.97 46.49 47.11 47.63 47.78 47.59 46.91 46.97 47.64 48.59 49.34 49.86 49.71 49.33 49.53 49.85 50.36 50.08 50.30 50.52 50.94 50.98 51.08 51.15 51.03 51.11 51.21 51.26 50.80 51.10 51.58 51.50 52.40
39.65 38.94 37.67 32.51 31.83 31.74 29.45 32.13 41.71 41.88 42.52 44.87 45.57 46.19 44.83 46.07 46.41 46.81 47.13 46.68 46.07 46.63 47.15 47.36 48.67 48.87 48.62 48.97 48.70 48.67 49.06 48.81 48.34 48.36 48.65 49.11 48.87 49.59 49.56 49.85 50.00 50.14 50.33 50.65 50.47 50.43 51.00 50.81 51.05

GFSSGP_sfc_wetblb_006.txt.gz
Wetbulb
64.69 59.89 52.43 52.26 46.19 44.65 41.73 46.16 49.07 50.83 49.35 49.41 50.26 49.02 48.90 48.68 48.35 42.70 57.00 62.33 65.78 66.59 69.06 70.93 73.14 72.82 71.76 70.47 69.31 68.66 67.55 66.77 66.02 66.91 67.23 68.64 67.69 66.64 66.16 65.70 65.86 66.89 66.02 64.12 64.07 64.93 65.90 65.75 68.19
62.89 58.62 51.09 48.54 42.43 39.51 41.44 46.80 49.23 52.01 52.69 50.58 49.33 49.08 47.70 47.83 55.10 57.36 58.27 65.16 66.95 67.92 69.21 69.62 73.52 72.22 71.02 70.28 69.02 68.02 67.33 67.13 66.51 66.88 68.29 68.55 67.89 67.05 66.54 65.57 64.56 64.35 64.29 64.02 64.37 64.33 64.11 63.74 65.62
58.90 55.70 46.88 44.02 41.04 39.33 41.78 48.52 50.33 53.32 51.45 49.98 47.95 49.97 48.56 48.81 55.02 58.32 59.88 65.32 66.72 67.62 69.34 70.63 73.42 72.38 70.79 69.67 69.22 67.88 67.62 66.98 66.96 67.39 68.42 68.94 67.85 67.28 66.05 64.85 64.10 63.75 63.83 63.37 64.11 63.31 63.90 63.19 63.17
53.29 48.60 45.32 41.39 39.70 44.32 45.37 48.44 51.80 52.78 51.63 49.91 48.90 47.99 50.39 55.06 55.79 59.24 61.27 64.46 65.63 66.19 68.25 71.91 73.12 72.30 71.37 69.73 68.91 67.84 67.12 67.43 67.25 68.60 68.91 68.34 67.91 67.21 64.98 64.19 64.12 63.74 63.34 63.01 62.85 63.28 63.01 63.59 63.25
49.69 43.76 38.41 37.38 38.99 43.47 45.52 49.75 54.04 52.16 50.81 50.01 48.85 48.47 49.59 57.07 59.01 60.80 60.94 64.41 63.55 64.39 68.15 71.23 73.15 72.41 70.90 69.83 69.08 68.24 67.38 67.58 66.93 67.16 67.35 66.92 68.23 66.51 65.21 64.41 63.95 64.05 63.67 63.43 62.82 62.96 63.64 63.21 63.19
46.38 42.70 35.27 34.16 38.16 42.66 44.62 48.16 51.44 52.12 51.61 49.04 48.43 50.08 50.14 55.93 58.94 59.85 61.19 60.83 64.83 65.51 68.22 70.46 71.94 72.08 71.35 70.13 69.51 68.61 67.69 67.92 67.38 67.57 66.87 66.35 66.29 65.73 65.47 65.41 64.75 64.77 65.12 64.72 63.72 63.05 63.33 64.04 63.96
44.84 41.11 36.39 35.65 38.57 41.00 45.35 50.55 49.69 52.10 49.29 48.89 49.98 49.53 51.86 55.61 58.99 60.45 60.00 60.10 64.98 67.27 68.73 69.51 70.10 70.33 70.41 70.10 70.06 69.38 68.52 68.74 68.58 67.70 66.99 67.03 66.62 65.77 66.46 65.46 65.85 65.79 65.73 65.28 64.38 63.35 63.14 63.54 64.24
46.75 43.01 37.21 35.84 37.97 40.55 46.95 50.60 51.99 50.37 51.02 50.83 51.26 49.35 50.04 54.63 58.99 60.13 59.38 59.18 62.51 65.78 67.61 67.86 66.91 67.21 66.89 67.11 69.60 69.01 68.80 68.56 68.31 68.04 67.32 66.21 65.51 65.95 66.59 66.76 66.52 66.36 66.29 65.31 64.41 63.60 62.55 62.63 63.83
49.03 40.64 36.36 38.60 40.18 43.45 48.02 47.73 52.20 52.69 49.76 50.56 52.93 51.43 54.36 56.71 59.51 58.11 57.38 58.11 59.53 64.65 65.39 66.18 65.70 65.11 65.35 65.34 66.80 68.23 68.41 67.58 67.16 66.93 65.89 64.51 61.60 62.06 63.82 64.85 65.53 66.60 65.97 65.31 64.55 63.55 62.05 62.41 63.16
45.81 40.31 42.02 45.33 44.31 45.74 48.02 48.52 49.90 50.50 49.92 48.54 51.94 56.56 56.85 58.08 57.44 57.01 56.45 57.34 57.73 60.05 62.82 65.01 64.97 64.66 63.49 65.11 63.49 64.13 64.01 63.18 63.01 63.48 62.42 61.33 60.17 59.82 62.71 63.36 65.09 65.53 65.97 65.44 64.81 63.93 62.67 62.45 57.26
46.52 42.69 46.86 48.85 49.98 49.87 48.45 48.49 49.85 47.94 48.10 50.00 50.04 54.53 56.59 56.10 56.74 57.01 56.97 57.66 58.43 58.54 58.78 63.91 63.86 64.25 63.14 62.80 61.41 61.75 61.70 61.44 61.56 61.57 61.16 60.56 60.45 58.79 59.34 59.94 61.35 62.34 62.92 60.99 61.87 59.57 57.65 55.19 54.31
45.06 48.65 48.60 50.34 51.61 49.26 47.59 50.02 48.59 47.99 49.73 52.10 52.51 53.90 56.77 56.20 56.40 57.34 57.45 57.89 57.22 58.30 59.27 59.35 62.84 62.61 62.10 61.45 61.49 60.91 60.94 60.66 60.23 60.70 60.51 59.47 58.98 57.70 57.71 59.14 60.33 60.11 59.67 58.70 57.87 56.84 55.81 54.36 53.52
46.40 48.67 50.34 51.14 50.33 48.12 48.98 47.58 48.23 47.92 51.06 50.95 52.60 55.68 56.85 56.61 56.30 57.12 58.18 58.32 57.85 58.15 59.36 59.98 59.49 61.38 60.99 58.38 60.66 59.81 60.06 60.65 60.50 60.14 60.54 60.20 59.30 58.01 56.97 58.46 59.34 59.36 58.36 57.96 56.99 56.62 56.39 54.71 53.20
49.01 48.53 47.88 48.35 48.57 48.14 47.21 47.63 46.80 49.26 50.55 49.82 51.20 53.08 55.18 56.50 57.36 56.63 57.29 58.08 57.50 57.59 59.64 60.69 60.91 60.51 60.40 59.55 59.03 60.07 59.83 59.62 59.77 60.03 60.36 59.65 60.01 59.30 57.10 57.38 58.18 58.20 58.05 57.63 57.79 56.90 56.37 55.23 53.65
48.78 44.65 46.10 46.82 47.49 47.27 46.94 44.63 45.42 49.15 47.89 48.51 49.56 49.60 51.69 54.17 54.75 56.72 56.93 57.53 58.02 57.96 57.61 59.46 61.27 61.38 60.56 60.12 58.25 58.45 59.23 59.70 59.12 59.73 59.34 59.47 59.27 58.86 58.91 57.38 56.69 56.95 55.43 55.85 55.60 55.15 53.89 52.95 52.35
42.56 41.47 38.16 44.01 45.96 47.35 46.72 39.64 47.02 48.89 45.06 46.78 48.45 46.16 47.44 48.14 48.92 48.90 50.12 52.91 56.14 57.20 56.18 58.10 61.97 61.96 61.23 61.49 60.54 58.74 57.95 57.22 58.38 58.55 58.38 58.87 58.84 58.11 57.43 57.21 56.60 55.58 54.88 54.56 53.97 54.11 53.70 52.95 52.45
39.44 35.42 36.32 40.47 45.91 45.25 44.17 41.19 46.87 46.90 46.56 46.61 44.26 43.39 45.70 47.30 49.05 49.59 51.22 50.78 51.00 50.64 55.07 55.84 58.44 60.77 61.60 61.87 61.99 60.56 58.49 57.56 57.85 56.94 57.03 57.57 58.09 58.34 57.33 57.18 57.25 56.15 54.64 54.88 55.19 55.22 54.15 54.87 54.32
35.89 35.39 37.10 36.81 41.87 43.06 41.19 42.37 45.26 45.51 43.96 42.52 42.01 42.75 45.26 47.33 48.28 49.57 51.66 51.27 51.66 50.99 51.43 53.32 56.19 58.28 60.37 60.85 60.77 60.04 59.92 59.93 58.34 58.14 58.07 57.41 57.41 57.70 57.78 58.35 57.82 56.84 55.55 55.54 54.66 55.22 55.00 55.44 55.80
40.30 37.17 36.26 39.52 43.85 42.85 41.70 41.28 44.50 44.00 42.72 42.03 42.59 43.70 45.10 46.83 47.57 49.51 49.92 50.46 51.29 51.30 51.40 51.42 52.74 53.57 58.13 59.28 58.85 58.65 60.25 59.80 59.30 59.41 59.33 58.78 58.37 57.88 57.50 58.30 58.34 57.43 57.19 57.68 57.08 55.68 55.14 55.20 53.92
40.01 37.38 36.30 40.90 44.25 42.34 40.13 40.99 43.45 41.47 42.10 43.16 44.64 44.32 45.75 46.30 48.04 48.88 49.41 48.94 49.23 49.07 50.34 50.96 51.52 52.36 54.76 57.88 59.13 59.81 59.57 59.82 60.48 60.94 60.80 60.57 59.96 59.62 58.88 58.35 58.74 58.40 57.82 57.68 57.67 56.17 55.67 55.82 54.71
39.31 36.96 37.14 39.28 42.36 41.96 39.84 38.92 38.28 41.72 42.97 44.01 44.48 45.50 46.32 46.92 47.57 47.81 48.08 48.38 48.29 47.89 47.72 49.94 50.89 52.51 53.14 56.82 58.51 58.54 59.24 58.95 58.86 59.25 59.92 60.92 61.35 61.51 60.76 60.75 59.69 59.52 58.29 58.34 58.31 57.59 55.76 56.25 58.16
36.34 42.22 42.74 40.92 37.18 33.87 38.77 31.47 34.53 38.93 41.55 42.34 41.93 44.12 45.05 46.43 47.29 47.77 48.30 48.18 48.10 47.89 48.18 49.31 50.06 50.46 51.56 52.73 53.00 53.36 54.24 54.08 56.04 57.06 58.16 58.42 59.39 60.33 61.26 61.44 61.26 60.87 60.15 58.91 59.22 59.54 58.78 58.44 56.42
40.60 44.48 41.02 39.80 35.15 33.06 34.38 32.94 35.60 39.56 39.59 41.89 42.32 43.10 44.33 45.31 46.71 47.40 47.85 48.91 48.36 48.32 48.07 48.74 49.72 50.42 49.70 49.23 49.62 49.59 49.18 51.78 53.23 53.31 52.57 53.41 55.22 56.58 57.71 59.39 60.25 60.53 61.06 61.06 60.91 60.65 60.18 60.49 59.21
44.97 40.59 38.82 36.28 34.36 29.49 34.06 34.80 33.97 37.04 40.74 41.11 41.68 43.04 44.76 45.47 46.29 47.14 47.84 48.90 48.34 48.02 48.49 48.74 49.36 49.20 49.38 49.31 48.68 48.04 47.53 47.72 48.46 48.41 49.47 50.21 51.97 54.03 53.24 53.43 55.54 58.99 60.30 61.00 61.85 62.06 61.72 61.72 61.15
40.05 35.63 30.24 29.14 28.57 29.10 33.69 32.61 36.79 40.70 42.32 45.35 43.62 43.33 43.96 45.22 46.04 46.51 46.32 47.10 47.51 47.36 47.62 49.07 48.76 48.48 48.53 48.40 48.46 48.24 47.92 47.76 47.40 47.29 47.53 48.03 49.31 49.70 50.82 50.10 50.40 50.79 51.83 53.97 57.97 60.17 60.84 61.22 60.58
37.15 36.66 31.25 27.84 27.14 31.00 34.35 31.28 37.14 40.24 43.07 45.18 45.62 44.80 44.58 45.10 45.80 46.35 46.26 46.69 46.98 47.59 47.52 47.37 47.67 47.72 48.17 48.22 48.28 48.32 48.65 48.68 48.59 48.08 47.94 48.21 48.39 49.01 49.42 50.03 50.26 50.37 50.74 50.89 51.01 51.80 54.06 56.61 58.13
37.29 35.12 38.45 34.18 31.58 30.44 33.39 36.61 38.53 41.67 42.02 43.60 43.67 43.97 43.56 44.61 45.48 46.22 46.25 46.74 47.11 46.64 45.82 46.43 47.10 47.42 47.80 47.97 48.17 48.23 48.19 48.37 48.18 48.03 48.24 48.45 48.81 50.55 49.88 49.59 49.04 49.70 49.96 50.21 50.14 50.21 50.11 50.66 51.44
38.52 40.42 34.06 33.30 28.21 26.18 30.14 31.38 34.79 36.98 39.78 42.22 42.60 42.85 43.35 43.94 45.10 45.86 46.29 46.61 46.06 45.70 45.70 46.52 47.25 47.29 47.53 47.70 47.49 47.97 47.83 47.83 47.57 47.26 46.82 47.06 47.69 48.04 48.10 48.24 48.51 48.93 49.42 49.60 49.47 49.32 49.66 49.43 49.93
36.94 34.76 34.69 34.71 32.78 28.60 26.25 31.22 37.95 38.76 40.64 42.60 43.19 43.85 44.03 43.67 44.55 45.09 45.76 45.35 45.37 45.45 46.05 46.46 46.59 45.89 45.54 46.23 46.24 45.75 46.64 46.40 45.74 45.21 45.36 45.28 45.37 45.62 45.80 46.32 46.83 47.34 47.90 47.63 47.34 47.38 47.80 47.74 48.36
38.44 38.04 36.07 31.54 30.26 29.86 28.48 31.80 40.13 38.47 40.80 42.17 43.44 44.72 43.54 44.45 44.88 44.94 44.06 44.78 45.03 44.88 45.05 44.40 43.99 43.01 43.10 44.13 43.95 43.72 44.82 43.76 42.78 42.44 42.86 43.54 43.04 43.73 43.94 44.85 45.12 45.10 44.73 45.49 45.88 45.93 46.39 46.44 45.19

GFSSGP_sfc_wetblb_009.txt.gz
Wetbulb
66.58 59.97 50.70 52.27 45.16 43.85 40.32 44.80 47.35 49.58 49.52 48.27 48.96 48.01 47.22 47.44 46.74 42.71 55.72 62.36 64.61 65.34 68.16 70.67 73.31 72.84 72.14 71.29 70.15 68.91 67.88 66.51 65.68 66.47 66.22 68.47 67.62 66.82 66.10 65.70 66.01 66.65 65.63 63.17 64.04 65.06 66.55 65.23 67.35
62.80 57.03 50.70 47.56 41.86 38.05 39.88 45.31 47.78 50.36 52.83 49.93 48.56 48.90 47.04 46.86 53.92 56.53 57.01 62.82 65.80 66.97 68.53 69.33 73.12 72.86 72.29 71.05 69.60 68.83 67.51 66.84 66.15 66.35 67.60 68.79 67.41 66.24 65.99 65.02 64.31 64.40 63.66 63.55 64.33 64.30 65.13 64.33 66.93
56.81 52.00 46.79 43.84 39.60 38.61 40.68 46.26 48.84 51.63 53.23 48.79 47.16 48.57 47.47 48.22 53.41 56.09 59.20 64.98 66.09 66.97 68.46 69.24 73.05 72.87 71.43 70.66 69.45 68.50 67.63 67.38 66.76 67.03 68.32 68.91 68.24 66.90 66.08 64.67 64.35 63.61 63.37 63.28 64.33 63.95 63.61 63.64 64.42
51.71 48.07 44.01 40.00 38.08 42.96 43.98 47.30 47.32 48.51 53.00 48.96 47.65 47.77 49.95 53.41 53.84 58.27 61.24 65.11 65.28 65.93 67.18 70.15 73.30 72.21 71.19 70.24 69.60 68.36 67.80 67.26 67.17 67.71 67.64 69.44 68.09 66.77 65.89 64.43 64.03 63.90 63.59 63.28 63.43 64.16 63.64 63.50 63.71
48.28 43.34 37.54 35.66 37.39 41.80 44.29 46.60 47.40 48.49 50.91 49.86 48.61 47.73 49.54 53.81 58.78 59.52 61.51 64.60 64.42 64.90 67.34 70.36 73.04 72.26 71.10 70.09 69.40 68.39 67.31 67.30 67.24 68.58 68.31 67.80 68.11 67.24 65.16 64.44 63.90 64.19 63.89 63.93 63.15 63.35 64.25 63.96 63.48
46.34 42.16 34.61 32.54 36.33 41.36 42.93 45.37 46.56 47.67 50.17 49.64 46.76 47.35 49.70 55.13 58.60 59.24 60.83 62.81 64.83 64.90 67.68 70.15 71.93 72.22 71.72 70.45 69.41 68.62 67.62 67.56 66.94 66.92 67.07 65.97 66.58 66.39 65.47 65.55 64.82 64.55 64.75 64.46 63.97 63.38 63.36 64.13 64.19
44.43 40.63 35.57 34.30 36.70 40.00 43.59 48.24 47.57 48.47 48.78 49.19 49.85 46.68 51.43 54.49 58.68 59.65 59.24 61.19 63.45 64.98 67.15 68.57 70.09 70.62 70.97 70.48 70.15 69.78 68.41 68.08 68.10 67.90 67.41 67.23 67.15 66.14 65.92 65.84 65.34 65.64 65.60 65.85 65.41 64.58 63.70 63.46 63.93
45.57 42.80 36.62 35.55 36.25 39.37 44.95 47.72 49.45 48.29 47.52 50.48 50.40 48.28 48.88 53.31 58.41 59.00 58.50 59.08 62.44 65.01 67.15 67.33 68.04 68.54 67.66 67.07 69.77 69.47 68.87 68.60 68.95 68.09 67.45 66.58 65.70 65.76 66.42 66.96 66.14 66.06 66.32 66.18 65.81 65.08 64.42 63.42 63.31
47.01 40.31 36.70 38.44 38.21 41.44 46.51 46.58 49.67 51.29 48.86 50.48 50.69 50.56 53.55 55.28 58.43 57.20 56.49 56.49 59.92 64.16 65.04 66.58 66.27 65.74 65.70 65.46 66.88 68.85 68.56 68.13 67.45 66.50 66.09 64.86 61.78 61.12 62.51 64.56 65.41 65.68 66.36 66.62 66.05 65.36 64.65 64.04 63.41
45.09 39.96 41.86 44.81 42.63 43.99 47.72 46.93 48.29 48.56 47.98 48.43 49.55 55.65 55.78 56.49 56.41 56.50 55.80 55.82 56.34 61.78 63.26 64.91 64.70 64.18 64.04 66.19 64.41 64.13 64.47 64.19 63.08 62.54 62.19 61.82 60.28 59.64 61.68 62.54 65.18 65.41 65.73 65.97 65.77 65.46 64.96 63.80 56.65
45.01 41.92 45.86 47.52 48.15 48.83 47.79 47.36 48.60 46.67 46.06 49.16 49.32 50.36 55.01 55.55 56.15 56.39 56.18 56.19 56.20 58.73 61.70 64.34 63.32 63.54 62.79 63.65 61.91 62.18 62.05 61.46 60.83 60.94 60.71 60.36 60.21 58.58 58.79 58.83 59.58 60.95 62.14 61.44 62.59 60.85 59.52 56.18 54.76
43.35 47.51 47.62 49.35 50.28 48.87 47.08 48.21 46.87 47.40 48.91 51.24 51.06 51.08 55.12 55.42 55.75 56.41 56.10 56.24 56.42 57.41 58.30 62.31 63.71 62.73 62.29 62.62 60.44 61.04 61.50 60.54 59.47 59.91 60.22 59.20 58.31 57.48 56.92 57.42 57.84 58.18 59.27 58.77 57.92 57.25 56.78 55.45 53.99
44.93 47.72 49.59 50.28 49.92 48.32 48.33 45.82 45.92 47.22 50.08 50.18 50.77 51.46 54.18 55.42 55.56 56.34 56.87 56.99 56.68 57.20 58.30 58.33 61.58 62.96 62.46 60.58 59.92 59.76 60.37 60.51 60.07 59.55 59.84 59.54 58.35 57.87 56.73 56.65 56.85 57.51 57.89 57.47 56.90 56.40 56.39 55.21 54.30
48.51 48.46 48.71 48.20 48.14 46.96 45.98 46.26 45.31 47.67 49.17 49.03 48.81 49.93 51.98 55.13 55.54 55.19 55.19 56.02 56.57 57.07 57.79 59.26 58.97 61.58 62.03 61.20 59.32 59.99 59.26 59.48 59.17 59.10 59.76 59.63 59.64 58.25 57.14 56.50 56.55 57.24 57.27 57.26 57.27 57.15 56.51 56.13 54.91
47.75 43.37 45.04 46.16 47.17 46.04 45.97 44.11 43.96 48.40 46.83 46.47 46.71 47.28 48.61 50.76 52.97 54.95 56.22 56.39 57.23 57.68 58.11 58.23 59.72 59.56 59.69 60.21 58.66 59.91 59.63 59.25 58.79 59.38 58.77 58.94 58.81 58.38 58.52 56.93 55.80 56.50 56.48 56.54 56.46 55.79 55.24 54.41 54.18
41.71 40.46 37.47 43.75 44.65 45.73 46.49 39.47 45.97 48.21 45.50 46.38 45.39 43.34 44.46 46.57 47.41 48.13 49.71 49.44 49.41 52.22 56.11 56.71 60.29 60.42 59.41 59.60 58.50 58.51 58.36 58.73 58.71 58.59 58.44 58.27 58.81 58.19 57.12 57.72 57.13 56.29 54.93 55.11 54.68 54.73 53.99 53.65 53.75
40.12 34.54 35.87 40.03 44.03 42.84 42.57 39.82 46.14 45.56 44.55 45.11 42.09 42.93 45.70 46.75 48.35 48.80 50.56 50.29 50.43 50.05 49.89 52.69 56.16 58.86 59.76 59.66 59.41 58.21 56.90 56.87 57.54 56.79 57.14 57.68 57.90 57.60 57.44 57.26 57.72 56.22 55.58 54.61 54.92 54.83 53.45 54.28 53.85
36.45 34.82 36.69 36.17 40.82 40.90 39.30 40.88 45.65 44.05 43.09 40.41 40.70 42.63 44.69 46.59 47.22 48.20 49.74 49.54 50.58 50.15 50.23 50.85 54.02 56.95 58.95 59.33 59.53 59.02 58.54 56.92 56.32 56.07 56.57 56.70 56.92 57.12 57.20 57.69 57.44 56.49 56.25 55.81 54.38 54.70 54.83 54.40 55.30
40.31 37.07 35.14 37.79 41.50 39.49 39.57 40.76 43.54 43.54 41.68 40.59 41.96 43.15 44.62 46.11 46.86 48.12 48.29 48.27 48.66 49.50 50.18 49.93 51.23 51.79 56.58 58.22 57.69 57.51 58.20 58.79 58.49 58.29 58.20 57.76 57.27 56.89 56.20 57.16 57.27 57.04 56.55 57.15 57.12 55.32 54.50 54.61 54.29
40.21 36.10 36.27 40.10 42.24 40.01 38.47 39.75 42.41 41.75 41.26 41.11 42.51 43.08 44.47 45.31 46.13 47.30 48.01 47.39 47.12 46.90 47.64 48.93 50.44 51.63 53.94 57.52 58.27 58.77 58.45 58.77 59.43 60.05 60.11 59.86 59.36 58.81 57.76 57.11 57.72 57.72 56.98 56.69 56.70 56.14 55.45 55.27 55.29
39.13 36.40 35.92 37.04 41.06 40.11 38.19 37.67 39.76 40.33 41.31 43.40 43.61 44.39 45.58 45.67 45.77 46.03 46.44 46.55 46.37 46.36 46.52 48.50 48.76 49.52 51.22 53.88 57.24 57.45 57.51 57.28 56.40 56.73 57.70 58.21 58.84 59.91 59.88 59.49 59.08 58.75 57.51 57.33 57.86 56.94 55.99 55.57 57.34
41.17 41.74 40.29 39.28 36.54 32.93 37.95 30.59 35.79 37.99 39.87 41.59 41.17 42.85 44.67 45.41 45.82 46.60 46.96 46.55 46.60 46.53 47.12 48.25 48.95 49.41 49.92 49.50 50.15 50.42 50.89 50.86 52.21 53.56 53.11 52.86 53.83 54.90 55.45 56.52 57.74 58.76 59.66 58.38 58.48 59.49 58.97 57.84 56.27
39.98 42.37 39.98 38.98 35.01 31.42 32.95 31.75 35.83 36.94 38.46 40.53 40.96 41.74 43.26 45.27 46.17 46.43 46.90 47.54 46.99 47.24 46.93 47.47 48.58 48.93 48.29 48.12 47.56 47.28 46.81 47.47 48.68 48.42 48.42 49.24 50.18 51.61 51.13 50.58 51.23 52.08 54.37 56.61 58.37 59.34 60.10 60.28 58.87
43.10 39.32 37.59 34.86 33.28 28.38 33.02 33.83 34.15 35.14 39.66 39.27 40.47 41.66 43.72 45.05 45.37 46.04 46.85 47.52 46.78 46.44 47.01 47.41 48.18 47.76 47.92 48.61 48.18 47.14 46.47 46.86 47.52 47.08 47.76 48.07 48.59 49.46 49.85 49.70 48.91 48.52 48.93 49.68 50.90 52.42 54.14 56.82 58.15
39.15 35.40 29.67 28.35 28.13 28.04 31.76 31.03 38.03 38.97 40.62 43.43 42.72 42.00 42.98 44.70 45.02 45.31 45.65 46.06 46.24 45.87 46.00 47.74 47.28 47.00 47.33 47.67 47.67 47.46 47.25 46.93 46.52 46.38 46.38 46.46 47.25 47.63 48.15 47.74 48.01 48.20 48.49 48.65 48.61 49.02 49.47 50.63 51.44
36.58 36.81 30.59 26.13 25.78 28.35 32.50 29.51 36.58 39.29 40.66 44.27 44.88 43.25 43.12 44.00 44.49 44.86 45.32 45.62 45.16 45.30 45.44 46.15 46.60 46.72 47.08 47.11 47.16 47.03 47.04 47.13 46.74 46.24 46.13 46.00 46.04 46.48 46.35 47.22 47.36 47.50 48.19 48.66 48.79 48.44 48.40 48.80 48.57
35.97 34.03 37.56 33.43 29.69 28.33 31.46 34.91 38.12 40.84 39.77 41.53 42.38 42.45 42.35 43.67 44.22 44.77 45.25 45.01 44.20 44.26 44.98 45.95 46.22 46.19 46.29 46.07 46.12 46.05 45.63 45.24 45.04 44.86 44.64 44.64 44.46 46.13 45.36 45.42 45.31 46.14 46.79 47.46 47.37 46.44 46.44 46.93 47.09
38.19 39.80 33.42 31.94 27.53 25.62 28.70 29.68 34.36 36.89 37.97 39.98 40.85 41.45 42.29 43.26 44.23 44.63 44.91 44.04 44.06 44.90 45.47 45.54 45.05 44.30 44.44 44.35 44.18 44.74 44.51 43.87 43.46 42.86 42.12 42.36 42.79 43.01 42.87 43.01 43.88 44.35 44.77 44.28 43.90 44.75 45.76 45.36 45.85
35.14 33.26 33.57 34.17 31.32 27.34 25.29 30.36 36.86 37.80 40.37 41.14 41.96 42.60 42.64 42.43 44.00 44.31 43.52 43.57 44.43 44.79 44.13 43.27 42.51 42.11 42.02 42.61 42.24 41.89 41.90 41.18 40.04 39.23 39.39 39.69 40.04 40.28 40.35 40.53 40.81 40.46 40.38 41.18 42.51 42.28 43.06 43.67 43.38
36.16 36.08 34.69 30.58 29.01 27.92 26.90 30.68 37.98 39.01 40.36 42.37 42.69 42.83 42.27 43.08 43.65 43.40 43.03 43.82 43.79 43.10 41.93 40.81 40.59 40.20 40.48 40.80 40.01 40.00 38.54 37.48 36.80 37.01 37.42 37.79 37.10 37.95 38.06 37.81 37.59 37.03 37.88 39.12 39.58 38.69 41.62 40.24 39.66

GFSSGP_sfc_wetblb_012.txt.gz
Wetbulb
66.18 56.92 50.39 51.35 43.93 42.61 38.99 43.58 47.14 47.92 48.66 47.74 48.37 46.42 46.36 46.49 45.98 43.30 54.03 60.99 62.54 64.34 65.79 70.72 73.64 73.02 72.66 71.61 70.85 69.31 68.32 66.53 66.00 66.41 65.93 66.84 67.40 67.10 66.19 65.97 66.06 66.25 64.71 63.19 64.31 65.08 65.85 65.07 66.90
58.45 54.84 50.61 46.65 40.88 36.84 38.69 43.78 46.34 48.10 51.54 52.31 47.72 47.40 46.64 46.74 52.94 55.49 56.32 61.47 64.72 65.34 67.07 69.06 73.22 72.90 72.37 71.78 70.56 69.23 68.29 67.09 66.14 66.29 66.58 68.97 68.03 65.99 65.28 64.84 64.18 64.65 64.02 63.46 64.11 64.41 65.01 64.93 65.78
54.41 51.49 46.57 43.25 39.13 37.46 39.08 44.54 47.60 49.39 49.67 49.57 46.14 48.01 46.71 47.77 51.61 54.94 58.54 62.27 65.26 66.02 67.83 68.80 72.95 72.89 72.51 71.40 70.18 69.31 67.91 67.21 66.56 66.34 66.76 69.24 67.90 67.29 66.69 64.74 64.48 64.09 64.02 63.00 64.00 64.61 64.78 63.76 64.74
51.18 47.61 43.26 39.04 36.89 42.01 43.01 44.54 45.50 46.07 49.89 49.53 46.53 47.00 49.43 51.21 53.01 57.39 60.94 64.40 64.55 65.34 66.66 69.48 72.69 72.92 72.02 71.00 69.86 69.03 67.91 67.52 66.77 67.00 67.73 69.25 68.89 67.29 66.53 64.63 64.00 63.92 63.78 63.77 63.52 64.89 64.25 64.39 64.29
47.71 43.17 37.08 34.55 35.76 40.36 42.90 44.96 45.06 45.23 47.76 49.78 46.48 45.92 48.28 52.09 58.42 58.04 62.77 64.71 64.00 64.80 66.34 68.28 72.04 72.75 71.69 71.02 70.09 69.01 68.05 67.49 67.04 67.76 68.51 68.89 69.11 67.82 66.35 64.99 64.16 64.15 64.11 64.02 63.90 63.65 64.50 64.49 64.24
46.07 42.12 35.56 31.77 34.20 39.99 42.19 44.37 45.13 45.71 47.64 50.74 45.35 46.06 48.87 53.82 56.88 58.00 62.66 63.13 64.69 64.77 66.63 68.41 71.68 72.44 72.06 70.89 70.07 69.19 67.81 67.51 67.13 67.16 67.25 66.78 66.71 67.93 65.68 65.43 65.09 64.59 64.62 64.67 64.65 64.23 63.66 63.75 64.65
43.87 40.65 36.43 33.82 35.60 38.57 42.28 47.15 44.45 46.71 46.08 47.42 47.56 45.75 49.90 53.18 57.83 58.86 59.92 61.67 63.51 64.64 66.17 67.77 69.40 70.65 71.26 70.94 70.45 69.76 68.64 68.22 67.96 67.76 67.69 67.16 67.14 65.71 66.02 65.94 65.87 65.48 65.37 65.68 65.94 65.60 65.09 64.24 63.92
44.73 42.75 36.40 35.46 35.86 38.10 43.38 47.49 47.71 46.08 46.91 50.56 49.23 46.23 47.37 52.38 57.26 58.14 57.92 60.29 60.36 63.11 65.44 66.22 67.53 68.47 67.95 67.61 70.03 69.82 69.52 68.90 68.83 68.68 67.85 66.78 66.08 65.76 66.54 66.83 66.83 65.82 65.78 66.49 66.35 66.28 65.76 65.27 64.38
45.74 40.13 36.95 38.70 37.83 40.16 44.64 46.27 48.64 49.33 47.36 48.94 48.93 49.53 52.32 55.65 57.20 56.08 54.59 56.15 58.78 62.83 63.95 65.59 66.42 66.73 66.60 66.00 66.50 69.17 69.04 68.35 68.02 67.12 66.19 64.89 62.02 61.20 61.67 63.18 65.40 66.01 65.74 65.93 66.63 66.72 65.97 65.72 64.91
44.31 39.49 41.44 44.52 42.08 41.97 46.32 46.11 48.04 47.02 46.46 46.70 47.61 52.52 55.21 55.56 54.77 55.70 55.21 55.19 55.68 59.94 62.66 65.79 65.15 65.23 65.01 66.84 64.72 64.98 64.77 64.24 63.57 62.69 61.37 62.01 60.50 59.68 60.90 61.44 63.89 65.17 65.73 65.67 65.61 65.69 66.05 64.80 58.43
44.16 41.28 44.90 46.79 47.02 46.72 47.10 47.24 48.04 45.32 44.96 47.55 48.37 49.99 51.78 54.46 55.63 55.84 55.54 55.51 55.60 56.35 61.36 64.08 63.83 64.08 63.59 64.21 62.95 62.46 62.42 61.62 61.23 60.67 60.30 60.20 60.24 58.42 58.06 57.76 57.83 58.20 60.85 60.09 61.35 60.65 59.52 58.02 56.40
42.82 46.40 46.29 48.46 49.37 48.22 46.68 47.84 46.34 46.34 47.88 50.32 49.87 49.83 49.28 53.85 54.72 55.69 55.45 54.74 54.07 56.37 58.93 62.78 63.68 63.01 62.45 62.60 61.63 61.36 61.17 60.58 59.74 59.54 59.79 58.71 58.20 57.52 56.68 56.34 56.57 56.54 57.49 57.72 58.02 57.75 57.54 56.64 55.94
44.46 46.54 48.47 49.24 49.26 48.25 48.05 45.62 45.21 46.46 49.14 49.98 49.41 49.37 48.97 51.57 54.08 54.54 55.65 56.06 55.84 56.12 57.56 58.45 62.42 63.27 62.39 61.07 60.58 59.70 59.83 60.80 60.14 59.26 59.23 59.00 57.91 57.29 56.74 56.35 55.97 56.19 56.84 56.92 56.97 56.87 57.30 56.69 55.99
47.82 48.19 48.39 48.32 48.37 47.03 45.71 46.18 45.19 46.43 47.42 47.96 47.95 47.59 47.38 49.76 53.75 54.21 55.15 55.60 55.60 56.52 56.89 58.10 58.37 62.19 62.10 62.07 60.41 60.38 59.12 59.40 59.04 58.86 59.12 58.89 58.61 57.70 57.20 56.45 56.20 55.90 56.71 57.35 57.37 57.39 57.28 56.88 55.71
47.74 43.32 45.13 45.00 45.72 45.82 45.48 43.90 43.21 47.48 45.25 46.24 45.68 44.68 45.95 46.64 48.56 48.75 51.07 50.79 51.15 52.53 55.76 57.04 58.22 58.57 61.12 61.13 60.35 60.38 59.77 59.52 58.46 58.95 58.46 58.51 58.45 57.82 58.07 56.74 56.24 56.87 56.48 56.75 56.63 56.42 56.23 55.94 55.77
42.56 39.83 36.80 43.46 43.77 44.89 44.62 39.60 44.63 46.53 44.80 45.80 44.61 42.60 44.01 46.91 47.73 48.34 49.66 49.44 49.66 49.66 49.94 50.73 58.37 58.92 58.25 59.55 59.14 59.50 59.15 59.04 58.82 58.11 58.17 58.14 58.45 57.94 57.08 57.38 57.59 57.59 55.48 55.50 55.07 55.29 54.61 54.14 54.33
39.24 36.06 35.06 39.60 43.42 42.47 41.57 38.39 43.54 44.29 43.90 42.81 41.34 41.80 44.03 45.90 47.30 47.44 48.65 48.85 49.45 49.04 49.21 50.45 52.99 56.36 58.13 57.76 57.86 57.43 57.19 57.52 57.71 57.22 57.12 57.44 57.79 57.83 57.28 57.34 57.74 56.65 55.37 54.41 54.66 54.92 53.41 54.77 54.82
35.60 34.63 35.35 36.54 39.97 39.68 39.03 39.29 44.63 43.71 42.33 40.74 40.32 41.67 43.20 45.33 45.96 46.87 47.86 47.38 48.11 48.57 49.54 50.20 51.99 52.70 56.94 58.05 57.68 57.42 56.76 55.54 55.27 54.96 55.39 56.05 56.31 56.60 56.41 56.68 56.67 56.22 55.27 55.27 54.25 54.63 56.46 55.28 55.73
40.36 36.67 36.71 37.70 40.41 37.65 37.88 37.96 41.93 43.27 41.88 40.39 39.91 42.16 42.62 45.08 45.63 47.06 46.84 46.70 47.22 47.23 47.64 48.22 50.96 52.14 56.42 57.04 56.52 56.47 56.75 57.54 57.84 58.49 58.57 57.72 56.98 56.57 55.61 55.64 55.83 55.91 55.29 56.21 57.23 57.23 55.02 55.22 55.01
39.61 38.76 35.27 40.05 40.66 38.18 38.41 38.54 41.62 41.65 41.64 40.24 41.30 42.40 43.30 43.96 45.37 46.23 46.42 45.90 45.90 45.85 46.83 48.31 48.67 49.72 52.63 56.65 57.11 57.51 57.42 57.84 58.43 57.88 56.76 56.97 58.36 58.45 58.22 57.12 56.70 56.65 56.08 56.04 55.63 55.74 56.38 56.71 56.71
38.90 38.55 36.71 38.15 39.52 39.06 36.83 36.33 37.71 39.33 40.03 41.15 42.23 43.24 43.98 44.53 44.87 45.01 45.37 45.21 45.39 45.63 45.88 47.67 47.64 48.64 49.26 50.31 53.53 53.27 53.89 52.86 51.96 52.22 51.25 51.81 52.54 51.75 51.35 52.00 53.09 54.38 56.18 56.51 56.80 57.17 57.21 56.09 57.30
39.60 41.81 40.87 38.38 35.51 31.77 36.60 29.88 34.83 37.09 38.34 40.10 40.31 42.55 43.58 44.48 44.83 45.65 46.12 45.87 45.82 45.75 46.56 47.29 48.03 48.26 48.64 47.97 48.52 47.77 47.23 47.00 48.02 48.61 48.02 49.06 49.62 49.82 49.35 49.12 48.88 48.95 50.93 49.83 51.89 52.97 55.60 55.98 55.14
42.07 44.01 41.70 40.24 34.15 29.88 32.18 30.75 34.02 34.72 36.91 39.24 39.83 41.12 42.77 43.87 44.82 45.34 46.10 46.60 46.15 46.38 45.82 46.16 47.69 48.00 47.88 48.05 47.28 47.47 46.52 46.37 46.76 46.91 46.64 46.88 47.62 48.39 48.28 47.84 47.19 47.10 47.86 47.70 47.80 48.21 48.76 49.58 51.28
44.83 41.02 39.02 34.79 32.61 27.73 32.16 32.93 31.69 34.29 36.65 37.54 39.46 40.64 43.11 44.03 44.55 45.30 45.76 45.90 45.13 45.30 45.86 46.27 47.52 47.07 47.47 47.85 47.31 46.55 45.52 45.40 45.47 45.22 45.08 45.71 46.16 46.69 46.78 46.74 46.52 46.28 46.52 46.97 47.40 47.48 47.06 47.50 48.34
41.83 38.01 31.41 28.04 27.69 27.51 30.50 29.30 34.04 37.43 39.04 41.42 41.84 41.02 42.33 43.76 43.86 44.41 44.41 44.38 44.42 44.57 45.51 47.00 46.68 45.99 46.46 46.59 46.19 45.70 45.16 44.40 43.85 43.74 43.79 43.09 43.53 43.83 44.14 44.30 44.70 45.07 45.73 46.35 46.84 46.68 46.42 46.61 46.70
39.22 35.67 29.86 25.98 24.97 27.27 30.75 28.45 34.84 37.56 39.85 41.01 43.67 42.77 42.64 43.30 43.34 44.13 44.18 43.73 43.57 44.59 45.14 45.51 45.38 44.95 45.11 45.21 44.83 44.10 43.71 43.90 43.11 42.43 42.36 41.95 41.99 42.41 42.21 42.74 43.04 43.65 44.26 44.70 43.91 43.86 44.66 45.16 45.05
35.28 34.71 36.40 31.67 27.63 27.57 30.66 33.53 38.78 39.44 39.32 39.02 40.77 41.75 41.80 42.70 43.29 43.84 43.56 42.98 43.32 44.20 44.54 44.31 43.82 43.46 43.32 43.03 43.19 42.01 41.21 40.49 39.94 39.87 39.42 39.49 39.65 41.22 40.47 40.07 40.00 40.58 40.49 40.13 40.46 41.51 41.59 41.83 43.15
37.86 39.56 32.72 31.44 26.89 25.17 27.97 28.47 33.03 36.48 37.99 38.48 38.95 40.12 41.11 42.31 43.14 43.37 43.06 42.81 43.75 44.16 43.16 42.27 42.10 41.55 41.48 41.10 40.96 40.03 38.64 37.82 37.34 36.97 36.20 36.42 36.96 37.22 37.22 37.01 36.84 36.86 36.50 37.22 37.38 40.11 37.93 38.98 41.71
34.81 33.38 32.60 33.77 30.72 26.76 24.72 29.66 35.44 36.59 37.42 39.61 39.62 40.48 41.05 42.18 43.14 43.01 42.39 43.25 43.69 42.55 41.25 40.22 40.01 39.90 39.26 39.23 38.48 36.69 35.97 35.36 34.76 34.35 34.39 34.33 34.46 34.72 34.83 34.64 34.88 34.51 34.47 35.05 35.05 36.95 36.08 37.68 37.23
35.75 35.05 34.35 30.63 27.57 26.63 26.22 30.09 37.16 37.08 38.09 40.31 40.88 41.62 41.38 42.41 43.26 42.46 42.19 43.01 42.16 40.49 39.26 38.16 38.10 37.81 37.51 37.86 36.20 34.53 33.83 33.10 32.17 32.17 32.62 33.07 32.14 33.24 33.16 33.00 33.10 32.93 33.28 33.46 34.07 33.26 33.83 35.53 34.12

GFSSGP_sfc_wetblb_015.txt.gz
Wetbulb
64.79 56.74 55.07 56.21 49.48 47.83 44.24 47.40 51.06 51.29 53.07 55.17 53.43 51.39 51.94 52.75 50.97 50.54 60.32 64.60 65.14 66.98 67.78 72.02 74.11 73.71 72.94 71.99 71.25 69.76 68.87 67.50 66.85 66.35 65.57 66.56 67.16 66.63 66.47 66.25 65.68 65.73 64.94 63.87 64.39 65.54 66.06 66.24 65.64
58.84 55.42 54.94 51.25 45.64 42.10 43.64 48.27 49.71 52.05 53.29 54.82 52.60 52.28 51.93 52.28 57.04 59.01 61.59 64.07 65.84 67.22 68.33 71.49 74.00 73.32 72.85 72.16 71.36 69.95 68.75 67.33 66.36 66.35 66.54 67.16 68.44 67.01 65.31 64.59 64.22 65.47 64.12 63.47 63.77 65.31 65.25 65.70 65.34
55.93 53.65 51.29 47.26 43.07 42.09 43.93 48.94 50.75 50.98 50.77 51.14 51.94 52.89 52.57 53.37 55.87 59.27 62.81 64.99 66.89 67.27 68.69 70.94 73.32 73.28 72.89 72.33 71.34 69.88 68.68 68.05 66.79 66.33 67.21 68.70 68.36 67.28 66.84 65.36 64.62 64.20 64.17 63.14 63.57 64.75 64.07 64.97 64.98
53.37 52.05 48.02 43.37 41.73 46.28 47.29 49.89 49.15 48.51 53.06 52.94 51.75 51.19 54.42 56.54 58.54 61.21 63.44 65.69 66.89 67.72 69.18 70.83 72.95 73.06 73.17 71.89 70.73 69.82 68.62 67.78 67.27 66.58 67.15 68.59 69.30 68.06 66.92 65.43 64.19 63.72 63.85 63.95 63.81 64.00 64.97 64.64 64.62
51.36 47.82 42.17 40.06 40.55 44.25 47.04 48.31 48.00 48.67 50.16 52.15 51.99 51.68 53.40 57.47 61.82 61.86 65.26 65.63 66.40 67.72 69.39 70.19 72.09 72.66 72.85 71.54 70.43 69.69 68.62 67.88 66.93 67.26 68.04 68.21 69.59 68.51 66.73 65.55 64.37 64.00 64.11 64.00 64.01 63.99 63.81 64.76 64.81
50.60 47.00 41.68 39.80 39.75 43.07 45.31 47.03 47.95 49.20 50.34 52.33 50.82 51.09 54.10 58.57 61.37 61.93 65.38 66.10 66.96 67.62 68.77 69.54 71.06 72.77 72.56 71.74 70.73 69.92 68.70 68.02 67.21 67.28 67.42 67.61 67.58 67.61 66.51 65.92 65.04 64.82 64.62 64.73 64.53 64.83 64.54 64.02 64.05
49.22 45.92 42.38 40.39 40.97 42.74 44.85 49.53 48.88 49.21 49.19 51.15 52.16 50.76 54.36 57.85 61.02 62.12 65.01 65.96 66.83 67.61 68.32 69.18 70.22 71.84 71.66 71.64 71.14 70.63 69.41 68.47 68.33 68.06 67.87 67.76 67.17 65.85 65.62 65.78 65.95 66.01 65.68 65.06 65.59 66.30 65.94 65.59 64.98
48.31 47.00 40.93 41.36 41.56 42.56 46.40 49.60 51.10 50.09 50.68 53.72 53.60 51.22 52.99 57.16 60.31 61.56 62.29 64.30 65.46 66.64 67.81 68.65 69.79 71.47 71.35 70.94 70.37 70.22 69.85 69.34 69.10 68.77 68.08 67.05 66.28 66.12 66.32 67.00 66.20 66.23 65.91 65.82 66.46 66.38 66.61 66.24 65.92
49.24 44.13 41.09 42.88 41.06 45.39 47.44 49.02 51.64 52.81 51.14 51.65 53.10 54.29 56.82 59.20 59.85 60.25 60.19 60.64 63.21 64.72 66.48 68.13 69.09 70.58 70.68 70.28 69.42 69.67 69.18 68.75 68.16 67.69 66.77 66.03 66.25 65.38 64.55 64.16 64.58 65.29 65.89 65.77 65.70 66.30 66.60 66.57 65.85
47.75 43.64 43.90 47.29 45.62 45.58 48.10 49.11 50.67 50.47 49.67 50.58 51.97 54.69 57.80 58.86 59.27 59.38 59.12 59.66 60.07 62.94 65.27 67.04 68.14 69.27 69.95 69.33 69.43 69.18 68.78 68.57 67.78 67.05 66.36 65.96 65.50 64.72 63.42 62.58 63.02 64.26 64.87 65.49 65.67 65.61 65.78 65.77 64.94
46.92 44.42 46.94 48.60 48.79 48.48 48.55 49.56 51.25 49.16 48.72 50.62 51.51 53.16 53.79 56.36 57.91 58.66 59.00 59.18 59.74 60.96 64.18 66.16 66.91 68.28 68.79 68.96 68.76 68.12 67.88 67.65 67.10 66.33 65.51 64.52 64.16 63.97 63.54 63.24 63.35 63.37 61.79 63.07 63.21 63.47 63.66 63.78 63.75
45.51 47.44 48.25 49.97 50.98 50.70 49.11 50.61 49.30 49.28 51.79 53.24 53.10 52.47 51.85 52.76 53.89 56.50 58.34 59.35 59.57 60.03 61.46 64.64 66.70 67.20 67.68 68.09 67.82 67.44 66.55 66.39 65.96 65.43 64.66 63.80 63.50 62.94 62.70 62.52 62.75 62.40 62.66 62.33 62.56 62.27 62.57 62.60 62.70
46.19 48.40 49.25 50.12 50.26 49.75 50.20 48.83 49.28 49.21 51.91 52.83 51.28 51.80 51.54 51.39 52.91 56.71 58.91 59.81 60.19 59.29 60.71 61.59 64.77 66.30 66.97 66.64 66.77 66.30 65.71 65.55 65.63 65.16 64.58 63.71 63.03 62.52 62.83 62.66 62.38 62.27 62.20 61.92 61.86 61.85 61.60 61.56 61.71
49.36 49.60 50.16 50.25 50.79 49.45 47.91 49.37 47.85 52.09 51.33 50.86 50.24 50.33 49.70 49.61 53.23 57.38 57.86 58.47 58.76 59.18 59.65 60.95 61.26 64.52 66.05 66.05 66.05 65.77 65.29 64.96 64.33 64.26 64.08 63.40 62.94 62.35 62.05 62.14 61.94 61.83 61.99 62.04 61.67 61.51 61.38 61.31 61.39
49.51 46.81 47.63 47.65 48.64 48.39 48.04 45.34 44.80 51.18 49.89 49.57 49.45 48.13 48.52 49.37 51.10 51.30 52.13 52.58 52.78 53.80 54.35 55.29 59.02 61.52 63.99 65.14 65.50 65.28 64.79 64.01 63.70 63.41 63.24 62.87 62.78 62.69 62.41 62.09 61.69 61.81 61.83 61.43 61.26 60.97 60.58 60.14 60.40
46.03 45.00 42.33 47.09 46.84 47.22 47.38 43.45 47.72 47.74 47.39 48.02 47.95 47.16 48.65 49.45 50.01 51.00 51.73 52.73 53.36 53.59 54.10 54.96 55.69 60.63 61.73 63.21 63.78 64.00 63.89 63.85 63.66 63.23 62.86 62.36 62.24 62.23 61.96 61.38 61.48 61.95 61.34 60.65 60.26 60.01 59.32 58.80 58.01
41.95 39.83 38.75 43.22 46.67 46.55 45.14 42.57 46.82 47.92 47.54 47.27 46.80 47.43 48.44 49.14 50.07 50.00 50.81 51.33 52.20 53.10 54.14 55.59 56.43 57.60 60.38 60.85 61.84 62.01 61.86 62.21 62.51 62.09 61.77 61.64 61.46 61.43 61.13 61.03 61.14 61.08 60.43 59.97 59.48 59.36 58.84 58.43 58.77
38.29 37.95 38.72 40.16 44.02 43.00 42.10 41.84 45.33 46.44 46.15 47.02 46.49 46.78 47.80 48.26 48.29 49.32 50.12 50.64 51.23 51.97 53.01 55.07 56.60 58.33 60.31 60.88 60.96 61.25 61.31 61.14 61.04 61.12 61.08 60.63 60.50 60.11 59.94 60.14 60.23 60.33 59.94 60.02 59.91 58.83 59.56 58.82 58.66
40.60 39.92 41.11 42.49 43.35 41.78 41.23 40.46 44.20 46.35 45.39 45.25 44.24 46.01 47.14 47.86 48.87 49.27 49.61 50.06 51.12 51.17 51.94 52.22 55.16 57.17 60.53 60.68 60.73 61.17 60.49 59.75 58.05 57.61 57.67 58.02 58.95 59.73 59.13 58.84 58.36 58.84 58.77 58.81 59.15 58.60 57.94 58.30 59.67
41.41 40.04 38.49 41.63 42.55 41.90 41.52 41.43 44.66 44.84 45.05 45.46 44.23 45.51 46.91 47.65 48.15 48.43 48.98 49.47 49.52 49.95 50.89 51.45 51.85 52.93 56.87 60.33 60.64 60.77 58.33 55.89 55.00 54.56 53.97 53.89 52.83 52.68 52.47 52.62 52.78 53.27 53.79 53.77 54.13 55.00 54.25 55.53 57.62
40.91 39.12 38.66 40.66 41.53 41.74 39.44 39.72 41.05 43.83 44.20 43.63 44.26 46.42 47.02 47.62 47.38 47.65 48.37 48.78 49.37 49.26 49.86 50.89 51.42 51.80 52.22 53.82 55.04 54.80 54.55 54.07 53.07 51.90 51.54 51.62 51.84 50.95 50.67 50.73 50.63 50.87 51.45 50.62 51.37 51.76 51.29 49.92 51.84
40.13 42.88 42.82 40.92 40.33 36.43 40.60 33.66 38.33 42.52 41.72 42.56 43.49 45.44 46.32 47.02 47.68 47.89 48.10 48.60 48.91 48.96 50.15 50.94 51.14 51.69 51.73 52.71 52.12 51.39 50.83 49.46 49.83 50.03 50.17 50.07 50.35 49.93 48.99 49.23 49.33 49.42 49.81 49.25 49.64 49.93 49.82 49.13 47.88
42.57 45.11 43.62 42.26 38.81 35.39 35.90 34.85 38.34 38.92 39.41 41.38 42.64 44.41 45.96 47.08 47.87 47.40 47.87 48.31 48.57 49.36 49.38 50.38 50.73 50.48 50.76 50.98 50.95 50.30 48.89 49.05 48.83 48.35 47.80 48.02 48.18 48.59 47.04 47.36 47.68 47.51 47.84 48.29 48.40 47.99 47.98 48.41 47.77
42.76 40.63 39.91 38.19 36.92 31.11 34.76 36.09 36.61 38.46 40.14 40.58 42.36 43.82 45.63 46.29 47.22 47.57 47.63 47.90 48.09 49.12 49.66 50.16 49.80 48.93 49.18 49.17 48.80 48.09 47.28 46.41 45.76 45.41 44.67 44.89 45.18 45.73 44.74 44.76 44.97 45.44 45.19 45.60 45.63 46.36 46.68 46.84 47.04
42.22 41.14 33.54 30.63 30.88 30.38 33.64 32.70 37.85 40.42 41.85 43.25 43.70 43.85 45.35 46.58 46.79 46.82 46.76 47.03 47.62 48.28 48.89 49.04 48.72 47.30 47.61 47.04 46.32 46.23 45.31 44.52 43.16 42.59 41.84 41.37 41.28 42.25 41.91 42.42 41.88 42.38 42.54 42.41 42.72 43.18 45.13 45.29 44.98
41.49 40.58 33.36 28.08 27.68 30.48 32.77 31.59 38.05 41.61 42.93 42.93 44.68 45.07 45.49 45.84 46.50 46.60 46.65 46.68 47.19 47.46 47.51 47.22 46.58 45.86 46.01 45.12 43.64 43.12 42.81 42.05 41.06 40.59 40.20 39.73 39.65 40.33 40.58 40.33 40.10 40.07 39.86 39.41 40.25 40.81 43.88 42.50 42.69
38.69 37.36 39.64 32.81 31.64 30.61 33.64 36.73 41.40 42.07 41.69 41.35 42.16 43.78 44.94 45.42 45.62 46.15 45.87 46.07 46.68 46.60 46.00 45.57 44.82 44.22 44.37 43.15 41.40 39.96 39.53 38.95 38.42 38.49 38.63 38.32 38.43 38.35 38.32 38.45 37.98 38.37 38.08 37.97 38.41 38.48 39.77 39.19 40.15
41.27 41.98 35.93 33.78 29.19 27.54 31.24 31.69 36.17 39.23 39.74 40.81 40.54 42.74 43.86 44.79 45.12 45.45 45.06 45.58 46.04 44.86 44.09 44.04 43.32 42.39 42.02 40.58 39.50 37.84 37.44 37.24 37.13 37.08 36.25 36.31 36.73 36.91 36.66 36.41 36.53 36.67 36.54 36.68 36.63 37.03 37.73 37.12 37.85
36.78 35.83 35.26 36.12 33.22 29.94 28.06 32.87 38.40 39.01 39.61 40.53 41.35 42.88 43.98 44.54 44.95 44.97 44.57 45.69 44.56 43.20 42.47 41.78 41.15 40.74 40.00 38.37 36.95 36.10 35.79 35.69 35.61 35.22 35.31 35.34 35.53 35.40 35.02 34.83 34.89 34.85 34.76 35.17 35.11 35.27 35.98 35.30 36.44
38.93 37.33 36.81 32.74 29.73 29.14 29.99 33.25 39.72 38.69 38.86 40.17 41.75 42.82 43.85 45.15 45.06 44.49 44.75 44.22 42.47 41.03 40.16 39.54 39.12 38.71 38.04 36.55 35.43 34.71 34.63 34.41 33.95 33.85 34.17 34.53 33.89 34.37 33.95 33.86 33.67 33.69 33.66 34.00 33.71 33.59 34.73 34.74 34.90

GFSSGP_sfc_wetblb_018.txt.gz
Wetbulb
67.08 60.30 62.29 60.87 52.04 52.35 47.79 49.80 55.29 53.42 54.81 56.68 57.16 55.74 55.50 56.49 54.60 53.21 65.68 68.75 67.96 69.10 69.14 72.87 74.42 73.89 73.11 72.38 71.58 70.85 69.67 68.11 66.77 66.25 65.06 65.82 66.88 66.42 65.37 66.20 65.61 65.83 64.63 64.52 65.12 66.48 66.55 66.60 66.13
64.14 59.42 61.19 57.91 47.89 45.08 46.88 52.91 53.18 54.51 55.22 56.29 56.69 56.11 55.29 55.25 58.90 61.52 64.52 68.07 68.33 69.19 69.21 72.54 74.25 73.74 73.36 72.37 71.82 70.58 69.36 67.95 66.64 65.85 65.96 66.86 68.05 66.71 67.02 64.61 64.38 65.43 65.10 63.88 64.28 65.13 65.69 65.74 66.13
61.00 58.42 55.71 52.51 48.99 44.21 47.45 52.89 53.26 53.93 56.04 54.92 56.41 56.39 56.25 56.49 59.02 61.90 66.35 68.31 68.81 69.21 69.84 71.37 74.14 73.54 73.21 72.58 71.76 70.46 69.38 68.56 66.95 65.97 66.76 67.31 69.07 66.98 65.49 65.05 64.76 64.29 64.35 63.70 63.68 64.53 64.91 65.23 65.59
60.26 58.80 55.28 48.03 44.47 49.02 50.27 53.17 51.79 53.58 56.04 56.58 56.97 55.54 57.61 60.76 61.08 64.64 66.90 68.40 68.55 69.16 70.25 71.68 73.64 73.32 73.28 72.83 71.71 70.34 69.20 68.40 67.16 66.87 66.55 67.70 69.20 68.06 67.16 65.71 64.29 63.63 63.83 63.84 63.89 63.59 64.40 64.98 64.94
60.74 56.13 50.13 47.20 46.72 47.38 50.73 51.96 52.32 52.44 54.25 55.69 56.66 56.31 56.72 61.35 64.85 65.22 67.21 68.10 67.88 68.97 69.98 70.67 72.55 73.17 73.07 72.45 71.01 70.22 69.13 68.03 67.44 66.68 67.42 68.15 68.43 69.34 67.07 66.26 64.56 63.72 63.85 64.13 64.01 64.13 64.27 64.02 64.63
56.32 55.23 47.97 46.30 48.16 50.03 52.00 51.55 52.79 53.39 54.32 55.56 55.33 55.07 57.60 62.98 64.07 65.36 67.88 68.02 68.39 69.00 69.85 69.76 71.14 72.78 73.18 72.14 70.96 70.10 69.15 68.25 67.65 66.81 67.32 67.60 68.17 67.34 66.78 66.10 64.64 64.49 64.84 64.44 64.83 64.99 65.34 65.01 64.57
54.21 51.83 48.25 48.36 48.04 49.51 49.10 52.85 52.17 52.92 54.12 54.33 56.17 53.88 57.74 61.21 64.48 66.07 67.87 68.34 68.79 69.35 69.59 69.68 69.90 70.98 72.01 72.08 71.66 70.77 69.67 68.88 68.13 67.30 67.80 66.97 66.11 65.84 65.78 65.34 65.70 65.97 66.23 65.69 65.63 66.32 66.49 66.48 66.13
55.89 52.84 48.17 48.76 48.08 48.43 51.02 51.27 55.08 53.70 53.45 57.29 56.68 54.43 55.99 61.08 63.18 65.69 67.04 67.51 68.40 69.09 69.43 69.43 69.93 70.72 71.89 71.60 70.74 70.66 70.34 69.72 69.29 69.09 68.36 67.47 66.80 66.23 65.44 66.47 65.97 65.75 66.30 65.96 65.89 65.98 66.83 67.04 66.80
55.15 49.59 46.57 48.03 48.26 50.40 51.73 52.54 56.00 57.08 55.17 55.55 56.63 57.05 59.27 61.60 63.09 64.23 64.18 65.22 66.64 67.58 69.08 69.85 69.67 70.56 71.24 71.15 70.60 69.97 69.38 68.96 68.52 67.89 67.07 66.80 66.80 66.91 66.06 65.37 64.35 64.63 65.06 65.47 65.54 65.73 66.04 66.56 66.23
53.44 49.43 48.90 52.50 52.91 51.60 52.59 53.41 54.79 54.41 54.74 54.96 55.31 57.86 58.73 59.07 60.64 61.02 62.32 63.17 64.66 66.09 67.78 69.13 69.78 69.91 70.74 70.30 70.78 70.61 69.78 69.56 68.99 68.28 67.59 66.61 66.31 66.56 65.42 63.84 63.21 64.25 64.75 65.08 65.37 65.42 65.44 65.72 65.52
53.76 49.46 52.68 52.66 53.37 53.06 52.85 53.94 55.56 54.24 53.18 54.94 54.48 56.12 57.97 58.26 58.60 58.76 60.47 62.95 63.96 65.13 66.70 68.01 69.33 69.99 70.14 70.28 70.44 70.28 69.98 69.41 69.00 68.58 67.92 66.78 65.47 65.78 66.04 65.64 65.24 65.41 63.26 64.73 65.02 65.09 64.88 64.78 65.08
50.28 53.33 53.65 53.98 53.85 53.55 53.00 55.16 54.22 55.39 55.63 58.57 58.64 59.00 57.54 57.12 57.54 58.09 59.13 61.81 63.78 64.13 64.86 66.57 68.41 69.19 69.75 70.22 70.11 69.88 69.39 69.22 68.74 68.37 67.83 66.94 65.88 65.18 64.94 64.62 64.92 65.00 65.19 64.83 65.03 64.78 64.85 64.82 64.77
51.34 53.00 54.00 54.42 53.84 53.83 54.64 53.41 54.34 54.82 57.88 59.27 58.91 57.48 56.48 56.67 57.10 58.15 61.24 62.60 63.76 63.75 64.73 65.52 66.58 67.92 69.11 69.52 69.82 69.73 69.18 68.75 68.53 68.45 67.94 67.25 66.11 65.14 65.06 64.95 65.16 65.11 65.21 64.97 64.86 64.86 64.80 64.80 65.00
53.96 53.36 53.57 54.48 53.94 54.61 52.35 53.88 52.86 55.49 58.30 57.63 56.47 56.02 56.49 54.93 55.44 58.36 60.45 61.78 62.66 63.10 63.48 64.40 65.18 66.14 67.89 68.72 69.26 69.19 69.17 68.87 68.50 68.25 67.83 67.01 66.56 66.09 65.66 65.37 65.27 65.21 65.38 65.29 65.04 64.78 64.62 64.50 64.84
54.57 50.24 52.50 53.27 53.68 53.19 53.57 50.76 51.64 55.84 54.69 53.05 54.01 55.05 53.77 54.42 55.68 56.12 57.02 57.64 58.12 59.19 59.27 59.92 60.49 63.46 66.15 67.60 68.43 68.85 69.02 68.19 68.04 67.88 67.29 66.53 66.26 66.05 65.93 65.52 65.36 65.51 65.62 64.96 65.02 64.92 64.85 64.43 64.53
50.41 50.24 46.27 52.05 53.22 53.70 51.74 46.58 53.15 54.38 52.62 52.30 52.48 52.88 54.04 53.88 54.57 55.77 56.36 57.11 58.00 58.62 59.79 61.14 60.89 60.35 63.97 66.49 67.42 68.09 68.46 68.18 68.06 67.89 67.30 66.14 65.83 65.67 65.48 64.99 65.01 65.45 64.99 64.76 64.37 64.31 63.84 63.73 63.47
47.49 43.49 45.24 47.94 52.92 52.14 50.35 48.07 52.55 52.52 52.40 52.31 53.59 52.81 53.33 53.89 54.59 55.50 56.09 56.78 57.80 59.16 60.54 61.21 61.66 61.78 63.82 65.13 65.87 65.97 65.78 66.58 66.57 66.57 66.17 64.99 64.59 64.38 64.45 64.58 64.71 64.87 64.51 64.14 63.39 62.73 62.36 61.51 61.62
42.06 43.41 45.90 45.83 50.24 48.73 49.12 48.24 51.37 53.18 51.68 52.45 53.04 52.83 53.35 53.45 53.23 54.73 55.33 56.85 57.70 59.52 61.17 62.11 63.34 63.58 64.09 64.66 64.92 65.19 65.22 65.21 65.13 64.59 64.46 64.45 63.93 63.48 63.53 62.37 60.90 61.14 60.93 60.32 59.90 59.46 60.25 60.01 59.72
47.17 45.58 44.65 47.91 50.66 47.15 48.08 49.21 50.07 52.77 53.39 51.99 52.18 52.19 52.86 53.06 53.46 54.42 55.20 56.45 57.02 57.98 59.09 61.21 62.84 63.93 64.60 64.62 64.23 63.04 60.18 59.69 58.39 57.83 57.04 56.55 56.61 56.25 56.37 56.37 55.94 55.95 55.84 55.26 55.17 55.34 54.52 54.77 56.32
47.27 44.77 44.48 48.30 47.88 46.54 48.25 48.28 51.32 52.78 52.28 52.18 52.54 51.76 52.58 52.19 52.90 53.41 54.28 55.20 55.49 56.06 56.88 57.72 59.61 62.67 63.86 64.47 63.20 60.05 58.15 57.05 56.65 56.30 55.49 55.12 54.37 54.09 53.75 53.80 53.66 53.80 53.57 53.52 53.28 53.34 52.14 52.67 53.48
45.62 43.70 44.62 45.13 46.19 48.87 46.56 46.70 49.43 49.33 48.99 48.96 50.01 52.91 52.99 52.53 52.00 52.74 53.71 54.55 55.37 55.39 55.73 56.06 56.90 58.01 58.61 58.75 58.23 57.78 57.61 57.01 55.52 54.51 53.91 53.35 53.31 52.25 52.22 52.18 52.17 52.17 52.33 51.38 51.53 51.23 50.56 48.70 50.56
42.97 47.70 47.16 45.63 45.00 41.53 46.31 40.38 47.04 49.14 48.57 47.96 49.52 51.26 51.91 52.29 52.83 53.00 53.32 53.88 54.51 54.86 56.10 56.22 56.35 56.42 57.02 57.76 56.93 55.95 54.54 52.44 52.70 52.73 52.76 52.30 51.77 50.21 49.22 49.42 49.41 49.38 49.50 48.91 48.76 48.52 48.50 48.04 46.42
44.75 48.86 47.35 46.69 44.33 41.37 44.57 41.27 45.92 45.64 46.18 46.99 48.99 50.81 51.50 52.37 52.51 52.31 52.79 53.06 53.89 54.96 55.14 55.32 55.07 54.66 54.89 55.02 54.91 53.82 52.45 52.13 51.86 51.25 50.46 49.98 49.60 48.57 46.49 46.58 46.66 46.49 46.32 46.43 46.14 45.88 45.77 46.72 45.56
48.90 46.94 44.39 42.91 40.80 38.04 43.63 41.82 44.19 45.32 45.99 46.65 48.92 50.58 51.12 51.73 52.24 52.53 52.69 53.20 53.34 54.53 54.58 54.25 53.22 52.67 53.18 52.84 52.35 51.63 50.49 49.42 48.79 47.89 47.04 46.78 46.39 46.19 44.88 44.39 44.44 44.63 44.07 43.69 43.62 44.09 44.70 45.67 44.53
47.34 44.43 36.28 34.46 35.13 36.68 40.24 39.27 45.15 47.04 47.05 48.21 48.42 50.18 51.17 51.97 51.79 51.36 51.55 52.18 52.73 52.98 53.13 52.84 51.93 50.45 50.86 50.33 49.54 48.99 48.11 47.15 45.78 45.05 44.28 43.52 43.29 43.28 42.58 42.78 42.38 42.40 42.47 42.20 42.45 42.69 43.61 44.64 42.47
43.10 44.77 39.58 32.33 34.47 37.63 38.25 38.19 44.18 46.50 47.70 48.15 50.69 51.48 51.53 51.51 52.18 51.86 52.18 52.38 52.27 52.08 51.91 51.47 50.42 49.19 48.74 47.69 46.69 46.17 45.85 44.84 43.76 42.93 42.42 41.79 41.30 41.30 41.53 41.12 41.14 41.15 41.06 41.08 41.30 41.37 41.94 42.72 41.99
41.98 41.02 44.55 38.19 38.37 38.15 40.84 43.31 46.45 46.69 46.78 46.52 47.92 50.29 50.41 51.19 51.53 51.55 51.81 52.24 51.81 51.19 50.47 49.96 49.23 48.07 46.84 45.66 44.92 43.61 42.99 42.24 41.53 41.21 41.21 40.34 40.22 39.63 40.10 40.26 39.83 40.22 40.03 39.86 40.00 39.89 39.80 40.14 40.51
44.87 46.80 38.26 39.63 33.50 32.32 38.14 39.33 43.31 44.89 45.43 45.75 46.62 48.83 50.50 51.24 51.20 51.10 51.04 51.46 51.18 49.98 49.28 48.78 48.27 46.10 44.92 44.01 42.92 41.88 40.86 40.37 40.05 40.04 39.24 39.26 39.21 39.21 39.05 38.82 38.79 38.81 38.84 38.78 38.65 38.62 38.86 38.50 38.94
41.41 39.34 40.07 41.41 40.07 37.08 35.82 39.79 46.07 45.41 46.16 45.72 47.72 49.63 50.67 50.47 50.74 50.60 50.62 50.93 49.55 48.74 48.05 46.69 46.22 44.88 43.16 42.19 41.31 40.50 39.37 38.87 39.01 38.62 38.44 38.38 38.42 38.17 37.79 37.61 37.46 37.40 37.29 37.60 37.35 37.28 37.41 37.15 37.65
46.43 43.14 44.54 38.42 36.06 39.05 39.03 40.94 45.83 46.23 45.73 45.74 48.07 49.09 50.96 51.09 51.12 50.62 50.39 49.28 47.75 47.07 46.20 45.23 44.81 43.65 42.04 40.71 39.60 38.62 38.36 38.49 38.16 37.71 37.71 37.73 37.25 37.67 37.11 36.83 36.56 36.51 36.46 36.61 36.06 35.87 36.56 36.50 36.44

GFSSGP_sfc_wetblb_021.txt.gz
Wetbulb
68.38 65.82 62.39 60.32 51.26 50.74 47.81 49.91 55.95 55.45 56.03 57.64 58.18 57.07 56.85 57.51 55.82 53.30 66.38 68.67 68.11 68.75 70.41 73.09 74.50 74.45 73.26 72.33 71.53 71.15 69.76 68.40 66.92 66.17 65.04 64.94 65.97 66.08 65.29 66.20 66.23 66.60 64.97 64.62 65.05 66.13 66.63 66.36 67.27
65.70 63.70 61.41 56.63 46.50 44.73 46.47 52.63 52.79 55.99 56.99 57.42 57.33 57.42 56.71 56.05 59.81 63.08 65.60 68.27 68.30 68.58 69.94 71.54 74.47 73.87 73.15 72.39 72.00 71.11 70.02 68.65 66.73 65.45 65.62 65.83 66.96 66.59 66.82 64.84 64.58 65.17 65.39 64.39 64.46 65.06 65.51 65.85 66.27
64.89 62.35 56.32 53.47 48.71 43.27 46.79 52.54 54.46 55.87 57.76 57.26 57.11 58.18 57.52 57.40 60.70 63.04 66.87 68.46 68.48 68.39 69.57 73.42 74.34 73.76 73.49 72.68 71.84 70.68 69.66 68.25 66.62 65.44 66.04 67.26 68.00 68.39 65.90 65.35 64.86 64.63 64.72 64.27 64.29 64.39 64.84 64.89 65.25
61.74 60.21 56.96 49.86 48.19 49.32 50.20 53.55 54.54 54.16 57.49 57.91 58.38 56.53 59.27 62.54 62.77 65.94 67.75 68.28 68.32 68.69 69.84 72.75 74.19 73.59 73.25 72.72 71.94 70.57 69.66 68.87 67.06 66.17 66.21 66.92 68.01 68.82 67.19 66.15 65.08 63.76 63.91 64.16 63.99 63.88 63.96 64.53 65.28
62.01 57.36 50.13 49.36 49.74 50.60 50.50 53.63 53.46 53.11 55.22 56.20 57.59 56.83 58.33 62.81 65.59 66.10 67.56 67.89 67.96 68.70 70.06 71.70 73.61 73.20 72.93 72.89 71.60 70.42 69.47 68.05 66.98 66.14 66.60 67.75 68.21 68.92 67.46 66.34 64.77 64.00 63.87 64.20 64.51 64.21 64.52 64.54 64.08
55.79 55.81 48.15 46.13 49.79 52.49 53.76 52.81 53.26 54.54 56.12 56.20 55.88 55.99 58.61 63.74 65.25 66.26 67.82 67.65 68.47 68.89 69.61 70.31 71.88 73.11 72.86 72.73 71.11 70.36 69.33 68.06 67.24 65.85 67.16 67.47 68.15 67.40 66.99 66.93 65.08 64.62 65.07 65.07 64.87 65.77 65.98 65.83 65.34
54.24 52.20 48.27 48.51 49.10 51.39 53.45 52.89 52.46 53.89 54.75 55.78 57.34 54.74 59.52 61.36 64.24 66.75 67.98 68.03 68.55 69.55 69.52 69.57 69.47 70.90 71.96 72.29 71.68 70.78 69.67 68.61 67.83 67.00 67.01 66.87 66.20 65.72 65.69 65.79 65.72 65.93 66.35 66.44 65.66 65.99 67.01 67.05 66.87
57.08 53.99 49.06 49.72 48.43 49.32 54.28 52.63 53.62 54.77 54.26 58.53 58.13 55.35 56.98 61.27 63.93 66.34 67.58 67.50 68.25 69.18 69.43 69.38 69.76 69.92 71.08 70.77 70.91 70.59 70.46 69.89 69.01 68.99 68.54 67.60 67.22 66.64 65.88 66.18 66.54 65.74 65.66 66.04 66.13 65.90 65.84 66.57 67.00
58.91 50.11 47.24 48.60 49.42 50.84 54.68 52.95 56.27 58.19 55.93 56.76 57.61 57.78 59.86 60.41 63.31 64.49 65.07 65.91 66.81 67.81 69.09 69.57 69.44 70.05 70.98 70.94 70.74 69.89 69.44 69.04 68.60 67.94 66.78 66.66 65.58 66.41 66.36 66.07 65.50 64.20 64.70 65.13 65.47 65.59 65.84 66.51 66.37
54.19 49.24 49.25 53.39 53.67 52.50 54.41 54.46 55.72 55.38 55.36 55.81 57.19 58.89 59.94 60.04 60.11 59.92 61.36 63.37 65.19 66.06 67.56 69.19 69.51 69.62 70.46 69.99 70.52 70.15 69.87 69.25 68.60 68.03 67.66 67.43 65.87 66.02 65.84 64.45 64.23 64.71 65.11 65.32 65.52 65.53 65.78 65.55 63.91
54.87 49.46 53.45 54.09 55.03 55.16 53.61 54.18 56.78 55.03 53.50 56.38 55.67 57.24 59.57 59.90 59.40 58.96 59.74 61.54 63.75 65.94 67.17 68.10 69.29 69.74 69.87 70.04 69.93 69.90 69.55 69.04 68.47 68.05 67.45 66.68 65.23 64.97 65.48 65.51 65.39 65.44 63.46 64.49 65.14 65.25 64.80 64.90 64.59
51.49 54.07 54.32 55.18 55.69 54.50 53.32 55.33 54.18 55.57 56.09 58.98 59.41 60.14 60.00 59.28 57.96 58.62 58.93 60.37 63.12 64.78 65.68 67.10 68.04 69.10 69.50 69.97 69.60 69.63 69.08 68.90 68.36 67.90 67.44 66.69 65.82 65.19 64.73 64.53 64.91 65.13 65.03 64.75 65.36 64.71 64.83 64.81 64.99
51.87 53.44 54.80 55.55 55.38 54.89 55.35 53.45 53.64 54.62 58.03 59.70 59.67 59.74 59.54 59.19 58.72 58.70 59.71 62.26 63.60 64.37 65.41 66.15 67.15 68.02 68.89 69.21 69.52 69.49 69.05 68.59 68.36 68.28 67.92 67.26 66.05 65.31 65.29 65.07 65.19 65.40 65.54 64.96 64.88 65.05 65.09 65.21 65.40
53.81 54.07 53.88 55.06 54.76 54.97 53.16 53.55 54.44 55.50 58.13 58.00 58.06 57.87 57.99 58.40 57.72 58.19 60.47 61.72 63.37 64.50 64.90 65.91 66.21 66.82 67.74 68.47 69.09 69.08 69.13 68.81 68.54 68.37 68.05 67.54 66.98 66.36 66.16 65.93 65.84 65.72 65.97 65.94 65.50 65.08 65.04 64.96 65.07
53.62 49.95 52.72 53.42 54.23 53.52 55.05 50.99 51.52 55.99 57.21 55.51 54.40 55.22 56.33 56.44 57.52 57.84 58.89 59.34 60.07 61.39 61.18 61.14 61.89 63.75 66.20 67.49 68.62 68.99 69.02 68.77 68.36 68.23 67.98 67.31 66.97 66.60 66.33 65.91 65.77 66.07 66.28 65.69 65.44 64.94 64.59 64.01 63.78
49.66 50.72 44.36 51.62 53.18 54.07 53.52 46.52 53.37 56.54 55.16 53.83 54.25 54.36 55.16 56.12 56.41 57.60 58.11 58.81 59.57 60.22 60.48 62.23 62.39 60.99 63.40 66.74 68.00 68.41 68.66 68.51 68.21 67.94 67.62 66.86 66.49 66.32 65.80 65.42 65.18 65.40 64.73 64.48 63.44 62.78 62.28 61.80 61.54
47.59 43.59 44.56 47.35 53.23 52.63 51.96 48.24 53.17 55.77 54.28 53.22 54.19 54.47 55.11 55.72 56.15 57.07 57.62 58.61 59.48 60.86 61.77 62.66 63.05 63.33 64.23 66.64 67.28 67.16 66.73 66.54 66.20 66.40 66.21 65.87 65.58 65.41 65.29 64.33 62.96 62.43 62.55 61.66 60.57 59.37 59.14 58.84 58.84
41.59 43.92 45.05 45.88 50.49 51.74 49.84 49.34 52.62 54.52 53.80 54.01 53.97 54.48 54.91 55.36 55.14 56.53 57.58 59.02 60.47 62.11 63.09 64.05 64.18 64.46 65.08 65.60 65.67 65.70 65.63 64.40 63.00 61.57 60.78 59.78 58.73 58.91 59.37 58.28 57.15 57.21 57.17 56.27 56.06 55.44 55.77 55.09 55.03
46.79 45.98 44.50 49.11 51.50 50.27 49.39 49.14 50.76 53.31 53.70 53.72 54.14 54.01 54.53 54.93 55.59 56.50 57.63 58.54 59.11 60.92 62.58 63.76 63.97 64.75 65.19 65.08 64.25 62.05 59.64 58.82 57.68 57.07 56.65 56.07 55.85 55.75 55.40 55.25 54.84 54.93 54.23 54.06 53.76 53.75 53.27 53.10 54.04
44.91 44.79 45.44 48.70 50.80 49.46 48.48 47.71 51.25 53.10 53.45 54.89 54.63 53.80 54.20 54.27 54.33 55.36 56.23 56.97 57.15 57.68 59.50 61.68 62.84 64.25 64.51 62.39 61.28 59.73 58.12 57.19 56.46 56.24 55.25 54.66 53.66 53.38 53.22 52.79 52.76 52.50 52.29 52.12 51.44 51.17 49.91 50.41 51.13
44.18 44.79 44.83 45.04 49.12 49.26 47.54 46.06 48.81 52.49 54.11 55.01 54.23 54.80 54.95 53.91 53.40 54.18 55.16 55.89 56.78 56.50 57.08 57.98 58.70 58.92 59.38 59.31 58.98 58.13 57.75 57.23 55.05 54.20 53.56 52.92 52.21 50.39 50.08 50.03 49.70 49.76 49.89 49.38 49.08 48.56 48.08 45.92 47.95
42.06 47.97 46.74 45.84 45.07 41.22 48.96 39.62 47.90 50.63 50.19 50.22 51.47 53.16 54.04 53.97 54.07 54.42 54.70 55.19 55.86 56.22 57.23 57.24 57.47 57.67 58.16 58.69 57.74 56.48 54.14 51.86 52.66 52.84 52.59 52.05 51.09 48.92 47.40 47.32 47.04 47.01 47.24 46.25 46.57 46.11 45.93 45.81 44.42
44.07 48.97 46.58 46.82 45.08 44.19 43.74 41.93 46.32 50.56 48.06 49.66 51.13 52.60 53.67 53.86 53.73 53.70 54.40 54.90 55.65 56.40 56.06 55.98 55.63 55.40 55.73 55.66 55.24 54.01 52.54 52.24 52.03 51.59 50.49 49.81 49.26 47.96 45.74 45.29 45.39 44.84 44.85 44.46 44.23 44.20 44.06 44.53 44.65
48.84 46.32 46.42 45.77 44.24 36.96 43.20 43.34 44.17 46.95 48.25 49.77 50.98 52.24 52.96 53.11 53.48 54.02 54.46 54.88 54.82 55.62 55.10 54.83 53.90 53.25 53.64 53.56 53.07 52.17 50.96 50.37 49.49 48.55 47.56 47.13 46.74 46.12 44.66 43.86 43.65 43.72 43.30 42.93 42.90 43.39 43.50 43.39 44.75
46.47 42.82 35.92 33.90 34.72 36.15 44.78 43.32 46.24 47.23 48.56 49.91 50.11 51.51 52.54 53.08 53.02 52.68 52.76 53.33 53.81 53.95 53.73 53.21 52.38 51.16 51.60 51.07 50.49 49.93 49.12 48.39 46.62 45.97 45.04 44.19 43.75 43.20 42.41 42.42 41.81 41.89 42.48 42.31 42.48 42.56 43.10 43.06 42.92
43.90 42.99 37.93 31.25 33.21 37.61 42.25 38.28 44.62 49.00 49.75 50.67 52.03 52.47 52.60 52.48 52.94 52.47 53.13 53.56 53.55 53.26 52.82 52.25 51.12 49.60 49.36 48.69 47.79 47.50 47.28 46.09 44.95 43.97 43.26 42.47 41.75 41.46 41.59 41.17 41.03 40.90 41.02 40.77 41.31 41.25 41.91 42.06 41.27
43.29 41.49 46.00 40.62 42.27 40.44 41.20 44.78 46.96 48.70 48.46 49.12 50.62 51.66 51.37 52.09 52.52 52.62 53.38 53.62 53.16 52.63 52.29 51.55 49.93 48.64 47.77 47.02 46.44 45.35 44.67 43.79 42.92 42.52 42.22 41.33 41.08 40.33 40.29 40.38 39.81 40.01 39.94 39.72 39.99 39.78 39.32 39.66 39.63
45.83 48.38 40.33 41.66 34.41 33.84 39.70 41.63 42.41 45.42 46.99 48.01 48.58 50.59 51.38 52.37 52.55 52.78 52.98 53.10 52.88 52.08 51.43 51.03 49.70 47.61 46.49 45.74 45.00 43.82 42.62 42.00 41.77 41.42 40.16 39.92 39.90 39.68 39.30 39.04 38.87 38.80 38.85 38.72 38.69 38.40 38.77 38.08 38.46
42.30 43.19 44.27 44.24 42.23 38.04 36.44 40.19 48.53 46.74 47.54 48.15 49.13 51.21 51.77 52.08 52.25 52.30 52.66 52.93 51.83 51.02 50.12 49.18 47.57 46.09 45.03 44.67 43.84 42.57 41.38 41.01 41.00 40.14 39.45 38.98 38.88 38.62 38.28 38.00 37.78 37.72 37.54 37.66 37.25 37.02 37.23 36.70 37.03
46.69 44.50 45.30 40.32 37.83 41.47 40.52 40.14 47.90 48.43 48.50 48.64 49.94 50.91 52.61 52.72 52.63 52.36 52.37 51.79 50.21 49.64 48.76 48.00 47.09 45.46 44.45 43.31 42.23 41.11 41.01 40.66 39.85 38.91 38.48 38.43 37.86 38.16 37.79 37.54 37.12 36.98 36.79 36.71 35.91 35.48 36.04 35.51 35.61

GFSSGP_sfc_wetblb_024.txt.gz
Wetbulb
67.63 64.42 62.40 57.88 48.46 47.11 43.55 46.15 50.51 53.05 52.75 53.23 54.76 53.34 52.40 54.35 53.03 49.68 62.29 64.62 66.47 68.17 72.08 73.75 74.85 74.40 73.47 72.78 71.73 70.88 69.65 68.37 67.47 66.21 65.35 65.08 65.87 66.26 66.23 66.55 66.30 66.85 65.69 65.37 65.64 66.17 66.64 67.36 67.54
65.58 64.12 59.81 54.65 43.34 39.82 43.00 48.32 50.56 53.07 54.05 54.80 54.90 53.95 53.15 52.94 59.35 60.32 62.12 65.20 66.83 67.37 71.44 72.03 74.55 74.36 73.39 72.65 72.06 71.19 69.89 68.51 67.23 65.71 65.41 65.63 67.02 66.70 66.59 65.45 65.63 65.55 65.50 64.95 64.67 65.19 65.35 65.36 66.29
65.73 62.74 52.90 50.09 46.38 40.03 42.37 50.32 51.16 52.47 54.76 54.47 53.29 54.25 53.03 54.24 60.25 60.87 64.34 65.70 66.27 65.37 69.30 72.03 74.53 74.35 73.62 72.92 72.08 71.08 70.10 68.35 67.06 65.47 65.51 66.69 67.36 68.28 65.45 65.94 65.62 65.06 64.51 64.07 64.15 64.13 64.27 64.86 65.19
60.70 57.43 54.02 45.68 44.31 48.65 45.80 48.85 52.09 51.36 54.10 54.84 54.71 53.05 56.74 60.13 59.75 62.51 65.47 65.80 65.33 65.11 71.74 73.37 74.14 74.30 74.13 73.57 71.74 70.79 69.94 69.07 67.24 66.03 65.85 66.44 67.42 68.85 67.58 66.54 65.37 64.55 64.34 64.12 63.68 63.73 63.94 63.62 63.63
59.76 54.70 46.31 44.94 46.26 49.89 47.36 49.10 51.75 49.93 52.14 53.33 53.68 52.64 54.81 59.55 62.80 64.11 64.79 65.35 64.98 65.90 70.84 72.63 74.09 74.02 73.68 73.27 71.89 70.82 69.83 68.71 67.29 66.18 66.02 67.95 67.96 68.29 67.89 66.69 65.40 64.58 64.06 64.09 64.22 63.61 64.20 64.85 64.70
53.26 53.28 43.92 42.40 45.76 50.19 50.24 51.85 49.52 50.03 52.80 53.70 52.22 51.67 54.11 59.94 62.18 62.84 64.76 63.24 66.23 65.81 68.90 71.29 72.82 73.34 73.40 73.19 71.87 70.86 69.80 68.51 67.64 65.79 66.30 67.37 68.01 67.90 67.93 67.59 65.74 65.06 65.10 65.17 64.68 65.02 66.21 66.64 66.40
52.09 48.88 45.19 45.42 45.86 48.07 52.12 51.23 46.51 49.64 51.22 51.96 53.40 49.85 54.85 57.75 61.94 64.15 63.77 64.25 64.89 66.49 66.61 68.03 70.26 71.68 71.93 72.59 71.79 71.44 70.17 69.31 68.52 67.34 66.80 67.62 67.40 66.67 66.56 66.79 66.24 66.34 65.97 66.22 66.09 65.54 65.77 66.46 67.17
54.92 51.26 45.95 46.36 45.87 46.94 52.10 51.61 50.51 49.51 50.84 55.87 53.81 49.78 50.13 55.88 61.46 63.96 62.99 63.46 64.04 65.59 66.05 65.95 66.41 68.39 68.23 70.26 71.16 70.87 70.41 69.64 69.09 68.74 68.16 67.14 66.32 66.44 67.31 67.09 67.34 66.37 65.90 65.37 65.62 65.96 65.65 65.80 66.31
57.98 47.40 44.50 46.30 47.13 49.03 52.09 50.68 53.69 55.05 52.57 54.49 55.14 53.47 55.81 58.88 61.70 61.55 61.29 62.23 62.54 65.15 65.20 65.45 65.91 66.83 68.56 69.18 69.62 70.10 69.64 69.08 68.41 67.43 66.62 65.82 63.01 62.76 64.25 65.10 65.90 65.84 64.75 64.84 65.38 65.76 65.89 66.55 66.29
52.48 46.72 46.87 51.33 51.28 50.12 52.54 52.17 53.02 52.72 52.59 52.57 53.70 56.28 56.42 56.78 56.20 54.84 57.68 60.10 61.54 62.47 64.20 65.44 65.44 65.99 67.08 68.69 68.16 67.18 67.18 66.57 66.00 65.35 64.50 63.98 62.76 61.70 63.70 63.14 64.28 65.47 65.68 65.64 65.60 65.99 66.50 65.79 62.93
52.98 47.58 51.66 52.06 53.09 53.90 52.17 51.75 53.74 51.84 50.52 53.23 52.74 55.43 57.00 56.58 55.76 55.30 55.50 56.83 60.31 62.47 63.51 65.00 65.46 65.74 66.40 66.36 67.25 67.45 66.15 66.47 66.19 65.33 63.50 63.37 61.40 60.17 60.95 61.18 61.71 61.11 62.67 61.57 63.19 63.46 63.47 62.05 61.57
49.68 52.87 52.96 53.09 54.34 53.91 51.26 53.11 51.68 52.08 52.45 56.09 56.23 56.78 56.81 56.24 55.98 55.60 54.66 53.96 55.60 61.24 62.67 64.42 64.71 65.43 65.44 66.47 65.79 65.56 65.17 64.89 63.88 63.76 63.52 62.12 61.16 60.40 59.98 59.77 60.16 60.46 60.80 60.63 60.71 60.54 60.90 61.00 61.37
50.77 52.14 53.61 53.97 53.78 53.97 53.94 51.19 51.27 51.72 54.49 56.25 56.86 57.15 56.11 56.35 56.39 56.06 54.87 56.63 57.09 58.92 61.51 62.31 63.74 63.74 65.20 64.85 65.68 65.44 64.64 64.60 64.42 64.29 63.98 62.84 61.50 60.62 60.70 60.61 60.72 60.92 61.19 60.77 60.53 60.84 61.43 61.88 61.84
52.45 53.03 53.09 53.83 53.17 53.19 51.64 51.18 51.62 52.65 54.68 54.43 55.49 54.94 54.52 54.95 54.92 53.25 54.98 55.97 58.14 59.38 61.10 62.42 62.79 63.05 63.81 64.54 64.96 64.98 65.00 64.95 64.49 65.01 64.27 64.19 62.96 62.23 62.34 62.08 62.52 63.17 63.22 62.97 62.97 62.51 61.94 62.29 62.49
50.15 47.47 51.65 52.06 52.25 51.72 52.59 48.53 49.13 53.47 54.47 53.60 53.97 52.57 52.67 53.10 54.19 52.41 54.88 54.94 56.08 56.76 57.07 57.77 58.65 59.45 61.90 62.71 64.91 65.05 65.90 65.77 65.64 65.06 65.21 64.06 63.54 62.73 62.54 62.20 62.13 63.09 63.23 63.08 62.65 62.26 62.15 61.14 60.64
47.07 47.08 42.80 49.74 51.88 51.76 50.58 43.59 51.11 53.99 52.66 52.34 52.64 49.99 50.40 53.40 53.13 53.81 54.16 54.16 55.14 55.24 56.90 58.82 60.01 56.87 57.32 61.90 64.21 65.13 66.25 65.34 65.24 64.93 64.30 64.44 64.07 63.49 61.76 62.59 60.94 61.61 62.46 61.38 59.76 56.49 54.62 54.70 55.08
44.21 39.16 41.37 45.18 51.61 50.38 49.00 45.09 51.16 53.78 52.74 50.36 49.79 50.33 50.96 52.12 52.91 53.44 53.57 53.24 54.40 56.56 58.18 58.82 58.86 57.83 59.62 63.17 63.70 64.60 64.03 63.37 62.68 61.87 61.10 58.82 58.19 58.83 59.58 56.30 53.30 53.41 53.80 52.46 51.61 50.79 50.36 49.39 49.50
37.76 39.79 41.91 42.98 48.89 49.19 46.97 46.62 50.00 52.32 50.67 49.10 49.57 49.89 50.08 51.71 51.94 52.74 54.06 54.72 56.71 58.34 59.82 59.69 60.69 61.36 62.26 62.20 61.90 61.27 57.73 56.02 55.52 54.23 53.37 53.38 52.91 52.81 52.23 51.78 50.80 50.85 50.33 49.77 48.98 48.16 48.95 48.36 48.02
42.14 41.55 41.63 45.33 49.93 47.32 46.42 46.56 48.66 50.93 50.98 49.46 49.99 49.70 49.34 50.70 52.10 53.00 53.53 54.74 56.47 58.80 59.28 59.88 60.14 60.84 61.06 60.68 59.51 56.51 53.99 52.45 51.88 51.82 51.71 50.83 50.37 50.68 49.13 49.24 49.00 48.70 48.04 47.57 47.36 46.56 45.50 45.04 45.57
41.32 40.92 41.45 46.36 49.16 47.74 46.29 46.48 49.17 49.26 49.92 50.52 50.31 50.06 49.30 49.90 50.42 51.57 52.61 52.44 53.89 55.92 57.96 58.68 59.87 59.11 58.32 57.52 56.10 55.08 53.06 52.03 51.56 51.07 50.07 48.96 47.44 47.28 47.39 45.63 45.57 45.14 44.84 44.65 43.63 42.84 42.37 42.90 42.98
39.36 39.73 41.17 40.23 46.63 48.22 44.41 42.11 44.42 48.35 49.90 50.54 51.26 52.20 50.57 50.21 49.60 50.01 50.08 51.34 51.60 52.38 53.40 54.73 55.27 55.34 55.42 54.90 54.67 53.62 52.69 51.30 49.33 48.78 47.84 47.43 45.93 44.92 44.22 43.66 42.97 42.76 42.64 41.62 40.97 40.66 40.14 38.84 40.89
35.52 42.90 44.46 42.76 43.00 37.64 43.96 32.79 42.13 46.22 47.55 49.64 49.08 48.86 49.58 50.13 50.40 50.48 50.75 50.91 50.95 51.26 52.40 53.25 53.90 54.03 54.35 54.02 52.90 50.68 48.42 46.66 47.38 47.03 46.98 46.23 45.06 43.05 42.77 42.57 41.63 40.84 41.00 39.37 39.20 41.15 38.93 38.57 38.10
38.02 44.50 42.96 43.62 41.67 41.28 42.50 38.39 40.63 46.06 44.93 47.75 46.01 47.07 49.51 49.89 50.22 50.02 50.65 51.76 52.00 51.82 50.73 50.61 50.82 50.99 50.97 50.73 50.10 48.49 46.88 46.43 46.11 45.61 44.30 43.60 43.30 42.13 41.39 40.97 40.06 39.26 39.51 38.37 38.09 37.68 37.66 38.52 38.21
42.04 41.90 41.96 43.56 41.69 35.10 39.22 39.01 38.33 42.69 45.14 45.26 46.27 47.45 49.53 49.42 49.75 50.29 51.21 51.97 51.04 50.77 50.11 49.25 48.87 48.78 48.86 48.22 47.46 46.06 44.48 44.05 43.18 41.91 41.16 41.07 40.95 40.63 39.69 40.21 38.47 38.17 38.07 37.76 37.38 37.33 36.89 37.56 37.87
40.32 38.13 31.87 32.92 33.81 32.78 41.16 37.71 40.72 42.46 45.90 47.39 46.59 47.51 48.99 49.27 49.49 49.44 49.15 49.55 49.70 49.16 49.07 48.65 47.62 46.54 46.38 45.55 44.82 44.16 42.88 41.51 39.71 39.40 38.64 37.97 37.95 37.57 36.90 37.37 36.63 36.65 37.09 37.34 36.96 36.64 36.15 37.01 35.87
38.84 35.36 33.67 28.18 29.42 31.33 40.25 35.02 39.10 44.98 46.45 48.15 48.55 48.84 49.11 48.72 49.10 48.89 49.02 49.16 49.15 49.09 47.72 46.91 45.74 44.53 44.11 43.13 42.12 41.53 41.39 40.22 39.09 38.18 37.58 36.78 36.37 36.14 36.57 36.32 36.05 36.00 36.45 36.05 35.61 35.51 35.73 35.55 34.25
37.64 33.07 41.44 37.66 36.62 34.14 35.05 38.13 40.86 44.93 44.17 45.32 46.99 48.28 47.69 48.27 48.75 48.67 49.24 49.33 48.78 47.70 47.27 46.03 44.61 43.55 42.88 41.97 40.45 39.01 38.58 38.00 37.34 36.81 36.58 36.17 35.94 37.72 35.70 35.25 34.81 34.99 35.20 35.18 34.71 34.11 33.61 33.51 33.14
42.70 44.39 37.90 36.85 29.96 30.09 33.72 35.47 36.02 40.54 41.78 44.02 45.99 46.52 47.52 48.47 48.70 48.89 49.45 48.99 48.33 47.73 46.87 45.51 44.17 42.35 41.59 40.62 39.40 38.27 37.06 36.99 36.60 36.00 34.95 35.14 34.96 35.44 34.72 34.24 34.13 34.14 34.24 34.10 33.25 32.83 33.37 33.06 32.72
40.88 40.76 40.93 39.85 38.87 32.85 29.24 33.74 42.20 42.20 44.07 43.55 44.89 47.77 47.99 48.19 48.66 49.10 49.11 48.74 47.29 46.50 45.64 43.58 42.06 41.29 40.37 39.70 38.33 36.85 36.46 36.53 35.97 34.97 34.42 34.13 34.41 33.93 33.77 33.88 33.47 33.33 33.29 33.06 32.04 31.67 32.73 32.21 31.44
44.93 42.40 41.32 34.84 34.87 36.69 34.14 32.85 44.30 43.30 44.35 45.48 45.32 48.57 48.68 48.99 48.91 49.01 48.67 47.36 45.72 44.99 44.02 42.50 41.56 40.34 39.43 38.57 37.38 36.63 36.45 35.77 34.44 33.95 33.88 34.34 32.97 33.64 33.38 33.34 33.06 32.91 32.91 32.29 31.28 31.21 31.51 30.53 30.71

GFSSGP_sfc_wetblb_027.txt.gz
Wetbulb
68.04 63.27 60.30 54.58 44.17 42.59 40.58 44.41 44.76 50.58 50.83 51.41 52.02 50.50 49.53 51.00 51.26 48.67 60.13 66.44 69.47 70.81 73.04 73.52 74.72 74.30 73.41 72.90 71.88 70.63 69.76 68.60 67.70 66.53 66.24 66.21 67.12 66.85 67.28 66.38 66.35 65.75 65.50 65.18 65.26 66.03 66.36 67.32 67.39
66.13 63.61 55.25 49.78 40.48 35.41 38.51 45.14 46.12 48.36 51.09 52.56 53.71 51.67 50.82 50.72 57.56 59.50 59.93 64.35 70.29 70.98 72.57 73.03 74.49 74.40 73.60 72.72 71.68 70.75 69.74 68.52 67.67 66.47 65.96 65.67 67.12 67.48 66.62 66.15 65.90 65.61 64.87 64.46 64.25 64.36 64.81 65.11 65.15
64.29 62.37 49.89 45.42 41.70 38.04 38.15 44.87 46.28 50.62 52.30 52.94 51.98 53.28 51.62 53.17 58.19 59.36 61.85 64.25 70.64 71.02 72.23 72.97 74.49 74.53 74.24 73.07 72.06 71.03 70.15 68.43 67.53 66.10 66.34 66.47 67.40 68.40 65.72 66.61 65.75 65.10 64.37 63.85 63.65 63.54 63.59 64.32 64.55
57.54 53.44 49.64 42.10 40.61 45.23 44.73 44.88 47.50 49.93 52.09 53.86 52.26 50.75 55.46 57.49 57.83 61.55 63.71 64.35 64.52 67.57 69.92 73.24 74.47 74.55 74.19 73.56 72.23 70.98 70.09 68.75 67.52 66.68 66.24 66.15 67.25 68.43 67.62 66.90 65.50 65.26 64.63 64.06 63.62 63.49 63.59 63.22 62.96
54.87 49.61 41.99 40.21 42.05 45.76 47.31 47.33 48.86 47.62 49.63 51.38 52.01 50.53 53.10 58.27 60.82 62.33 62.82 64.03 66.93 69.78 71.20 72.77 74.36 74.47 74.21 73.32 71.65 70.91 70.24 69.32 67.38 66.80 66.88 67.78 68.26 68.95 68.16 67.15 65.92 65.26 64.63 64.27 64.13 63.89 63.81 64.68 65.12
49.94 48.01 39.14 37.64 41.46 47.02 48.21 49.31 47.53 46.86 47.87 50.90 50.45 49.38 52.18 58.45 60.38 61.15 63.01 62.52 69.35 69.78 71.54 72.48 72.95 73.74 73.77 72.95 71.93 70.94 69.97 68.98 67.60 67.03 67.96 67.97 68.44 69.20 68.59 67.02 66.05 65.55 65.27 65.10 65.14 64.69 65.45 66.48 67.03
48.24 44.35 40.12 40.25 42.19 45.22 48.94 48.98 46.27 46.33 47.33 49.14 51.03 48.64 51.36 56.09 60.69 62.91 61.68 63.14 65.15 68.78 70.13 70.70 71.44 71.94 72.36 72.61 71.85 71.53 70.11 69.40 68.74 67.17 67.25 68.00 67.61 67.59 67.07 68.03 66.76 66.23 66.33 66.00 66.34 66.22 65.61 65.82 66.45
50.97 46.29 42.20 41.20 42.71 44.00 49.48 49.37 48.72 48.08 47.49 53.40 51.91 48.69 48.79 55.63 61.60 63.08 62.37 63.17 63.69 65.81 67.58 69.10 69.45 70.36 69.78 70.49 71.10 70.99 70.43 69.72 69.37 68.55 67.37 66.74 66.07 66.41 67.82 67.59 67.59 66.92 66.45 66.11 65.09 65.44 65.79 65.76 65.86
54.76 43.76 41.76 43.36 44.00 46.58 50.00 48.74 51.75 53.22 50.50 51.92 52.22 51.29 54.87 58.81 60.84 60.23 59.51 60.24 61.93 63.95 64.60 66.25 67.33 68.22 67.87 69.91 69.74 70.20 69.64 68.80 68.19 67.30 66.43 65.29 63.02 62.74 63.89 65.13 65.48 67.50 66.22 65.28 65.44 65.76 66.14 66.84 66.46
50.08 44.36 45.52 48.89 48.55 47.34 50.41 49.73 51.35 51.09 50.52 49.94 50.94 54.16 53.82 56.31 56.62 58.45 58.24 58.67 59.51 61.49 62.74 63.99 65.19 65.71 66.55 70.11 68.48 67.84 67.96 66.76 65.82 65.11 63.67 63.57 62.31 61.11 62.88 63.20 65.19 66.26 66.21 66.28 65.90 66.26 67.13 66.12 62.73
50.66 46.88 49.57 50.65 52.06 51.95 50.17 49.66 51.59 48.97 47.90 51.26 51.18 52.99 54.41 55.51 54.85 54.75 53.62 58.13 59.41 61.11 62.38 63.78 63.61 64.90 65.96 66.63 67.30 66.88 65.83 65.23 64.91 64.29 63.47 62.91 62.88 60.12 59.87 59.85 60.80 60.39 61.77 61.09 62.30 61.78 62.54 61.76 61.10
47.58 51.76 52.23 52.38 53.68 52.30 49.46 51.49 49.08 49.81 49.83 53.20 53.58 54.08 53.75 54.32 54.92 54.90 54.66 53.09 55.87 59.93 62.05 63.72 64.19 63.44 64.35 66.23 66.30 65.86 65.05 64.58 63.75 63.89 62.89 61.05 59.23 58.47 58.05 57.96 58.98 59.54 59.80 59.28 59.66 59.42 59.49 59.71 60.96
47.26 49.53 52.44 53.47 53.32 52.65 52.31 49.68 49.59 49.49 52.25 53.86 54.68 54.73 53.84 54.05 54.34 55.03 53.23 54.76 56.97 59.24 60.71 62.51 62.87 63.27 63.36 64.07 64.84 63.81 64.60 63.84 62.83 62.24 62.11 61.23 59.98 59.16 59.38 59.49 59.56 59.58 60.08 59.96 60.06 61.31 61.78 61.98 61.04
47.98 49.56 50.25 52.64 52.42 52.09 50.34 49.10 49.44 50.71 52.55 52.15 52.85 52.87 53.23 52.89 53.49 52.54 52.47 53.24 54.75 57.58 59.45 61.58 62.16 62.17 63.42 63.04 63.80 63.69 63.45 64.91 64.28 64.33 64.31 62.69 61.84 61.09 61.09 61.09 61.67 62.80 62.81 62.61 62.17 61.71 61.49 61.23 60.37
48.13 45.31 46.71 47.93 51.24 50.57 51.89 46.90 46.86 50.80 52.09 51.25 52.49 51.53 53.52 50.40 52.03 52.24 53.70 54.20 53.87 54.42 55.01 57.02 57.67 59.35 60.82 62.60 63.30 63.76 65.37 65.43 64.75 64.34 64.53 64.23 62.60 61.78 61.57 61.83 61.06 61.55 61.98 59.63 57.65 54.88 53.29 52.25 52.63
43.57 43.30 39.17 45.94 48.73 50.55 49.77 43.02 48.91 51.05 49.92 49.80 50.96 49.77 49.17 51.71 52.67 52.56 53.61 53.61 53.97 54.12 55.61 56.78 58.53 56.10 56.99 60.80 62.92 64.24 65.22 64.26 63.57 62.72 60.91 59.07 58.89 61.89 59.23 54.57 53.39 54.40 53.95 51.24 49.67 48.96 48.73 48.24 48.09
39.94 35.96 38.19 41.94 48.73 48.66 47.78 44.21 49.21 50.97 50.43 49.82 48.01 48.06 47.97 49.71 50.83 51.69 53.35 52.99 53.37 53.92 56.35 57.12 57.29 55.73 58.14 61.56 61.79 60.47 59.41 57.41 56.00 55.68 54.73 53.87 53.17 53.03 52.94 51.62 49.47 49.33 49.13 48.15 47.66 47.15 46.40 45.64 45.88
33.31 34.84 37.99 39.07 44.21 46.83 45.95 45.45 47.39 49.49 50.02 50.15 48.29 48.00 46.84 49.19 49.86 51.38 53.30 54.40 56.14 57.03 57.47 57.93 58.65 59.56 60.56 58.74 56.10 54.87 54.28 53.29 53.11 51.32 50.29 50.23 49.93 49.22 48.85 47.83 46.73 47.08 46.85 45.52 44.63 44.04 43.64 43.37 42.98
38.05 36.69 36.73 41.53 46.14 45.15 44.59 45.29 47.54 48.64 48.98 46.44 47.07 45.91 46.24 48.00 49.79 51.84 52.90 55.01 56.59 57.24 57.85 58.40 59.25 59.31 60.38 56.52 53.99 52.19 49.90 50.03 49.38 48.86 47.98 47.02 46.90 46.61 45.04 45.18 44.62 44.04 43.79 42.11 42.16 42.22 41.27 41.01 41.03
38.55 36.23 36.20 41.24 45.66 44.77 44.57 44.31 47.96 49.11 48.35 49.91 48.15 47.80 46.52 47.27 48.75 50.51 51.53 52.70 54.78 55.00 55.63 56.74 56.09 55.67 56.68 55.77 53.66 51.51 49.91 48.81 48.28 47.32 45.20 44.37 43.76 44.01 43.64 41.97 41.83 41.09 41.24 39.76 38.86 38.78 38.62 39.47 39.57
37.24 35.74 35.92 37.28 42.69 44.35 42.63 41.93 44.47 47.28 49.39 48.47 49.50 49.45 49.49 48.66 48.67 47.95 48.32 50.03 51.19 51.56 52.59 53.38 53.44 53.74 53.60 53.29 52.69 51.43 50.11 48.20 46.62 45.41 44.10 42.76 42.26 42.02 41.59 40.59 39.99 39.48 39.26 37.82 37.09 37.14 37.00 35.90 37.92
33.85 39.73 39.03 38.46 39.01 34.93 42.90 35.10 39.84 44.56 45.11 45.70 45.62 45.68 48.29 48.06 48.74 48.96 49.08 48.66 49.33 49.29 50.73 51.96 52.64 52.74 52.35 52.13 51.22 48.77 46.47 44.93 44.90 44.91 43.48 42.05 40.90 40.13 40.47 39.93 38.83 38.18 38.22 36.47 36.70 38.32 36.22 36.42 35.21
35.29 40.75 38.79 38.75 37.83 39.03 39.34 37.30 38.11 42.42 42.19 45.69 47.82 44.22 47.37 48.40 48.79 49.00 49.41 50.14 49.78 48.89 47.59 47.62 48.48 48.72 48.71 48.37 47.85 46.96 44.57 44.14 43.59 42.09 40.67 40.08 39.05 39.05 39.27 38.50 37.38 36.87 37.00 35.78 35.55 35.24 34.78 35.21 35.72
41.17 37.80 37.77 38.46 37.45 32.23 37.35 38.16 35.55 39.63 43.69 44.65 46.08 45.80 46.97 47.70 48.45 49.32 50.03 50.22 48.32 47.31 46.60 46.30 47.03 45.79 45.98 46.02 45.04 44.04 42.19 40.71 39.39 38.47 37.91 37.89 37.79 37.59 37.30 37.73 35.90 35.51 35.55 35.15 34.82 34.92 34.18 34.31 35.11
37.98 33.08 27.05 25.84 27.97 28.53 38.48 37.33 38.83 41.76 43.25 46.13 44.14 45.89 46.80 47.94 48.45 48.72 48.54 48.15 46.99 45.96 45.59 45.82 45.05 43.41 43.18 42.99 41.92 40.65 38.84 37.87 37.15 36.69 35.84 35.61 35.55 35.15 34.70 34.98 34.13 34.04 34.44 34.81 34.40 33.98 33.59 33.93 32.57
34.36 33.34 26.22 20.90 25.54 29.28 39.47 33.56 37.42 47.70 44.47 46.15 47.43 47.03 47.16 47.54 48.28 48.37 48.38 47.63 46.51 46.14 44.72 43.65 42.76 41.45 40.96 40.19 39.33 38.70 38.27 37.34 36.50 36.01 35.19 34.63 34.32 34.18 33.98 33.72 33.63 33.56 34.02 33.71 33.24 32.97 32.91 33.06 31.33
33.92 30.91 36.03 32.78 33.24 32.31 35.19 36.61 39.20 41.38 42.19 45.09 45.35 45.94 45.78 46.64 47.48 47.88 48.25 47.74 46.17 44.45 43.43 42.66 41.58 40.49 39.89 38.60 37.31 36.22 36.20 35.93 35.00 34.43 34.38 33.91 33.66 36.33 33.43 33.10 32.83 32.79 32.94 32.84 32.24 31.74 31.05 30.90 30.58
38.49 40.23 30.43 32.14 25.99 27.98 31.06 31.21 33.31 37.85 39.84 43.48 44.35 44.41 45.41 46.64 47.09 47.74 48.07 47.43 45.67 44.78 42.92 41.68 40.91 39.80 38.70 37.26 36.12 35.70 34.98 34.89 34.24 33.63 32.86 32.96 32.90 33.01 32.74 32.38 32.13 32.05 32.15 31.89 31.00 30.52 31.17 30.24 30.03
36.15 35.61 35.86 36.43 33.19 29.43 26.84 31.35 38.76 39.88 42.06 43.16 44.54 45.18 45.61 46.24 46.74 47.51 47.81 47.23 45.41 44.02 42.35 40.36 39.45 38.63 37.39 36.43 35.34 34.76 34.57 34.31 33.56 32.90 32.47 32.21 32.32 32.10 32.05 31.95 31.72 31.68 31.61 31.45 30.36 30.07 30.68 29.72 28.80
41.54 38.33 37.81 30.22 31.89 34.83 31.18 30.98 40.65 41.18 42.42 44.39 44.55 45.85 46.35 47.08 47.10 47.36 47.16 45.57 44.67 42.82 40.77 39.49 38.63 37.59 36.44 35.94 35.21 34.56 34.25 33.23 32.21 31.91 32.18 32.50 31.51 31.78 31.56 31.86 32.11 31.66 32.02 31.46 30.06 29.17 29.13 28.23 28.21

GFSSGP_sfc_wetblb_030.txt.gz
Wetbulb
68.56 63.82 58.58 53.04 43.95 41.96 38.35 42.41 42.69 46.03 48.83 50.55 51.38 50.78 49.03 49.53 49.82 46.48 59.11 66.08 69.71 71.74 72.89 73.44 74.63 74.32 73.17 72.55 71.16 70.49 69.41 68.61 67.61 66.81 66.34 66.69 67.20 66.64 66.84 65.96 65.78 65.16 65.48 64.75 65.28 66.02 66.16 67.11 67.08
67.28 63.39 53.77 47.58 40.08 35.12 37.95 43.30 45.37 46.71 49.49 51.21 52.43 50.95 49.23 50.83 56.53 57.69 59.52 68.23 70.72 71.93 72.59 72.76 74.46 74.33 73.25 72.42 71.33 70.60 69.72 68.80 67.73 66.48 66.40 67.00 66.78 67.45 66.69 66.01 65.63 65.37 64.46 64.54 64.09 64.12 65.07 65.02 65.27
62.02 60.91 49.08 43.84 39.20 36.73 37.63 43.01 46.46 50.25 51.02 51.84 50.98 52.17 51.53 52.51 57.69 58.54 60.49 68.67 70.27 71.19 72.26 72.64 74.34 74.46 74.06 72.71 71.38 70.61 69.78 68.78 67.64 66.68 66.61 66.75 67.98 68.54 66.82 66.70 65.77 64.90 64.07 63.73 63.59 63.47 63.87 64.49 64.63
57.07 52.57 47.92 41.17 39.02 42.77 43.35 45.72 47.31 48.92 51.04 51.68 50.97 50.67 54.14 56.43 57.82 61.03 62.60 69.31 69.43 70.06 71.57 72.95 74.21 74.43 74.15 73.18 71.56 70.76 69.93 68.81 67.57 66.23 67.10 66.94 67.53 68.50 66.86 67.17 65.94 65.45 64.42 63.71 63.46 63.29 63.31 63.09 63.22
53.34 47.70 41.24 38.71 40.39 43.34 44.17 47.81 46.59 47.31 48.18 49.49 50.07 48.41 51.84 57.48 59.79 61.75 61.70 67.86 67.58 68.23 70.52 72.59 74.37 74.54 74.07 73.35 71.72 70.97 69.95 68.94 67.50 66.66 67.02 67.47 68.09 68.80 68.26 67.38 66.16 65.61 64.79 64.19 63.97 63.87 63.76 64.45 65.29
49.64 46.34 37.93 36.58 39.50 44.48 46.06 48.64 46.00 46.41 47.38 49.68 49.32 48.54 51.41 57.22 60.10 60.85 61.97 63.39 68.13 68.34 70.38 72.07 73.20 73.86 73.87 73.04 71.85 71.12 70.37 69.31 67.34 67.31 68.21 68.42 68.63 69.16 68.52 67.12 66.44 65.86 65.24 64.96 65.06 64.92 65.02 65.81 66.77
48.21 43.12 39.09 38.60 40.24 43.11 46.84 50.35 43.20 45.80 47.48 48.84 49.92 46.98 50.91 55.17 59.88 61.83 60.62 65.90 68.85 70.25 70.73 71.16 72.05 72.52 72.62 72.15 71.89 71.50 70.33 69.50 68.26 67.93 68.38 68.14 68.00 69.33 68.80 68.15 66.94 66.35 66.07 66.17 65.98 66.03 66.01 65.71 65.86
49.91 45.76 40.68 40.38 41.37 42.78 48.31 48.13 47.03 46.85 46.50 52.07 52.05 48.38 49.34 54.43 60.07 61.16 60.58 63.88 66.34 68.80 70.00 69.93 70.06 70.97 70.94 70.93 71.11 70.93 70.30 69.69 69.30 68.31 67.81 67.27 66.33 66.85 68.13 68.34 67.90 66.67 66.71 66.48 65.99 65.10 65.51 65.88 65.94
53.48 43.40 40.42 42.66 42.49 44.88 49.06 47.72 50.72 50.41 48.91 51.07 51.05 50.54 52.40 56.24 60.20 59.10 58.06 59.63 62.53 66.25 67.51 69.49 69.59 69.76 69.79 69.75 69.69 70.29 69.72 68.94 68.38 67.44 66.11 65.10 62.73 62.50 63.34 65.24 65.88 67.00 67.05 66.64 65.71 65.74 66.08 66.94 66.61
49.70 44.47 44.84 47.47 47.83 46.76 48.67 48.31 49.19 49.34 48.95 48.69 49.63 52.79 54.77 57.37 57.11 58.71 58.01 58.02 59.16 61.36 64.10 67.13 68.33 68.44 68.14 70.33 68.58 67.88 67.88 66.40 65.43 64.82 63.55 63.40 62.00 61.07 61.76 62.73 65.37 66.48 67.40 66.83 66.31 66.53 67.26 66.32 62.74
49.92 46.60 48.68 49.61 51.19 50.79 49.09 48.40 50.68 47.95 46.82 49.90 50.04 50.83 52.90 53.61 55.24 57.72 58.10 58.05 58.67 61.37 62.62 64.59 65.38 66.40 66.13 67.89 67.75 67.44 66.46 65.40 64.77 63.92 63.28 62.30 62.54 60.91 60.44 60.04 61.40 61.23 61.57 60.62 61.58 60.90 60.64 60.67 60.72
44.60 49.88 51.34 51.97 52.67 51.40 48.83 49.89 48.28 48.39 49.11 52.02 52.58 52.53 51.86 52.49 53.30 53.54 52.79 53.05 55.81 58.83 61.83 63.44 64.22 64.07 64.56 66.57 67.23 66.80 65.56 64.44 63.47 63.63 63.39 61.75 60.93 57.40 57.11 57.67 58.35 58.81 59.23 59.25 58.78 58.88 59.08 59.48 60.66
43.65 46.92 50.28 51.87 52.53 52.44 52.65 49.24 48.43 48.92 51.73 52.51 53.04 53.36 52.35 52.38 52.67 53.56 53.98 53.39 52.80 57.75 61.10 62.21 63.35 63.76 63.88 65.27 66.23 64.88 64.46 64.03 63.44 63.05 62.79 60.81 58.77 57.81 58.64 58.54 58.63 58.63 59.10 60.00 60.63 61.13 61.20 60.15 59.21
45.07 45.80 47.02 49.72 49.94 51.30 49.71 49.95 48.42 49.97 51.68 51.10 52.11 52.02 51.74 52.24 52.70 51.24 52.52 53.62 54.31 56.72 59.25 61.36 62.31 62.61 63.66 65.19 64.00 63.99 63.83 64.40 63.47 63.25 62.68 62.29 61.34 60.48 60.41 59.97 59.94 61.13 61.37 60.78 56.81 54.93 54.28 53.41 52.28
45.84 42.43 44.68 45.57 46.28 47.04 51.04 47.52 48.11 50.23 50.71 50.10 50.43 51.06 51.08 52.25 51.63 51.87 52.10 53.10 53.83 54.32 56.88 59.93 60.83 61.53 61.84 63.05 63.57 62.85 64.66 64.63 64.04 63.79 63.67 63.33 62.79 60.91 57.73 53.89 54.00 54.79 53.83 53.17 52.10 51.10 48.72 47.26 47.89
41.80 39.94 36.17 43.24 45.94 47.39 49.20 42.56 48.85 50.44 48.30 48.81 49.28 49.30 48.85 50.38 51.53 51.31 52.82 53.25 53.55 53.72 55.26 55.94 57.64 58.48 60.19 61.64 62.02 63.34 64.05 62.31 59.16 56.09 55.42 56.23 55.57 55.15 53.08 52.02 51.40 51.86 50.48 47.95 46.71 45.57 44.86 44.41 44.10
37.15 32.86 35.12 40.21 46.39 46.32 46.39 43.51 49.12 50.87 47.98 47.35 47.83 47.71 48.59 47.98 49.54 50.12 51.96 52.68 53.05 53.39 55.45 56.17 56.01 54.87 60.04 59.89 59.36 57.15 55.80 55.31 54.08 53.43 52.68 52.24 51.84 51.02 49.52 48.09 46.40 46.58 45.04 43.91 44.33 43.15 42.34 41.73 41.10
33.31 32.18 35.09 36.12 42.41 44.32 43.59 43.76 47.47 48.69 47.40 48.01 49.77 50.31 46.83 47.06 49.30 50.06 52.08 52.98 54.35 54.66 55.64 55.90 55.05 58.77 55.47 54.72 53.70 52.77 52.59 51.73 51.33 50.32 49.59 47.88 47.16 46.69 45.66 43.88 43.17 44.25 42.40 40.93 40.72 40.60 40.10 40.37 38.98
36.91 33.98 33.53 36.87 42.62 41.58 41.78 42.82 45.37 48.43 47.19 45.38 46.73 46.31 45.62 46.51 48.58 49.72 52.03 54.06 55.83 55.92 56.95 57.65 58.40 56.61 54.99 53.61 51.37 48.92 46.83 48.28 47.49 46.78 45.47 44.86 44.08 43.34 42.37 42.02 41.24 41.62 39.76 38.24 39.04 38.72 38.32 38.21 38.61
37.53 35.02 34.25 37.53 41.19 41.82 40.77 40.94 44.84 47.48 48.33 48.39 49.34 46.92 45.39 46.07 47.53 49.79 52.02 53.20 55.47 55.44 56.25 56.57 56.86 55.63 54.22 52.71 50.34 48.90 46.93 45.95 45.94 43.66 42.29 41.88 41.62 41.76 41.39 39.97 39.28 38.91 38.28 36.87 36.41 36.26 36.02 36.59 37.50
34.96 34.60 34.30 33.89 38.36 39.95 38.57 37.71 41.47 46.29 48.67 49.06 50.15 50.27 46.39 47.88 47.75 48.28 50.12 51.63 52.11 52.70 53.19 53.32 53.02 52.44 51.98 51.13 49.95 48.45 47.64 45.92 43.77 41.89 40.40 39.84 40.09 40.30 39.49 38.76 38.14 37.56 36.83 35.56 35.14 35.16 35.09 33.95 35.87
31.84 38.25 37.95 36.01 35.01 28.87 39.66 31.40 38.17 42.59 45.22 46.98 48.78 45.91 46.26 48.00 48.30 47.69 49.01 49.20 50.05 49.89 50.84 51.49 51.64 51.21 51.01 50.83 48.98 47.41 45.47 43.59 42.91 41.83 39.56 38.58 38.66 38.55 38.63 38.09 37.13 36.25 36.00 34.43 34.86 36.63 33.98 33.75 33.21
34.13 39.42 36.87 37.66 34.68 33.79 33.35 32.18 36.57 42.86 42.13 44.79 47.25 46.61 46.79 47.91 48.53 48.12 49.42 49.36 48.92 48.92 48.47 48.90 49.72 49.73 49.07 48.32 47.39 46.31 43.62 42.90 41.45 39.81 37.77 36.93 36.76 37.37 37.52 36.76 35.64 34.92 35.02 33.74 33.52 33.50 32.54 32.99 33.81
40.66 37.60 37.17 36.15 34.97 28.58 31.62 32.07 32.92 38.77 41.73 43.89 47.22 44.58 45.54 47.33 47.67 47.85 48.38 48.34 46.10 45.73 45.80 46.53 47.42 46.00 46.32 46.27 44.36 43.32 41.57 39.28 38.34 36.78 36.15 35.99 35.80 35.79 35.68 35.84 34.08 33.55 33.50 33.16 32.78 32.57 32.10 32.13 32.05
36.99 33.00 26.12 24.59 24.66 22.73 32.61 31.99 33.83 40.33 43.92 45.52 46.34 44.59 45.65 47.04 47.04 47.41 47.08 46.12 45.26 44.66 44.37 44.91 44.93 42.32 42.81 42.27 41.07 39.51 38.11 37.14 36.00 35.34 34.78 34.46 34.16 33.75 33.24 33.29 32.41 32.19 32.49 32.82 32.40 31.95 31.56 31.50 30.22
33.97 32.67 26.85 17.40 16.82 23.02 36.02 30.90 35.05 43.68 46.43 47.72 45.34 45.91 46.16 46.61 47.64 47.66 46.96 45.76 44.72 44.31 42.83 42.71 42.19 40.20 40.25 39.52 37.60 36.67 36.51 36.00 35.34 34.78 34.14 33.55 33.22 32.93 32.53 32.06 31.86 31.82 32.25 31.83 31.25 31.04 30.87 31.09 29.41
32.03 30.32 34.94 28.69 30.32 27.65 30.74 34.30 40.49 43.47 41.31 42.26 43.10 44.51 45.06 46.43 47.17 46.78 46.20 45.51 44.43 42.79 41.79 41.31 40.29 38.73 38.37 37.46 36.52 35.06 35.01 34.78 33.90 33.31 33.13 32.59 32.59 35.01 31.89 31.52 31.16 31.15 31.23 31.06 30.56 30.15 29.38 29.08 28.76
35.73 36.89 27.89 29.94 16.11 20.76 29.37 30.69 32.64 37.67 38.41 40.49 41.92 43.30 44.98 46.38 46.60 46.37 46.05 44.90 43.55 42.22 40.35 39.65 39.54 38.02 36.45 35.50 35.11 34.49 33.74 33.37 32.81 32.47 31.72 31.80 31.67 31.77 31.32 31.00 30.75 30.73 30.77 30.60 29.75 29.19 29.64 28.66 28.36
33.15 31.11 32.57 30.74 29.39 25.22 27.39 31.40 40.59 41.44 41.51 40.95 42.43 44.16 44.95 45.72 46.28 46.40 45.82 44.69 42.81 41.11 39.96 38.56 37.85 36.43 35.12 34.78 33.89 33.33 32.95 32.68 32.21 31.65 31.28 31.26 31.08 30.83 30.84 30.62 30.40 30.31 30.24 30.23 29.09 28.79 29.27 28.20 27.47
35.80 33.20 33.22 26.94 24.58 30.29 29.71 29.54 40.59 40.07 42.94 44.25 43.41 44.53 45.50 46.43 46.58 46.43 45.53 43.46 41.57 40.06 38.77 37.69 36.65 35.63 34.67 34.27 33.63 32.92 32.56 31.85 31.07 30.97 31.12 31.30 30.42 30.60 30.16 30.47 30.42 30.29 30.46 30.12 29.18 28.15 27.71 26.98 27.07

GFSSGP_sfc_wetblb_033.txt.gz
Wetbulb
68.21 65.56 55.45 51.12 43.35 40.47 36.94 41.11 41.85 44.68 46.20 48.32 49.87 49.36 50.13 49.21 48.80 45.48 58.91 65.38 68.88 70.63 72.71 73.30 74.66 74.30 73.09 71.80 71.01 70.24 69.08 67.98 67.34 66.92 66.12 66.34 66.28 65.77 65.82 65.87 65.46 64.80 65.10 64.22 65.56 66.31 66.90 67.82 67.07
64.61 61.60 52.52 46.04 39.30 34.22 36.25 41.82 44.54 46.83 48.53 49.71 49.22 48.44 49.21 50.45 55.66 56.41 60.60 67.30 70.51 71.95 72.25 72.33 74.49 74.22 73.10 71.71 70.97 70.29 69.35 68.50 67.32 66.39 66.54 66.77 66.74 66.70 66.21 65.49 65.35 65.23 64.47 64.12 63.94 64.23 65.25 65.16 65.31
61.06 57.43 47.80 42.70 37.26 35.45 36.22 42.25 44.21 48.61 50.39 51.09 49.07 51.38 50.13 52.14 57.12 57.78 59.65 68.88 71.29 71.23 71.85 72.16 74.31 74.38 73.30 72.10 71.13 70.44 69.57 68.81 67.57 66.50 66.63 67.06 66.78 67.57 66.56 66.25 65.40 64.60 63.81 63.46 63.44 63.44 63.64 64.48 64.88
55.69 51.60 46.79 40.34 38.20 41.47 41.12 43.22 45.99 47.33 50.16 51.65 50.51 49.15 53.15 55.71 56.33 59.51 66.30 69.17 69.71 69.88 70.34 72.42 74.23 74.37 73.91 73.05 71.29 70.55 69.75 68.95 67.57 66.68 66.68 66.93 67.51 68.79 67.42 67.10 66.01 65.40 64.22 63.69 63.32 63.00 62.93 62.76 63.06
51.82 46.90 40.23 37.74 39.39 41.42 42.90 46.24 45.71 45.79 47.27 47.92 49.04 48.57 51.58 57.18 59.11 60.83 67.21 68.70 68.19 69.07 70.27 71.84 74.28 74.36 74.23 72.58 71.51 70.80 70.04 69.04 67.61 66.28 67.33 67.26 67.63 69.08 67.36 67.51 66.38 65.82 64.81 64.19 63.82 63.70 63.74 64.15 65.20
48.84 45.24 37.32 36.10 38.64 42.24 44.08 46.94 45.51 44.30 46.05 48.68 48.46 49.77 51.83 57.13 58.86 59.58 65.89 66.95 68.74 69.05 70.45 71.66 72.94 73.75 73.80 72.88 71.99 71.27 70.16 69.15 67.63 66.79 67.43 67.96 68.64 68.91 68.44 67.51 66.52 65.97 65.32 64.78 64.72 64.78 64.77 65.30 66.17
46.96 41.75 38.39 36.51 38.32 41.16 44.79 48.40 44.55 44.95 44.23 48.05 50.24 48.25 50.61 54.41 59.45 60.23 61.14 65.40 67.21 68.49 69.92 70.74 71.89 72.37 72.46 72.52 72.06 71.72 70.72 69.85 68.10 67.73 68.59 68.55 68.62 69.61 68.82 67.72 67.02 66.46 66.14 66.09 65.99 65.92 65.93 65.95 65.84
49.34 44.91 38.56 39.10 39.69 41.29 46.76 47.47 46.32 45.20 46.14 50.20 50.31 48.05 48.23 53.91 58.85 59.90 60.55 65.80 66.77 68.26 69.74 70.18 71.13 71.43 71.14 70.55 71.16 71.03 70.71 70.05 68.91 68.64 68.58 67.50 66.53 67.65 68.96 68.71 68.15 66.90 66.56 66.62 66.35 65.73 65.22 65.67 66.06
50.93 42.43 39.86 41.41 41.06 43.40 46.56 46.06 49.43 49.89 46.86 49.46 49.11 50.24 51.46 55.40 59.83 58.44 58.83 62.06 64.17 67.37 67.95 69.41 69.96 70.07 69.95 69.58 69.68 70.31 69.83 69.00 68.46 67.10 66.31 65.45 62.64 62.12 63.19 65.29 66.24 67.21 66.82 66.86 66.56 65.99 66.16 66.99 66.55
49.13 44.44 43.62 46.00 45.30 44.58 47.83 47.38 48.32 48.30 48.31 47.59 48.16 50.95 54.78 56.79 58.39 58.09 57.48 59.43 61.41 64.08 65.62 68.84 68.83 68.95 68.75 70.30 68.45 67.77 67.82 66.51 65.40 64.72 62.96 62.46 61.29 60.68 61.64 62.04 64.97 66.47 66.75 67.39 66.30 66.72 67.51 66.03 62.35
48.14 45.87 48.10 48.77 49.74 49.80 47.50 47.47 49.38 46.94 45.85 49.02 49.01 50.19 52.21 55.14 55.47 57.70 57.88 57.72 59.67 62.85 63.81 66.87 67.54 68.21 67.92 68.49 67.29 66.75 66.09 64.92 64.29 63.36 62.52 61.89 61.98 60.33 59.85 59.36 59.57 60.55 61.49 60.24 60.63 59.71 59.20 59.02 59.46
42.64 47.06 49.80 51.01 51.99 50.79 48.25 49.27 47.29 47.12 47.86 50.31 51.23 51.55 50.75 51.53 54.07 55.14 57.03 57.69 57.26 58.22 62.15 64.61 65.97 66.11 66.36 67.00 67.46 66.85 65.93 64.44 63.51 63.42 62.92 61.30 60.49 59.02 57.61 57.57 57.99 58.05 58.41 58.13 58.20 58.19 59.74 60.37 60.52
42.20 44.86 48.20 49.83 50.79 50.73 51.61 49.62 48.00 48.60 50.87 51.85 51.81 51.71 51.18 51.07 51.54 52.09 53.13 53.36 53.39 54.92 59.67 62.58 63.90 64.30 64.50 64.99 66.25 65.29 65.18 64.49 63.86 63.21 63.18 61.73 60.27 57.20 56.79 57.17 58.20 58.66 58.65 60.43 59.67 57.97 55.87 53.67 53.52
43.50 44.28 44.60 46.27 47.33 48.15 47.66 48.24 48.27 48.40 50.56 50.04 50.48 50.76 51.38 51.10 51.08 50.81 51.35 52.20 51.91 52.43 56.80 61.62 63.06 64.00 63.72 65.08 64.64 64.89 64.23 64.03 63.79 64.03 63.48 62.00 60.83 60.80 60.44 57.07 56.27 53.43 55.34 53.84 52.95 52.07 51.06 49.24 46.81
45.01 41.19 43.15 43.70 44.88 44.70 47.63 44.46 45.80 50.50 50.72 48.48 49.13 49.31 50.93 51.38 51.14 50.96 51.82 51.63 52.68 54.07 55.80 59.66 62.05 62.71 62.94 64.42 64.45 63.66 64.46 64.71 63.40 63.03 63.04 62.82 62.26 56.45 52.70 53.14 52.17 51.64 51.61 51.19 49.62 48.14 45.08 43.63 43.75
40.41 38.21 34.41 41.29 44.23 45.30 46.35 38.90 46.41 50.63 50.84 48.36 48.35 47.66 48.49 49.68 51.01 50.64 50.93 51.51 52.57 53.10 54.52 58.03 62.39 61.52 62.18 63.05 62.07 62.88 63.51 61.07 56.86 56.35 56.00 55.55 54.66 53.46 52.03 51.10 49.81 48.49 46.50 44.83 43.40 41.78 41.34 40.61 39.86
35.50 31.94 32.38 37.57 44.52 43.99 44.04 40.32 45.95 50.24 48.01 46.33 46.67 46.97 48.26 48.52 49.52 49.54 50.77 51.23 52.13 52.50 53.90 53.72 56.45 58.71 60.28 60.81 58.41 56.69 56.07 54.76 53.51 52.93 52.38 51.81 50.96 49.66 47.65 46.16 44.62 42.88 41.33 40.52 41.19 40.38 39.65 38.34 38.51
29.19 33.51 33.98 33.92 40.25 41.38 40.71 41.17 44.91 47.21 47.10 46.20 46.71 46.58 47.33 47.78 48.75 49.38 50.14 50.16 51.26 52.13 53.95 54.22 55.67 56.80 56.76 54.47 52.89 52.12 51.95 50.98 50.83 49.66 48.75 48.09 46.94 44.79 43.29 41.69 41.18 40.77 39.24 38.33 37.94 38.07 37.56 37.84 36.62
35.70 32.92 31.77 35.12 40.21 37.81 37.73 39.31 42.24 45.11 45.61 46.95 45.84 46.41 46.83 46.56 47.14 48.88 49.58 51.93 53.03 53.87 54.44 53.61 55.45 53.04 54.34 52.88 50.82 49.04 48.45 47.46 46.49 46.09 45.52 44.33 42.69 41.91 40.37 39.85 39.36 38.75 37.34 36.19 36.88 36.63 35.74 36.02 36.61
35.79 34.20 32.86 36.34 39.50 37.61 36.47 36.67 40.43 41.65 42.86 45.97 47.38 47.86 47.45 45.25 46.31 48.16 50.18 52.59 54.23 54.58 55.28 55.78 53.71 52.41 52.32 51.54 48.46 47.29 46.25 45.37 43.70 42.56 42.43 40.81 40.04 40.08 39.80 38.33 37.59 36.98 36.36 35.36 34.57 34.32 34.22 34.38 35.60
33.36 31.91 32.53 32.98 36.76 38.34 35.55 33.78 36.32 41.18 44.54 46.60 48.57 49.47 49.70 47.97 46.25 47.09 49.53 52.21 53.06 53.77 54.04 54.78 52.77 51.39 50.28 48.89 47.74 45.62 45.52 44.47 42.88 41.42 38.48 38.20 38.68 38.66 38.16 37.38 36.70 35.81 35.18 34.04 33.54 33.37 32.96 31.90 33.90
30.81 36.32 35.69 34.69 33.29 26.42 34.90 25.23 33.36 37.42 40.91 44.35 46.69 47.96 48.15 45.77 47.15 48.31 49.52 50.78 51.94 52.64 52.24 51.73 51.04 49.74 49.16 49.31 47.43 46.76 44.59 42.07 40.74 38.44 36.59 36.73 37.31 36.99 37.37 36.69 35.65 34.79 34.27 32.87 33.49 34.36 31.78 32.31 31.33
33.24 38.47 36.22 36.06 32.52 29.76 31.06 26.38 29.55 38.36 37.88 41.91 43.59 47.10 46.24 45.91 47.33 47.86 50.46 51.64 51.03 49.97 49.71 49.37 49.23 48.93 47.92 47.25 46.91 45.45 42.89 41.75 38.94 36.79 35.37 35.09 35.38 35.96 35.96 35.41 34.24 33.55 33.24 32.04 31.95 31.36 30.91 31.47 31.44
39.41 36.76 36.28 36.23 32.82 25.07 29.16 28.77 27.91 32.44 37.66 41.09 44.27 45.70 45.73 46.81 47.10 48.42 49.10 48.81 46.90 46.69 47.46 48.17 48.36 46.44 46.13 45.75 44.31 44.03 41.29 38.95 37.28 35.49 34.73 34.35 34.24 34.47 34.29 34.22 32.89 32.19 32.06 31.45 31.08 30.87 30.55 30.24 30.15
36.24 33.38 25.55 23.86 25.11 22.12 30.14 28.56 30.98 35.21 39.45 42.28 43.60 43.88 45.53 44.98 46.35 47.00 47.53 46.83 45.60 45.65 45.82 46.68 46.78 43.62 43.28 42.53 41.50 40.56 38.96 38.02 36.14 34.81 34.08 33.40 33.08 32.70 32.09 32.07 31.30 31.05 31.14 31.31 31.03 30.58 30.11 29.98 28.49
32.88 31.98 26.12 19.39 20.74 22.26 31.61 25.82 30.71 39.18 41.93 42.85 44.13 44.50 43.53 44.88 46.47 47.83 47.98 46.87 45.57 44.90 44.77 44.48 43.67 41.10 40.21 39.30 37.07 36.28 36.33 36.11 34.73 34.06 33.27 32.67 32.34 32.02 31.57 31.15 30.84 30.66 30.98 30.53 30.05 29.79 29.61 29.65 27.94
32.25 29.79 33.69 27.94 29.71 26.39 27.33 30.31 35.25 40.21 40.94 41.27 42.20 42.86 42.65 44.48 46.39 47.45 46.25 45.23 44.30 42.79 42.31 42.22 40.54 38.54 37.82 36.53 35.83 34.29 34.48 34.08 33.11 32.26 32.17 31.77 31.79 33.67 30.99 30.56 30.20 30.08 30.21 29.99 29.47 29.00 28.21 27.75 27.49
34.33 35.42 27.61 29.32 19.43 19.17 23.59 26.85 29.80 33.72 37.80 39.95 39.61 40.90 42.24 45.00 46.29 45.51 44.71 43.62 42.39 40.97 39.30 39.29 39.34 37.52 35.75 34.84 34.86 33.67 32.56 32.33 31.84 31.60 30.97 31.00 30.87 30.93 30.51 30.10 29.72 29.63 29.66 29.50 28.63 28.09 28.61 27.47 27.29
33.07 31.49 31.71 29.17 26.59 20.04 18.28 26.03 35.08 38.05 39.24 37.94 39.59 41.74 43.72 44.90 44.79 44.33 43.62 42.52 40.86 39.37 38.56 37.07 36.40 35.38 34.32 34.16 33.20 32.52 31.64 31.42 31.22 30.76 30.48 30.43 30.25 30.10 30.02 29.64 29.31 29.17 29.10 28.89 27.91 27.54 28.19 26.96 26.63
36.14 32.83 32.78 25.34 20.83 25.67 27.41 26.87 38.30 37.36 38.57 40.76 42.11 43.54 44.65 45.21 44.86 43.82 42.31 40.81 39.78 37.96 37.03 35.52 34.80 34.29 33.45 33.28 32.67 31.57 31.21 30.82 30.31 30.14 30.21 30.40 29.54 29.66 29.33 29.20 29.07 28.87 28.99 28.42 27.34 26.64 26.86 26.47 25.99

GFSSGP_sfc_wetblb_036.txt.gz
Wetbulb
66.74 62.15 53.06 49.99 42.64 38.95 34.88 38.42 42.33 43.90 45.61 47.74 48.36 48.40 48.71 48.49 50.04 45.92 57.55 64.37 67.05 68.75 72.31 73.36 74.62 73.95 72.81 71.97 71.17 70.06 68.91 68.24 67.44 66.75 66.83 67.03 66.94 66.20 64.61 65.08 65.41 65.16 64.74 64.35 66.06 66.92 68.00 68.59 67.79
63.21 59.85 51.16 45.15 38.48 33.55 35.86 39.21 42.35 45.21 48.20 49.24 49.05 48.62 47.36 49.41 55.17 57.32 60.05 64.90 69.03 70.93 72.24 71.97 74.54 74.25 72.75 71.67 70.97 70.09 69.07 67.96 67.12 66.33 65.90 66.34 65.96 66.18 65.46 65.20 64.95 65.15 64.40 63.98 64.02 64.69 65.68 65.76 65.68
59.88 54.52 46.91 41.77 36.56 34.53 36.04 39.86 42.67 46.64 48.55 49.30 48.62 50.67 50.21 50.96 56.39 57.95 60.35 67.43 70.27 71.25 71.60 72.04 74.47 74.32 73.47 71.66 71.02 70.24 69.34 68.46 67.14 66.35 66.81 67.01 66.70 66.89 66.44 65.56 65.14 64.51 63.83 63.33 63.40 63.41 63.77 64.59 64.85
54.79 50.84 45.84 39.62 37.28 40.27 39.98 40.96 43.96 46.27 48.72 49.05 49.81 49.32 52.61 54.90 55.46 58.00 66.29 70.11 70.41 70.10 69.97 72.56 74.32 74.27 73.71 72.43 71.20 70.43 69.64 68.88 67.52 66.60 66.78 66.91 67.21 68.09 67.11 66.64 65.84 65.04 63.95 63.37 63.10 62.89 62.74 62.58 63.02
50.76 46.28 39.32 36.79 38.18 39.92 41.81 44.51 45.08 44.73 44.97 45.73 47.54 48.20 51.08 56.26 58.71 63.51 67.11 69.31 68.88 68.95 69.61 71.74 74.33 74.27 73.55 72.25 71.39 70.73 69.97 69.14 67.74 66.71 66.64 67.14 67.55 69.53 67.95 67.40 66.34 65.63 64.53 63.99 63.65 63.31 63.64 63.84 64.87
48.14 44.52 36.30 35.28 37.65 40.74 43.23 45.55 44.84 43.34 44.22 46.57 46.49 48.89 51.34 55.99 58.74 63.09 67.08 67.06 68.63 68.97 69.74 71.13 73.00 73.69 73.81 72.97 71.92 71.22 70.32 69.33 67.93 66.48 67.34 67.57 68.11 68.94 68.67 67.88 66.74 66.04 65.16 64.42 64.44 64.54 64.78 64.98 65.60
46.06 41.25 37.24 35.16 36.64 39.51 43.22 46.90 43.71 44.86 43.41 45.44 47.38 47.06 50.84 53.71 58.95 61.45 65.85 66.13 67.67 68.78 69.30 70.08 71.48 72.29 72.66 72.29 72.11 71.74 70.69 69.83 68.56 67.13 67.94 68.87 69.20 68.92 68.76 67.90 66.96 66.47 65.68 65.57 65.91 65.69 65.59 65.92 65.96
47.92 43.68 37.33 38.17 39.17 39.58 45.30 46.66 46.84 43.51 44.27 48.79 49.67 47.21 48.33 52.35 58.77 59.33 61.50 65.32 65.24 66.90 68.81 68.88 70.23 70.88 70.66 70.61 71.41 71.22 70.85 70.34 69.08 68.64 68.75 67.61 66.62 68.22 69.07 68.29 68.04 67.01 66.43 66.40 66.54 66.31 65.59 65.66 65.92
49.08 41.97 38.99 39.69 39.91 41.76 45.41 44.47 48.28 48.98 45.41 48.33 48.19 49.18 50.48 55.02 58.28 58.83 60.24 63.50 64.97 66.73 67.58 68.59 70.22 69.84 69.66 69.29 69.64 70.46 70.17 69.38 68.26 67.27 66.81 65.65 62.43 61.64 62.28 64.84 66.67 67.18 66.66 66.73 66.83 66.43 66.54 67.23 66.28
48.23 42.95 42.03 45.08 44.08 43.26 46.09 45.72 47.35 47.68 47.07 47.15 47.96 50.23 53.55 56.73 56.75 56.92 58.26 60.72 62.68 64.49 66.16 69.27 69.55 69.70 69.05 69.96 68.27 67.62 67.78 66.50 65.35 64.05 62.27 62.03 60.88 60.25 61.71 61.54 63.78 65.74 66.61 66.37 66.18 65.95 65.28 63.10 60.53
46.53 44.51 46.55 47.67 49.25 49.37 46.87 46.69 48.25 45.87 45.33 48.29 47.14 49.55 52.16 55.54 56.26 56.49 56.46 58.83 61.36 61.43 64.96 67.99 68.38 68.93 69.23 69.56 67.15 66.39 66.00 65.07 64.08 63.13 61.99 61.34 61.30 59.79 59.42 58.77 58.96 59.06 61.02 59.52 59.63 59.13 58.58 58.25 58.31
40.72 46.18 48.44 49.72 51.20 50.28 47.82 49.21 47.55 46.48 47.81 49.73 49.26 50.79 49.89 49.89 54.52 56.53 56.91 57.20 56.97 58.97 63.31 65.75 67.69 68.06 68.22 67.58 67.40 66.48 65.88 64.45 63.27 62.94 62.30 60.64 59.91 59.15 57.55 57.13 56.97 57.31 58.00 57.57 57.68 58.40 59.38 55.63 53.47
40.68 43.87 46.71 47.24 47.12 48.48 50.03 48.21 48.24 48.45 50.43 52.38 52.56 51.40 50.44 50.32 50.64 52.08 53.80 53.27 54.49 56.28 58.47 63.09 65.99 66.77 67.33 66.86 67.20 66.15 65.87 65.09 63.71 63.02 62.90 61.92 60.75 58.72 56.33 56.92 58.05 58.25 58.04 58.18 54.58 53.46 52.38 50.55 49.41
42.74 43.59 43.62 45.17 45.24 45.65 45.52 46.07 46.58 48.53 50.60 49.55 49.85 49.98 50.68 49.89 50.83 49.58 50.72 51.41 51.00 51.45 52.58 60.04 64.05 65.71 65.66 66.59 66.03 65.91 65.41 64.66 64.30 64.47 64.32 63.23 61.44 60.21 60.53 56.75 53.22 52.75 52.90 52.26 51.35 49.75 47.45 43.60 42.58
44.20 40.25 41.94 42.70 43.73 43.27 45.35 42.45 43.21 48.66 50.11 49.81 50.23 49.45 50.03 50.31 50.24 50.37 51.48 51.03 51.22 52.00 51.89 56.57 61.93 64.08 64.05 65.14 65.34 64.54 64.30 65.10 64.25 64.00 62.91 62.06 62.07 56.64 53.78 52.71 50.86 49.24 49.31 48.79 45.68 42.94 41.90 39.78 40.36
40.39 39.63 33.32 39.61 42.53 43.72 44.49 37.10 44.28 47.50 48.03 48.10 48.46 48.11 48.74 50.63 51.00 50.18 50.75 50.42 50.78 50.47 53.02 55.63 61.68 62.60 62.95 64.02 63.69 63.11 63.52 62.85 59.31 59.05 59.47 57.95 54.68 53.52 51.95 49.80 47.44 44.49 42.43 41.81 40.59 39.14 39.40 37.66 37.24
37.94 29.64 31.86 36.45 42.04 42.10 41.89 37.94 43.84 46.95 46.08 45.69 46.52 46.62 47.90 48.57 49.49 49.70 50.20 49.82 50.73 51.25 52.67 54.71 59.11 60.36 61.53 61.63 61.47 58.30 56.88 55.79 54.30 53.61 52.49 51.34 50.36 49.80 48.39 45.35 42.28 40.29 38.97 38.28 39.02 37.75 37.95 36.07 36.44
27.65 29.28 31.43 32.50 37.92 38.71 37.91 38.10 42.38 44.99 44.89 44.77 45.49 45.60 46.05 47.05 48.87 50.04 49.59 50.02 50.63 51.03 52.54 52.20 56.51 59.05 59.12 55.53 53.07 51.72 51.27 51.48 50.99 49.79 48.80 47.80 46.32 45.23 43.68 40.65 38.92 38.69 37.46 36.51 36.52 36.28 35.74 36.03 34.80
33.54 30.90 31.16 34.30 38.80 36.27 35.78 36.61 39.26 42.14 42.80 42.59 44.92 45.95 45.98 46.80 49.54 48.04 48.65 49.33 49.71 50.88 52.37 53.80 54.69 54.36 54.78 52.94 51.25 50.43 47.42 46.12 46.40 46.00 45.40 44.59 43.40 41.65 39.82 38.59 37.60 36.95 36.01 34.85 35.48 34.97 33.66 34.35 35.12
34.29 33.29 32.64 35.24 37.79 36.71 35.45 35.23 38.96 40.59 41.56 42.74 43.64 45.61 46.43 47.33 45.94 47.20 47.83 49.96 51.75 52.24 52.74 53.81 52.39 52.19 53.58 53.73 48.87 47.24 48.87 45.23 43.66 42.87 41.58 41.99 41.37 39.42 38.68 37.03 36.07 35.66 35.14 34.22 33.30 32.58 32.48 32.64 33.93
32.45 31.61 31.64 31.05 34.44 36.45 34.35 31.98 34.35 38.88 41.16 42.39 43.59 45.03 47.38 48.00 47.74 45.87 47.03 50.24 51.94 52.48 53.15 53.45 51.42 50.43 49.40 47.75 46.43 43.97 43.94 43.00 41.64 40.84 40.36 39.32 38.40 37.74 36.95 36.09 35.40 34.51 34.23 33.22 32.26 31.65 31.93 30.84 32.14
30.23 35.15 34.55 33.00 30.44 25.45 32.75 24.34 30.67 34.48 36.61 38.30 40.98 43.57 46.06 46.92 46.62 46.48 46.98 49.88 51.70 52.26 52.88 51.89 50.44 48.50 47.59 48.07 46.99 45.84 44.73 42.08 41.81 39.88 38.87 37.49 36.25 36.12 36.11 35.46 34.52 33.67 33.27 32.00 32.72 32.55 30.66 31.18 29.72
31.99 36.94 34.43 34.37 31.19 29.24 29.75 25.87 27.17 33.04 33.73 37.06 39.41 41.73 45.02 47.07 47.62 46.15 47.63 50.95 51.61 51.65 50.88 49.24 47.97 47.33 46.23 46.60 46.74 44.70 41.51 40.00 39.34 37.70 35.88 33.98 34.05 34.65 34.81 34.21 33.33 32.66 32.33 31.00 30.77 29.98 29.63 30.11 29.64
37.92 35.38 34.91 34.86 33.45 25.81 28.40 27.16 28.20 31.05 33.42 36.35 39.79 41.49 45.37 46.48 45.49 46.84 48.36 50.76 49.78 49.06 48.46 48.03 47.49 45.45 45.19 45.43 45.49 44.22 40.50 38.57 36.54 34.56 33.72 33.08 33.12 33.18 33.04 33.10 31.97 31.58 31.37 30.51 30.06 29.65 29.34 28.99 28.66
34.64 32.18 23.52 21.24 23.09 20.83 29.17 26.89 29.68 33.23 35.31 37.11 38.63 41.07 43.13 44.73 43.93 45.57 47.65 49.08 47.57 47.78 47.62 47.51 46.82 44.05 45.97 45.21 44.05 42.44 39.63 37.62 35.78 34.11 33.39 32.46 32.01 31.36 30.88 31.10 30.78 30.50 30.54 30.45 30.19 29.60 29.09 28.84 27.59
31.57 31.03 21.76 13.55 18.06 20.93 29.44 24.21 29.17 36.81 40.22 41.26 41.87 41.59 43.03 42.53 43.57 46.35 48.30 49.27 48.37 47.83 47.38 47.18 45.37 42.11 43.08 41.45 38.37 37.61 37.51 36.57 34.90 33.84 32.82 31.86 31.25 30.84 30.47 30.28 30.26 30.21 30.39 29.72 29.27 29.01 28.72 28.49 26.95
32.53 28.93 33.27 26.38 25.71 22.93 27.58 28.63 34.28 37.04 37.28 38.78 39.33 39.90 38.91 41.72 43.93 46.07 48.16 48.48 47.11 46.70 45.79 45.03 42.63 40.00 38.92 37.45 36.77 34.95 34.76 34.24 32.76 31.43 31.53 31.18 30.90 32.25 30.06 30.05 29.80 29.68 29.60 29.12 28.68 28.20 27.37 26.69 26.42
34.99 36.69 28.23 28.35 19.54 17.35 21.74 23.09 26.30 32.72 34.61 37.47 39.05 39.68 40.68 42.07 44.07 46.02 46.71 45.27 45.05 43.92 42.08 41.53 40.83 38.51 36.29 35.31 35.25 33.75 32.34 32.17 31.38 31.20 30.14 30.03 30.05 30.17 29.92 29.51 29.36 29.15 28.89 28.49 27.62 27.04 27.39 26.48 26.49
33.04 30.85 32.44 30.54 27.94 17.17 15.74 22.78 31.97 35.02 36.42 39.01 38.62 38.04 39.93 42.78 44.92 45.05 43.97 42.07 40.63 40.24 39.90 37.84 36.86 36.02 34.49 33.83 32.86 32.24 31.14 30.66 30.40 30.15 29.56 29.46 29.47 29.61 29.39 29.21 28.81 28.40 27.99 27.60 26.61 26.19 27.19 26.35 26.14
35.77 32.58 32.29 26.52 21.45 24.68 21.76 24.29 37.21 37.07 38.98 40.87 40.13 40.21 41.37 43.78 43.60 42.23 40.63 39.68 39.40 37.61 37.34 36.08 35.44 34.57 33.46 32.77 32.06 31.02 30.67 30.10 29.63 29.12 29.11 29.53 28.75 29.00 28.84 28.70 28.25 27.77 27.75 26.88 25.82 25.61 26.10 25.69 25.47

GFSSGP_sfc_wetblb_039.txt.gz
Wetbulb
66.46 63.15 56.57 55.33 48.91 45.59 41.53 42.89 47.17 48.00 49.50 52.85 52.58 52.61 52.81 53.50 53.34 51.96 63.79 67.44 67.90 70.03 72.85 74.01 74.85 74.34 73.08 72.06 71.29 70.19 69.36 68.55 67.46 67.27 67.78 68.20 68.56 67.05 64.78 65.40 65.60 65.62 65.17 65.35 67.15 68.02 69.25 68.96 68.48
63.93 60.75 55.54 50.65 44.39 40.40 41.89 44.61 46.28 49.24 51.49 52.05 51.97 53.50 53.06 54.31 59.11 60.58 64.09 66.60 69.19 71.48 73.34 73.26 74.56 74.16 72.78 71.82 70.95 69.92 68.98 68.04 67.38 66.42 66.28 66.15 65.61 65.79 65.73 65.61 65.37 65.33 64.61 64.45 64.57 65.43 66.45 66.75 66.70
60.82 55.61 52.56 47.41 42.50 40.13 41.65 44.78 48.63 49.73 50.91 50.90 52.89 54.87 54.53 55.88 59.93 61.36 64.80 67.85 70.39 72.15 73.33 73.17 74.19 74.06 73.10 71.86 70.99 70.05 69.06 68.13 67.15 66.58 66.54 66.68 66.98 66.68 65.96 65.54 65.44 64.95 64.20 63.68 63.76 63.96 64.63 65.06 64.79
57.75 54.96 50.29 44.77 41.63 43.93 44.56 46.95 48.18 49.12 51.86 52.20 53.30 53.55 57.16 59.87 61.27 62.53 66.87 70.35 70.89 72.01 73.15 73.71 74.21 74.25 73.19 72.50 71.14 70.26 69.47 68.61 67.30 66.81 67.18 67.20 66.81 67.32 67.24 66.53 65.94 65.11 64.19 63.72 63.33 63.17 63.19 63.29 63.91
54.15 50.85 44.30 41.99 42.14 44.35 46.62 48.32 49.15 48.79 49.01 49.89 51.54 52.15 55.35 59.96 62.14 65.85 68.65 70.48 69.94 70.44 72.54 73.20 74.44 74.31 73.27 71.94 71.37 70.60 69.98 69.14 67.75 66.94 66.96 67.14 67.18 68.60 67.92 67.31 66.37 65.58 64.46 64.30 63.96 63.49 63.88 64.07 65.22
51.23 48.76 41.43 39.87 41.96 44.84 47.26 49.28 49.40 48.54 49.00 49.40 51.09 52.63 55.66 60.15 62.54 67.08 69.60 70.06 70.61 70.68 71.99 72.80 73.10 73.66 73.37 72.48 71.91 71.23 70.31 69.54 68.06 67.00 67.10 67.41 67.78 68.80 68.46 68.03 66.99 66.10 65.13 64.54 64.70 65.15 65.50 65.57 65.62
49.41 45.51 41.71 40.71 40.45 43.32 46.36 50.14 48.71 48.92 49.22 49.71 53.17 51.87 55.57 58.00 62.71 67.74 68.92 69.75 70.44 71.15 71.48 72.23 72.78 72.82 72.59 72.40 72.00 71.74 70.89 70.16 69.06 67.40 67.92 68.40 68.53 68.75 69.95 68.35 67.17 66.49 65.60 65.47 65.94 66.02 65.68 65.57 65.82
50.39 47.74 41.54 41.92 42.15 43.07 48.62 49.55 51.39 49.48 48.34 52.59 54.23 51.61 53.30 57.53 62.05 66.51 67.65 68.09 68.97 70.42 71.09 71.50 72.57 72.49 72.58 72.08 71.37 71.26 70.94 70.26 69.34 68.35 68.37 67.51 66.14 67.88 69.28 68.09 67.94 66.64 66.11 66.08 66.62 66.55 66.28 66.08 66.31
51.41 45.89 42.08 42.32 41.78 44.96 49.16 48.24 51.68 52.38 50.81 52.03 53.34 53.82 55.12 58.67 60.89 63.17 64.74 66.16 67.04 68.05 70.08 71.03 71.65 72.31 72.38 71.72 71.03 70.75 70.15 69.49 68.19 67.54 67.06 66.41 66.32 65.45 65.67 65.20 66.78 66.90 66.36 66.47 66.86 66.67 66.92 66.98 65.51
50.43 45.44 44.28 47.07 46.49 46.72 48.45 48.75 49.67 50.73 50.14 51.31 52.67 54.84 57.46 59.26 59.62 60.65 61.44 63.26 65.40 66.68 68.29 70.03 70.60 70.92 71.68 71.09 71.27 70.95 70.24 70.04 68.46 66.85 67.54 66.99 66.06 65.39 64.34 63.01 62.98 64.25 65.54 65.19 65.32 64.64 63.59 63.15 64.32
49.65 45.17 47.56 48.74 50.58 51.62 49.94 49.63 51.18 49.50 48.74 51.42 51.82 53.18 54.34 58.37 59.65 59.39 60.75 62.10 63.86 66.00 67.71 69.15 69.47 69.65 70.41 70.47 70.45 70.05 69.69 68.88 67.91 66.73 65.58 65.46 64.64 64.50 64.58 64.32 64.16 64.51 62.66 64.70 63.54 63.67 63.76 62.86 60.37
44.14 47.27 49.00 50.09 51.67 51.03 49.73 51.38 50.70 49.94 51.30 53.00 53.02 53.36 53.47 54.60 54.99 59.38 60.08 60.67 62.29 64.14 66.54 68.46 69.39 68.69 69.18 69.93 69.48 69.53 68.77 68.22 67.00 66.58 65.65 65.08 64.67 64.08 64.08 62.83 62.55 63.06 63.52 63.36 63.61 61.06 55.16 54.15 51.77
43.87 45.26 47.42 48.35 46.93 47.35 49.97 49.08 49.88 50.45 53.47 54.10 54.96 55.02 54.60 54.66 54.42 54.91 57.44 59.95 60.55 60.69 63.12 66.99 68.99 68.30 68.49 68.56 68.26 68.62 68.83 67.89 67.30 66.35 65.85 65.12 64.04 63.20 61.70 62.41 62.94 62.53 61.02 57.81 55.14 53.25 51.49 49.07 49.26
44.40 44.71 44.95 46.13 46.21 46.88 46.30 47.04 48.27 49.94 53.11 53.19 53.15 53.99 54.33 53.49 54.83 55.02 54.62 55.18 55.70 56.89 57.90 62.41 66.89 68.79 68.46 67.60 68.06 68.35 68.89 68.41 67.31 65.91 65.11 64.29 63.79 61.29 61.87 55.91 54.59 53.78 53.15 52.12 52.50 49.94 48.99 47.21 46.77
45.21 41.97 43.31 44.06 45.10 44.63 46.48 42.78 42.99 49.42 51.10 51.00 51.77 52.83 54.08 54.96 55.60 54.20 55.69 55.53 56.29 56.57 56.69 56.98 62.88 67.45 68.07 68.37 68.68 68.53 68.34 67.87 66.51 65.70 65.51 64.67 62.63 61.60 56.02 53.42 51.62 50.67 51.46 48.31 48.09 47.95 46.97 45.81 45.08
41.38 40.81 35.87 41.60 43.58 44.76 45.19 36.89 44.98 48.49 48.31 48.60 49.95 51.47 52.49 54.18 55.48 56.21 55.19 55.05 56.16 55.28 54.87 56.58 60.40 65.18 66.87 67.70 67.91 67.59 67.67 67.55 66.16 64.90 63.87 61.89 58.17 55.87 53.06 50.26 48.37 46.28 47.42 47.37 45.67 45.47 45.53 43.92 43.45
36.81 31.26 34.12 37.42 43.30 43.24 42.89 39.35 45.33 48.08 46.77 46.52 47.85 49.49 50.69 52.27 54.55 55.49 54.72 54.53 55.10 55.05 55.35 56.30 60.30 63.63 65.09 66.53 66.56 66.70 66.14 64.26 61.31 58.00 56.05 55.03 53.94 53.15 49.33 46.61 46.00 45.41 44.63 44.67 44.61 43.31 44.37 42.25 42.63
29.83 31.22 33.32 34.37 38.93 39.65 38.03 38.24 42.23 44.92 45.04 46.13 46.85 47.67 48.85 49.73 51.26 53.70 54.31 54.15 54.11 54.78 55.69 56.82 59.76 62.81 64.12 64.42 61.08 58.92 57.54 56.31 55.89 53.39 51.26 50.12 48.67 47.93 46.08 43.81 43.92 43.90 43.22 42.62 42.86 41.68 42.26 41.30 40.99
34.88 33.68 32.95 36.16 39.22 37.22 36.47 37.23 39.98 43.11 43.45 42.99 44.62 46.12 47.71 48.84 52.02 53.25 53.30 53.66 53.48 53.93 55.51 56.14 59.66 61.80 60.25 58.22 57.00 55.68 53.47 53.24 51.03 48.42 47.29 46.67 45.85 44.94 43.54 43.05 42.26 42.36 41.44 40.46 40.67 41.63 40.41 40.08 40.97
34.28 32.46 32.17 35.17 37.89 36.77 35.73 34.97 38.75 40.71 41.66 43.20 43.78 44.77 46.44 48.51 50.00 52.03 52.37 52.51 52.96 54.01 55.21 56.55 59.04 59.08 58.98 58.83 56.32 54.11 52.46 50.33 49.92 45.80 45.02 45.50 43.82 42.53 42.43 42.03 41.17 41.23 40.47 39.97 39.70 39.95 39.72 39.08 39.86
33.35 32.24 32.16 31.50 35.17 36.81 34.58 32.39 36.20 39.66 41.01 42.25 43.78 45.15 46.43 47.20 48.63 51.12 50.74 51.54 53.78 53.96 54.85 55.96 56.13 56.52 55.89 51.63 50.30 47.90 47.64 46.57 44.83 42.46 41.85 42.80 41.98 41.43 41.27 40.97 40.43 40.32 40.63 38.86 38.56 39.01 38.97 37.41 38.49
30.20 35.63 34.99 33.31 31.77 26.24 34.14 24.71 33.75 37.29 38.29 40.40 41.29 42.74 44.21 45.68 47.54 50.33 50.99 51.07 53.07 55.03 55.62 55.72 54.56 53.48 51.83 51.63 51.06 50.20 49.94 46.96 45.58 41.82 40.66 39.43 40.10 39.66 40.28 39.80 39.72 39.42 39.25 38.58 38.21 37.98 37.94 38.25 35.91
32.70 36.81 34.54 34.11 31.97 30.33 30.78 27.62 32.62 35.09 34.61 37.49 40.21 41.91 42.76 45.42 46.95 48.82 50.60 51.65 53.42 54.88 55.50 54.32 52.79 51.62 50.63 51.47 52.02 51.87 48.44 44.76 41.37 38.91 37.85 36.79 37.79 39.34 38.98 39.02 38.73 38.07 37.96 37.44 37.37 36.82 36.69 36.87 36.43
38.25 34.80 35.21 34.86 33.24 25.12 29.71 28.61 29.48 33.80 36.42 38.50 40.48 42.05 43.48 45.43 47.30 49.57 51.14 51.80 53.10 54.43 53.56 51.86 50.99 49.15 49.42 49.83 48.79 47.41 43.41 40.78 37.86 37.13 36.21 35.90 37.73 37.59 37.58 37.48 37.55 37.52 37.19 36.96 36.58 36.21 35.97 35.54 35.32
35.86 33.38 24.20 21.33 22.78 21.23 29.97 27.96 30.80 36.02 37.71 38.68 39.31 40.58 42.50 45.16 47.01 47.72 48.45 50.69 51.96 52.67 51.50 50.38 49.63 47.23 47.89 47.84 46.55 45.25 42.58 40.54 38.27 37.14 36.70 36.69 36.18 36.06 36.03 36.81 36.58 36.46 36.43 36.18 36.38 36.09 35.72 35.24 34.89
33.33 32.29 24.45 14.63 17.37 21.85 29.25 25.70 31.00 37.48 40.40 41.75 42.14 42.27 43.30 44.26 46.20 46.61 48.71 50.96 51.91 52.17 50.63 50.24 48.44 46.51 47.15 46.44 44.15 42.20 41.26 39.60 38.42 37.07 37.52 37.07 36.40 35.68 35.89 35.78 36.04 35.77 35.69 35.53 35.59 35.61 35.38 34.96 34.55
32.17 29.06 34.04 25.53 26.91 22.82 26.58 30.16 35.48 38.74 38.44 39.41 40.18 41.87 42.13 42.24 45.11 46.59 48.61 50.61 51.60 51.23 50.45 49.06 47.12 45.73 45.15 43.09 40.52 39.63 38.97 38.04 37.40 37.08 36.98 36.23 35.74 35.27 35.40 35.68 35.29 35.18 35.07 34.76 34.59 34.71 34.00 33.94 33.81
33.81 36.08 27.28 27.97 19.96 18.57 23.62 25.00 27.38 32.78 35.52 38.33 40.27 42.33 42.31 42.58 43.58 46.38 48.70 49.89 50.56 50.71 48.57 47.31 45.59 43.30 41.87 40.42 39.26 38.02 37.37 37.03 36.24 36.18 35.21 35.33 35.24 35.13 34.94 34.82 34.84 34.55 34.24 33.91 33.53 33.36 33.28 33.11 33.51
32.08 30.21 32.38 31.44 29.24 21.86 20.37 24.94 33.57 34.68 36.74 38.79 40.65 42.58 42.35 40.82 44.50 46.59 48.13 48.34 47.38 45.83 45.34 43.16 41.42 39.64 38.44 37.81 37.18 36.62 35.52 35.16 35.27 34.68 34.43 34.51 34.67 34.64 34.38 34.26 33.87 33.64 33.15 32.82 32.67 32.26 32.53 31.81 32.18
34.96 32.82 31.82 26.28 25.26 27.56 25.99 25.55 39.21 38.23 39.64 41.07 42.04 43.31 43.48 43.47 45.08 45.71 43.48 42.53 43.31 42.04 41.82 41.66 39.98 37.96 36.59 36.70 35.98 34.81 34.37 34.30 33.96 33.56 33.63 34.34 33.71 34.09 33.61 33.46 32.93 32.55 32.16 31.90 31.47 31.15 31.66 31.48 31.25

GFSSGP_sfc_wetblb_042.txt.gz
Wetbulb
67.82 66.56 64.08 60.67 51.69 50.75 47.26 46.96 51.93 51.43 52.26 56.46 56.23 55.69 56.34 57.35 57.32 55.20 67.20 70.39 70.96 72.33 73.72 74.68 74.61 74.25 73.41 72.12 71.36 70.96 70.21 69.40 68.54 69.65 69.15 70.51 69.31 67.65 65.29 65.96 65.87 65.79 64.93 66.61 67.57 68.74 69.52 69.74 69.13
66.71 63.00 62.18 57.79 48.38 45.33 46.91 50.38 48.56 52.72 54.59 56.12 56.23 56.33 56.30 56.65 61.53 64.10 66.30 70.00 71.33 72.60 74.09 74.02 74.50 74.20 72.84 71.94 71.05 70.12 69.52 68.51 67.70 67.79 67.76 67.75 66.85 66.44 66.60 66.12 65.96 65.11 64.59 64.86 65.49 66.28 67.10 67.30 67.24
64.51 60.52 56.60 52.41 48.71 45.34 46.70 50.49 51.61 53.50 54.91 54.62 56.21 58.27 57.95 58.36 62.68 65.14 68.49 70.35 71.63 72.78 73.82 74.01 74.19 73.83 72.90 71.68 70.67 69.79 68.88 68.25 67.48 67.01 67.12 66.93 66.97 66.41 66.28 66.02 65.96 65.27 64.40 64.12 64.31 64.61 65.48 65.44 64.95
62.66 59.77 56.88 48.49 46.40 49.58 50.06 51.30 53.49 53.02 54.85 55.46 56.18 56.03 60.32 63.30 64.27 66.21 69.09 71.21 71.62 72.62 73.38 73.71 74.01 73.92 73.20 72.35 70.82 69.95 69.17 68.16 67.36 67.38 67.60 67.59 67.76 67.42 67.30 66.77 66.37 65.34 64.64 64.22 63.90 63.68 64.03 64.51 65.01
61.90 57.71 49.19 46.99 47.49 50.51 52.17 53.19 53.62 52.55 53.30 54.02 54.36 54.95 57.73 63.46 65.61 67.39 70.12 71.24 71.41 72.32 72.73 73.67 74.13 73.90 73.24 71.92 71.08 70.28 69.69 68.68 67.56 67.40 67.42 67.87 67.61 68.07 67.98 67.25 66.73 65.79 64.81 64.82 64.50 64.41 64.58 64.65 65.36
54.90 55.33 46.24 44.29 47.03 50.36 52.25 53.92 53.31 53.10 53.71 54.12 53.32 54.30 57.43 64.35 65.73 68.70 70.81 71.26 71.90 72.18 72.38 72.96 73.03 73.45 73.16 72.46 71.59 70.77 70.16 69.22 67.85 67.33 67.45 67.28 67.20 68.72 68.55 67.93 67.16 66.33 65.28 64.87 65.12 65.42 65.53 65.57 65.55
52.51 50.27 45.94 46.64 47.01 48.56 51.02 54.09 52.56 53.00 53.24 53.48 56.06 53.44 58.43 61.90 66.47 69.84 70.72 71.52 71.90 72.36 72.07 72.35 72.85 72.76 72.07 72.17 71.99 71.62 70.63 69.96 68.49 67.49 67.93 67.66 67.66 67.85 68.94 68.39 67.40 66.59 65.65 65.51 65.91 65.99 65.75 65.26 65.55
55.27 51.84 46.54 47.50 46.16 46.87 51.73 52.67 54.11 53.26 52.90 55.39 56.99 52.58 55.11 61.28 66.73 69.72 70.47 70.95 71.32 71.81 71.64 71.85 72.15 72.13 72.35 72.26 71.38 71.28 70.99 70.36 69.62 68.48 68.56 67.49 66.70 68.82 69.70 68.41 67.84 66.59 66.10 66.06 66.36 66.40 66.21 66.21 66.30
57.19 47.84 44.75 46.26 46.74 48.30 52.43 51.02 54.55 55.55 54.14 55.67 56.49 56.71 58.95 61.29 65.58 67.90 68.25 68.96 69.68 70.39 71.14 71.48 72.04 71.94 72.11 72.04 71.17 70.78 70.11 69.32 68.27 67.43 67.33 66.36 67.70 68.53 68.31 65.83 67.01 66.88 66.12 66.15 66.41 66.42 66.57 65.76 65.32
52.45 47.42 46.90 50.69 51.43 49.71 51.50 51.93 53.12 53.02 53.55 54.28 55.91 57.79 59.98 61.54 63.90 65.17 65.71 66.34 67.59 68.66 70.30 71.18 71.79 71.89 71.63 71.55 72.20 71.51 70.69 69.92 69.04 66.97 67.34 67.42 66.54 66.69 66.41 64.28 63.38 64.46 65.23 64.82 64.75 63.94 63.33 63.91 67.63
51.68 47.73 50.60 51.08 52.29 53.15 52.64 52.72 54.60 52.61 51.36 54.74 54.84 56.52 57.95 59.47 61.73 62.68 64.29 65.34 66.98 68.63 69.91 70.78 71.51 71.61 71.80 71.74 71.78 71.49 71.05 70.06 69.51 67.80 66.97 66.68 65.86 65.14 65.27 66.28 65.79 66.64 63.06 66.89 66.14 66.68 66.89 63.89 61.97
46.96 50.44 51.36 51.75 53.56 52.82 51.83 54.23 52.86 53.48 53.64 56.66 57.01 57.44 58.17 58.73 59.31 60.93 63.23 64.32 65.48 67.11 68.78 70.36 71.33 71.31 70.48 70.63 71.15 71.31 70.69 69.97 69.36 68.32 66.54 66.17 65.95 66.15 66.27 66.31 66.54 66.73 67.27 66.83 67.29 63.17 58.68 57.14 57.27
47.11 48.63 49.73 51.00 51.18 51.00 51.59 50.33 51.37 52.47 56.13 57.94 58.36 58.27 58.48 59.19 59.90 60.86 60.51 63.39 65.39 65.36 67.53 69.39 70.96 71.06 70.58 69.93 69.88 70.55 70.45 69.88 69.66 68.57 67.40 67.20 66.67 66.34 66.21 65.67 66.46 66.66 65.39 62.53 60.56 56.55 54.70 57.17 55.85
47.66 47.65 48.39 49.37 49.35 50.01 48.11 49.08 50.24 51.48 54.33 54.10 55.00 55.86 57.37 58.33 59.61 60.45 60.57 60.36 60.95 64.37 65.03 67.34 69.78 70.92 71.01 69.43 69.37 69.39 70.57 70.13 69.93 68.82 67.70 67.58 66.76 65.35 64.94 62.41 58.75 56.33 55.93 55.19 57.29 57.56 56.14 54.58 52.32
48.11 44.51 46.90 47.61 48.43 47.64 49.35 45.28 46.29 51.60 52.98 52.26 53.37 54.63 55.64 56.65 58.65 59.48 60.83 61.05 61.58 61.76 62.00 61.90 65.68 69.48 70.26 70.19 68.85 70.73 70.40 70.02 69.68 68.86 68.00 66.08 66.44 65.33 61.21 58.39 56.97 56.59 55.95 55.15 55.19 54.10 53.03 51.66 50.39
43.38 43.80 39.89 45.42 46.20 47.47 46.98 40.70 47.59 51.40 51.55 50.93 52.19 53.33 54.28 55.75 56.84 59.03 60.79 61.33 61.99 62.04 61.44 61.45 60.47 64.09 68.52 69.79 70.65 70.58 70.33 70.10 70.01 68.94 67.63 67.13 64.85 61.83 57.06 53.81 52.23 53.55 54.51 53.33 51.35 51.30 51.39 49.56 48.74
41.15 37.33 38.45 40.78 45.84 45.69 45.48 42.99 47.78 51.26 50.37 50.20 51.41 52.81 53.74 54.86 56.19 57.35 58.53 60.15 61.02 61.63 61.50 61.17 61.55 62.25 65.72 68.75 69.95 70.28 69.97 69.82 69.93 69.20 67.71 64.04 63.59 59.96 54.99 53.91 50.14 52.13 51.19 50.50 49.22 48.95 48.38 47.14 47.06
36.60 36.03 37.73 38.08 42.50 43.49 42.16 42.24 46.34 48.95 48.94 49.26 50.77 52.30 52.95 53.59 54.99 57.67 58.78 59.69 60.17 60.41 61.22 61.26 61.71 63.11 65.56 67.44 68.97 69.40 69.20 69.50 68.99 66.80 63.51 60.21 59.71 55.63 50.01 51.34 50.19 50.22 49.30 48.42 47.81 46.85 46.40 45.45 45.35
38.68 37.41 36.41 39.81 42.61 40.58 40.03 40.57 42.73 45.28 46.00 46.41 47.75 49.09 50.23 51.93 55.10 56.61 58.09 59.39 59.98 59.91 60.13 60.85 61.47 63.35 65.26 65.79 66.26 67.01 64.88 63.29 61.66 60.70 57.45 56.44 54.15 51.17 47.66 50.35 49.15 49.15 47.43 46.19 46.22 45.58 45.10 44.37 44.92
38.64 36.58 36.63 39.56 41.12 39.68 39.34 38.76 42.82 44.42 44.90 46.16 46.68 47.38 48.05 49.21 51.25 53.90 55.85 57.88 58.99 59.21 59.82 60.79 61.69 63.89 65.10 65.51 65.11 65.15 61.37 57.62 54.44 53.50 51.10 52.32 49.19 46.84 45.51 48.37 47.89 47.03 45.66 45.04 44.86 44.99 44.49 43.58 43.93
37.24 35.94 36.38 35.77 39.10 40.31 38.62 37.65 42.00 43.85 45.23 46.24 46.82 47.64 48.37 48.70 49.23 50.71 52.74 55.74 58.51 58.71 59.61 60.10 61.65 63.85 64.53 64.53 63.98 59.27 54.71 51.29 47.48 47.63 47.73 47.16 47.05 46.79 46.70 47.57 46.89 46.14 45.59 44.03 43.93 44.01 43.49 42.54 42.94
33.76 39.26 37.61 36.12 34.48 31.12 37.97 30.66 39.23 42.57 43.63 45.00 46.36 46.93 47.67 48.78 49.89 50.48 51.55 53.05 56.83 58.66 60.36 60.29 61.47 62.82 63.34 61.51 58.27 56.45 57.35 53.17 49.56 47.78 45.37 43.76 44.25 46.29 45.58 45.93 45.68 44.95 44.39 43.62 42.77 42.89 42.77 43.08 41.31
35.03 39.15 37.39 36.61 33.79 32.07 33.88 28.93 36.76 41.32 39.76 42.39 44.97 46.66 48.05 49.21 49.73 50.39 51.49 52.30 55.02 58.69 59.83 60.04 60.63 61.28 60.20 59.43 60.02 59.73 57.80 54.50 48.37 45.15 42.17 41.01 42.14 43.42 43.51 44.46 44.28 43.63 43.18 42.68 42.24 41.81 41.36 41.92 41.59
40.24 37.56 37.10 36.46 33.91 26.62 33.22 31.74 34.35 38.56 40.25 42.24 44.72 45.95 47.34 48.18 49.38 50.37 51.83 53.17 54.09 57.81 59.53 59.78 59.06 58.80 58.73 59.51 59.52 60.32 56.32 49.30 44.78 42.45 39.35 39.57 40.97 41.71 43.38 43.15 43.24 42.92 42.27 41.91 41.32 41.13 40.36 41.00 40.48
37.34 34.49 28.52 26.07 24.94 25.71 34.30 32.58 34.87 40.82 42.28 43.09 43.64 45.16 47.36 48.64 49.17 50.20 51.60 52.75 53.88 55.84 58.44 58.37 57.87 56.68 57.42 57.95 58.78 56.69 51.90 48.48 46.15 41.16 39.32 40.04 40.79 39.85 41.90 42.36 41.95 41.75 41.56 41.17 41.19 40.87 40.90 40.16 39.75
34.96 33.67 28.62 21.40 24.12 28.43 33.62 28.42 35.76 42.37 43.60 44.74 45.39 45.84 47.72 48.87 50.11 49.59 51.82 53.47 54.28 55.61 57.72 57.37 56.80 55.32 55.93 55.95 55.22 54.09 49.74 45.21 41.15 40.12 38.95 39.08 40.61 42.65 42.06 41.61 41.30 40.76 40.57 40.35 40.36 40.87 40.52 39.84 39.51
34.22 30.79 36.91 29.85 31.30 26.49 30.61 35.38 40.26 42.30 42.30 43.34 44.00 45.70 46.96 48.11 49.58 50.05 51.06 53.38 54.81 55.99 57.24 56.84 56.03 54.52 54.61 54.05 52.48 49.16 44.50 41.08 40.70 38.68 39.51 40.08 40.25 40.86 40.97 40.94 40.29 40.16 39.77 39.39 39.38 39.80 38.87 38.78 38.47
36.95 38.50 28.58 30.49 21.31 22.04 29.67 31.78 32.98 38.13 39.47 41.83 42.55 44.71 46.23 48.39 49.82 49.52 50.11 52.77 55.11 56.69 57.18 56.83 55.46 53.46 52.59 50.71 49.43 45.63 41.09 39.59 38.84 39.78 39.60 41.24 40.89 40.41 40.15 40.00 39.72 39.33 38.82 38.39 38.39 38.28 37.84 37.19 37.84
33.16 31.86 33.20 32.58 30.88 24.66 23.72 30.61 40.15 38.39 39.89 41.07 43.31 44.68 46.34 47.92 49.08 48.65 50.03 53.32 55.06 56.31 55.74 54.28 52.96 50.71 48.96 47.71 44.72 42.37 38.91 38.95 39.25 40.54 41.45 40.80 40.31 39.97 39.44 39.20 38.88 38.25 37.66 37.51 37.59 36.96 36.61 35.73 36.26
38.33 34.96 33.57 27.92 27.02 29.07 28.41 29.08 41.40 40.65 42.36 43.44 43.45 44.14 46.74 48.09 48.33 49.33 50.99 52.92 53.71 53.14 52.60 51.19 49.41 48.15 46.44 43.39 42.20 38.83 39.06 39.16 40.22 40.46 40.02 40.00 39.28 39.46 38.85 38.40 37.75 36.98 36.43 36.60 36.07 35.46 35.87 35.48 35.25

GFSSGP_sfc_wetblb_045.txt.gz
Wetbulb
68.63 66.55 64.90 61.09 51.83 51.51 48.03 49.86 52.34 51.59 51.95 56.16 57.85 56.79 57.20 58.55 57.23 55.15 68.61 70.67 71.68 73.14 73.80 74.40 74.78 74.42 73.53 72.35 71.88 71.50 70.73 70.22 70.27 70.25 70.37 70.87 69.59 67.63 66.64 66.87 66.52 66.04 65.77 67.47 68.70 69.72 70.73 70.21 69.43
66.70 64.14 62.53 57.36 48.62 45.81 47.97 52.36 49.63 52.00 55.35 57.17 57.38 57.85 57.02 57.27 62.19 65.35 67.35 70.32 71.94 72.66 73.69 73.86 74.20 74.05 73.02 71.97 71.56 70.87 69.83 68.77 69.03 69.10 70.08 69.68 67.75 66.88 66.83 66.62 66.35 65.29 65.18 65.17 66.55 67.47 67.82 67.62 67.45
65.26 63.17 56.69 52.75 49.06 45.59 47.75 52.32 52.45 54.09 56.13 56.46 56.53 59.69 59.55 59.34 63.57 66.21 69.86 70.71 71.96 72.56 73.64 73.75 74.13 73.83 72.86 71.66 70.70 70.03 69.01 68.10 67.77 67.99 67.41 67.30 66.86 66.50 66.45 66.54 66.15 65.11 64.63 64.60 65.09 65.46 65.52 65.38 65.26
62.64 59.92 56.91 49.27 47.24 50.65 51.09 52.81 53.57 53.89 55.48 57.10 57.76 56.58 60.95 64.58 64.93 67.64 70.37 70.82 71.59 72.32 73.72 73.23 73.80 73.69 72.94 71.84 70.37 69.47 68.82 68.12 67.29 67.58 67.82 67.55 67.46 67.29 67.04 66.88 66.09 65.00 64.70 64.59 64.29 64.63 65.12 65.57 66.39
61.93 57.55 49.81 47.45 47.54 50.67 53.28 54.30 54.16 53.35 54.05 55.38 56.38 56.25 58.86 64.43 67.12 69.22 70.31 70.58 71.17 71.85 73.98 73.35 73.83 73.55 72.93 71.60 70.63 69.83 68.98 67.99 67.77 67.81 67.87 68.01 68.21 68.24 67.81 67.27 66.69 65.43 65.36 65.33 65.26 65.34 65.33 65.55 65.58
54.64 55.02 46.93 44.91 47.86 51.20 53.17 54.82 54.35 53.99 54.87 55.28 54.79 56.09 58.64 66.08 66.64 68.94 70.73 70.51 71.73 71.50 72.76 73.06 72.81 73.03 72.80 72.07 71.23 70.53 69.68 68.47 67.73 67.92 67.93 68.22 67.68 68.15 68.44 67.75 67.17 66.23 65.59 65.66 65.95 66.00 65.88 65.90 65.85
53.14 50.97 46.70 47.49 47.64 49.34 51.87 55.06 53.15 53.48 54.01 54.34 56.81 53.91 59.23 62.89 67.77 69.65 70.43 70.84 71.57 71.75 71.57 72.53 72.70 72.20 71.96 71.99 71.65 71.35 70.41 69.69 68.77 68.47 68.26 67.80 67.35 67.78 69.06 68.22 67.57 66.54 66.06 65.90 66.16 65.99 65.79 65.31 65.61
55.43 52.22 47.62 48.13 46.41 47.52 52.85 53.73 54.80 53.85 53.40 57.40 57.53 53.38 54.96 63.81 68.33 69.64 69.97 70.29 70.78 71.39 70.99 71.68 72.28 71.98 71.59 71.50 71.21 71.16 70.86 70.26 69.23 68.73 69.00 67.37 67.87 69.01 69.71 68.57 68.08 66.88 66.46 66.30 66.44 66.46 66.30 66.35 66.23
58.43 49.21 45.45 47.27 47.30 48.98 53.26 51.70 55.12 56.44 54.51 55.40 56.71 57.14 60.53 62.73 67.64 68.18 68.12 68.90 69.49 70.19 70.50 71.04 71.37 71.25 71.18 71.31 70.80 70.61 70.10 69.47 68.53 67.32 67.39 66.23 67.51 68.53 67.58 66.63 67.94 67.31 66.41 66.30 66.55 66.37 66.09 65.81 66.21
52.79 47.19 47.29 50.65 51.23 50.71 52.52 52.67 53.64 53.28 53.44 53.54 55.79 58.34 60.31 62.01 64.55 65.47 65.94 66.42 67.79 68.81 69.78 70.43 71.21 71.27 71.35 71.07 70.81 70.51 69.93 69.12 67.86 65.69 66.84 66.76 66.71 67.22 66.89 65.20 66.09 66.33 66.12 65.55 65.34 64.46 64.64 64.28 66.20
52.29 47.35 50.91 51.47 53.63 53.91 52.52 52.29 54.59 52.78 51.64 54.21 54.05 56.73 59.05 60.75 62.27 64.01 65.19 65.89 66.99 68.72 69.93 70.31 71.08 71.38 70.90 70.11 71.07 70.80 70.36 69.62 68.51 66.97 66.46 66.32 65.48 65.20 64.35 65.21 64.06 65.14 63.24 65.94 65.33 65.20 65.09 63.06 62.15
48.06 51.39 52.00 52.74 53.73 53.45 52.15 54.27 52.63 53.42 53.77 56.43 57.46 59.08 58.62 59.00 59.91 62.00 63.25 64.54 65.35 67.28 68.94 70.23 70.85 71.21 71.28 71.65 70.31 70.37 70.34 69.16 68.35 68.03 66.50 65.91 64.69 63.79 64.49 65.11 65.85 66.06 65.74 65.82 65.71 62.77 61.11 59.92 59.45
48.52 50.22 51.61 52.29 52.47 52.61 53.19 51.31 51.95 53.04 56.21 57.50 57.70 58.30 58.56 59.22 59.83 61.20 62.02 64.40 65.13 65.47 67.66 69.31 70.39 70.78 71.25 70.96 70.98 70.64 69.20 69.03 68.69 68.56 66.54 66.23 65.74 65.36 65.77 65.22 65.27 65.59 65.20 63.93 62.19 60.37 58.98 58.90 57.89
50.16 49.85 50.14 51.24 50.80 51.36 49.36 49.84 50.83 51.84 54.62 54.62 55.49 56.13 57.25 58.58 59.40 60.50 61.51 61.43 63.10 65.15 66.17 68.20 69.42 70.43 70.98 70.76 69.64 70.36 70.31 69.07 68.76 68.23 67.34 66.87 66.75 66.57 65.93 65.63 63.77 61.66 60.56 58.98 60.03 59.05 57.54 56.34 54.49
49.83 46.16 48.23 48.88 49.64 48.84 50.55 46.27 47.17 52.14 53.57 52.82 53.70 54.64 55.18 56.20 58.12 58.87 60.74 61.66 62.27 62.72 65.34 65.73 67.77 69.45 70.02 70.30 69.41 69.42 70.32 69.21 68.37 67.92 67.66 67.31 67.39 66.58 65.83 63.22 61.00 60.65 60.10 58.72 57.64 55.75 54.60 52.84 51.85
44.88 45.72 41.47 47.60 47.99 48.87 48.02 41.77 49.19 52.55 52.19 51.61 52.66 53.41 54.27 55.46 56.27 58.01 59.60 61.45 62.74 62.95 62.79 63.24 63.05 66.80 68.90 69.62 70.26 69.31 70.39 69.36 68.27 68.18 68.11 67.49 67.14 66.56 63.43 61.09 58.49 58.34 58.24 56.66 54.65 52.91 51.98 50.78 49.82
43.12 38.89 41.58 44.12 48.01 47.15 46.53 43.97 49.53 51.90 51.80 50.83 52.02 52.78 53.47 54.47 55.77 57.05 58.72 60.14 62.06 62.75 62.75 62.79 62.63 62.48 65.09 68.50 69.64 70.04 70.24 68.79 68.29 68.42 68.23 67.47 66.85 64.48 60.74 58.87 55.54 56.48 55.31 53.80 51.51 50.54 49.37 48.62 48.47
38.95 39.04 41.00 40.66 45.39 45.27 43.65 43.71 47.62 50.04 50.02 50.16 51.30 52.53 53.35 53.72 54.95 57.30 57.93 58.85 59.82 61.48 62.55 62.73 62.79 62.64 63.27 66.27 68.90 69.44 69.40 68.44 68.28 68.26 67.53 67.64 65.41 62.13 58.23 55.21 54.66 54.13 52.37 50.85 50.14 49.13 48.03 46.78 46.35
40.88 39.95 39.59 42.84 45.39 42.89 41.92 42.49 44.82 47.40 47.84 47.73 48.65 49.58 50.57 51.98 55.29 56.81 57.86 59.22 59.65 60.35 61.18 61.54 62.05 62.42 63.54 65.28 66.51 67.44 67.43 66.70 64.97 66.17 67.14 65.76 62.94 58.19 55.99 54.08 52.94 52.39 50.93 49.55 48.83 47.49 46.81 45.64 45.65
41.14 39.04 38.90 42.23 44.11 41.54 41.02 40.68 44.33 46.11 46.76 47.84 47.98 48.38 49.05 50.38 52.01 53.80 55.64 57.41 58.36 59.40 60.97 61.20 61.70 62.43 63.91 65.81 67.07 67.59 66.78 60.72 60.70 61.34 62.71 60.85 57.59 54.61 52.20 51.22 51.06 49.82 48.27 47.30 47.02 47.09 45.63 45.00 44.92
39.23 37.84 38.47 38.35 41.72 42.49 40.72 39.26 43.36 46.94 47.88 48.46 48.92 49.59 50.12 50.25 50.58 51.56 52.53 55.25 58.49 59.01 60.06 60.86 61.54 62.83 64.55 65.82 66.83 66.72 59.00 54.59 52.04 52.19 51.63 51.91 51.75 50.18 50.08 50.11 49.07 48.82 48.60 47.03 46.45 46.00 45.89 44.10 44.34
35.55 41.52 39.82 38.23 36.52 33.34 40.33 31.58 40.06 43.80 45.03 46.24 47.35 48.46 49.02 49.77 50.65 51.34 51.99 53.15 55.40 58.35 61.19 61.54 61.97 62.91 64.72 66.03 65.03 62.58 57.13 53.21 50.34 50.06 50.33 49.60 50.11 49.43 49.15 49.00 48.22 47.41 47.19 45.65 44.87 44.49 44.15 44.73 41.93
36.74 40.32 38.51 37.90 34.29 32.72 35.26 31.84 37.75 43.08 41.64 44.08 46.57 47.83 48.70 49.94 50.45 50.68 51.81 53.25 54.03 56.62 60.09 61.78 62.08 62.82 64.56 64.61 64.48 60.87 58.18 57.82 50.62 47.46 46.16 45.63 47.02 47.05 46.35 46.05 46.50 46.36 45.77 44.37 43.96 43.41 42.70 42.13 41.90
40.99 37.97 37.10 36.54 34.23 27.53 34.56 34.40 35.84 39.53 41.74 43.41 45.91 46.94 48.09 48.89 49.83 50.59 52.03 53.58 54.34 56.19 59.37 61.81 61.43 62.14 63.87 63.79 60.98 59.55 60.57 52.14 46.35 43.81 43.44 44.04 44.67 45.40 45.82 44.66 45.56 45.13 44.31 43.48 42.75 42.69 42.19 41.29 40.91
38.54 34.46 29.22 27.09 25.87 26.38 36.71 34.48 36.25 42.06 43.79 44.15 44.67 46.42 47.53 48.33 49.24 49.93 50.59 51.72 52.75 54.61 55.97 60.52 60.55 60.63 61.83 60.62 60.99 60.77 60.01 51.31 46.89 44.71 42.92 41.32 42.02 42.21 42.49 44.27 43.87 43.53 43.34 42.76 42.65 42.36 42.17 41.14 40.25
35.82 34.84 29.97 23.70 26.91 30.46 36.98 29.91 36.38 43.90 45.02 45.73 46.45 46.96 47.73 47.74 49.48 50.81 51.76 52.55 53.23 55.09 56.04 58.84 59.51 59.64 59.60 60.20 60.38 61.82 55.20 51.97 47.99 45.48 42.40 41.59 41.99 41.59 43.39 43.99 43.15 42.26 41.99 41.69 41.93 41.49 41.21 40.69 40.08
35.34 31.37 37.45 30.23 31.74 27.31 31.75 36.65 41.45 43.75 43.99 44.62 45.22 46.16 46.34 47.78 49.27 50.67 51.82 52.81 53.56 54.96 55.61 58.55 58.97 58.93 58.87 59.44 60.52 56.12 53.37 49.18 45.50 43.60 43.25 41.80 41.86 42.18 41.90 42.49 41.70 41.41 41.13 40.96 40.76 40.28 39.15 38.83 38.78
38.35 40.08 28.92 30.38 22.19 23.05 31.77 34.38 35.81 40.74 42.42 43.93 43.56 44.46 46.19 48.09 49.16 50.33 50.90 52.30 52.84 55.11 56.49 58.92 58.78 57.41 58.03 58.54 56.81 52.58 47.63 43.92 41.66 41.98 40.70 41.01 41.26 42.11 41.75 41.39 41.03 40.53 40.19 39.67 39.36 38.68 38.44 37.48 38.14
34.93 32.97 33.78 34.39 31.65 26.53 26.04 32.41 42.77 40.82 42.23 41.87 43.43 45.14 46.50 47.29 48.90 50.08 50.78 51.64 53.15 55.74 57.02 57.77 57.70 56.41 56.01 54.86 51.16 47.36 43.73 41.23 40.59 39.88 40.41 39.62 40.94 40.65 41.10 40.71 40.14 39.60 38.90 38.45 38.06 37.43 37.05 36.49 36.99
39.02 35.26 34.36 28.13 28.48 30.82 29.88 30.45 42.52 43.19 43.53 43.54 43.92 45.45 46.79 47.35 49.17 49.82 51.33 52.16 53.85 55.85 56.62 56.69 55.55 54.18 53.01 50.20 46.77 43.40 41.61 40.85 40.42 40.32 39.84 40.90 40.12 41.06 40.36 39.90 39.20 38.45 37.83 37.38 36.70 36.05 36.63 36.19 35.86

GFSSGP_sfc_wetblb_048.txt.gz
Wetbulb
67.67 66.16 63.35 58.75 48.23 47.51 43.66 46.90 49.45 48.64 48.40 51.37 54.08 53.18 52.20 54.23 55.51 52.29 66.00 68.21 72.04 71.55 73.44 74.10 75.04 74.30 73.70 72.34 72.04 71.87 71.36 71.26 71.43 71.35 71.27 70.48 69.26 67.49 67.60 67.21 66.79 66.17 67.88 68.99 70.36 70.80 71.13 70.38 69.83
65.69 64.40 60.25 54.47 45.07 40.85 43.66 49.86 48.47 49.13 52.32 54.07 54.09 53.15 52.77 53.49 62.57 62.41 64.50 68.68 71.78 71.95 72.58 73.07 74.38 74.06 73.25 72.32 71.96 71.21 70.44 70.19 70.42 70.09 70.87 69.99 67.91 67.50 67.35 67.12 66.25 66.00 66.26 67.31 68.46 68.82 68.50 68.09 67.73
64.50 63.63 53.43 49.74 45.01 41.52 43.00 49.44 49.59 51.28 53.61 52.52 51.96 54.55 54.54 56.65 62.25 63.62 66.85 69.16 71.24 71.47 72.16 72.67 73.85 73.82 72.90 72.05 71.40 70.31 69.22 68.62 69.18 69.08 69.69 68.16 67.51 67.03 66.87 66.77 65.62 65.21 65.14 66.01 66.43 66.58 66.38 66.01 65.88
60.56 57.92 54.00 45.06 43.59 47.28 47.73 50.30 50.48 52.01 52.15 53.12 53.85 52.44 57.69 62.12 61.06 65.98 67.41 69.18 69.61 70.88 71.59 72.75 73.57 73.54 72.84 71.91 70.52 69.64 68.85 68.19 68.17 67.54 67.59 67.42 67.12 67.11 67.36 66.71 65.44 65.19 64.99 64.89 65.34 65.73 65.76 66.48 66.70
58.66 55.35 45.91 43.37 44.29 48.21 50.58 51.71 50.61 49.89 50.44 52.04 52.98 51.67 55.93 61.59 65.55 67.02 66.82 68.84 68.61 70.71 71.39 72.03 73.63 73.38 72.42 71.01 70.38 69.59 68.78 67.95 68.04 68.23 67.93 68.32 68.28 67.84 67.75 67.04 65.77 65.74 65.49 65.56 65.83 66.00 66.20 66.20 66.47
51.14 51.70 42.98 41.64 44.79 48.49 50.16 51.63 51.00 50.14 51.52 51.84 50.05 51.15 55.40 62.81 64.25 66.19 67.31 67.21 69.43 70.75 71.04 71.46 72.22 72.47 72.28 71.50 70.81 70.29 69.32 68.49 68.67 69.10 68.54 68.54 68.71 68.75 68.11 67.66 66.45 66.02 66.03 66.30 66.61 66.46 66.23 66.10 66.11
49.92 47.40 43.07 43.84 44.62 46.44 49.39 52.37 49.85 50.10 50.12 50.66 52.19 48.08 55.85 60.29 65.27 67.29 66.79 67.43 68.58 71.42 70.89 70.44 70.89 71.33 71.35 71.32 71.15 70.93 70.23 69.30 69.22 69.52 69.51 69.42 68.70 69.21 68.86 68.02 67.06 66.51 66.37 66.55 66.58 66.30 65.90 65.67 65.97
51.91 49.63 44.93 44.93 43.66 44.66 50.17 50.70 52.54 50.58 49.68 53.89 53.51 48.05 49.98 61.15 65.61 66.86 66.54 66.89 67.48 68.24 70.22 69.89 70.12 70.22 69.85 70.02 70.69 70.66 70.33 69.64 69.21 68.92 68.82 67.23 67.00 68.10 69.54 68.44 68.03 66.90 66.79 66.81 66.87 66.66 66.44 66.36 66.37
54.83 45.27 42.35 44.29 45.26 46.83 50.62 49.06 52.31 52.97 50.62 52.58 51.72 51.84 57.27 62.58 65.61 64.86 64.33 65.39 66.13 67.73 67.73 69.59 69.99 69.93 69.43 69.36 69.63 70.16 69.84 68.95 67.93 67.22 66.87 65.46 64.62 67.12 67.10 66.55 67.21 67.87 67.15 66.85 67.09 66.72 66.94 67.20 66.65
49.47 44.99 45.86 49.90 49.20 48.21 51.04 49.99 50.67 50.03 49.93 49.73 51.15 54.18 58.66 59.21 61.44 62.94 62.85 63.22 64.52 65.58 66.24 68.04 69.50 69.36 69.61 69.97 68.98 68.45 68.44 67.05 65.26 63.79 64.92 64.57 64.02 66.63 66.53 65.58 66.91 67.57 67.13 66.95 66.80 66.09 66.15 65.00 63.92
49.14 44.69 49.14 49.49 50.54 52.61 51.21 50.53 51.48 49.29 47.73 50.78 50.19 52.54 56.11 58.18 58.67 61.34 62.36 63.28 64.13 65.80 66.26 66.75 68.21 69.17 68.85 69.85 69.21 69.01 68.35 67.48 65.94 62.55 64.20 63.28 62.96 62.23 63.02 61.89 62.89 62.98 63.83 63.16 64.95 63.41 62.74 57.67 57.23
45.74 49.86 50.30 50.93 52.30 51.89 49.97 52.18 50.42 49.98 50.00 53.75 53.72 54.22 55.21 55.38 56.87 58.83 60.26 61.73 63.88 65.27 66.28 66.79 67.79 68.23 69.06 69.78 69.45 69.13 68.46 67.96 66.55 64.20 63.75 61.70 60.79 60.01 59.00 61.86 61.27 62.01 61.44 63.12 62.09 59.02 56.62 56.11 55.66
46.32 48.13 50.38 51.24 51.00 50.29 52.23 49.81 49.34 50.15 52.79 54.30 54.96 55.16 54.52 54.70 55.88 56.73 59.60 61.07 60.80 63.32 66.07 66.85 66.97 67.48 68.76 68.15 69.16 68.74 68.69 67.84 67.04 66.32 63.17 62.33 60.64 59.49 60.73 61.20 61.64 61.28 60.33 59.69 58.17 55.94 54.94 53.55 52.27
49.26 48.96 48.88 50.01 49.41 49.73 48.09 47.98 48.72 48.99 51.92 51.89 53.15 52.97 53.60 54.53 55.76 56.25 57.04 57.45 58.05 60.49 64.32 66.90 66.85 67.22 67.94 67.50 67.53 68.51 68.30 67.72 67.48 66.37 63.21 62.87 62.21 61.69 61.69 60.94 58.92 57.98 56.59 56.46 56.16 54.00 52.04 50.46 47.74
48.84 44.22 46.58 47.39 47.85 47.15 48.48 44.30 45.00 49.92 51.27 50.10 50.43 51.39 52.66 53.48 54.54 55.61 56.78 56.88 58.22 58.58 61.78 64.39 66.72 66.75 68.09 67.97 67.39 67.25 68.14 67.40 66.98 66.54 64.86 63.08 63.38 62.73 61.95 58.76 57.34 56.24 55.30 54.73 52.74 50.99 48.61 46.99 47.07
44.13 43.92 38.01 45.09 47.12 47.76 46.53 38.31 46.50 49.70 49.13 48.47 49.52 50.39 51.06 52.38 53.64 54.58 55.91 56.86 57.87 58.72 58.68 61.96 65.96 66.52 66.31 67.75 67.89 68.25 67.64 67.21 67.08 66.76 65.58 63.78 64.42 63.14 60.02 58.02 56.36 55.80 53.90 51.72 48.96 47.25 46.00 44.39 43.63
40.51 34.27 37.45 40.99 46.67 45.11 43.75 39.65 46.63 49.38 46.98 46.54 47.67 48.99 50.29 51.25 52.46 53.23 54.39 55.99 57.09 58.41 58.83 58.65 59.85 61.94 64.65 66.42 68.11 67.57 67.95 67.29 67.40 67.11 65.71 64.24 64.11 61.46 57.46 55.06 52.58 53.17 51.29 48.13 47.25 44.07 43.24 42.08 41.98
34.75 35.07 37.53 37.46 42.51 43.35 40.86 40.58 44.66 46.97 46.85 46.01 46.97 47.61 48.13 49.50 50.68 52.79 54.20 54.18 56.06 57.05 59.02 58.63 58.52 58.15 59.62 64.00 67.63 67.41 67.27 66.73 67.35 66.93 65.79 64.96 63.16 59.47 55.71 51.94 51.22 50.21 47.92 46.38 45.01 42.73 42.11 40.91 40.11
40.23 37.77 36.36 39.76 43.53 40.42 39.15 39.52 41.89 44.35 44.64 44.62 45.74 46.82 48.14 49.51 51.64 52.32 52.91 53.48 53.60 54.51 55.78 58.08 57.90 58.09 58.93 57.89 63.69 65.51 65.20 65.09 66.40 66.24 65.58 64.90 61.97 55.68 51.78 50.55 49.06 48.28 46.62 45.03 44.20 42.42 41.73 39.67 39.59
39.34 36.84 36.10 39.77 42.61 39.52 37.83 37.71 41.45 43.45 43.75 44.66 45.00 45.55 46.50 47.51 48.13 49.75 51.29 52.35 53.31 54.08 54.50 55.23 57.03 58.21 59.20 59.88 61.57 64.29 60.94 59.01 58.66 62.29 63.87 61.32 56.13 53.14 50.53 48.60 47.00 45.33 43.95 42.92 43.56 41.97 40.73 39.82 38.88
37.30 35.21 35.66 35.62 39.24 39.56 37.05 35.13 38.45 43.08 44.51 45.24 46.22 46.89 46.98 46.73 47.24 48.19 48.45 49.99 51.41 53.09 53.77 55.43 56.39 56.64 59.20 60.24 62.03 57.11 56.14 53.31 51.71 52.30 50.72 51.79 50.35 49.57 50.63 50.10 48.14 45.66 44.87 43.42 42.98 42.06 40.97 38.87 38.23
33.70 39.73 39.02 37.25 33.82 28.09 36.25 25.62 34.50 39.22 40.69 42.75 42.69 43.92 45.47 46.91 47.78 48.14 48.12 47.62 49.60 52.06 54.40 54.79 56.43 56.71 58.22 60.78 61.73 58.54 58.09 54.99 50.86 50.02 49.77 49.38 48.45 49.73 49.92 49.30 46.35 45.54 43.26 41.36 40.26 41.24 39.09 38.99 36.97
35.74 40.11 37.35 36.59 31.90 29.64 31.05 25.95 31.46 38.28 37.68 39.44 41.14 43.06 44.11 44.82 45.63 46.30 47.12 48.63 49.07 49.30 52.01 55.41 55.59 57.30 57.96 61.74 62.48 58.46 54.93 50.89 49.73 48.17 47.49 47.23 48.76 49.39 48.27 45.98 44.36 42.96 41.42 40.99 39.12 38.34 37.53 37.04 36.35
40.68 37.23 36.33 34.68 31.48 25.20 29.67 29.12 28.91 34.11 37.09 38.23 40.89 41.60 43.50 43.56 43.82 44.99 46.62 48.13 47.80 48.87 49.52 52.61 54.96 55.95 58.44 61.24 60.78 57.10 52.92 48.61 45.74 44.40 44.55 44.58 45.55 44.87 44.85 44.31 42.59 41.66 40.40 39.34 38.65 37.76 36.85 36.21 35.75
38.67 34.00 23.03 23.15 22.87 20.35 34.11 30.25 31.99 38.88 40.54 41.29 41.16 39.54 41.94 41.55 42.09 43.81 45.04 45.94 46.94 47.27 49.08 50.05 55.17 55.16 59.01 59.59 58.23 56.67 50.62 47.37 44.82 43.51 43.27 42.78 42.65 42.72 43.62 43.57 42.51 39.90 40.15 39.63 38.87 38.00 36.86 35.89 35.03
35.18 33.92 24.72 18.16 19.53 24.26 32.76 25.78 30.94 40.43 41.87 41.83 42.53 42.30 42.49 42.33 42.66 43.10 45.24 47.12 47.85 48.38 48.78 49.07 54.65 55.53 58.28 57.95 56.19 55.47 48.67 46.09 44.45 44.17 43.86 42.85 42.27 42.88 43.68 42.62 41.69 40.63 39.59 38.55 38.23 37.30 36.26 35.58 34.86
34.83 30.77 34.38 27.88 27.35 19.81 26.31 30.49 36.40 40.05 39.63 40.39 40.69 41.77 41.53 42.62 43.42 43.29 46.40 47.04 47.78 47.92 49.27 49.70 54.26 55.32 56.81 56.63 56.57 50.99 48.16 45.19 43.75 42.66 43.14 42.45 42.40 42.34 42.17 41.20 39.63 38.40 37.73 37.56 37.20 36.02 34.37 33.87 33.38
36.23 37.93 27.33 26.10 12.74 15.66 24.71 27.36 30.35 35.08 37.42 39.86 39.20 39.43 41.22 42.32 42.90 44.68 46.53 47.35 48.08 48.22 50.20 50.43 54.87 54.75 55.28 55.96 53.02 49.95 46.83 44.78 42.41 42.79 42.07 41.61 41.33 41.20 40.54 39.40 38.94 38.39 36.60 36.36 35.84 34.69 34.33 33.14 32.59
33.77 32.75 32.02 30.30 26.14 17.63 19.06 25.67 36.00 36.05 38.54 38.09 39.29 40.91 41.53 41.29 42.97 44.65 46.09 47.41 48.14 47.97 49.98 51.83 54.16 54.29 54.97 54.31 48.32 42.53 40.20 40.68 41.20 41.18 40.79 40.52 40.80 40.30 40.00 39.45 38.53 36.98 35.41 35.07 34.20 33.26 33.40 32.41 32.20
37.91 33.22 32.14 22.51 19.99 25.24 22.28 26.12 40.78 39.06 38.21 39.40 39.77 41.77 42.27 43.32 43.32 45.49 45.93 46.88 47.70 48.74 50.64 52.76 54.57 54.87 50.34 45.58 41.62 38.96 38.80 38.91 39.26 39.21 39.37 40.21 39.66 39.94 38.83 38.58 36.82 35.71 34.76 33.75 32.66 32.12 32.62 31.95 31.55

GFSSGP_sfc_wetblb_051.txt.gz
Wetbulb
66.38 64.21 60.36 54.17 44.31 42.15 38.52 43.56 45.53 46.57 45.69 47.87 50.77 50.92 49.48 51.61 53.67 50.38 64.20 70.17 71.32 72.16 73.50 74.09 74.89 74.43 74.05 73.56 72.95 72.86 72.47 72.33 72.19 71.91 71.26 70.12 68.90 68.64 67.90 67.10 66.82 68.29 69.25 70.19 69.54 69.85 70.88 70.76 70.22
63.64 63.45 55.82 49.48 40.95 36.03 38.41 45.27 45.73 47.12 49.89 50.49 51.61 50.48 50.13 55.13 60.16 62.17 64.08 70.73 71.81 72.57 73.28 73.27 74.22 74.04 73.45 72.55 72.29 71.78 71.62 71.68 71.59 71.76 71.14 69.69 68.52 68.16 67.52 66.37 66.06 67.26 68.58 69.54 69.73 69.89 69.48 68.99 68.45
63.63 62.32 49.74 45.33 39.78 37.46 38.98 44.80 45.32 49.17 51.47 50.85 49.62 51.06 50.67 55.38 60.62 62.51 66.03 70.81 72.20 71.80 72.87 72.84 73.85 73.81 73.12 72.32 71.68 71.01 70.63 70.79 70.49 71.19 70.32 68.88 68.06 67.43 67.15 66.26 65.65 65.71 67.23 68.02 68.07 67.81 67.42 67.00 66.68
57.33 53.39 49.48 41.06 39.49 42.78 44.48 47.23 46.73 49.44 50.05 51.77 50.88 50.13 56.13 60.13 61.79 64.70 68.43 71.04 70.71 70.79 71.65 73.02 73.65 73.65 73.23 72.41 70.88 69.83 69.25 69.76 69.49 70.10 68.87 68.03 67.60 67.71 67.01 65.75 65.44 65.46 65.84 66.65 66.82 66.75 67.02 66.99 66.83
53.04 49.82 41.53 38.54 40.09 43.43 46.08 48.39 48.88 48.06 48.51 49.63 50.30 48.78 54.63 61.09 64.33 65.15 67.90 70.58 69.40 69.95 71.27 72.14 73.48 73.34 72.56 71.43 70.39 69.57 68.79 68.83 68.34 68.47 68.06 67.79 67.94 68.15 67.32 65.98 65.84 65.41 65.57 66.15 66.36 66.41 66.41 66.81 66.84
46.90 47.22 38.20 38.74 40.54 44.08 46.69 49.61 47.57 48.24 48.24 48.72 48.45 47.61 54.19 61.88 63.29 64.30 66.20 68.44 70.28 69.82 70.51 71.68 72.09 72.30 71.99 71.21 70.88 70.37 69.49 69.12 68.62 69.11 68.82 68.89 68.65 68.50 67.91 66.36 66.20 66.40 66.53 66.66 66.78 66.71 66.56 66.50 66.53
44.44 41.29 38.16 38.25 39.74 42.63 47.23 50.44 46.32 48.33 47.65 47.64 48.94 45.46 53.71 58.04 62.78 64.94 65.15 69.71 70.10 70.00 70.15 70.81 70.71 70.63 70.78 70.68 70.57 70.16 69.78 69.63 69.88 69.91 69.95 69.82 69.74 69.10 68.36 67.22 66.48 66.56 66.77 66.82 66.56 66.37 66.22 66.48 66.59
47.33 44.24 40.01 39.11 40.98 40.87 47.26 47.56 49.69 48.49 47.67 51.39 51.24 45.90 53.02 60.25 64.48 65.09 64.24 69.43 69.43 69.27 69.59 69.35 69.47 69.62 69.20 69.08 70.16 69.75 69.20 69.22 69.68 69.48 68.88 67.64 67.20 68.62 68.97 68.20 67.61 66.91 66.76 66.98 67.00 66.88 66.71 66.68 66.58
49.40 40.15 38.14 41.51 42.54 43.95 48.87 46.52 50.84 50.73 49.03 50.20 49.64 52.16 58.40 63.51 64.18 62.84 62.63 65.07 68.20 68.79 68.70 69.04 68.95 68.73 68.69 68.34 69.00 69.68 69.23 68.45 68.16 67.66 66.59 65.40 64.27 67.20 67.01 66.40 67.13 67.81 67.34 67.28 67.30 67.18 67.12 67.34 66.61
44.58 40.85 41.89 46.94 46.78 45.33 49.09 48.64 48.86 48.19 47.64 46.70 48.20 54.38 56.83 62.25 62.11 62.11 61.67 62.00 63.94 66.70 67.67 68.66 68.58 68.33 68.42 69.30 68.26 67.54 67.74 66.05 64.57 64.86 64.52 63.57 62.85 66.24 66.15 65.16 66.56 67.97 67.58 67.54 67.44 66.98 66.42 65.00 62.59
45.16 41.07 47.44 49.15 49.98 49.82 49.28 48.76 50.47 47.01 45.23 47.73 47.82 50.34 55.15 57.16 59.55 61.60 61.77 62.37 63.26 64.80 67.19 68.78 68.42 68.40 68.23 68.49 67.98 67.69 66.96 65.36 63.45 62.39 63.78 62.89 62.76 65.83 63.87 63.76 64.41 63.52 63.99 63.69 65.17 63.60 62.01 56.76 60.58
43.14 46.87 48.24 49.39 50.64 49.76 48.07 50.41 48.69 47.84 47.42 51.23 51.29 51.53 53.23 53.97 56.34 58.72 60.81 61.57 62.81 64.22 65.23 68.69 68.68 67.99 68.03 68.58 67.58 67.53 67.23 65.90 64.27 61.42 63.15 60.93 59.94 62.58 60.78 60.72 61.12 61.21 61.49 60.82 61.26 59.82 55.47 54.76 53.48
42.76 45.56 48.64 49.31 49.04 48.29 49.77 47.52 47.20 47.81 50.52 51.99 52.12 52.52 51.61 53.39 53.50 54.98 57.94 59.83 61.75 64.44 65.45 65.76 68.16 67.87 67.73 68.23 67.93 68.24 67.71 67.07 66.33 62.62 63.06 60.83 60.33 59.76 58.73 59.47 59.61 59.73 60.11 59.76 56.28 54.25 53.77 50.95 48.30
46.88 47.79 46.16 47.47 47.05 47.26 46.73 46.07 46.17 47.09 50.58 48.72 49.67 49.94 49.95 51.62 54.13 53.79 54.52 55.50 57.47 62.31 65.02 66.22 66.77 67.92 68.34 68.19 68.01 67.85 67.91 67.94 66.74 64.91 63.15 61.17 60.31 58.14 58.53 59.36 59.25 57.36 56.43 55.85 54.84 53.43 50.84 47.07 45.69
48.48 43.05 44.31 45.11 46.00 45.19 47.15 42.72 43.14 48.12 48.82 47.56 48.25 48.30 50.14 50.50 52.16 53.33 55.00 54.84 55.93 56.36 64.23 65.91 66.30 66.68 67.83 67.25 67.21 67.26 67.85 67.81 66.01 65.52 63.57 61.53 60.89 59.73 59.74 57.62 55.92 54.93 54.44 52.78 50.15 48.51 46.18 45.07 44.72
42.43 41.13 36.41 43.27 45.78 46.36 45.16 37.75 45.19 48.21 46.33 46.88 48.31 49.07 48.11 49.67 50.76 51.62 53.28 54.18 55.12 56.00 58.92 65.49 67.42 66.22 67.11 67.16 66.90 66.77 66.96 66.39 65.68 65.58 64.27 62.14 61.95 61.24 58.76 56.95 55.54 54.68 52.75 50.00 47.28 45.92 43.73 42.34 41.87
39.56 31.61 35.29 38.89 45.14 44.48 43.25 38.02 45.18 47.81 45.76 44.28 46.19 47.40 48.94 50.26 50.20 50.31 52.43 53.79 54.71 54.82 56.30 59.12 64.42 65.03 66.84 67.07 67.47 67.37 66.84 65.61 64.78 65.03 64.37 63.57 62.69 59.96 58.25 55.45 53.15 51.66 48.64 46.70 45.73 42.41 42.43 40.14 40.08
32.25 32.69 33.96 34.46 40.55 41.50 39.42 38.36 42.56 45.32 44.11 42.21 43.54 44.21 45.17 48.32 50.23 52.22 52.03 51.48 53.11 54.03 55.83 56.17 59.12 64.80 65.81 67.22 67.11 66.72 65.61 65.25 65.72 65.33 64.12 64.07 61.90 57.88 55.39 52.19 50.96 48.54 45.94 44.74 43.38 41.15 39.82 39.14 38.46
37.81 34.88 34.30 36.70 41.23 37.78 37.37 37.34 39.66 41.94 42.32 43.23 43.61 42.16 45.56 47.52 48.78 49.39 49.58 50.42 50.92 51.73 52.96 55.66 55.86 57.69 61.29 65.97 65.31 64.84 63.84 65.09 63.60 65.02 65.15 63.36 59.91 56.93 53.11 51.19 48.39 46.65 45.12 43.44 42.55 40.89 39.39 38.05 37.90
37.91 34.44 33.71 37.96 40.33 37.78 36.17 36.17 39.81 41.61 41.83 43.16 43.44 42.53 44.12 46.65 46.88 47.50 48.63 49.02 50.03 51.15 50.99 52.78 55.03 57.09 59.49 62.88 66.12 65.24 64.05 60.64 61.88 63.30 64.46 63.18 57.61 53.75 51.65 49.58 46.95 45.44 43.56 42.18 41.48 41.96 39.77 40.30 38.26
34.69 32.49 33.05 33.48 37.16 36.68 34.49 32.90 35.90 40.43 41.95 43.61 44.85 45.32 44.91 45.24 44.66 45.52 45.84 46.91 47.86 48.99 50.55 52.35 53.11 55.15 56.15 56.93 58.57 57.02 56.15 55.30 55.07 53.71 55.45 54.61 53.65 51.98 49.76 47.93 45.83 43.23 42.66 41.77 41.49 41.43 41.26 38.01 37.41
31.88 37.56 37.30 35.71 31.95 26.54 33.80 24.15 30.84 36.81 38.45 39.75 40.53 42.03 44.25 44.86 43.91 45.36 46.33 45.65 46.09 47.22 49.68 51.63 53.28 54.30 55.85 57.34 58.43 59.43 59.65 58.80 54.62 52.00 50.33 49.44 50.30 51.28 51.16 49.05 45.49 44.49 43.06 40.80 40.61 40.55 39.37 39.20 36.26
34.34 38.86 35.68 34.53 29.76 27.08 28.67 24.84 29.06 34.43 35.47 37.62 36.67 39.06 40.91 42.97 45.04 45.80 44.95 46.43 46.59 46.87 47.47 49.93 51.69 53.71 55.15 58.00 59.39 59.67 58.54 52.31 50.60 49.26 47.77 48.44 48.31 49.21 50.00 48.05 46.04 45.65 45.07 41.06 39.69 37.91 38.35 38.53 37.15
39.65 35.86 34.59 32.73 29.43 20.93 26.73 26.54 26.06 31.60 35.48 35.19 37.16 39.87 40.13 41.54 41.63 42.93 44.20 45.49 45.36 45.28 45.68 48.56 50.80 52.21 53.49 57.89 59.16 58.87 53.56 50.04 49.23 47.09 46.73 46.22 47.37 47.17 46.56 45.60 45.22 44.49 43.61 41.82 40.91 37.84 36.48 36.36 35.96
35.98 29.78 17.18 24.49 23.29 18.74 30.31 26.70 27.96 35.59 39.20 39.35 39.12 39.03 40.59 40.88 40.80 41.86 44.36 45.18 45.30 45.62 46.41 46.49 48.46 51.19 52.99 56.90 58.46 55.21 53.07 51.45 49.73 47.46 46.26 45.77 43.72 43.35 43.35 43.39 43.44 43.02 42.63 41.52 40.40 37.03 37.15 35.92 34.51
32.93 30.26 19.19 14.46 16.07 22.43 30.11 24.46 29.92 37.55 40.52 40.22 41.14 39.83 40.43 39.69 40.73 41.08 44.79 44.69 44.49 45.18 46.00 46.37 46.92 50.09 54.05 57.20 56.11 52.55 50.17 49.75 48.21 47.33 45.28 46.31 44.23 44.03 44.12 42.94 42.88 41.78 41.74 41.29 38.09 38.28 36.76 35.56 34.24
32.92 27.77 32.90 23.50 23.86 17.29 23.75 27.94 34.01 37.52 37.37 37.65 39.32 39.88 39.70 40.62 40.67 42.36 43.80 45.05 45.45 45.78 45.97 46.23 46.83 51.14 55.64 56.06 51.06 48.39 48.23 47.47 46.30 45.42 44.44 45.12 43.94 42.96 42.24 42.25 41.57 41.99 41.86 39.76 38.44 37.20 35.44 33.89 33.45
34.88 36.35 24.48 20.49 10.04 13.16 21.74 23.64 28.05 33.32 35.33 37.43 37.42 37.99 39.59 41.30 41.95 42.86 44.47 45.38 46.17 46.23 45.90 46.38 47.42 52.42 55.17 54.65 48.88 46.59 46.31 45.98 44.99 43.64 41.67 42.48 41.95 41.67 41.01 40.56 39.90 40.12 39.75 37.97 37.56 35.55 34.32 33.89 32.85
33.67 32.16 31.11 27.27 22.92 15.24 16.31 23.05 33.24 34.38 35.71 35.25 37.34 40.13 40.61 41.13 41.52 42.28 44.60 45.52 46.03 46.17 46.44 46.59 49.92 52.97 52.83 49.79 46.60 45.59 43.52 43.56 42.70 42.40 41.60 41.75 41.08 40.94 40.20 39.55 39.05 38.46 36.94 36.32 35.34 34.01 33.96 32.71 32.38
35.34 32.16 30.79 17.86 16.42 19.51 23.28 24.38 37.56 38.36 36.84 38.60 40.92 43.11 43.53 43.62 43.86 41.58 44.14 44.91 45.14 45.70 47.01 47.71 51.04 50.51 45.88 43.29 43.38 41.61 41.62 40.79 41.92 40.44 41.12 40.89 40.04 40.27 39.40 39.00 38.32 36.78 36.01 34.96 34.57 33.62 32.54 32.09 32.14

GFSSGP_sfc_wetblb_054.txt.gz
Wetbulb
65.19 62.73 59.09 52.99 43.32 40.91 37.36 42.01 43.51 46.33 45.81 48.28 49.52 50.69 49.00 51.51 52.05 47.81 63.51 68.39 71.65 72.09 73.26 73.73 75.03 75.04 74.93 74.40 73.36 73.52 72.97 72.39 71.97 71.17 70.60 69.73 69.53 68.53 67.49 67.92 68.47 68.59 68.96 69.38 68.85 69.86 71.27 71.02 70.18
62.79 61.79 53.86 47.61 39.82 34.62 37.16 41.96 44.73 46.81 48.85 49.72 49.32 49.19 49.27 53.87 59.13 63.59 65.37 70.52 71.98 72.25 72.95 72.95 74.36 74.45 74.16 73.54 72.86 72.72 72.69 72.50 72.09 71.56 70.68 69.43 69.21 68.20 67.21 66.42 67.58 68.41 69.23 69.45 69.49 70.70 71.00 70.25 69.07
62.24 60.87 49.32 44.37 38.80 36.21 37.21 43.39 43.46 48.66 49.55 49.78 47.67 49.96 52.84 55.01 59.87 63.95 67.62 70.84 71.75 71.91 72.71 72.72 73.91 74.09 73.54 73.23 72.72 72.47 72.26 72.12 72.25 71.52 70.13 69.14 68.71 67.74 66.74 66.32 66.62 68.11 69.33 69.41 69.22 69.05 68.47 67.94 67.27
56.20 52.62 48.33 40.63 38.96 41.45 42.50 43.24 44.82 47.71 49.72 50.30 49.02 49.06 55.05 59.15 61.84 64.78 70.28 71.05 70.95 71.27 71.53 72.90 73.63 73.70 73.36 72.90 72.03 71.60 71.46 70.97 71.02 71.14 69.50 68.80 67.76 67.45 66.35 65.76 65.71 67.29 67.80 67.88 67.65 67.40 67.16 67.05 66.92
51.91 48.04 40.81 38.07 39.90 41.81 44.32 45.90 46.61 46.89 47.10 48.45 49.07 47.47 53.50 60.71 62.77 69.23 70.23 70.87 69.90 70.52 71.38 72.17 73.61 73.34 72.59 71.80 70.93 70.59 70.59 70.15 70.90 69.91 69.10 67.89 67.92 67.36 66.03 65.68 65.57 65.88 66.92 67.19 67.00 67.13 66.98 66.84 67.24
45.72 46.20 37.68 36.56 39.04 42.56 44.80 46.71 45.77 46.26 47.52 49.09 47.77 51.26 53.68 60.69 64.24 68.15 70.10 69.51 70.45 70.54 71.17 71.70 72.30 72.65 72.34 71.45 70.45 70.37 70.39 69.65 69.68 68.98 68.06 68.12 68.46 67.80 66.31 66.14 65.63 65.82 66.51 66.77 66.70 66.50 66.45 66.42 66.41
43.52 40.48 38.39 37.31 39.09 41.33 45.78 48.09 44.77 46.26 46.69 48.04 49.11 46.44 53.80 59.09 62.44 65.36 67.78 69.03 69.95 70.33 70.20 70.70 70.81 70.83 70.85 70.57 70.47 70.03 69.94 69.46 69.48 69.80 69.70 69.40 69.22 68.38 67.03 66.37 66.53 66.66 66.85 66.83 66.68 66.38 66.38 66.54 66.44
45.66 42.74 37.54 38.00 38.91 39.72 45.78 46.36 47.89 46.18 46.83 50.07 49.60 49.57 52.26 59.14 63.23 66.13 68.25 68.53 68.67 68.92 69.63 69.64 69.46 69.22 68.46 68.41 69.80 69.32 69.18 69.37 69.24 69.56 69.12 68.35 68.11 68.47 68.18 67.33 67.35 66.81 66.85 66.68 66.62 66.46 66.48 66.60 66.35
47.88 39.12 37.04 39.52 39.96 41.83 46.69 46.41 49.41 49.67 46.84 48.82 48.22 52.93 57.98 62.31 63.16 63.89 66.64 66.73 67.19 68.18 68.80 68.80 68.32 67.76 67.41 67.30 67.95 68.83 68.74 68.68 68.64 68.00 66.94 65.88 64.90 66.80 66.64 65.88 66.82 67.61 66.98 67.11 67.04 66.94 66.91 67.23 66.56
43.90 38.78 40.34 45.48 45.53 43.80 46.81 47.35 48.54 47.42 46.34 45.75 48.80 54.97 60.14 62.06 61.34 61.98 65.10 65.50 65.91 66.38 67.27 68.19 67.93 67.76 67.56 68.30 67.24 66.38 66.24 65.30 65.00 65.14 64.40 63.29 62.97 65.90 66.31 64.68 66.30 67.65 67.65 67.78 67.44 67.30 67.21 65.45 62.15
43.70 40.15 45.76 47.50 49.17 48.88 47.91 47.35 49.17 46.16 44.77 46.26 46.58 53.86 56.29 59.40 60.30 61.41 63.76 65.73 66.14 66.86 67.27 67.90 67.50 67.73 67.54 67.44 67.32 66.78 65.49 64.09 63.16 63.54 63.39 62.60 62.58 64.64 63.84 63.24 64.02 63.74 64.15 63.68 65.46 63.73 61.48 57.21 59.48
41.62 45.47 47.05 48.43 49.77 48.12 46.51 48.93 46.70 47.34 47.60 50.10 49.59 50.36 51.62 54.71 55.60 60.62 61.73 63.17 63.36 66.28 66.91 67.70 67.72 67.18 67.41 67.62 67.19 66.85 66.06 64.49 62.56 62.03 62.97 61.78 60.57 62.96 61.92 62.80 62.07 61.48 61.85 60.75 61.07 59.77 54.99 52.97 51.72
41.56 44.29 47.17 48.39 48.44 46.87 48.01 46.75 46.86 47.48 50.25 51.13 50.10 51.33 50.80 50.87 53.37 55.27 58.76 62.22 63.47 64.48 66.64 67.52 67.72 67.09 67.20 67.12 66.88 66.73 66.15 65.34 63.98 61.49 61.67 61.78 60.04 62.69 62.24 60.88 60.37 60.25 59.93 59.77 59.19 55.70 52.57 48.49 46.14
45.44 45.66 45.25 46.48 46.21 46.39 45.58 45.14 45.19 46.26 49.99 48.89 48.88 48.73 49.00 50.12 51.01 51.92 53.46 55.41 58.57 63.58 64.77 67.81 67.74 67.59 67.52 67.31 66.58 66.46 66.62 66.02 64.93 62.78 61.28 61.20 60.94 62.16 60.30 58.77 58.63 58.57 59.04 57.92 55.48 52.65 49.66 45.65 44.65
46.67 42.21 43.26 44.50 45.15 44.66 46.05 43.21 42.07 47.41 47.80 47.07 47.29 47.31 48.76 48.91 50.25 50.51 52.70 53.63 54.48 57.84 63.94 65.48 67.75 67.90 66.95 67.36 66.98 66.77 67.04 66.55 65.47 64.07 61.69 61.13 60.71 59.55 59.19 58.52 57.94 56.55 55.58 54.34 50.62 46.89 45.15 44.02 43.60
42.03 40.48 36.26 42.84 44.69 45.26 44.84 38.04 43.93 47.10 45.11 45.05 45.83 46.96 47.51 49.10 49.74 49.96 51.74 52.27 53.59 54.03 57.06 64.39 67.31 67.42 66.96 67.56 67.15 67.09 67.06 66.78 65.71 64.69 62.86 61.31 60.59 59.27 58.20 57.32 56.14 54.23 52.29 49.54 47.02 44.83 42.88 41.84 41.09
37.14 32.02 34.09 38.30 44.66 43.99 41.96 37.53 44.37 48.11 44.05 43.31 43.96 44.44 46.27 48.21 48.79 48.78 50.50 51.48 51.75 52.44 54.39 60.81 65.01 65.87 66.76 67.21 67.33 66.64 66.41 66.10 65.01 63.35 62.41 61.64 60.90 59.98 58.09 56.65 54.62 52.80 49.41 46.90 45.73 42.48 41.88 39.77 39.18
32.79 32.42 33.40 34.18 38.67 40.45 38.53 38.52 42.44 43.64 43.35 42.99 43.12 42.86 43.44 45.99 48.47 50.26 50.43 50.72 52.09 51.29 52.17 55.62 62.54 64.70 66.47 66.50 66.22 66.31 65.53 65.61 65.09 63.91 62.21 61.63 61.12 58.82 57.67 54.95 52.53 49.47 46.71 44.24 42.82 41.13 39.32 38.41 37.61
37.60 36.19 32.82 35.97 40.29 36.01 35.80 35.91 38.89 41.73 40.73 41.78 42.53 42.08 43.29 45.09 48.33 47.70 48.07 48.88 49.20 50.02 50.19 52.02 55.67 62.48 65.29 65.07 64.79 64.47 64.61 64.23 64.40 63.37 62.31 61.88 60.25 58.01 56.18 53.09 49.38 46.81 46.35 43.76 41.90 40.23 38.69 37.00 36.83
37.72 34.30 33.04 36.68 39.13 36.07 34.60 34.40 38.42 40.82 41.20 42.40 43.74 44.25 43.76 43.97 44.36 46.36 47.80 47.76 47.94 48.64 48.73 49.94 52.89 57.74 63.48 65.69 65.78 65.21 64.72 63.84 63.67 63.26 62.44 62.06 59.58 57.40 56.29 51.94 48.63 46.04 43.85 42.07 41.21 40.98 38.68 37.30 36.54
34.58 32.00 32.35 32.90 36.09 34.70 33.29 32.86 34.95 38.34 40.13 42.31 44.08 44.49 44.65 44.57 44.92 45.10 44.98 45.94 46.35 47.07 48.28 49.48 50.66 53.61 60.55 65.09 63.42 58.51 58.10 57.03 57.19 59.03 60.60 60.93 57.90 55.82 54.69 50.67 47.76 44.87 43.63 42.03 40.59 40.54 39.91 37.00 35.86
31.74 36.37 36.41 34.48 31.22 25.62 33.13 23.43 30.38 34.88 36.10 37.96 37.83 39.26 42.69 44.02 43.68 44.81 44.81 44.51 45.07 45.53 47.16 48.91 50.85 51.93 53.90 59.38 62.15 61.30 61.06 59.78 59.01 59.49 53.68 53.63 54.37 54.36 52.63 49.59 47.79 47.10 44.52 41.70 40.60 41.28 40.83 39.11 35.49
33.55 37.84 35.19 33.58 28.97 25.91 26.94 25.18 28.94 33.86 34.89 35.57 35.57 37.26 39.12 42.24 42.87 43.09 43.31 45.14 45.38 45.22 44.82 46.22 48.52 51.05 52.75 57.45 61.32 60.95 61.10 59.00 51.85 52.29 51.83 50.29 51.60 52.83 51.38 48.89 46.63 46.53 45.04 43.51 42.94 42.20 41.26 38.41 36.75
38.83 34.88 32.93 31.33 26.88 16.13 25.08 26.12 26.31 30.81 34.19 35.07 37.60 39.35 40.10 38.73 41.11 42.48 43.44 44.44 44.57 44.43 44.96 45.12 47.10 48.56 51.06 53.47 58.07 60.65 57.52 51.48 50.51 48.99 49.71 48.79 48.68 51.00 50.64 47.75 47.07 46.50 44.80 44.33 43.62 40.53 39.21 36.90 37.57
35.18 28.05 15.39 14.51 13.95 17.20 28.38 25.35 27.84 34.18 37.64 37.34 38.55 38.64 39.54 39.56 39.44 40.61 42.60 43.71 44.16 43.99 44.88 45.70 45.81 46.91 49.10 51.22 55.27 58.14 57.09 54.11 52.62 50.22 49.68 48.06 46.61 46.31 47.75 47.35 46.26 44.34 43.38 41.65 40.73 40.09 39.63 37.52 36.26
31.61 28.74 18.77 12.28 17.31 20.68 28.45 23.61 29.52 35.76 37.73 38.39 38.66 38.21 39.33 39.85 39.64 39.81 42.76 43.19 43.85 44.33 44.98 45.31 45.37 45.49 46.87 49.71 55.24 56.69 56.03 54.63 52.59 51.28 49.13 48.64 47.16 44.57 45.04 44.56 44.85 42.81 41.80 41.28 40.93 39.61 38.39 36.95 34.66
32.46 25.38 31.45 21.91 20.30 15.44 22.34 26.31 31.72 35.48 35.64 36.63 37.85 39.12 38.69 39.89 40.45 41.06 41.78 44.00 44.50 44.92 45.23 45.44 45.92 46.13 46.31 50.79 53.76 51.10 52.01 50.55 49.12 46.97 47.99 45.33 44.54 44.28 44.60 44.64 42.80 41.95 41.19 40.38 40.16 38.88 37.04 35.74 35.19
33.47 35.09 24.29 17.76 8.35 11.62 20.00 21.78 24.99 30.67 33.29 35.92 36.74 37.64 39.99 43.11 43.37 41.81 43.06 44.67 45.01 45.17 45.25 45.60 46.03 45.59 46.68 52.35 49.21 49.15 49.05 48.77 46.72 46.66 45.70 44.78 43.46 44.02 44.20 42.50 41.19 40.17 39.95 39.43 38.34 36.94 35.88 35.08 32.79
32.85 29.66 27.10 25.41 21.39 14.05 14.93 22.55 31.50 32.60 34.41 34.74 36.39 38.59 40.47 41.45 42.03 41.55 44.14 43.67 44.86 44.76 44.62 45.63 46.74 47.11 50.28 47.61 46.03 45.91 45.62 45.72 45.45 45.70 45.35 44.12 42.95 42.58 41.61 40.29 39.94 39.04 37.99 37.74 36.34 34.77 34.72 33.96 33.50
34.55 31.38 28.36 17.45 14.94 15.97 23.05 22.69 35.57 33.08 34.72 36.36 39.58 40.88 43.50 42.61 43.54 43.09 41.25 42.16 43.25 44.01 46.13 47.89 48.35 49.56 46.12 45.16 44.28 43.89 43.81 44.45 43.45 44.16 43.30 42.46 41.61 41.62 40.66 39.43 38.55 37.91 37.26 34.61 34.23 34.85 34.52 33.88 32.93

GFSSGP_sfc_wetblb_057.txt.gz
Wetbulb
63.82 61.73 57.34 51.85 42.63 40.24 36.53 40.35 43.05 43.69 45.16 46.02 47.44 48.24 49.39 49.93 50.60 46.84 62.14 68.44 70.37 71.39 73.11 74.07 75.37 75.36 75.24 74.92 74.22 74.33 73.65 72.94 72.13 71.51 70.90 70.35 69.47 68.85 68.92 69.69 69.38 68.06 67.59 69.90 69.21 70.84 71.07 70.73 69.66
62.21 60.22 52.82 46.55 38.48 33.44 35.83 40.86 42.99 45.29 47.22 48.84 47.51 47.33 50.18 51.90 58.66 62.97 64.79 69.91 71.47 71.93 72.76 73.07 74.93 75.19 74.50 73.65 73.24 73.02 72.81 72.11 71.62 71.08 70.03 69.62 69.26 68.18 67.49 68.04 67.91 67.93 68.18 68.70 69.25 70.09 70.91 70.41 68.98
60.56 58.20 48.64 43.80 38.09 34.99 35.75 41.33 43.25 46.97 47.90 47.32 46.21 48.81 51.61 53.36 59.08 63.73 65.53 70.99 71.36 71.45 72.22 72.84 74.51 74.55 74.16 73.47 73.09 72.59 72.42 72.24 71.81 71.21 69.92 69.58 68.73 67.80 66.59 67.00 67.40 68.97 69.68 70.00 70.07 70.33 69.72 68.64 67.51
55.95 52.41 47.86 40.21 38.19 40.84 41.20 42.07 43.32 46.12 49.07 47.94 47.56 49.90 55.03 58.11 61.74 64.27 70.07 71.06 70.62 70.96 71.48 73.06 73.91 74.11 73.78 73.48 73.28 72.76 72.65 72.60 72.14 71.01 69.68 69.21 68.05 67.11 66.51 66.22 67.58 68.29 69.27 68.84 68.60 68.10 67.61 67.15 66.58
51.41 47.27 40.89 37.47 39.64 42.37 42.69 45.03 45.81 45.49 45.41 46.77 48.13 48.02 53.74 59.49 64.30 68.88 69.78 70.67 70.08 70.57 71.26 72.13 73.69 73.49 72.97 72.53 72.29 72.36 71.55 71.62 71.81 70.46 69.63 68.48 67.71 66.63 65.85 65.62 66.65 67.76 67.83 67.79 67.74 67.66 67.33 66.93 67.00
45.95 45.40 36.66 36.63 39.39 42.87 43.62 45.15 44.61 44.49 45.08 46.94 45.87 50.81 53.60 60.02 66.77 68.43 69.92 69.57 70.70 70.41 71.07 71.55 72.21 72.77 72.67 71.40 71.69 71.80 71.21 70.87 71.27 70.07 69.29 68.09 67.87 66.48 66.03 65.66 65.66 66.90 67.46 67.24 67.20 66.99 66.95 66.72 66.47
43.63 41.22 38.23 36.80 40.02 39.51 43.87 46.38 43.63 44.87 44.96 45.90 48.11 48.91 53.03 58.27 65.61 69.03 68.89 68.88 70.21 70.41 70.31 70.67 71.03 71.19 71.43 71.28 70.70 70.76 70.89 70.73 70.78 70.21 69.41 69.22 68.65 67.03 66.38 65.90 65.78 66.38 66.99 66.95 66.67 66.37 66.29 66.43 66.29
44.93 42.15 36.81 37.65 37.92 39.31 44.68 46.23 47.00 45.08 45.83 48.98 51.66 50.39 52.36 58.21 63.88 66.90 67.64 67.86 68.54 69.28 69.61 69.29 69.52 69.78 68.35 68.15 69.77 69.67 69.71 69.48 69.67 69.27 68.68 68.32 67.81 67.81 66.95 67.17 67.40 66.95 66.88 66.82 66.60 66.34 66.45 66.39 66.23
46.36 38.70 36.08 38.21 39.48 41.32 44.89 44.39 48.10 48.19 45.70 47.47 47.81 52.95 55.79 60.95 66.29 66.15 66.19 67.04 67.19 67.88 68.16 68.72 68.22 67.33 66.58 66.65 67.66 68.70 68.79 68.41 68.51 68.22 67.16 66.40 65.55 66.30 65.68 65.22 66.58 67.53 66.98 66.68 66.60 66.54 66.69 66.90 65.98
43.48 37.92 39.46 44.24 43.91 43.01 45.50 45.59 47.07 47.31 45.69 44.99 48.77 55.98 59.18 61.78 65.21 64.82 65.20 65.17 65.59 66.91 68.39 68.62 67.31 66.84 66.37 67.47 66.00 65.13 65.89 65.64 65.40 65.31 64.72 63.92 63.97 65.10 65.94 64.08 66.03 67.38 67.42 67.61 67.21 67.16 67.24 65.21 61.41
43.46 38.81 44.19 46.38 47.97 48.11 46.00 46.01 47.97 45.14 44.34 44.79 45.47 48.69 53.48 58.91 62.33 64.57 64.92 65.64 66.11 66.85 67.42 67.81 66.85 66.88 66.45 66.33 66.01 65.12 64.03 63.56 63.58 63.59 63.33 62.30 62.44 63.93 64.08 62.68 63.23 63.33 64.16 63.72 65.33 63.89 61.19 58.07 59.10
41.15 44.72 46.12 47.69 49.17 47.36 44.61 47.11 45.79 46.60 47.30 49.42 49.30 50.11 50.08 52.22 56.93 60.77 64.29 65.10 65.56 66.04 66.83 67.61 67.29 66.59 66.38 66.46 66.27 65.52 64.53 63.23 62.01 62.54 62.83 61.48 60.38 62.65 62.03 61.80 61.63 61.47 61.73 60.63 60.98 59.56 55.61 52.72 52.61
41.52 43.54 46.47 47.76 47.99 46.30 46.96 44.58 45.32 46.15 49.79 49.36 50.41 50.24 49.61 49.30 49.97 55.14 59.20 62.71 64.27 65.66 66.50 67.10 67.09 66.48 66.44 65.82 66.28 65.87 65.09 64.07 63.09 61.89 62.36 61.90 60.13 62.12 61.64 61.46 60.91 60.27 60.02 59.50 58.89 56.99 51.52 47.66 45.64
44.68 45.26 45.39 45.80 45.76 45.52 44.73 44.36 44.31 44.99 48.67 48.02 47.75 48.68 48.23 48.65 49.56 49.08 53.43 57.57 61.19 65.18 66.40 66.96 66.99 66.63 66.60 66.24 65.86 65.84 65.82 65.04 63.61 62.03 61.57 62.00 61.05 61.68 62.45 60.60 60.04 59.14 59.17 59.02 58.16 53.66 48.55 44.83 43.45
45.43 41.32 42.38 43.66 44.85 44.41 45.19 42.18 41.19 46.27 47.54 46.18 47.40 46.04 47.55 47.98 49.20 49.16 50.54 52.64 56.68 60.98 64.50 66.66 66.83 67.01 66.26 66.34 65.96 65.81 66.00 65.70 64.45 63.12 60.48 61.69 60.72 61.09 61.44 60.06 58.32 58.12 58.27 57.22 53.32 47.68 44.41 43.18 42.77
41.60 39.86 35.87 42.37 44.43 45.00 44.59 37.38 43.14 45.99 45.78 44.62 45.29 46.21 47.13 46.98 48.62 49.69 50.00 50.83 52.41 53.44 60.75 64.98 68.05 67.16 66.51 66.46 65.86 65.87 66.03 65.72 65.07 64.28 61.50 60.80 60.74 60.45 59.62 58.39 57.64 56.54 54.96 52.27 47.48 44.57 42.55 41.46 41.06
36.67 31.48 34.34 38.21 44.11 43.35 41.61 36.76 43.09 46.11 43.77 42.99 43.50 44.11 44.64 46.20 46.98 47.79 49.72 49.38 50.30 52.48 53.43 61.09 66.27 67.05 66.12 66.25 66.37 66.22 66.43 65.97 65.40 64.77 62.64 60.69 60.56 59.43 58.81 58.03 56.23 54.00 50.81 48.02 45.74 42.50 42.11 40.35 39.25
32.43 32.33 32.76 34.13 37.58 39.68 38.23 37.08 42.27 44.26 42.32 42.35 43.29 43.93 44.11 45.02 46.74 47.94 48.08 49.36 50.02 49.76 51.79 54.39 62.74 66.05 66.49 66.15 66.29 66.40 66.02 66.08 65.36 64.17 63.10 61.27 60.49 58.82 58.16 55.95 54.53 51.98 48.21 45.33 43.56 41.54 39.04 38.88 37.76
36.45 34.16 32.13 34.54 39.02 35.62 34.76 34.78 38.36 40.58 39.34 39.19 41.17 42.90 43.91 44.65 47.46 46.74 47.54 48.38 48.35 47.86 48.60 51.06 58.78 63.23 65.22 65.12 65.12 65.07 64.65 65.01 63.79 64.50 63.15 61.37 60.47 59.00 57.89 55.72 53.12 50.32 48.61 46.25 42.92 40.15 38.98 37.13 36.45
37.99 34.03 32.26 35.93 37.81 35.10 33.95 33.42 38.08 40.46 40.81 41.43 42.77 43.23 43.69 43.15 43.49 44.45 45.94 46.51 47.15 47.73 47.10 47.75 52.90 61.94 63.64 65.13 65.31 65.00 65.19 64.89 64.64 64.10 62.22 61.31 60.39 59.18 57.87 55.46 52.55 49.92 45.69 42.51 41.13 40.73 38.37 36.93 36.00
34.68 32.18 32.03 32.13 35.00 33.46 32.10 31.14 34.49 37.92 39.68 40.66 41.92 43.35 43.89 43.88 44.44 45.05 43.07 45.05 45.79 46.28 47.11 48.21 48.10 52.56 62.19 64.66 64.23 60.51 59.70 59.57 60.05 59.88 61.82 60.54 59.84 58.93 57.97 55.33 52.39 48.78 47.95 44.76 44.01 41.79 40.15 36.89 35.16
31.70 35.79 35.75 33.54 30.60 25.75 32.08 22.81 30.04 34.07 35.18 37.10 37.80 38.52 39.86 41.64 43.71 43.61 43.32 42.94 44.01 45.30 45.80 47.07 48.63 49.35 55.82 62.61 63.11 62.55 61.45 60.86 61.87 62.64 62.80 59.73 57.63 57.19 55.51 54.32 50.75 49.57 49.58 45.89 47.10 45.33 43.26 40.42 37.49
33.41 37.28 34.41 32.54 28.33 24.70 26.58 24.97 28.80 31.52 33.37 35.88 35.57 36.89 38.05 38.91 39.75 41.94 42.38 43.52 44.19 44.38 43.99 44.79 46.20 47.91 50.39 56.45 62.67 62.50 60.93 60.78 58.62 55.33 57.72 52.85 53.10 56.49 53.84 52.48 48.80 47.69 48.38 48.26 46.79 46.85 45.55 42.07 40.09
37.84 33.73 31.95 29.74 26.18 16.80 24.50 25.12 25.79 29.49 31.86 34.15 36.43 37.03 37.51 37.91 39.02 40.60 42.50 42.86 42.92 43.68 44.13 44.16 45.72 47.19 48.47 51.94 58.91 61.79 61.46 55.10 53.93 52.57 54.56 52.26 51.48 51.90 51.85 50.50 50.25 49.95 47.98 46.34 46.80 46.61 44.52 40.77 40.22
33.76 28.84 18.13 15.41 14.14 17.02 27.43 25.21 27.46 33.35 35.75 36.08 35.78 35.50 38.17 39.49 40.78 41.08 40.83 42.80 43.34 44.09 44.45 45.02 45.00 45.72 46.95 48.67 53.03 57.46 58.79 55.12 55.88 54.96 55.67 51.51 50.68 48.88 48.52 48.25 48.63 48.30 47.74 46.17 43.90 42.86 39.96 39.76 38.59
30.62 28.67 19.72 13.05 14.40 19.53 26.71 22.97 28.42 34.90 35.96 36.29 37.18 36.47 39.50 39.81 39.14 41.10 41.51 42.49 42.69 43.26 44.14 44.44 44.90 45.19 45.50 45.29 48.39 53.37 56.54 56.55 54.70 53.53 53.96 53.19 51.58 49.53 48.15 47.96 47.51 47.39 45.23 43.61 42.34 41.12 38.94 38.32 37.05
31.64 23.80 29.89 21.80 19.99 15.96 21.86 25.35 30.47 34.18 34.09 35.92 37.36 39.18 38.86 40.88 41.60 40.44 42.18 43.37 43.62 44.01 44.25 43.88 44.51 45.30 45.77 45.64 46.76 51.73 53.53 52.47 52.06 50.64 50.35 49.15 46.99 47.04 46.56 46.71 45.67 44.31 42.85 41.78 40.09 38.99 37.49 36.78 35.77
32.97 34.31 23.82 18.42 11.27 13.44 19.74 21.09 24.16 29.25 31.66 34.75 35.63 36.42 38.75 41.52 42.63 42.25 40.98 41.85 43.77 44.59 44.89 44.08 44.62 45.30 46.10 45.76 48.80 50.26 51.53 51.08 48.45 47.86 45.86 44.83 45.36 45.56 45.13 43.45 42.44 41.61 41.46 40.31 39.06 37.37 36.97 35.79 35.10
31.12 27.51 26.55 25.25 21.66 15.59 15.84 22.12 29.43 30.18 32.88 33.94 35.63 37.10 38.87 40.49 41.40 42.23 42.13 42.20 41.34 42.59 42.83 43.10 43.77 45.83 47.17 48.46 46.55 46.18 45.55 44.83 45.32 45.36 44.87 44.17 44.04 43.72 42.91 42.10 41.69 40.15 38.99 38.13 36.72 35.88 35.48 34.17 34.27
33.76 30.65 27.61 18.27 16.29 16.45 21.28 21.17 33.50 34.12 34.95 35.15 37.24 39.10 42.04 42.45 42.30 42.12 42.09 43.46 42.86 43.07 45.54 46.28 46.80 47.65 47.53 44.32 43.51 42.85 43.10 43.43 43.38 42.83 43.02 42.79 43.49 42.73 41.56 41.57 39.61 38.54 37.42 36.58 35.47 35.14 34.72 34.32 34.02

GFSSGP_sfc_wetblb_060.txt.gz
Wetbulb
63.15 60.35 55.81 50.97 42.21 39.51 35.26 38.73 40.86 41.99 42.54 44.31 46.39 46.61 47.70 48.68 50.42 47.01 60.95 67.84 69.53 70.36 73.13 74.35 75.51 75.53 75.58 75.61 75.23 74.92 74.49 73.63 72.76 71.61 70.94 70.46 70.39 69.94 70.27 70.44 69.58 68.03 68.42 69.72 70.42 71.14 71.00 70.39 69.51
61.37 58.50 52.22 45.85 37.93 32.62 34.86 39.69 41.86 44.00 45.78 47.14 46.27 47.48 48.20 50.17 58.62 61.28 64.14 68.47 70.40 71.49 72.85 73.32 75.21 75.47 75.43 75.04 74.64 74.55 73.76 72.93 72.20 71.35 70.63 69.82 69.08 68.57 68.83 68.64 68.14 67.95 68.54 69.35 69.94 71.02 70.60 70.13 69.01
59.48 56.07 48.56 43.32 36.95 33.76 34.66 39.83 42.44 45.24 47.39 45.56 46.56 47.49 48.82 52.14 58.75 62.84 63.96 70.14 70.84 71.37 72.26 73.16 74.92 75.24 74.96 74.62 74.10 73.84 73.28 72.23 71.62 70.90 70.02 69.45 68.70 67.69 67.58 67.60 67.75 69.19 69.05 70.05 69.34 70.58 70.35 68.97 67.39
55.22 51.79 46.96 39.67 37.17 39.65 39.38 41.70 42.01 45.07 46.82 46.73 46.47 46.70 53.50 58.56 60.53 64.01 69.16 70.61 70.21 70.12 70.84 73.55 74.61 74.70 74.15 73.72 73.36 72.82 72.67 72.24 71.87 70.85 69.61 69.06 68.64 67.00 67.02 67.46 68.48 69.57 70.40 70.17 69.81 69.40 68.45 67.59 66.70
50.68 47.01 40.15 36.64 38.68 41.13 41.35 44.25 43.82 43.28 44.45 44.63 45.51 45.33 51.53 59.12 64.34 68.53 70.03 70.52 69.82 70.56 70.95 72.65 74.23 74.21 73.95 73.70 73.42 73.42 72.99 72.77 72.17 70.63 69.82 69.13 67.88 67.08 66.67 67.09 68.08 68.35 68.87 68.48 68.40 68.04 67.65 67.26 66.95
45.68 44.51 35.95 36.24 39.27 42.67 42.55 45.33 43.99 43.31 43.48 45.45 43.78 47.41 53.11 59.93 65.09 68.43 69.76 69.84 70.02 70.10 71.04 71.67 72.51 73.17 73.27 73.23 73.12 72.96 72.32 72.28 71.81 70.45 69.76 68.55 67.64 66.46 66.12 66.29 67.89 68.02 67.99 67.87 67.89 67.51 67.26 67.27 66.62
44.01 41.44 37.22 36.26 40.45 41.06 43.51 45.40 43.14 43.46 42.52 44.87 47.04 47.62 52.41 57.15 65.43 68.95 68.97 69.75 69.44 70.26 70.09 69.99 70.59 71.33 71.80 70.87 71.96 71.66 71.43 71.19 71.95 70.89 69.97 69.14 68.12 66.69 65.97 65.81 66.52 67.74 67.81 67.47 67.09 66.59 66.14 66.30 66.38
43.95 42.81 37.32 37.67 37.68 39.43 44.76 45.19 45.74 44.94 45.09 46.81 48.32 45.84 49.95 56.59 67.67 67.79 68.17 68.84 68.83 69.74 69.38 68.58 68.82 69.35 68.89 68.76 70.44 70.61 70.41 70.21 70.57 69.87 68.87 68.08 67.14 66.96 66.77 66.71 66.96 67.07 67.25 66.92 66.57 66.29 66.36 66.70 66.53
45.54 38.19 35.20 38.19 39.48 41.52 45.38 42.88 46.79 46.93 44.26 46.06 47.13 48.82 54.86 62.50 66.66 66.72 67.24 67.14 67.16 68.51 68.62 69.12 67.85 67.34 66.68 66.51 67.52 69.09 69.26 68.83 68.71 67.93 66.96 66.16 64.78 64.81 64.56 64.93 66.63 67.63 67.16 66.66 66.40 66.26 66.75 66.70 65.99
42.77 37.33 38.53 43.13 43.40 42.96 45.10 44.77 45.77 45.58 45.30 44.29 45.10 52.43 59.19 64.73 65.65 64.65 64.37 64.73 65.91 66.73 67.97 68.66 67.72 66.60 65.71 67.24 65.49 64.92 65.79 64.91 65.12 65.23 64.55 64.17 63.85 64.37 64.61 63.41 65.91 67.33 67.32 67.34 66.82 66.99 67.05 63.38 60.58
43.01 38.35 42.89 45.45 46.65 47.70 45.76 44.58 46.66 43.94 43.16 45.00 44.87 48.02 54.80 59.39 64.58 64.28 64.75 65.34 65.62 66.32 67.12 67.92 66.87 65.88 65.52 65.47 64.24 63.42 63.59 63.56 63.67 63.85 63.55 62.90 63.40 63.61 63.65 61.87 62.51 62.70 63.87 63.32 64.60 63.18 60.70 58.94 57.43
40.71 44.06 44.94 46.95 48.30 47.00 44.01 45.62 43.73 45.24 46.28 48.44 48.82 49.06 48.99 56.21 58.59 62.04 64.04 65.16 65.72 65.80 66.65 67.21 67.16 65.70 65.01 64.93 64.61 63.42 63.15 62.49 62.17 62.67 62.83 61.27 60.65 61.88 62.15 61.60 60.82 60.97 61.55 60.64 60.94 59.32 54.17 56.86 50.15
42.29 43.12 45.78 47.15 47.42 45.88 46.39 43.83 44.04 45.04 48.43 48.59 49.97 49.52 48.35 48.17 49.32 53.98 60.02 64.30 65.92 65.59 66.37 66.93 66.99 65.78 65.28 64.24 64.84 63.94 63.09 63.02 62.57 62.00 62.27 61.59 60.01 60.79 61.52 61.32 60.65 60.09 59.97 59.35 58.95 56.55 50.79 47.81 45.94
44.53 45.28 45.21 45.74 45.31 45.18 44.04 43.02 43.61 44.31 46.11 46.89 47.61 48.14 48.46 49.82 49.45 48.57 51.95 57.79 63.85 65.84 66.18 66.77 66.59 66.28 65.67 65.21 64.95 64.85 64.40 63.51 62.51 61.93 62.30 61.74 60.85 60.81 61.84 60.72 60.19 59.43 59.01 58.67 58.38 54.54 47.45 44.27 42.91
44.71 40.93 41.82 43.32 44.23 43.76 44.32 40.91 40.45 45.82 46.80 45.54 45.55 45.79 47.54 47.96 48.24 48.84 49.85 51.60 58.89 64.44 66.39 66.21 66.81 66.57 65.73 65.32 64.97 65.12 65.06 64.70 63.23 62.40 61.46 62.16 61.28 60.72 61.89 61.20 59.50 59.29 58.65 58.10 55.16 48.84 44.24 42.75 42.19
41.69 39.76 36.06 42.28 43.76 44.47 44.30 35.68 42.36 45.04 44.45 44.63 44.85 43.54 44.99 47.58 48.65 48.58 49.12 49.82 50.80 56.70 63.80 66.46 67.53 66.73 65.80 65.60 65.49 65.46 65.37 65.19 64.35 63.38 61.44 61.23 61.57 60.86 60.53 60.48 59.85 58.68 57.47 56.17 51.15 45.23 42.64 41.47 40.92
39.78 31.66 34.23 38.43 43.90 43.27 41.28 36.43 41.74 43.83 42.26 42.37 42.72 43.50 44.49 45.18 46.39 47.40 48.84 48.19 49.14 50.27 53.01 62.12 66.51 66.53 66.12 65.82 65.83 65.51 65.20 65.10 64.84 64.16 62.63 60.29 60.81 60.71 60.53 59.80 59.22 57.15 54.83 52.05 48.14 42.78 42.47 40.57 39.18
34.17 33.95 33.00 35.33 37.80 39.30 37.54 36.32 41.25 43.29 42.62 41.72 41.65 42.03 42.96 44.18 46.13 47.99 47.43 48.14 48.54 48.83 50.14 52.57 63.04 66.42 66.29 65.98 65.64 65.78 65.92 65.39 64.94 64.41 63.93 60.93 60.35 59.65 59.61 58.66 57.42 55.58 51.89 47.89 44.33 42.09 39.30 39.78 38.72
36.25 34.07 32.64 34.43 37.95 34.95 34.14 33.61 36.95 40.37 38.61 38.26 40.09 41.32 42.95 44.73 46.88 46.01 46.67 47.28 47.94 46.89 47.26 49.56 56.01 63.63 65.79 65.04 65.12 65.17 64.56 65.04 65.08 64.77 64.24 61.43 60.41 59.29 58.58 58.12 56.26 54.01 51.80 49.16 45.21 40.73 39.31 37.08 36.96
37.62 34.89 32.26 35.14 36.99 34.53 33.63 32.73 37.27 40.33 39.52 40.52 41.25 41.72 41.33 42.40 43.39 43.82 44.88 45.06 46.01 47.10 46.28 46.99 49.67 58.00 64.16 65.29 65.31 65.72 65.51 65.09 65.51 64.64 63.88 61.93 60.34 59.39 58.53 57.18 56.05 53.58 49.44 44.89 43.25 41.09 38.04 36.97 36.98
36.87 34.27 32.12 32.13 33.87 32.60 31.17 30.47 33.20 36.88 38.67 39.08 40.20 40.87 40.76 40.79 42.70 44.28 42.32 43.09 44.25 44.90 45.61 46.05 47.40 51.45 60.95 64.73 64.80 61.33 62.02 61.12 62.49 63.37 63.32 61.27 60.46 59.76 58.93 56.64 55.69 53.00 50.90 47.13 44.68 43.86 41.65 38.61 36.46
32.63 36.74 35.66 33.31 30.12 26.49 30.96 23.73 30.30 32.93 34.74 36.24 35.97 36.60 37.19 37.29 38.06 40.15 41.73 42.16 42.18 43.36 44.38 45.73 46.69 47.73 52.34 61.56 63.27 63.04 62.59 62.08 62.81 63.52 63.73 62.41 59.86 59.22 58.74 57.16 55.64 53.03 50.37 47.89 47.15 45.93 46.78 45.05 40.70
33.28 37.05 33.97 31.66 27.49 23.96 26.60 24.97 29.00 30.85 32.38 33.20 34.43 35.32 36.77 38.47 38.52 40.09 41.25 42.38 42.62 42.73 42.27 43.38 44.86 46.83 48.77 54.73 61.80 62.34 62.09 62.06 58.70 60.62 61.21 61.58 57.64 59.16 58.38 56.35 53.51 49.92 49.36 49.95 48.36 46.76 46.62 47.22 43.32
36.68 32.62 30.88 28.32 25.90 16.14 22.91 24.03 25.60 28.79 30.14 33.14 34.05 36.21 37.95 39.01 40.82 41.87 40.84 42.73 42.49 42.57 42.53 42.29 43.02 44.52 46.58 49.55 55.87 60.90 61.39 58.33 55.06 55.68 59.84 56.72 55.54 56.25 55.44 54.43 51.89 50.20 49.21 47.91 48.36 47.51 46.56 44.03 42.31
33.38 28.23 16.13 14.37 14.19 16.15 25.87 23.79 26.76 31.98 34.28 34.19 34.24 37.02 38.40 39.71 40.71 41.39 42.46 42.16 42.85 43.00 43.29 44.27 43.89 44.00 45.47 46.89 50.62 58.22 60.52 57.76 56.51 56.93 58.64 56.28 54.47 53.52 53.80 52.90 49.75 49.03 49.13 48.34 47.23 47.40 45.47 43.04 40.63
30.02 28.41 20.14 11.72 14.41 19.34 26.61 22.37 27.09 32.61 33.54 36.12 36.39 37.02 38.75 40.47 40.66 41.15 41.28 42.08 42.37 42.95 43.43 43.57 43.58 44.12 44.38 44.27 46.74 50.44 54.86 56.20 56.88 55.28 56.54 56.02 55.01 55.06 53.03 52.13 51.09 49.22 49.03 48.15 45.88 44.71 41.95 39.89 38.37
29.87 23.61 29.12 20.32 17.83 15.42 21.53 24.94 29.67 32.97 33.06 35.01 36.09 37.73 37.27 39.55 41.36 41.68 41.56 41.20 42.20 42.97 43.24 42.79 43.35 43.45 44.06 44.58 44.35 45.63 49.52 53.31 54.61 52.39 52.16 51.50 50.02 48.86 49.59 49.56 49.07 47.67 47.07 46.16 44.43 41.63 39.80 37.97 36.95
32.28 33.01 24.08 19.48 12.64 12.92 18.60 19.70 23.89 28.50 30.45 34.75 35.21 35.85 37.33 39.86 41.17 41.88 42.28 41.99 42.03 42.53 42.39 42.19 42.21 42.57 43.68 44.92 44.76 46.22 48.17 50.84 51.34 48.25 48.20 46.66 46.14 47.35 47.42 47.01 45.79 45.94 45.02 42.87 40.76 38.27 37.12 36.14 35.95
31.02 28.29 26.32 24.85 20.47 15.37 16.05 22.23 29.26 30.70 33.20 32.63 34.19 36.32 37.22 39.65 41.21 42.00 42.53 41.75 42.39 42.49 44.17 44.83 44.99 45.41 46.31 46.38 45.34 45.25 45.42 45.72 45.29 44.84 43.70 43.99 44.98 45.28 44.54 44.35 43.44 42.01 40.94 39.93 38.06 36.72 36.13 35.32 34.75
33.37 30.23 26.86 19.01 17.39 19.28 19.78 21.98 31.79 31.82 33.66 35.56 36.44 38.13 41.67 42.65 42.71 42.64 42.14 41.81 42.84 43.52 42.16 39.57 38.68 40.28 42.00 42.52 42.48 43.63 45.86 45.73 44.85 43.90 42.70 42.78 43.42 43.37 42.34 41.90 40.74 39.32 37.61 36.91 36.15 35.51 35.31 34.70 34.41

GFSSGP_sfc_wetblb_063.txt.gz
Wetbulb
65.06 61.01 58.70 55.61 47.94 45.47 41.01 43.35 46.09 46.52 47.80 50.40 51.33 51.48 51.90 53.01 54.92 52.86 66.04 70.04 70.11 71.06 73.86 74.77 75.76 75.84 76.04 75.70 75.24 75.06 74.84 74.11 72.88 72.19 71.53 71.55 71.26 71.08 70.98 70.76 70.22 69.68 70.03 69.91 71.33 71.23 70.70 70.12 68.88
62.78 59.29 56.19 50.76 44.01 39.13 40.65 44.94 45.17 48.14 50.38 50.58 50.07 50.66 53.61 54.92 61.64 63.61 66.29 69.88 71.09 72.66 73.90 74.37 75.40 75.75 75.96 75.69 75.31 74.99 74.57 73.80 72.80 71.93 71.12 70.72 70.09 70.11 70.59 69.57 68.33 68.09 69.64 70.23 70.93 71.13 70.72 69.72 67.22
60.69 57.32 52.99 48.67 42.20 39.34 40.41 44.25 47.01 48.64 50.08 49.81 50.67 53.00 53.18 56.31 62.02 64.93 67.83 70.70 71.99 73.13 73.86 74.31 75.23 75.68 75.70 75.42 75.09 74.91 74.19 73.31 72.41 71.45 70.82 69.66 68.93 68.87 68.71 68.06 68.16 69.73 70.30 70.71 70.57 70.98 70.23 68.34 66.75
57.37 55.26 50.88 44.55 40.75 43.10 44.26 46.42 46.71 48.14 50.17 50.58 50.44 49.94 56.36 61.61 62.51 66.61 70.37 71.44 72.07 72.82 73.66 74.41 75.06 75.49 75.21 74.78 74.70 74.35 73.71 73.11 72.04 71.23 70.45 69.41 68.44 67.53 68.02 68.12 69.90 71.01 70.76 71.01 70.85 70.48 68.82 67.26 66.85
53.60 50.71 44.22 41.53 42.35 44.25 45.73 47.58 47.92 47.82 48.86 49.71 49.74 49.81 52.72 61.93 67.57 69.38 70.83 71.48 71.25 72.03 73.29 74.02 74.79 74.87 74.42 74.15 73.71 73.43 73.41 73.28 72.21 70.77 70.14 69.04 68.12 67.41 67.76 67.97 69.36 70.24 70.14 69.78 69.32 68.79 68.24 67.75 66.83
49.71 48.48 41.01 39.60 41.59 45.49 47.25 49.45 49.08 48.49 48.51 49.65 49.20 50.14 55.41 65.09 67.12 68.63 70.50 70.97 71.44 71.07 73.10 73.48 73.18 73.75 73.87 73.75 73.36 73.17 73.29 73.28 72.20 70.86 70.07 68.99 68.01 67.22 66.98 68.16 68.34 68.76 69.03 68.99 68.71 68.22 68.04 67.27 67.07
47.60 44.93 41.37 40.44 42.57 43.94 46.27 48.64 47.96 48.90 48.32 49.17 51.86 51.00 56.32 62.50 67.56 68.65 69.12 70.67 70.86 70.91 72.37 72.85 72.94 72.54 72.27 72.40 72.42 72.80 72.89 73.00 72.19 71.37 70.65 69.55 68.32 67.26 66.51 67.52 68.31 68.36 68.16 68.10 67.86 67.61 66.87 66.99 66.83
48.28 46.40 40.58 40.78 40.89 42.35 47.12 47.47 49.11 48.66 48.66 51.40 52.60 49.74 52.02 60.89 67.78 68.27 68.81 69.67 69.49 70.21 71.62 71.82 71.93 71.74 71.58 71.20 70.96 70.75 70.66 70.66 71.38 70.48 69.20 67.82 66.73 67.04 66.82 66.96 67.91 68.27 67.99 67.52 66.82 66.56 66.86 67.10 66.71
47.87 42.33 38.62 41.10 40.65 43.55 46.67 45.97 49.70 50.58 49.38 50.13 51.05 52.59 57.39 63.37 67.57 66.99 66.79 67.06 68.27 68.88 70.30 71.12 71.07 71.11 70.87 70.12 70.25 70.07 69.50 69.08 69.29 68.60 66.98 66.36 66.59 66.30 65.70 65.26 66.69 67.73 67.54 66.87 66.65 66.70 67.34 66.91 66.22
45.36 40.72 40.89 44.66 45.73 44.61 46.98 47.70 49.53 49.47 48.43 49.51 50.52 55.21 62.35 65.12 65.59 64.89 64.59 65.17 66.56 66.94 68.21 69.64 70.07 70.21 69.95 69.28 69.72 69.77 69.35 69.02 68.76 68.39 68.01 67.66 67.04 66.30 65.63 64.71 66.30 67.84 67.39 67.27 66.81 67.27 66.50 64.68 64.57
44.90 40.75 44.36 46.12 46.93 48.73 47.86 47.96 49.87 48.45 47.50 49.84 49.40 51.72 60.09 63.47 64.45 64.48 64.61 65.27 65.78 67.05 68.21 68.56 68.62 69.61 69.21 68.76 68.28 67.88 68.29 67.91 68.16 67.79 67.57 67.42 66.99 67.16 66.07 65.53 66.19 66.97 65.15 66.78 67.18 66.95 65.71 64.39 61.61
42.18 44.87 45.62 47.49 49.14 48.49 47.05 48.81 47.57 48.67 49.93 51.36 52.20 52.57 54.17 61.94 62.88 63.56 64.41 65.45 65.86 66.49 67.17 68.05 68.17 68.48 68.85 68.24 67.40 66.86 66.79 66.61 66.59 67.25 66.94 66.67 66.30 66.79 66.78 65.33 65.38 66.00 66.35 66.19 66.58 65.39 62.21 62.58 58.08
43.64 44.65 46.58 48.16 48.29 47.77 48.42 46.52 47.25 47.54 50.69 51.46 51.58 51.91 52.28 53.21 58.49 62.11 63.95 65.26 65.90 65.86 66.86 67.75 68.11 67.93 68.40 67.53 67.16 66.60 65.97 66.12 66.25 66.62 66.80 66.47 66.04 66.08 66.69 66.34 65.09 65.00 65.49 65.09 65.13 63.27 59.16 59.44 54.95
45.81 46.31 46.09 46.94 47.05 47.21 45.54 45.37 45.65 47.32 49.33 49.49 49.59 50.77 51.37 52.14 53.05 53.46 57.37 63.98 66.08 66.43 66.26 67.65 67.63 67.63 68.02 67.28 66.97 66.42 66.13 65.97 66.02 66.02 66.35 66.04 65.72 65.53 65.76 65.94 65.33 64.39 64.56 64.29 64.21 61.68 56.84 55.27 52.91
45.11 42.09 44.06 45.20 45.36 45.21 46.32 42.61 42.22 48.00 48.87 48.46 48.71 49.63 50.03 51.41 52.15 52.80 54.17 55.98 63.75 67.03 68.10 67.37 67.44 67.52 67.43 67.31 66.96 66.77 66.52 65.69 65.39 65.61 65.90 65.72 65.45 64.88 64.92 65.18 65.22 64.80 64.01 63.42 62.63 58.26 53.35 51.21 49.69
42.71 42.43 37.75 43.77 44.80 45.40 45.32 37.19 44.33 47.28 46.67 47.10 47.60 47.96 48.04 49.89 51.46 53.13 53.24 53.56 54.64 60.50 66.55 68.15 68.16 67.29 66.92 67.20 67.21 67.24 66.92 66.43 65.60 65.17 65.21 65.20 65.14 64.95 64.74 64.58 64.98 65.24 63.90 62.79 60.70 56.02 51.89 50.62 49.69
40.62 34.34 36.36 39.86 44.68 44.22 43.61 38.74 44.12 46.24 45.43 45.35 45.81 46.45 46.69 47.82 49.63 50.73 51.86 52.73 53.48 53.92 57.72 65.82 68.07 68.09 66.95 67.11 67.21 67.02 66.69 66.81 66.98 66.09 64.91 64.29 64.62 64.51 64.35 64.19 64.68 64.68 63.53 61.83 59.04 53.27 52.20 49.65 48.51
34.55 34.10 36.15 36.92 40.72 41.99 39.95 39.26 42.87 44.57 43.83 44.26 44.92 45.89 46.21 46.18 47.97 50.82 51.54 51.58 52.57 52.84 53.44 56.88 65.96 67.87 67.96 67.15 66.31 66.55 66.30 66.17 67.07 66.78 65.90 64.40 63.61 63.50 63.54 63.54 63.76 63.57 62.31 60.32 56.48 53.16 49.13 49.81 48.51
38.17 35.83 34.88 37.34 40.23 38.22 37.04 36.71 39.16 41.72 41.39 41.51 42.79 43.99 45.19 46.37 48.85 49.64 50.41 51.00 51.33 51.21 51.08 52.46 55.68 64.67 67.61 66.33 64.80 64.70 64.63 65.49 65.60 66.31 66.25 64.75 63.85 62.67 62.75 62.82 62.72 62.01 61.18 58.97 56.71 51.76 48.33 45.79 46.12
38.21 35.33 34.42 36.98 38.61 38.02 35.25 35.12 39.16 41.49 41.60 42.72 43.31 43.74 43.42 44.29 45.11 46.21 47.59 48.80 48.88 50.87 51.10 51.09 52.18 57.49 65.72 66.59 65.90 65.70 65.91 65.76 66.07 66.00 65.54 65.63 64.21 62.75 62.30 62.03 61.41 60.63 59.86 57.56 53.71 50.50 46.70 45.94 45.29
36.97 35.44 33.54 34.30 36.06 35.53 33.55 33.75 35.62 39.15 39.68 40.27 40.56 40.81 41.50 41.00 40.89 42.22 43.92 46.25 47.65 47.69 49.07 50.16 51.08 53.02 60.71 66.37 66.52 65.15 65.53 64.55 65.05 64.61 64.65 64.61 64.34 62.99 62.43 61.74 61.08 59.76 59.52 56.50 53.30 50.90 50.20 45.67 43.43
35.43 38.57 36.76 34.50 33.44 30.37 33.50 28.30 33.71 35.26 35.36 36.55 38.29 39.95 40.74 41.12 42.18 42.77 44.07 44.71 45.65 46.51 47.07 48.34 49.93 50.76 54.16 63.28 65.30 64.47 63.19 62.72 63.98 64.56 65.24 64.51 63.60 63.15 62.41 61.61 60.94 59.59 58.15 56.21 53.48 50.44 51.12 49.32 44.64
35.74 38.40 35.24 33.09 30.21 30.12 30.24 29.07 32.37 34.49 32.96 35.21 37.65 39.73 41.26 42.13 42.67 43.83 44.21 45.52 45.57 46.11 46.11 46.41 47.24 49.01 50.72 55.97 63.58 64.21 63.47 64.10 64.79 64.65 64.15 64.08 62.61 62.81 62.00 61.63 60.41 59.43 57.20 56.29 52.68 50.78 49.56 50.35 47.97
37.57 33.88 31.94 29.78 28.27 22.97 26.46 27.28 29.07 32.02 33.90 36.13 38.35 40.28 41.09 42.51 43.79 44.56 45.31 45.83 46.35 47.38 47.36 48.09 47.01 46.91 48.33 50.60 56.71 63.16 63.26 63.41 62.17 62.28 62.94 63.46 62.03 61.12 60.94 60.73 59.92 59.02 56.88 55.07 53.53 53.15 51.01 49.91 48.87
35.31 31.86 22.91 20.29 21.19 21.88 27.69 25.91 29.60 33.90 36.43 37.66 38.94 40.00 40.94 42.72 44.23 44.75 44.68 45.16 46.31 46.58 47.05 47.72 47.17 47.42 47.88 48.70 50.21 55.25 62.12 63.14 61.62 62.11 61.72 62.31 58.12 57.73 58.72 59.06 57.99 56.89 55.96 54.58 53.45 52.08 50.87 49.51 48.03
32.07 32.89 24.05 17.29 18.56 21.43 27.47 24.47 29.75 34.46 35.47 38.76 40.00 39.60 40.44 42.70 44.06 44.81 45.01 44.52 45.37 46.53 47.03 46.45 45.96 46.26 47.15 47.81 48.25 50.30 53.94 59.75 60.86 60.76 60.69 61.38 60.42 59.45 59.23 57.32 57.31 55.35 53.91 53.02 52.16 51.31 50.21 48.15 46.35
32.07 28.50 30.13 21.25 20.55 19.98 24.63 27.90 32.99 35.45 36.52 37.83 38.22 39.53 40.38 42.39 43.65 44.27 45.14 45.55 45.08 45.88 46.34 46.34 46.67 46.84 46.91 47.28 48.36 48.79 48.88 51.50 56.14 58.59 58.51 59.71 58.89 56.68 57.07 55.72 53.62 53.12 52.53 51.75 50.88 49.31 46.53 44.34 40.97
33.99 33.26 26.15 22.62 15.67 18.33 21.68 22.78 26.98 31.41 34.65 37.12 37.54 38.42 39.92 42.30 43.75 44.42 44.94 44.74 45.01 45.74 46.55 47.00 46.19 46.80 47.90 48.83 49.22 49.52 50.03 50.81 52.29 54.44 54.92 54.67 53.47 52.70 52.55 51.86 50.48 49.97 49.34 48.80 46.96 44.57 41.13 38.54 37.63
31.71 28.95 27.08 26.26 23.27 19.33 19.04 24.70 30.64 33.44 35.54 35.72 37.20 38.70 40.71 43.48 43.96 44.18 44.27 44.96 45.47 45.93 43.94 42.55 42.52 44.14 45.48 46.16 46.62 47.14 47.39 48.22 49.35 50.16 49.90 50.33 49.75 49.79 49.89 48.75 47.71 46.38 45.06 43.68 41.17 39.10 37.98 36.36 35.99
33.96 30.67 27.55 21.45 20.54 21.58 21.44 24.91 33.98 33.70 35.36 35.58 37.08 39.02 43.43 43.53 43.49 42.15 42.44 44.02 44.72 42.04 40.75 40.27 40.74 42.13 43.51 44.40 45.12 45.97 47.51 47.85 47.68 46.99 46.43 47.09 47.06 47.04 46.66 45.96 43.87 42.25 40.81 39.45 37.72 36.96 36.41 35.44 35.02

GFSSGP_sfc_wetblb_066.txt.gz
Wetbulb
67.22 66.35 64.66 61.15 51.10 50.05 46.83 47.51 51.57 50.73 51.63 54.30 54.56 54.31 54.65 56.33 56.30 55.22 69.17 71.72 71.34 72.48 75.03 75.34 75.90 75.93 76.24 76.10 75.86 75.47 75.01 73.99 73.31 72.70 72.26 72.26 71.92 71.21 71.42 70.88 70.53 70.06 70.48 71.56 71.39 70.95 70.18 69.25 67.75
66.93 62.52 61.76 57.89 47.70 44.25 46.05 50.61 49.15 51.84 53.61 55.00 54.52 54.37 54.38 56.35 62.94 66.27 68.57 71.43 72.04 73.82 74.71 74.89 75.55 76.02 75.94 75.57 75.45 75.26 74.69 73.68 73.00 72.16 71.51 71.16 71.03 71.34 71.15 70.02 68.81 69.08 70.03 70.02 71.12 70.88 70.30 67.95 67.61
64.82 62.16 56.44 52.01 48.27 44.56 46.00 50.39 51.38 52.64 53.90 53.77 53.99 56.31 56.98 58.11 64.57 67.49 70.62 71.99 72.68 73.75 74.81 75.01 75.51 76.02 75.94 75.57 75.32 74.98 74.66 73.70 72.75 71.99 71.18 70.18 69.77 70.08 69.36 68.58 67.84 68.68 71.12 70.72 71.18 70.81 69.40 67.27 67.79
60.58 58.93 56.92 48.89 46.27 49.42 49.88 50.70 51.37 51.96 53.52 54.21 54.48 53.55 58.56 65.38 65.55 69.28 72.15 72.34 72.81 73.90 75.07 74.58 75.32 75.82 75.68 75.43 75.04 74.92 74.41 73.55 72.44 71.36 70.57 69.00 68.52 68.43 68.03 67.99 70.63 71.26 70.84 70.44 70.93 70.02 67.80 67.16 67.98
59.95 57.22 49.61 47.35 47.85 50.64 52.35 52.72 52.64 51.89 52.35 53.15 53.47 53.01 55.19 65.63 69.42 71.32 72.11 72.58 72.56 73.35 74.37 74.76 75.37 75.60 75.47 75.11 74.91 73.96 73.60 73.21 72.19 71.15 70.25 68.76 67.84 67.78 67.95 67.76 70.45 70.56 70.96 70.82 70.06 68.88 67.87 67.28 68.17
53.36 55.02 46.97 44.80 47.55 51.03 52.36 54.07 53.38 52.70 53.04 53.18 52.32 53.40 56.59 67.76 69.27 71.15 72.47 72.68 73.29 73.12 73.41 74.18 73.88 74.40 74.45 74.40 74.01 73.27 72.97 72.81 72.12 70.88 70.10 69.30 67.71 67.60 67.66 67.85 70.01 70.14 70.13 69.74 69.14 68.56 68.00 67.14 67.71
51.66 49.82 46.56 47.17 47.37 49.03 51.23 54.96 52.72 52.62 52.71 52.56 54.45 52.26 58.14 65.60 69.95 70.64 72.27 72.90 73.14 73.15 72.91 72.91 74.14 73.23 72.27 72.54 72.49 72.40 72.47 72.96 72.07 71.52 70.78 69.26 68.85 67.87 67.49 68.18 68.08 68.90 69.19 68.86 68.47 68.19 67.14 67.30 67.00
52.71 51.29 46.72 47.81 45.84 47.04 52.56 52.80 53.96 53.38 52.63 55.51 55.76 52.10 54.47 64.13 70.01 69.65 69.91 72.23 72.32 71.60 73.05 72.78 72.97 73.06 72.81 72.02 71.23 71.45 71.69 72.07 71.33 70.63 69.53 67.91 66.91 67.31 67.26 68.28 68.94 68.33 68.24 67.79 67.22 66.81 67.10 67.05 66.73
53.99 46.20 43.19 45.67 45.88 47.54 51.71 50.71 53.60 54.50 53.11 53.56 55.05 55.79 60.34 64.80 68.56 68.37 68.15 69.70 69.21 69.93 72.16 72.75 72.52 72.51 71.84 71.69 71.25 70.39 69.72 70.09 69.97 68.91 66.97 66.13 66.79 66.44 65.95 66.07 67.31 68.48 67.99 67.16 66.78 67.12 67.46 66.98 66.07
48.56 44.50 44.84 48.84 49.51 47.94 49.10 50.89 51.80 51.42 51.51 52.35 54.00 57.89 63.62 65.87 66.97 66.32 65.50 65.46 66.75 67.77 69.45 71.64 71.93 71.49 71.34 70.44 71.00 71.47 70.45 70.30 69.62 69.57 68.19 68.59 66.86 66.33 65.27 64.89 66.69 67.72 67.83 67.54 67.00 67.65 66.67 65.75 65.98
48.49 44.81 48.52 48.47 49.59 50.40 49.21 50.51 53.53 51.78 50.42 52.98 52.88 55.85 62.36 64.05 65.29 65.64 65.86 66.53 66.68 68.14 69.02 69.65 70.79 71.80 71.09 70.25 69.93 69.95 69.87 69.22 69.15 69.24 69.06 68.43 66.98 66.57 65.62 66.24 66.60 66.99 65.33 66.17 66.93 67.36 66.51 66.16 65.52
45.17 48.47 48.74 49.44 50.94 50.37 49.12 51.90 51.28 52.65 52.60 55.00 56.60 56.40 58.36 63.55 63.74 64.96 65.01 66.47 67.16 67.89 68.45 69.13 70.55 70.14 71.05 70.61 69.56 68.60 68.24 68.44 68.17 68.62 68.55 67.85 66.85 67.16 66.51 64.99 65.91 66.34 66.01 66.12 66.72 66.66 66.36 66.07 64.38
46.64 47.65 49.30 50.02 50.45 50.32 50.56 49.94 50.60 51.60 54.78 55.67 55.59 55.11 55.92 58.85 64.60 65.01 65.59 66.74 67.36 67.50 68.10 68.69 69.24 68.98 71.00 70.56 69.90 68.42 67.70 67.66 67.47 67.86 68.14 67.69 66.83 66.77 67.87 67.22 65.92 65.50 65.94 66.00 66.21 66.13 65.17 65.28 63.69
48.93 48.89 48.14 49.74 49.21 49.52 47.89 48.63 49.71 51.45 54.64 54.13 54.51 54.85 55.77 55.99 57.80 64.54 66.36 66.23 66.57 67.09 68.06 69.02 68.79 68.88 69.59 70.50 70.12 68.99 68.28 67.81 66.77 67.19 67.53 67.47 67.15 67.07 67.79 67.59 67.10 65.89 65.71 65.89 66.04 65.54 64.27 63.74 62.06
48.31 44.75 47.46 48.17 48.12 47.26 49.39 45.07 46.36 51.73 52.98 52.20 52.80 53.67 54.48 55.40 56.76 57.33 60.10 64.50 68.38 69.48 69.80 69.47 68.94 68.80 68.86 70.36 70.41 69.81 69.10 68.13 67.53 67.18 67.46 67.47 67.89 67.90 67.66 67.54 67.33 67.22 65.63 65.36 65.47 65.37 63.80 61.51 60.04
45.57 44.80 40.16 45.96 47.38 47.80 47.21 40.15 46.79 50.95 51.24 50.41 51.37 52.30 53.03 54.19 55.32 57.03 58.30 58.77 60.21 64.09 67.84 70.24 70.06 69.27 69.21 68.86 70.32 70.11 69.77 68.99 68.22 67.85 67.55 67.24 67.39 67.73 67.33 66.84 66.81 67.54 66.95 65.31 64.53 63.99 61.53 60.11 57.78
42.32 37.58 39.02 41.98 47.57 46.56 45.67 41.95 47.25 49.99 49.77 49.88 51.05 51.95 52.33 53.05 54.16 55.62 56.92 57.88 58.67 59.31 60.31 64.61 68.71 69.87 69.47 69.10 69.26 69.42 69.92 69.39 69.15 68.60 67.87 67.53 67.09 67.15 66.93 66.54 66.66 67.25 66.53 65.75 64.29 63.10 62.06 59.43 57.36
37.53 37.95 39.52 39.44 44.17 45.32 43.25 42.73 46.18 48.69 48.33 49.59 50.68 51.26 51.79 52.32 53.21 55.33 56.33 57.12 57.66 58.64 59.13 59.31 63.07 67.57 69.55 68.12 68.21 67.89 67.50 68.02 69.53 69.20 68.55 67.92 67.29 67.03 66.69 66.25 66.09 66.44 65.91 65.11 64.78 61.75 60.79 60.19 58.59
42.20 40.18 38.18 41.33 43.46 44.02 43.34 43.41 45.14 47.85 48.57 48.43 49.20 49.88 50.63 51.59 53.55 54.08 55.02 55.96 56.43 57.09 57.57 58.14 58.44 62.50 66.90 68.00 66.04 65.71 65.34 66.16 66.50 67.73 69.31 68.62 67.76 66.85 66.51 66.10 65.90 65.69 65.20 65.09 64.67 61.91 58.76 56.03 57.03
41.46 39.60 38.70 39.61 43.71 42.12 40.98 41.10 44.46 46.21 46.88 47.68 48.26 49.28 49.99 50.12 50.65 51.17 51.29 52.53 53.82 55.04 56.66 57.30 57.75 58.67 61.89 66.58 67.74 67.99 67.37 67.25 67.06 67.01 66.75 67.92 67.76 67.27 66.29 65.97 65.75 65.17 64.19 64.68 64.36 61.60 57.34 57.40 54.37
40.78 39.25 38.90 38.16 39.17 40.61 39.65 39.76 42.38 42.37 42.80 43.83 44.51 46.13 46.74 46.96 47.04 48.30 49.42 49.91 51.69 52.76 54.12 55.38 56.45 56.97 58.46 62.58 65.87 67.12 67.29 67.49 66.33 66.02 66.11 66.44 66.54 67.67 66.83 66.26 66.45 65.60 64.46 63.73 63.83 61.60 58.09 55.16 52.65
35.98 42.06 41.31 38.28 38.14 35.12 38.66 34.78 38.23 39.21 40.10 43.05 45.40 46.78 47.49 47.92 48.99 49.45 50.03 50.16 50.17 51.04 51.99 52.58 53.64 54.80 56.05 58.90 62.47 64.62 63.92 63.58 64.91 66.23 67.03 67.38 66.31 65.34 66.65 66.43 66.26 65.47 64.71 63.47 63.11 61.12 59.10 58.20 52.05
37.60 41.73 40.25 39.16 36.94 36.15 35.59 35.03 36.70 39.64 38.65 41.70 44.83 46.64 47.81 48.65 49.10 49.63 50.22 50.80 51.79 52.41 52.38 51.96 51.55 52.62 54.33 55.41 59.22 63.22 63.57 63.91 65.39 66.14 66.18 66.65 66.21 64.99 64.29 64.79 65.21 64.74 63.97 63.21 62.37 59.40 57.97 58.17 56.34
39.35 36.28 37.09 37.46 36.39 30.93 34.58 33.57 34.33 36.55 39.02 41.45 44.21 46.27 47.63 49.07 50.10 50.39 51.15 52.52 53.03 53.85 53.52 53.39 52.80 51.52 52.21 53.97 55.79 59.60 61.70 63.17 63.79 64.66 64.87 65.66 65.75 64.21 63.45 62.92 63.32 63.68 63.17 62.13 62.14 60.22 58.04 56.35 57.08
37.62 36.83 29.83 29.36 29.03 29.54 31.85 31.22 35.56 38.83 40.27 43.46 44.06 45.93 47.60 49.55 50.61 50.73 50.71 51.05 52.15 52.98 53.41 52.86 52.73 52.01 52.53 52.72 53.38 54.73 58.52 61.94 62.83 63.35 63.67 64.09 63.17 62.75 62.17 62.36 61.88 61.66 61.70 61.38 61.05 59.11 57.56 56.68 55.93
36.72 36.07 32.13 24.60 26.29 29.21 31.26 29.47 35.01 38.91 41.48 44.01 44.05 44.82 46.81 48.92 50.10 50.40 50.78 51.26 51.30 52.18 52.71 53.48 53.39 52.72 52.41 52.69 52.68 53.83 55.32 56.84 60.81 62.88 63.12 63.39 63.57 63.27 62.19 61.70 61.43 60.59 60.23 59.21 58.93 58.16 57.57 56.36 55.89
35.60 34.72 35.36 29.29 28.05 29.62 32.91 33.67 37.39 39.50 40.27 42.08 43.01 44.34 46.49 48.17 49.23 49.55 50.60 51.04 50.58 51.22 52.03 51.94 51.49 52.34 53.12 53.70 53.96 53.84 54.18 53.88 55.21 58.67 61.42 61.92 62.50 62.03 62.20 60.69 59.51 58.76 57.26 56.33 55.50 55.07 54.86 53.98 52.16
38.22 38.18 31.69 32.58 25.11 24.71 28.71 30.72 33.56 36.01 38.94 41.39 42.87 44.09 45.80 48.06 48.67 48.77 48.99 49.83 50.83 51.31 50.79 50.26 50.07 50.32 51.10 52.06 52.93 53.21 54.14 54.68 55.40 56.21 56.53 57.82 58.90 59.08 57.74 58.08 56.68 55.05 54.02 53.63 52.85 51.09 51.25 46.74 43.92
34.65 34.45 32.65 33.83 30.60 28.61 27.12 31.17 40.23 39.66 41.59 41.01 42.14 43.37 45.79 47.50 47.84 47.61 48.30 49.01 49.79 49.01 48.16 47.81 47.80 48.36 49.32 50.37 50.90 50.74 51.45 52.29 53.08 53.42 53.59 53.74 54.17 54.12 54.34 54.10 52.47 51.71 50.31 49.99 47.88 43.70 41.85 39.99 37.83
37.46 35.38 34.76 31.98 27.32 29.28 30.07 31.38 39.72 42.62 41.55 40.65 41.90 43.57 46.47 47.23 45.66 46.92 48.11 48.66 47.08 46.29 46.13 45.89 46.16 46.59 47.70 49.15 50.52 50.41 51.59 52.12 51.98 51.67 51.38 51.63 51.30 51.69 51.39 50.29 49.27 47.75 45.82 43.63 40.48 38.95 37.85 36.48 35.73

GFSSGP_sfc_wetblb_069.txt.gz
Wetbulb
66.66 67.38 65.53 61.13 51.47 50.47 47.73 49.73 53.04 51.23 51.84 55.29 55.83 55.13 54.44 56.66 55.01 55.56 69.82 72.04 71.80 73.75 74.67 75.12 75.96 76.18 76.18 75.87 75.81 75.36 74.98 74.53 73.77 73.17 72.26 72.00 71.37 71.04 70.64 70.21 69.92 70.23 71.34 71.22 71.17 70.42 69.79 68.34 68.07
65.66 65.42 62.31 57.41 48.31 45.19 46.74 52.44 50.43 52.27 54.84 55.53 55.90 55.75 54.97 54.92 62.39 67.47 69.25 72.04 72.32 73.71 74.26 74.21 75.62 76.11 76.21 75.82 75.56 75.23 74.35 73.92 73.40 72.82 72.22 71.84 71.74 71.48 71.31 70.10 69.26 69.46 69.65 70.92 71.15 70.51 68.75 68.14 67.85
65.96 64.07 56.45 52.30 48.89 44.79 47.18 52.00 52.81 53.54 55.27 54.76 55.01 57.44 58.05 58.05 65.71 68.22 71.66 71.94 72.48 73.98 73.88 74.62 75.46 75.97 75.92 75.62 75.47 75.21 74.58 73.74 72.89 72.22 71.59 70.58 70.72 71.19 69.66 68.20 67.93 68.28 69.94 70.74 71.00 70.31 67.88 68.12 67.68
62.49 58.87 57.29 49.75 46.98 50.21 50.76 53.04 53.24 53.17 54.40 55.21 55.65 54.41 59.46 66.23 66.49 70.28 72.34 72.15 72.88 73.53 74.57 74.36 75.49 75.86 75.58 75.44 75.20 74.84 74.61 73.29 72.60 71.80 70.42 69.54 69.09 68.94 67.91 67.56 69.71 71.07 71.48 71.16 70.86 69.12 67.85 68.02 68.28
61.15 57.21 49.37 47.82 48.63 51.86 53.66 54.41 53.41 52.23 53.61 54.36 54.57 54.44 57.10 67.27 70.20 71.87 71.70 72.06 72.31 73.18 75.02 74.41 75.52 75.69 75.59 75.33 74.84 74.54 73.82 73.46 72.35 71.34 69.96 68.25 67.96 68.19 68.33 69.53 70.88 70.95 71.00 71.08 69.95 68.23 67.57 68.26 68.33
53.82 55.93 47.63 45.30 48.52 52.12 54.21 55.28 53.57 52.90 54.15 54.36 53.62 54.41 59.01 68.96 70.09 71.55 72.15 72.43 73.10 73.09 73.85 73.36 73.97 74.88 75.02 74.90 74.63 73.89 72.95 72.87 72.56 71.65 69.96 68.29 67.69 67.85 68.12 69.24 70.76 70.69 70.60 70.14 69.40 68.65 67.59 67.75 67.94
51.50 50.37 47.49 48.12 48.45 50.39 52.90 55.98 53.68 53.14 53.24 53.64 55.39 52.63 60.67 67.22 70.69 72.09 72.31 73.02 72.82 73.32 72.82 73.17 73.52 73.56 73.26 73.35 73.25 72.61 72.26 72.33 71.96 71.42 70.83 69.28 68.82 67.82 67.88 68.39 69.79 70.15 69.92 69.36 68.84 68.18 67.54 67.19 67.53
53.01 51.46 47.50 48.60 47.27 48.55 54.10 55.04 55.77 54.24 52.97 56.97 56.39 52.04 55.14 67.34 70.65 71.49 72.29 72.40 72.31 72.78 72.81 71.97 72.27 72.41 72.67 71.76 71.57 71.33 71.49 71.35 71.07 70.50 69.29 67.97 67.11 67.50 68.07 68.16 68.76 69.29 68.84 68.45 68.00 67.30 67.19 67.09 66.90
54.48 46.13 44.82 47.21 47.75 49.37 53.72 52.91 55.65 56.91 54.83 55.12 55.86 55.54 62.05 68.42 69.93 69.40 69.94 70.77 71.41 71.38 72.16 72.62 72.61 71.91 72.37 71.90 70.90 70.57 70.50 70.42 69.61 68.75 66.76 65.94 66.29 65.69 66.07 67.11 67.77 68.71 68.22 67.35 66.97 67.05 67.41 67.30 66.65
48.98 45.09 45.81 50.59 51.65 50.41 52.24 52.37 53.58 52.54 52.49 52.86 53.87 57.20 62.94 66.25 68.06 67.02 67.39 68.51 68.54 68.88 71.28 72.00 71.84 71.32 71.07 70.40 71.11 70.63 70.58 70.97 70.83 69.66 67.94 68.12 66.33 65.45 64.41 65.26 66.91 68.19 68.00 67.78 67.19 67.69 67.38 66.27 64.98
49.19 44.68 49.04 49.62 50.48 51.51 50.25 50.03 53.31 51.72 50.20 52.55 52.62 54.95 60.63 63.27 65.83 66.50 66.44 66.70 66.60 68.20 70.48 71.31 71.45 71.32 70.34 69.83 70.02 70.08 70.24 69.35 69.25 69.56 68.75 68.09 66.37 65.70 65.15 65.39 65.94 66.94 65.63 66.08 66.42 66.92 65.75 65.35 65.46
45.99 49.05 49.95 50.99 50.89 49.71 48.78 50.63 50.63 52.32 52.75 55.59 56.02 57.98 59.73 62.95 63.73 66.05 66.33 67.25 67.93 67.62 68.51 69.57 71.26 71.09 70.59 70.16 69.10 69.19 69.06 68.89 68.28 68.71 68.97 67.90 66.31 65.83 64.12 64.91 64.99 65.65 65.33 65.01 65.16 65.75 65.60 65.64 65.23
47.40 48.70 49.78 50.96 51.33 50.89 51.37 49.47 49.70 52.01 55.41 56.41 57.36 56.61 57.15 60.19 64.09 65.90 66.92 67.65 69.07 68.60 68.51 68.74 70.04 70.55 70.80 70.09 69.93 68.84 67.98 67.87 67.95 68.13 68.24 67.97 66.64 66.21 65.97 64.84 64.99 65.61 65.53 65.33 65.49 65.84 65.53 65.13 64.57
49.42 49.60 49.03 50.18 50.03 50.75 48.80 49.19 50.62 52.55 55.46 55.22 55.32 55.70 56.82 57.19 59.12 65.30 65.99 66.24 67.59 68.48 69.23 68.98 69.08 69.08 70.33 70.55 70.68 69.72 68.74 68.15 67.66 67.35 67.80 67.68 67.00 66.52 66.78 66.84 65.76 64.95 65.21 65.31 65.45 65.39 64.97 64.35 64.35
49.24 45.39 47.30 48.16 49.17 47.88 49.89 46.15 47.01 52.59 54.01 53.53 54.11 54.48 55.11 56.29 57.68 58.76 64.84 66.99 67.95 68.57 69.27 69.88 69.82 69.47 69.57 70.40 70.57 70.58 69.87 68.76 67.86 67.11 67.34 67.25 66.93 66.80 66.66 67.33 66.95 66.67 65.58 64.89 65.12 65.13 64.77 63.54 62.79
44.64 44.63 39.63 46.82 47.90 48.53 47.30 40.98 48.45 51.95 51.57 51.48 52.54 53.23 53.84 54.44 55.80 57.80 59.54 61.94 65.90 68.60 69.39 70.12 70.22 69.90 69.27 69.04 70.81 70.52 70.58 69.62 68.74 68.15 67.63 67.27 66.78 67.11 67.19 66.96 66.94 67.20 66.81 64.77 64.33 64.18 63.41 62.33 60.99
42.51 37.11 39.72 42.58 47.94 47.03 45.23 41.97 47.56 50.58 50.35 50.32 51.43 51.97 52.37 53.00 54.21 55.80 57.74 59.68 61.09 61.87 64.29 68.09 70.42 70.02 69.93 69.93 69.68 70.95 70.68 70.22 69.73 69.13 68.39 67.74 67.21 67.05 67.06 66.91 66.83 66.79 66.63 65.40 64.58 63.87 63.04 61.38 60.45
37.58 38.53 41.12 39.99 44.90 45.77 44.08 43.38 47.19 49.04 49.04 49.56 51.02 51.83 52.28 52.43 53.15 54.76 55.87 57.48 58.75 60.13 60.97 61.24 64.14 68.02 70.34 70.58 69.06 69.22 69.53 70.52 70.34 69.71 69.02 68.49 67.99 67.30 67.23 67.05 66.64 66.64 66.38 64.64 65.31 63.75 63.18 61.98 60.53
42.38 40.78 40.01 42.99 45.49 43.98 43.19 43.62 45.47 47.93 48.58 48.50 49.80 50.71 51.35 51.96 54.01 55.14 56.00 56.90 57.56 58.18 58.55 59.59 59.92 61.16 65.56 67.48 67.60 66.84 66.04 67.49 69.02 70.18 69.91 69.36 68.62 67.90 67.46 67.14 66.55 66.58 65.71 65.09 64.05 64.30 62.00 60.74 61.37
41.71 39.87 40.06 43.03 44.84 42.87 43.30 42.43 46.14 47.58 47.63 48.42 49.04 49.70 50.31 51.28 52.37 53.63 54.22 54.82 55.32 56.22 57.41 58.00 58.81 59.56 60.70 64.75 68.57 67.12 66.51 66.16 67.02 67.93 68.59 69.39 69.36 68.78 67.50 67.16 66.55 66.46 65.60 65.37 63.77 62.96 61.76 60.04 59.77
40.64 39.40 40.29 39.74 42.56 42.80 41.39 39.81 42.56 46.17 47.94 48.47 48.03 48.89 50.10 49.89 49.96 50.71 51.43 52.29 53.49 54.00 55.42 56.71 58.14 58.89 59.68 61.08 63.97 68.07 67.95 68.65 67.25 66.45 66.48 66.38 68.33 69.26 68.50 67.20 66.72 66.57 65.98 64.60 64.89 63.48 62.00 58.03 57.30
37.34 43.88 42.81 40.83 38.08 33.03 40.84 33.08 40.74 44.09 42.62 43.54 45.85 47.66 48.57 49.14 49.82 50.30 50.87 51.15 51.73 52.90 54.29 54.72 55.77 56.92 58.23 59.51 59.68 62.16 64.65 64.36 66.06 66.76 67.01 66.38 66.90 66.82 67.00 67.64 66.64 66.02 65.89 64.99 64.31 64.55 63.22 59.53 55.98
39.02 43.90 43.01 41.38 38.92 38.31 36.63 34.15 39.32 41.35 39.64 42.50 45.91 47.61 48.78 49.72 50.21 50.44 51.10 52.19 53.11 53.93 53.94 53.74 53.42 53.97 55.22 56.27 57.55 59.36 61.68 64.39 65.31 65.36 65.21 66.69 67.84 66.94 65.36 65.64 65.58 65.60 65.16 65.10 64.08 63.65 63.12 59.79 57.64
41.87 41.58 40.58 40.18 38.37 31.86 37.64 35.95 34.48 37.89 40.87 43.10 45.97 47.55 48.91 49.91 50.86 51.33 52.56 53.74 54.13 55.17 54.87 54.93 53.95 52.90 53.55 54.81 55.58 56.78 59.41 62.04 63.07 63.47 63.83 64.82 66.09 67.23 65.71 64.35 64.49 64.00 63.75 63.52 63.20 62.82 62.32 60.43 59.71
39.28 36.59 30.64 29.58 28.97 30.57 37.29 33.98 37.65 40.31 43.59 44.50 45.32 47.33 49.31 50.82 51.40 51.66 51.76 52.03 53.00 53.79 54.68 54.90 54.51 53.20 53.82 53.95 53.96 54.98 56.99 59.93 61.57 62.37 63.04 63.18 64.10 64.46 64.35 64.40 63.58 62.82 62.66 62.90 62.32 61.84 60.26 59.49 58.86
36.64 36.12 33.58 26.78 28.34 31.39 34.13 31.14 36.97 42.06 44.09 46.07 47.10 47.74 49.53 50.39 51.47 51.57 52.19 52.66 52.59 53.18 53.93 54.28 54.01 54.11 54.45 54.17 54.12 54.55 55.36 55.89 57.28 60.27 62.18 62.83 63.09 63.95 64.79 62.89 62.69 62.35 61.92 61.33 61.02 60.09 59.21 58.35 58.09
35.68 33.87 37.78 31.84 33.35 31.99 33.14 36.35 39.27 40.33 41.79 44.18 44.89 46.41 48.27 49.68 50.40 50.89 51.65 52.39 52.43 52.82 52.85 52.22 52.21 52.83 53.42 53.83 54.78 55.22 55.11 54.80 54.77 56.65 58.93 60.62 61.82 62.23 62.06 61.72 60.92 60.80 60.67 60.18 59.05 57.66 56.61 56.14 55.65
38.87 39.58 32.50 34.53 25.94 26.25 31.81 33.94 34.68 36.23 39.03 42.53 43.81 45.68 47.47 49.18 49.98 50.18 50.53 50.81 51.94 51.95 51.46 51.36 51.11 51.04 51.91 52.74 53.27 53.35 54.03 54.50 55.15 56.06 56.29 56.92 57.85 58.51 58.45 56.76 57.81 57.30 56.20 55.92 55.22 53.89 53.20 52.04 46.10
36.24 35.28 34.85 34.90 32.58 29.93 27.70 32.22 41.61 39.39 41.59 42.65 44.12 45.18 46.91 48.28 48.92 49.09 49.84 50.92 50.45 50.02 49.54 49.39 49.38 49.64 50.18 51.29 52.17 52.30 52.69 53.16 53.88 53.98 54.06 54.06 54.47 54.70 54.50 54.34 54.39 53.87 52.95 52.69 49.94 46.44 44.57 41.40 40.47
39.56 37.93 38.23 32.59 29.87 31.67 31.53 31.29 42.94 43.35 43.52 43.23 43.82 44.95 47.64 48.43 47.47 48.54 49.53 49.02 48.32 47.94 48.00 47.76 47.77 48.04 49.00 50.42 51.60 51.31 51.74 52.19 51.82 51.49 51.42 51.78 51.44 52.06 51.53 52.16 51.43 50.03 48.78 46.52 43.80 42.67 40.32 39.27 38.22

GFSSGP_sfc_wetblb_072.txt.gz
Wetbulb
64.54 64.19 63.92 60.10 47.95 46.78 43.48 46.38 50.32 48.82 48.27 51.21 53.05 50.95 50.38 52.12 56.54 53.27 66.06 68.86 72.97 72.43 74.22 75.13 76.14 76.16 76.17 76.02 75.94 75.55 75.33 75.20 74.84 73.80 73.04 72.50 71.94 71.35 70.94 70.62 70.74 71.70 71.43 71.13 70.89 70.06 69.14 68.55 68.06
64.23 63.62 61.47 54.69 44.64 40.54 42.41 48.99 49.26 49.83 51.90 52.41 51.48 51.52 50.57 52.12 64.63 64.94 66.11 70.05 72.79 73.00 73.22 74.09 75.84 76.08 76.11 75.82 75.55 75.20 74.96 74.55 74.07 73.20 72.90 72.35 71.75 71.79 71.47 70.61 70.15 70.15 71.15 71.34 70.92 69.27 68.77 68.16 67.84
63.84 64.49 55.42 48.97 45.41 41.08 43.26 49.00 49.93 52.41 52.94 51.46 50.28 52.98 52.66 57.66 64.20 66.24 69.62 70.00 72.61 71.93 72.19 74.13 75.58 75.95 75.98 75.72 75.39 75.12 74.86 74.11 73.48 72.90 72.00 71.51 72.11 71.23 69.97 68.70 68.47 70.39 71.48 71.39 70.89 68.73 68.61 68.03 68.41
60.62 57.96 54.78 46.44 43.38 47.43 48.09 50.26 50.96 51.14 52.18 51.69 51.71 49.95 58.58 64.73 64.75 68.23 69.84 69.89 71.51 71.12 72.91 74.32 75.36 75.84 75.58 75.32 75.22 75.00 74.52 73.53 72.83 71.75 70.91 70.54 70.20 69.25 68.47 68.68 70.57 71.29 71.91 71.48 70.13 68.76 68.59 68.49 68.41
59.33 54.61 46.13 43.73 45.24 49.00 51.18 52.49 50.74 48.87 50.68 51.28 51.01 50.24 58.37 64.59 68.53 69.13 68.60 70.42 70.49 71.89 72.90 74.08 75.44 75.66 75.56 75.46 74.86 74.51 74.22 73.57 72.86 71.82 69.19 68.28 68.87 68.43 69.37 70.24 71.05 71.59 71.65 71.08 69.15 68.66 68.62 68.69 68.23
52.79 52.47 43.85 41.66 44.89 49.87 51.95 53.19 51.39 49.24 50.30 51.26 49.20 49.92 58.86 66.20 67.70 68.14 69.22 69.41 72.08 72.19 72.27 73.37 74.01 74.78 74.96 74.89 74.47 74.04 73.13 72.83 72.39 70.22 69.12 68.38 68.21 68.52 68.82 70.32 71.50 71.36 71.24 70.12 69.11 68.56 68.67 68.50 67.87
50.93 48.20 43.54 44.58 45.50 48.30 51.05 54.61 50.55 49.05 48.74 49.89 50.42 47.45 60.61 65.14 68.24 68.93 68.98 69.69 72.26 72.19 71.71 72.22 73.04 73.56 73.37 73.66 73.55 72.89 72.66 72.17 71.76 71.20 70.48 69.46 68.96 68.94 69.07 70.58 71.29 70.58 70.39 69.90 69.14 68.37 67.78 68.16 67.52
52.06 48.68 44.88 46.12 45.52 46.93 52.72 53.63 53.54 51.38 49.62 53.32 52.16 46.93 55.76 64.90 68.46 68.97 69.32 69.12 70.83 71.39 71.56 71.41 71.23 72.03 72.26 71.92 71.84 71.22 71.47 71.02 70.97 70.36 69.00 67.54 66.91 67.36 68.66 68.42 69.99 70.23 69.84 69.54 68.77 67.83 67.61 67.41 67.14
53.47 43.72 41.08 43.80 45.86 47.81 52.30 51.78 54.51 54.67 51.62 52.19 52.38 52.22 63.08 67.72 68.14 67.28 66.68 67.67 68.33 70.23 70.26 71.05 70.60 70.53 71.01 69.74 70.07 70.40 70.23 69.83 69.46 68.43 66.68 65.33 63.85 64.08 65.30 65.66 67.92 69.25 69.01 68.28 67.61 67.50 67.68 67.41 66.62
47.99 41.93 42.73 48.64 50.05 49.41 50.95 51.41 52.16 50.79 49.82 50.13 49.84 58.18 63.13 66.46 65.85 65.19 65.74 65.81 66.45 67.02 69.40 69.82 70.10 69.13 69.37 70.41 68.24 68.28 69.55 69.23 68.71 67.59 64.59 64.76 62.70 61.75 64.10 65.12 66.87 68.47 68.07 67.69 67.79 67.88 67.72 65.90 62.52
48.17 42.95 46.93 48.53 50.45 50.37 49.96 49.36 51.96 50.24 47.29 49.72 49.17 52.73 58.92 63.82 64.32 64.32 64.19 65.84 66.50 65.41 68.00 70.21 70.03 69.38 67.64 68.34 67.86 67.78 68.32 68.72 68.58 67.21 65.26 65.01 62.78 61.01 62.20 63.22 64.16 64.24 64.58 64.38 65.69 66.02 64.62 62.51 61.45
44.52 47.81 48.44 49.69 51.01 49.59 47.19 49.26 48.39 49.33 49.12 52.51 51.56 53.07 58.86 58.16 61.82 64.04 64.09 64.74 65.93 66.82 66.94 68.19 68.89 67.28 66.52 66.39 65.77 66.30 66.95 65.64 64.98 67.20 66.21 64.61 61.67 60.88 60.32 61.83 62.00 63.01 63.36 62.52 62.31 63.23 62.53 61.68 61.51
46.79 47.22 48.88 50.09 50.29 49.36 49.63 47.31 47.11 47.76 51.15 53.14 55.21 55.15 54.05 58.21 59.79 63.12 65.14 65.60 66.11 66.43 67.40 67.22 67.95 67.46 66.66 65.85 65.44 64.67 64.78 64.89 64.67 64.84 66.04 64.49 62.25 61.28 59.83 60.77 61.55 61.74 62.34 61.08 61.47 61.61 62.28 61.15 60.81
48.72 49.13 48.53 49.07 48.90 49.76 47.79 47.21 48.10 48.33 51.47 51.44 53.34 51.78 51.34 52.78 55.62 62.07 63.61 64.10 64.52 66.38 66.82 68.02 67.78 67.73 67.22 65.87 66.06 65.37 64.32 64.21 64.01 63.93 64.47 64.55 63.19 62.34 61.97 60.76 60.39 61.05 61.28 60.74 61.60 61.32 60.90 60.67 60.30
48.27 44.73 46.91 46.49 47.83 47.04 48.75 44.80 45.34 49.86 51.81 49.81 50.84 50.14 52.04 53.31 53.66 53.94 63.46 63.59 64.65 64.98 67.14 67.03 68.61 68.32 66.91 67.03 68.19 66.67 65.73 65.22 63.95 63.51 64.14 64.29 63.65 62.63 62.58 62.80 62.06 61.46 60.86 60.92 60.73 61.01 60.67 59.46 59.94
43.86 44.13 39.58 45.86 46.96 47.25 46.25 38.93 47.15 50.47 49.68 48.89 49.64 49.48 50.33 51.48 52.40 53.69 55.48 61.25 65.32 65.79 66.14 67.39 68.97 68.05 68.15 66.92 67.46 67.03 66.96 65.53 64.67 63.81 63.55 64.02 63.74 63.27 62.46 62.71 63.15 63.43 63.03 60.41 59.57 59.66 59.20 58.19 57.47
41.80 36.33 37.68 40.41 46.96 45.68 43.98 40.16 46.13 49.50 48.62 48.03 47.93 48.51 48.76 49.74 51.00 52.46 54.34 54.92 56.62 60.07 64.50 66.47 68.12 67.64 67.33 68.17 67.28 68.58 67.49 66.58 65.68 65.05 64.05 63.79 63.93 63.37 63.10 63.15 62.99 63.77 62.71 61.71 59.82 59.11 58.90 57.01 55.33
34.43 35.41 37.64 37.07 43.64 44.64 42.14 41.19 45.08 47.09 46.60 46.44 47.26 48.20 48.65 48.52 49.52 50.84 52.41 53.19 54.06 56.30 56.86 58.46 64.58 67.46 67.86 67.88 68.07 67.46 67.62 68.07 67.30 65.77 65.07 64.78 64.10 63.60 62.97 63.10 62.91 62.65 62.20 61.73 60.79 58.70 58.73 57.03 55.83
40.83 38.77 37.16 40.15 43.95 42.73 41.68 41.62 43.80 45.83 45.28 45.28 46.37 46.21 47.03 48.64 49.96 50.95 51.54 50.88 52.06 54.09 54.93 55.45 56.37 58.89 64.61 67.49 65.32 65.27 66.30 65.46 65.94 66.49 66.48 65.77 64.74 63.99 63.00 63.18 62.56 62.52 61.58 62.10 61.41 60.09 58.02 56.60 56.08
40.79 38.40 38.02 41.48 43.87 41.36 41.08 40.78 44.32 45.74 44.93 46.04 46.75 46.44 46.41 46.80 48.20 49.45 50.38 48.95 50.99 51.71 52.78 53.46 54.18 55.68 56.67 60.52 66.73 65.48 65.42 65.43 66.50 64.88 66.26 66.85 65.56 64.39 63.99 63.03 63.06 62.04 61.35 61.19 61.69 61.14 59.67 56.85 56.26
38.49 36.16 37.49 38.37 41.21 38.80 37.05 36.51 41.01 44.64 45.85 46.17 47.56 46.90 46.29 46.02 46.13 46.95 47.52 48.34 48.86 48.86 49.87 52.06 53.60 54.17 55.19 56.35 59.59 65.10 64.53 63.68 63.17 64.32 65.91 65.91 65.62 65.72 64.44 63.12 62.85 62.26 61.88 61.04 61.39 61.23 60.32 58.37 54.72
35.34 41.32 40.86 40.68 36.06 29.33 37.62 27.25 37.61 42.12 42.97 44.83 42.67 43.19 43.95 43.94 45.39 47.03 48.16 48.10 48.52 48.92 49.46 49.76 50.45 51.13 52.73 54.32 54.35 57.70 63.52 62.29 63.87 64.21 64.80 64.73 65.51 65.65 65.05 64.44 63.63 62.43 62.15 61.57 60.65 61.51 60.76 58.89 55.35
37.58 42.50 41.53 40.13 35.11 33.47 33.12 27.55 35.74 40.67 39.35 39.76 40.40 42.99 44.64 45.47 45.96 47.14 48.02 49.80 50.27 50.48 49.70 49.98 49.63 49.82 50.57 51.39 51.93 52.01 52.35 56.96 61.61 62.06 62.91 63.16 63.60 64.31 64.24 64.53 62.16 64.09 63.57 63.24 62.75 60.98 60.84 60.90 57.68
41.25 38.41 39.93 38.95 35.35 28.46 32.39 29.99 30.10 34.95 38.46 39.49 42.27 44.34 45.54 45.79 46.57 48.12 49.48 51.19 51.08 51.59 51.05 50.65 50.12 49.61 49.48 49.52 50.20 50.26 50.47 52.11 56.18 58.67 58.45 59.26 60.68 63.48 63.51 63.61 63.42 63.41 62.73 62.65 62.53 62.14 60.34 59.21 58.75
37.08 34.11 29.38 27.75 27.22 23.40 35.39 30.79 33.04 38.74 41.72 42.32 42.43 43.62 45.75 47.08 46.94 47.32 47.71 48.29 49.38 49.71 50.89 51.74 51.38 50.03 50.15 49.84 49.43 49.42 50.10 51.50 53.59 56.25 57.77 58.77 59.07 60.29 61.61 61.98 62.62 62.20 62.50 62.30 61.94 61.40 60.41 59.87 58.21
34.43 36.33 31.33 23.27 21.97 24.40 32.77 25.93 30.81 39.28 43.12 44.65 45.13 45.75 46.86 46.82 47.47 47.75 48.35 48.36 48.44 49.49 49.43 48.94 49.25 49.82 50.49 50.68 50.74 49.84 49.28 49.70 50.51 51.76 54.33 57.10 57.96 58.86 60.72 60.64 61.72 61.80 61.61 61.40 61.25 60.12 59.63 59.04 58.54
35.62 33.26 36.65 29.52 29.60 23.77 27.00 30.08 34.35 36.57 40.72 42.12 42.78 44.37 45.40 46.72 47.14 47.04 47.66 48.25 48.54 48.53 48.00 47.54 47.71 48.65 49.24 49.58 49.67 49.59 50.33 50.37 50.77 51.22 51.44 53.17 55.83 57.45 56.64 57.23 57.89 59.63 59.53 59.54 59.13 58.36 57.24 56.82 56.18
38.06 39.63 30.07 31.84 24.07 22.64 25.03 27.14 27.95 32.19 37.14 40.60 41.04 42.28 45.25 46.66 46.95 46.48 46.62 47.35 47.76 47.12 46.76 46.53 46.83 46.95 47.70 48.59 48.88 49.53 49.38 50.05 50.49 50.96 50.47 50.90 51.43 52.21 52.31 52.64 53.32 54.24 55.01 54.98 55.13 54.02 53.17 50.36 47.27
34.93 33.63 33.62 33.10 29.56 24.14 19.87 24.37 35.24 35.15 38.17 39.10 41.04 43.31 44.70 46.03 45.50 45.90 46.87 47.18 46.32 45.41 44.92 44.62 44.89 45.60 46.23 47.47 48.38 48.13 48.52 49.22 49.34 48.55 48.35 48.76 49.17 49.20 49.35 50.86 51.99 51.43 50.66 50.51 48.18 46.42 44.88 42.92 41.59
37.86 36.97 35.41 25.39 24.12 27.45 25.70 23.82 38.55 37.64 39.21 40.91 41.60 43.25 45.10 46.07 45.22 46.16 46.20 45.27 44.38 43.70 43.20 42.48 43.17 43.73 44.71 46.18 46.00 45.15 45.43 44.48 43.19 42.44 43.47 44.45 43.54 43.19 42.46 44.84 44.27 43.50 42.82 43.06 43.43 41.80 41.25 40.06 38.66

GFSSGP_sfc_wetblb_075.txt.gz
Wetbulb
65.02 62.80 59.81 55.80 44.39 41.78 38.63 43.08 44.46 46.23 45.74 47.22 49.36 49.48 47.66 50.02 56.16 50.93 64.98 71.07 72.33 73.23 74.75 75.35 76.24 76.34 76.35 76.31 76.02 75.70 75.31 75.13 74.95 74.11 73.62 73.01 72.45 71.87 71.38 71.73 72.20 72.03 71.42 70.94 70.21 69.62 68.80 68.17 67.64
63.12 62.95 57.74 50.86 41.03 35.75 37.91 43.80 45.08 47.28 49.00 49.12 50.78 49.44 50.53 56.98 62.68 63.36 66.03 71.99 72.87 73.54 74.30 74.76 75.83 76.19 76.24 76.05 75.77 75.59 75.40 75.07 74.57 74.13 72.91 72.48 71.88 71.78 71.61 70.69 70.72 71.66 71.91 71.03 69.79 69.13 68.31 67.95 67.36
63.62 63.13 53.60 45.23 41.27 37.38 38.44 45.52 45.49 49.08 50.67 50.21 48.52 50.25 51.96 57.09 63.21 63.92 68.39 72.04 72.98 72.43 73.77 74.73 75.60 75.99 75.96 75.58 75.32 75.18 74.99 74.70 74.40 73.92 73.11 72.63 72.37 71.04 69.48 69.13 69.96 71.30 71.78 71.05 69.49 68.90 68.35 68.36 67.24
58.34 55.53 52.80 43.37 41.04 43.74 45.29 47.01 48.23 48.40 49.48 50.96 50.23 47.79 59.66 63.29 64.44 67.30 69.50 72.09 71.18 71.48 73.00 74.66 75.42 75.86 75.51 75.19 75.11 75.04 74.24 74.26 73.34 72.62 71.81 71.54 70.46 69.16 68.74 69.59 70.42 71.92 71.83 71.13 69.49 68.81 68.68 68.53 68.07
56.39 52.98 44.78 42.14 41.81 45.68 48.99 49.95 49.52 47.77 48.36 48.78 49.80 49.34 57.42 63.75 66.93 67.54 68.55 70.96 69.80 71.38 73.24 74.31 75.35 75.64 75.38 75.21 74.98 74.39 74.35 73.75 72.80 71.55 69.53 69.53 69.16 69.49 69.37 69.73 71.85 72.06 71.66 70.51 69.55 69.08 68.90 68.40 67.80
50.20 51.77 41.99 38.33 41.40 47.00 49.91 52.08 49.22 48.06 47.79 48.61 48.20 52.83 57.66 64.36 65.48 66.36 68.54 70.43 71.73 71.70 72.88 73.87 73.95 74.63 74.96 75.01 74.38 74.12 73.63 72.65 72.00 70.76 68.88 68.87 68.78 69.13 70.19 70.01 71.47 72.12 70.92 69.57 69.33 69.26 68.94 68.25 67.60
48.81 46.80 42.82 42.15 42.41 45.33 49.30 54.15 49.10 46.87 46.17 47.68 50.20 50.65 57.80 62.78 65.58 66.77 69.90 71.38 71.40 72.04 72.34 73.13 73.61 73.57 73.42 73.56 73.50 73.23 72.63 72.10 71.37 70.76 70.07 69.41 69.57 69.58 70.12 70.84 71.67 71.35 70.52 70.31 69.19 68.84 68.77 68.04 67.34
49.73 48.18 44.06 43.65 42.94 44.84 51.36 52.98 53.72 49.10 47.19 50.71 50.90 51.20 57.53 63.48 66.42 66.51 70.46 70.42 70.63 70.91 71.74 71.47 72.10 72.86 72.73 72.31 71.80 71.47 71.42 70.83 70.70 69.85 68.88 67.60 67.19 68.44 69.42 70.02 70.54 71.00 70.72 69.67 69.33 68.21 68.17 67.85 67.12
52.38 43.73 41.57 44.12 44.03 46.79 53.00 50.66 54.73 53.19 50.01 50.48 49.99 59.53 63.82 66.74 67.31 65.86 67.94 68.64 69.28 69.73 69.82 70.52 70.54 70.42 71.45 71.19 70.41 70.27 70.00 69.50 69.20 68.05 66.41 65.34 63.61 65.11 65.18 66.54 68.69 69.62 69.84 69.26 68.36 68.07 68.19 67.80 66.75
45.46 41.12 42.91 48.22 48.31 47.65 50.59 51.41 52.25 51.61 48.90 47.60 55.44 63.44 65.33 65.76 64.93 64.39 64.94 64.56 66.94 67.67 68.57 69.70 69.35 69.24 69.88 70.46 68.65 68.06 68.85 67.88 67.23 66.02 64.13 63.43 62.23 62.19 64.65 64.37 67.46 69.03 68.47 68.28 68.31 68.23 67.91 65.82 62.66
46.70 41.43 47.04 48.02 49.30 49.63 48.98 49.77 53.13 50.97 47.21 48.11 52.76 61.51 63.69 64.08 63.23 63.65 64.33 65.16 65.37 66.37 68.40 68.84 67.87 69.18 68.30 68.18 67.01 67.07 67.54 67.31 66.83 64.98 63.58 63.41 62.55 60.51 62.37 63.25 64.31 64.06 64.13 64.51 66.07 66.12 64.42 62.23 60.45
42.86 47.56 48.20 49.29 49.83 49.05 46.66 49.23 50.61 51.59 48.55 52.28 50.90 56.54 61.53 62.72 63.04 62.72 63.19 63.50 64.30 65.54 66.16 67.89 68.46 68.79 66.03 67.67 66.81 66.88 66.96 67.22 66.64 65.69 64.46 63.02 59.55 59.68 61.93 61.90 62.39 62.66 62.81 62.08 62.58 62.77 62.30 61.75 61.03
44.25 46.09 48.79 49.78 49.67 47.77 48.82 46.25 47.14 47.25 49.32 52.92 53.50 55.48 56.68 59.51 62.14 63.45 64.01 64.06 64.31 65.04 65.96 66.62 67.10 67.34 66.46 66.92 66.25 66.13 66.45 66.50 66.08 66.41 65.38 63.69 60.24 59.53 60.41 60.33 61.52 61.86 62.18 61.74 61.03 61.53 61.45 60.60 59.81
45.77 47.51 47.98 48.11 47.68 48.80 47.15 46.27 47.37 47.42 49.77 50.56 52.05 50.83 50.83 54.43 59.25 61.96 63.40 63.62 63.62 64.93 65.56 66.77 66.99 66.83 65.52 64.48 63.99 63.24 63.55 65.44 63.39 65.59 65.70 63.76 61.90 60.47 59.24 59.46 60.14 60.84 61.60 61.08 61.05 60.18 60.66 59.79 59.41
45.85 42.71 45.68 46.16 45.85 45.55 47.45 43.92 44.97 48.92 49.89 47.79 47.26 48.31 49.89 51.07 55.18 60.66 62.89 63.44 63.67 64.29 65.67 65.72 66.74 67.22 65.96 66.09 64.85 64.23 62.89 63.48 62.49 62.46 63.41 63.28 62.19 61.36 60.48 59.18 59.38 60.29 60.65 59.35 59.69 59.76 59.57 59.03 59.16
43.02 41.72 38.51 44.59 45.26 46.09 45.16 37.91 46.49 49.49 47.24 47.25 46.68 47.03 48.14 49.89 52.28 52.88 60.63 63.03 64.03 64.07 65.80 66.31 68.17 67.09 66.36 65.93 66.29 66.92 64.62 63.03 62.49 62.28 62.35 63.09 62.82 61.92 61.02 61.22 60.45 60.56 59.77 59.06 58.42 58.52 58.31 57.54 57.24
39.58 36.08 36.43 40.90 45.74 44.01 42.39 38.30 45.69 49.09 47.51 45.29 46.76 47.75 46.96 47.72 48.75 50.93 52.95 57.79 62.41 63.69 64.74 66.28 66.98 66.45 66.50 66.21 66.20 66.43 67.82 63.97 63.30 62.64 62.08 62.47 62.84 62.34 61.34 61.20 61.87 62.01 61.36 60.21 58.56 57.82 58.00 56.66 55.38
33.01 34.20 36.28 35.76 42.37 42.19 40.31 39.77 44.67 46.40 46.44 45.75 45.31 46.63 46.59 46.53 48.63 50.22 51.79 52.98 53.88 57.64 63.31 64.68 66.66 66.44 66.21 66.15 65.83 65.83 66.34 68.19 66.53 63.85 62.72 62.61 62.71 62.25 61.39 61.55 61.77 62.17 61.21 60.53 58.81 57.41 57.39 56.71 55.60
37.31 36.09 34.72 38.12 41.86 40.06 38.83 40.11 42.99 45.04 44.42 43.69 44.27 45.34 45.66 47.43 48.82 49.48 49.93 50.01 49.82 50.43 53.05 55.06 60.01 66.78 66.71 65.19 63.75 63.79 64.44 64.61 65.05 65.72 65.01 63.57 63.15 62.96 61.76 61.91 61.62 61.24 61.29 61.60 60.28 58.06 56.92 55.88 54.85
38.58 35.57 34.30 37.62 42.29 41.46 38.66 39.22 42.79 44.99 43.58 44.42 45.30 45.54 46.07 44.45 45.55 46.56 48.00 47.38 49.04 49.20 49.76 51.07 52.68 54.35 62.89 66.82 66.26 64.04 63.80 64.24 64.87 64.77 65.54 66.36 65.43 63.06 62.81 61.92 62.18 61.32 60.33 60.39 60.46 59.33 56.99 56.45 54.95
37.86 34.29 34.31 35.86 38.72 40.12 37.04 34.17 38.63 43.65 45.17 44.45 46.70 46.84 46.19 44.94 45.01 44.78 46.20 46.90 47.59 48.04 48.02 49.19 49.31 50.34 51.96 54.79 64.76 63.79 64.19 62.77 62.64 63.00 64.37 64.78 65.04 65.02 63.90 62.14 61.52 61.86 61.44 60.43 60.69 60.40 58.44 57.25 55.52
35.67 40.11 40.29 39.35 35.20 30.02 34.83 25.03 32.91 39.46 43.03 42.99 44.36 44.52 43.84 44.06 45.30 45.66 46.37 46.92 48.17 48.38 48.40 48.92 48.91 48.90 50.08 50.24 52.86 62.46 62.05 62.12 61.85 62.36 63.70 63.89 63.99 63.44 63.73 63.41 62.63 61.00 60.68 59.97 59.81 60.79 60.36 57.08 55.65
35.84 41.70 40.36 39.81 37.01 30.76 31.52 26.41 29.91 37.06 39.16 42.38 41.32 41.03 42.40 43.71 45.27 46.17 46.90 48.86 49.75 49.51 48.88 48.83 48.18 48.37 48.60 48.66 49.21 49.69 51.90 55.86 60.47 62.64 62.70 63.16 62.65 63.28 63.24 63.05 62.41 62.01 60.84 60.73 59.62 59.53 59.65 59.63 58.04
40.57 38.57 38.89 38.25 36.10 28.64 29.69 27.80 26.33 32.33 38.92 39.36 40.39 40.71 43.18 44.28 45.62 47.31 48.48 50.06 50.06 50.28 49.79 49.72 48.40 48.62 48.76 48.19 47.78 48.41 47.91 48.31 50.27 54.75 59.18 60.95 61.00 61.63 62.11 62.10 63.48 62.82 61.70 62.31 62.63 62.14 60.71 60.85 60.60
38.67 34.26 28.98 27.25 27.86 22.12 31.78 27.83 30.38 34.96 38.51 40.53 40.70 41.67 43.02 43.84 45.21 46.48 47.00 47.79 48.56 48.86 48.79 49.72 49.48 49.12 49.55 49.60 49.13 47.62 47.05 47.27 48.95 51.13 54.66 56.83 57.69 57.91 60.65 61.61 61.31 60.86 61.02 62.11 61.76 61.23 60.60 59.75 59.74
35.36 34.72 30.04 24.20 20.25 23.29 31.41 25.48 31.34 35.60 39.63 42.90 44.11 44.06 44.62 44.27 45.13 46.69 47.32 47.25 47.73 47.96 47.14 47.22 47.98 48.24 48.89 48.74 48.56 48.97 48.89 48.14 48.84 49.18 50.81 53.62 55.64 57.02 57.96 58.66 59.48 60.90 61.29 60.98 60.67 59.80 59.48 59.41 58.73
35.89 32.67 36.40 28.80 26.74 22.89 26.18 27.80 34.10 36.67 38.27 41.05 43.22 44.90 43.64 44.80 45.58 46.25 46.67 46.87 46.79 46.31 45.89 45.77 46.27 46.76 47.41 48.16 48.40 48.40 48.70 49.04 49.31 49.78 50.46 50.66 51.90 54.48 53.58 55.21 57.21 57.61 57.80 57.60 57.36 57.02 57.03 56.98 55.10
38.30 38.91 30.72 28.81 22.93 20.27 23.27 23.57 26.56 30.93 35.48 39.09 40.76 42.85 44.16 44.93 45.00 45.00 45.82 45.85 45.32 45.10 44.56 44.92 45.56 45.81 46.40 47.61 47.98 48.16 48.12 48.85 48.61 48.11 47.94 48.46 48.80 49.52 50.45 50.36 50.45 50.30 50.54 52.64 53.10 52.59 51.09 50.65 47.19
35.41 34.42 34.32 32.69 30.24 23.12 17.82 23.39 32.51 34.43 37.61 37.53 39.17 42.28 44.72 45.04 44.24 44.42 45.06 44.67 44.14 43.31 42.66 42.74 43.63 44.63 44.97 46.28 45.10 44.18 43.42 42.97 42.87 42.87 43.65 43.55 42.92 43.30 45.67 47.08 47.09 46.62 47.47 47.22 46.35 45.32 44.62 43.19 42.10
38.67 36.36 34.50 25.15 24.48 26.65 22.68 25.46 35.75 34.74 37.28 38.64 39.57 42.49 44.42 44.15 44.25 45.14 44.07 43.13 42.00 40.90 40.47 40.29 41.28 42.16 43.29 43.33 42.21 41.46 40.79 39.83 38.74 38.02 38.04 38.32 37.26 37.81 38.13 39.59 39.06 37.97 38.43 38.94 41.89 41.46 41.03 40.26 39.15

GFSSGP_sfc_wetblb_078.txt.gz
Wetbulb
65.32 62.51 58.77 53.61 43.04 40.92 37.53 41.16 43.29 45.27 43.96 46.58 47.87 48.73 49.27 51.45 53.91 48.15 64.37 69.80 72.40 73.29 74.58 75.28 76.33 76.37 76.44 76.28 75.97 75.64 75.43 75.12 74.84 74.14 73.92 73.33 72.92 72.60 72.69 72.36 72.02 71.41 70.80 70.21 69.71 68.72 68.07 67.38 67.31
63.50 62.48 56.72 49.71 40.21 35.42 37.37 41.74 44.58 46.43 48.09 48.37 48.86 48.14 53.06 57.00 61.31 65.76 66.81 71.57 72.99 73.44 74.24 74.61 75.92 76.22 76.20 76.09 75.74 75.48 75.34 75.21 74.89 74.06 72.96 72.36 71.84 71.62 71.12 71.45 71.97 71.78 70.88 70.14 69.15 68.17 67.68 67.07 67.69
63.89 61.60 52.02 46.82 40.22 36.53 37.79 42.98 43.13 48.67 49.25 48.89 48.18 50.06 54.88 57.39 62.25 64.99 69.87 72.03 72.89 73.01 73.83 74.45 75.58 75.96 75.83 75.60 75.48 75.33 75.31 75.02 74.72 73.98 73.52 72.81 72.14 70.85 70.23 70.52 71.23 71.95 70.98 69.76 68.84 68.38 67.77 67.06 67.76
57.40 55.02 50.15 44.43 40.11 43.26 43.22 44.32 47.32 48.49 49.20 49.52 49.22 53.54 59.19 62.68 63.53 67.43 71.59 72.37 72.02 72.49 73.18 74.54 75.35 75.75 75.52 75.32 75.36 75.28 74.91 74.63 73.95 73.73 73.14 71.91 70.74 69.53 69.17 69.41 71.69 71.97 71.08 69.95 68.89 68.74 68.18 67.55 67.57
55.20 52.61 42.77 39.00 40.82 44.56 48.12 47.80 48.64 47.30 47.03 47.80 47.86 52.06 57.19 64.02 66.24 70.70 71.26 71.55 71.05 71.90 73.36 74.23 75.25 75.41 75.26 75.08 74.92 74.54 74.16 73.63 72.98 72.01 71.77 70.74 69.45 68.78 68.94 69.99 71.20 71.70 71.11 70.22 69.22 68.94 68.27 67.69 67.68
48.23 49.43 41.32 37.62 40.12 46.04 48.85 49.82 49.18 48.06 47.59 47.86 49.82 55.78 56.51 63.19 64.87 69.94 70.65 70.10 71.72 71.67 73.08 73.84 73.84 74.49 74.72 74.75 74.38 73.96 73.20 72.26 71.28 70.17 69.38 69.31 69.36 69.69 69.25 70.95 71.31 71.62 70.26 69.98 69.47 69.13 68.34 67.68 67.46
46.48 43.39 39.13 39.54 41.28 44.18 47.84 52.76 48.57 47.78 46.06 46.67 48.96 54.11 57.95 61.95 64.59 68.96 69.02 70.36 71.51 72.08 72.44 72.96 73.70 73.35 73.22 73.62 73.40 73.45 72.44 71.49 70.81 70.26 69.51 69.72 69.78 70.09 69.40 70.46 71.92 71.58 70.58 70.56 69.82 69.24 68.47 67.58 67.16
49.01 45.07 40.86 40.90 41.75 42.61 49.63 51.71 51.28 49.62 47.36 49.88 56.93 55.59 56.85 62.14 65.92 69.76 69.92 70.24 70.77 71.38 72.22 72.24 72.27 72.91 72.48 72.05 71.83 71.69 70.94 70.42 70.33 69.93 68.91 67.87 67.72 69.26 69.68 70.20 71.11 71.03 70.57 69.93 69.73 69.17 68.48 67.56 67.07
50.58 40.76 41.08 41.91 43.08 45.06 51.14 49.83 53.49 54.43 49.88 51.06 51.85 58.83 62.84 65.49 68.16 68.04 68.43 69.26 69.68 70.75 71.08 71.71 71.61 71.59 71.45 71.51 70.44 70.31 69.77 69.11 68.83 67.88 66.48 65.46 64.36 65.58 66.46 67.66 69.15 70.29 70.34 69.41 68.79 68.66 68.68 68.00 66.84
48.86 39.63 41.49 47.32 47.90 46.81 49.95 50.94 50.98 50.01 50.02 49.79 58.33 62.89 64.45 65.10 66.27 66.13 66.51 66.44 67.11 67.65 69.15 70.37 70.38 70.41 70.83 70.83 69.50 68.16 68.24 66.95 66.07 64.91 64.06 63.15 62.43 63.76 64.03 65.97 67.74 69.43 69.17 68.84 68.70 68.43 68.21 66.14 62.23
46.81 41.59 45.59 47.26 50.37 49.46 49.28 49.10 51.57 49.34 47.21 50.37 56.82 61.45 62.62 63.40 63.20 63.47 65.63 66.61 66.60 67.32 68.48 69.11 69.02 69.34 68.02 68.56 67.14 66.36 66.39 65.80 65.51 64.12 63.20 62.25 61.73 61.16 62.16 62.67 65.29 65.17 64.73 64.83 66.03 65.83 63.85 61.20 59.67
42.53 45.77 46.04 48.24 49.65 49.08 48.14 50.05 48.65 50.08 50.58 52.27 53.05 62.81 62.00 62.00 63.06 63.27 63.83 65.12 65.32 66.43 66.63 67.29 68.22 68.43 66.63 67.37 66.71 66.41 66.34 65.80 64.70 64.17 63.06 61.93 59.84 58.97 60.70 61.55 62.36 62.25 62.42 62.06 62.76 62.70 61.94 61.03 60.44
43.16 44.79 47.25 48.60 48.87 48.40 49.06 47.29 46.91 49.50 53.89 52.57 53.15 60.92 60.95 60.82 61.25 62.37 63.83 63.92 64.69 65.15 65.77 66.40 66.76 66.15 66.51 66.03 66.65 66.11 65.95 66.28 65.97 64.91 63.93 62.77 59.52 58.56 60.58 60.98 61.37 61.41 61.53 61.18 60.96 61.17 60.87 60.25 60.00
46.59 46.30 46.49 47.37 47.19 48.22 46.44 46.68 47.30 51.35 54.46 50.67 51.67 54.10 59.00 60.62 61.62 61.42 62.52 63.08 63.65 64.69 65.43 66.20 66.46 65.45 65.92 66.25 65.41 65.56 65.80 66.33 65.73 65.66 65.11 63.18 60.24 59.50 60.43 60.10 60.84 60.99 61.10 61.20 60.69 60.14 60.51 59.74 59.34
44.65 41.81 44.43 45.86 45.47 45.52 47.20 43.85 44.54 48.14 49.50 49.28 48.80 48.81 50.45 54.54 60.57 61.68 62.96 62.85 63.84 63.83 64.94 65.96 66.30 66.33 63.97 63.77 63.85 63.93 64.56 65.41 64.25 66.07 65.47 63.42 60.96 59.31 59.58 59.62 58.85 60.25 60.79 61.08 60.06 59.81 59.30 59.32 59.10
40.49 42.02 35.77 42.75 44.49 46.03 46.24 38.76 45.75 49.12 47.84 47.27 48.26 46.78 46.67 49.43 59.21 61.16 62.93 63.22 63.57 64.38 64.22 64.84 67.41 66.35 65.29 65.11 65.42 64.78 62.38 63.99 63.04 63.46 64.92 63.48 61.88 60.65 59.08 58.67 58.74 59.30 59.48 59.59 58.49 58.60 57.79 57.62 57.49
38.46 31.63 34.90 38.90 44.54 43.91 42.83 39.02 45.34 48.80 47.09 46.29 46.63 46.41 46.46 46.89 47.87 50.52 59.95 62.24 62.81 63.26 64.54 65.10 65.56 65.83 65.75 65.54 65.78 66.03 66.48 61.98 61.70 61.45 62.24 62.91 62.55 61.50 60.84 60.19 59.48 58.97 59.09 58.64 58.64 57.23 57.36 56.38 55.78
33.32 34.94 34.08 34.28 40.54 40.80 39.42 39.00 43.47 46.08 45.54 44.88 45.26 44.90 45.36 46.46 48.07 49.46 50.63 57.68 61.22 62.30 64.00 65.04 65.74 65.60 65.07 65.29 65.26 65.10 65.58 66.11 63.83 61.85 61.26 61.69 62.29 61.71 61.05 60.26 60.57 60.85 59.83 59.25 57.55 56.67 56.63 56.57 55.93
36.53 35.29 36.27 36.15 40.70 39.41 38.16 39.07 42.60 45.42 43.70 43.48 44.35 44.74 45.59 46.95 47.77 48.57 48.70 49.11 48.74 52.88 60.97 63.39 64.53 65.51 64.72 64.03 63.20 62.85 63.30 64.08 64.72 63.74 63.05 61.83 61.80 61.75 60.86 60.59 60.37 60.83 61.20 60.77 59.83 57.56 56.31 55.54 54.67
37.95 34.89 32.80 36.46 41.24 39.42 38.84 39.09 41.85 44.09 43.43 42.72 44.19 45.05 45.78 44.99 44.10 45.35 47.01 45.94 47.68 47.94 49.63 52.66 55.09 61.60 65.19 64.52 64.01 64.13 63.54 63.27 64.16 64.73 64.73 64.47 62.51 61.51 61.04 60.39 60.86 60.82 60.03 59.94 59.63 58.88 56.24 55.81 54.22
36.19 34.02 33.14 33.37 37.16 37.76 36.40 36.17 38.80 41.99 44.12 44.16 45.17 45.63 46.19 44.77 44.32 42.76 45.11 46.00 46.14 46.50 46.85 48.55 49.22 50.15 53.05 61.55 64.37 63.10 63.03 62.39 62.30 62.68 63.26 64.48 64.47 64.00 62.16 60.80 60.55 60.38 60.62 60.41 60.12 59.72 58.10 58.29 54.97
33.92 39.77 39.10 38.13 33.04 28.90 35.81 27.37 33.70 40.46 41.17 43.44 43.00 43.49 43.55 43.62 43.18 44.05 45.30 45.81 46.78 47.05 47.29 47.80 48.24 48.36 49.14 49.88 56.98 62.60 63.36 62.27 61.62 61.66 62.41 62.62 62.97 63.39 63.90 63.35 61.96 60.64 60.02 59.71 59.44 60.10 59.57 56.57 55.60
36.03 41.35 39.38 38.32 34.70 32.61 30.74 28.40 30.41 34.56 37.34 41.14 44.85 44.92 43.20 42.50 43.92 44.63 45.88 47.97 48.35 48.58 48.08 47.42 46.87 46.90 47.06 47.53 48.82 54.56 57.63 59.02 59.31 60.73 61.21 61.53 61.67 62.60 62.60 62.86 61.81 61.27 60.33 59.24 59.02 60.09 59.40 59.48 59.41
41.20 39.46 39.26 38.97 36.97 29.11 29.93 29.63 27.03 31.14 36.08 39.46 43.88 43.59 41.72 42.19 44.21 45.74 47.29 48.89 48.89 48.92 48.60 47.48 48.66 48.82 48.44 46.59 46.22 47.14 47.40 47.90 48.69 50.57 56.24 59.72 60.96 61.31 61.58 61.31 60.81 61.16 61.55 60.93 60.30 59.20 60.01 59.87 60.01
37.65 34.71 26.89 26.64 27.81 22.71 30.24 28.88 32.35 33.15 37.13 38.98 41.08 40.15 42.11 43.26 44.26 45.75 47.40 47.82 48.00 47.52 47.35 48.58 48.41 48.04 48.45 47.99 48.06 46.37 45.84 46.04 47.66 49.56 52.32 55.38 56.83 57.58 61.27 59.82 60.10 59.60 59.74 60.70 61.19 61.02 60.40 59.58 58.95
35.72 31.29 21.83 17.70 21.13 22.52 30.16 25.70 30.90 34.20 36.69 39.10 40.69 42.22 42.63 42.93 43.49 45.01 46.23 47.07 47.30 46.73 46.30 47.27 47.14 47.13 48.00 48.04 47.86 48.00 48.48 48.68 49.00 48.55 50.87 53.14 55.51 56.66 56.85 58.09 58.67 59.19 61.12 60.84 60.13 59.31 58.76 58.57 58.43
35.84 33.25 35.56 25.14 24.20 19.06 25.29 28.63 33.55 35.31 35.43 38.42 40.03 41.81 41.67 43.41 44.46 44.99 45.12 45.99 45.72 44.99 44.89 45.72 45.92 46.24 47.28 47.58 47.61 47.58 47.78 48.21 47.96 47.98 48.86 49.46 50.78 53.16 52.93 53.77 53.88 54.15 54.85 56.20 56.34 54.55 53.20 54.20 51.64
38.22 38.44 31.12 31.28 23.89 19.06 22.29 23.45 27.54 31.11 34.53 38.29 39.57 40.20 42.40 44.81 44.40 44.45 44.73 44.24 43.99 44.05 43.92 44.33 44.93 44.84 45.83 46.37 45.88 45.57 45.42 45.51 45.42 45.78 45.51 45.64 46.10 48.70 49.18 49.02 48.70 48.31 49.16 49.40 48.86 46.47 48.16 47.82 45.72
35.85 34.43 34.38 31.62 26.61 19.80 17.06 23.15 31.76 33.60 37.14 38.40 39.41 41.75 42.77 43.68 44.02 43.90 43.82 43.00 42.52 41.84 41.75 42.54 43.32 43.90 44.16 43.07 41.46 39.97 39.26 39.02 38.85 39.10 39.34 39.20 39.57 41.63 43.38 43.93 42.75 42.54 43.68 46.20 45.95 45.09 44.79 43.52 42.34
37.80 35.06 33.34 21.87 25.45 20.91 20.16 24.16 34.07 34.05 37.40 39.35 39.62 42.59 43.07 43.48 43.99 44.02 42.85 41.79 40.79 40.04 39.95 40.10 41.13 42.10 41.85 41.11 39.68 38.76 38.56 37.82 37.07 36.65 36.65 36.95 36.30 36.81 37.22 37.17 36.71 36.84 37.26 37.99 41.44 41.47 41.38 40.86 39.73

GFSSGP_sfc_wetblb_081.txt.gz
Wetbulb
65.51 61.72 57.86 52.72 43.21 40.79 36.80 39.97 41.79 43.42 41.96 45.02 46.87 47.51 47.73 51.50 52.42 48.99 63.00 69.22 71.30 72.79 74.37 75.28 76.20 76.27 76.31 76.10 75.71 75.37 75.16 74.93 74.75 73.94 73.63 73.30 73.00 72.93 72.10 71.95 71.11 70.52 70.24 69.70 68.60 67.95 67.53 67.69 68.10
63.12 61.76 54.84 47.99 37.71 34.48 36.32 41.25 42.92 44.82 47.42 47.20 47.71 50.64 54.32 55.31 60.90 64.76 65.91 70.86 72.05 73.09 74.14 74.76 75.84 76.13 76.13 75.90 75.64 75.27 74.75 74.59 74.62 73.84 73.17 72.53 72.18 72.28 72.48 72.22 71.52 70.77 70.31 69.22 67.93 67.31 67.45 68.17 68.40
62.69 61.09 51.21 44.07 38.45 34.84 37.26 42.07 42.46 47.25 48.57 46.48 45.34 52.17 54.60 57.44 63.37 65.29 67.83 71.71 72.52 72.71 73.64 74.42 75.52 75.95 75.83 75.56 75.51 75.33 75.12 74.92 74.46 73.81 72.84 72.07 72.04 71.31 71.14 71.90 72.14 70.96 70.04 68.85 68.03 67.34 67.60 68.54 68.72
57.87 54.93 51.47 44.20 37.86 41.35 43.22 43.47 45.76 47.52 49.23 48.03 48.34 53.99 58.65 62.13 64.02 66.35 71.21 72.27 71.86 72.14 72.80 74.46 75.27 75.67 75.48 75.31 75.22 75.11 75.00 74.26 74.00 73.67 73.30 72.07 70.94 70.15 70.38 70.92 72.26 71.33 70.54 68.91 68.42 67.56 67.73 68.12 68.20
54.28 50.37 44.44 41.26 40.00 43.46 47.09 48.55 47.75 47.02 46.79 47.76 47.43 52.79 56.03 62.85 67.73 70.41 71.44 71.94 71.26 72.15 72.87 73.79 75.18 75.36 75.34 75.21 75.09 74.85 74.68 74.15 73.83 73.03 71.89 70.93 69.94 69.36 69.12 70.68 71.71 70.97 69.93 69.14 68.75 67.99 67.87 67.94 67.93
48.07 48.41 40.68 37.67 40.46 45.23 47.66 49.80 47.71 47.07 47.22 47.81 49.40 52.96 55.70 62.69 68.57 70.30 71.42 71.08 71.56 71.28 73.01 73.61 73.66 74.30 74.76 74.94 74.77 74.43 73.40 72.24 71.26 70.95 70.92 69.76 69.14 68.61 69.52 70.14 71.61 70.64 70.10 69.40 69.13 68.13 67.71 67.52 67.31
45.28 42.44 38.14 40.43 39.47 42.64 46.95 52.04 47.56 46.53 46.90 47.36 48.04 51.60 56.88 61.32 67.91 69.91 69.84 70.85 71.43 71.99 72.30 72.96 73.30 73.15 73.07 73.59 73.44 73.03 72.01 71.21 70.88 70.33 69.79 69.73 69.82 70.02 69.95 70.47 71.37 70.86 70.58 69.97 69.51 68.56 67.54 67.26 66.76
47.99 43.75 38.96 38.36 40.44 42.01 49.09 50.49 50.58 48.08 47.12 51.63 51.03 53.55 56.31 61.23 67.23 68.05 69.64 70.03 70.55 71.67 72.14 72.09 71.95 72.34 72.04 71.85 71.92 71.61 70.73 70.11 70.01 69.71 68.74 67.98 67.69 69.04 69.70 70.12 71.15 71.08 70.66 70.49 69.92 68.79 67.80 66.97 66.62
49.39 41.03 40.38 40.29 40.40 42.75 49.93 49.07 52.16 52.51 49.32 50.67 49.63 57.25 61.02 66.06 68.18 67.78 68.36 69.53 69.11 70.36 70.65 71.37 71.38 71.18 70.89 70.60 70.24 70.11 69.38 68.89 68.70 67.94 66.68 65.71 64.95 65.33 65.94 67.77 69.33 70.10 70.19 69.58 68.71 68.52 68.49 67.94 66.83
46.42 42.20 40.84 45.11 45.13 44.76 49.51 49.98 51.09 48.98 47.82 48.81 49.84 61.10 64.27 67.28 66.79 66.02 65.98 67.33 67.71 68.68 69.21 70.59 71.14 70.76 70.39 70.91 68.86 67.50 67.38 66.04 65.63 64.64 63.74 62.90 63.23 63.61 66.00 66.17 68.16 69.72 69.12 68.79 68.56 68.27 68.35 65.97 61.19
46.54 40.45 44.33 46.53 47.53 49.18 48.68 48.99 52.40 49.40 46.12 48.83 48.56 53.03 61.93 64.54 65.49 65.77 66.27 66.39 67.46 68.58 68.32 69.49 70.20 70.11 69.82 69.50 68.29 66.13 65.71 64.86 64.43 63.47 62.73 61.75 61.86 61.87 62.05 63.96 65.39 65.33 65.13 65.13 66.10 65.30 63.64 60.73 59.06
42.03 45.44 45.41 47.64 49.28 48.48 46.47 48.70 48.49 50.35 49.54 52.18 52.54 52.74 58.18 61.36 63.19 64.92 65.28 66.05 65.89 66.65 67.61 68.90 69.43 68.52 67.04 66.85 66.66 65.71 65.51 64.49 63.52 63.10 62.46 60.87 59.46 59.96 60.14 60.95 62.53 62.92 62.97 61.94 62.40 62.38 61.87 60.27 59.46
44.78 46.26 46.98 47.24 47.87 47.75 48.59 45.98 47.07 48.64 52.47 53.35 53.79 52.12 58.56 60.51 60.91 61.97 64.27 65.29 65.26 65.81 66.71 67.19 67.09 67.56 66.33 65.86 65.86 65.34 64.89 65.06 64.47 63.27 62.65 61.59 59.30 58.13 59.93 60.14 61.04 61.29 61.29 60.71 60.65 60.94 60.95 59.59 59.09
46.95 47.00 45.35 46.26 45.60 46.23 45.26 45.26 47.50 48.22 52.49 52.82 53.06 49.71 58.74 59.96 60.28 60.28 62.65 63.70 64.81 65.43 65.63 66.34 66.30 66.62 65.68 66.24 65.38 65.83 65.29 65.41 64.81 64.18 63.33 62.38 60.25 58.24 59.73 60.02 60.32 60.18 60.51 60.39 60.15 59.94 59.78 59.01 58.42
45.67 42.30 45.14 43.83 44.25 44.14 45.22 42.94 43.54 49.14 52.78 51.76 51.83 48.59 52.21 58.96 61.01 62.03 62.87 63.55 64.35 64.89 65.55 65.54 65.94 65.40 65.70 65.29 64.81 65.12 65.55 65.67 65.06 65.13 64.20 63.03 60.77 59.21 59.52 59.68 59.51 60.54 60.52 60.47 59.85 59.35 58.73 58.59 58.64
41.34 42.18 37.43 41.97 44.03 44.53 44.05 37.43 44.71 51.33 50.72 50.06 51.12 49.92 48.80 51.41 59.20 60.97 62.56 63.10 63.93 64.16 64.71 65.59 67.27 65.63 64.66 65.84 64.19 63.60 63.61 63.83 64.49 64.87 64.79 63.82 62.00 59.53 58.67 58.96 59.10 59.63 59.62 59.86 59.00 58.56 57.89 57.36 57.23
37.45 30.29 35.16 37.50 43.43 42.05 40.70 36.82 45.25 49.05 48.92 47.54 48.18 50.64 47.63 48.26 50.49 55.07 61.52 62.37 63.22 63.78 63.88 64.20 65.38 65.38 63.80 63.96 64.55 64.18 63.42 62.42 62.88 62.69 63.54 63.80 62.67 60.46 58.86 58.53 58.86 58.22 58.22 58.50 58.61 57.53 57.05 56.27 56.20
30.61 30.95 32.05 32.67 39.68 39.53 38.39 36.90 44.15 47.65 47.81 47.98 48.13 47.58 46.51 47.23 48.26 49.44 53.40 58.88 61.37 62.63 63.58 64.03 64.48 65.18 65.03 64.69 64.44 64.65 64.99 62.95 61.41 61.43 61.69 62.38 63.24 61.44 59.76 58.95 58.47 58.02 57.42 57.16 56.77 57.06 56.18 56.33 56.17
36.58 34.44 33.32 35.51 39.45 39.33 37.14 37.26 42.23 44.32 44.70 44.86 46.13 48.86 46.49 46.80 48.91 48.75 48.14 49.63 54.04 58.10 61.73 63.44 63.91 64.45 64.32 63.55 62.61 62.09 62.63 63.66 63.60 61.60 61.68 61.05 62.16 61.90 60.55 59.97 59.25 59.70 58.47 58.41 58.13 56.59 55.88 55.02 54.57
37.57 34.25 32.54 35.88 39.62 38.28 37.11 37.65 41.99 44.03 43.99 44.49 44.74 45.61 45.01 44.82 46.04 45.12 45.32 45.92 49.13 48.74 55.30 60.39 62.77 63.89 64.04 63.71 63.36 63.31 62.85 63.22 64.00 64.01 63.08 62.16 61.07 60.79 60.46 59.85 59.78 59.63 59.95 59.41 58.79 58.07 56.12 55.48 54.18
35.31 34.38 32.97 33.16 36.01 36.31 34.78 34.45 38.96 43.02 43.04 43.94 44.55 45.07 44.55 44.64 43.39 42.59 43.53 43.57 44.74 46.19 46.98 50.40 52.93 55.47 62.17 63.27 63.61 62.51 62.64 61.99 61.83 62.50 63.12 63.81 63.00 62.09 60.80 59.93 59.81 59.64 59.75 59.64 59.34 58.47 57.33 57.82 54.25
34.08 38.19 37.32 36.74 31.72 27.39 35.41 25.51 32.50 40.66 41.60 42.29 44.41 43.53 43.44 42.74 42.35 42.78 44.29 45.19 46.04 45.78 46.55 47.20 47.65 48.07 48.97 52.54 61.57 62.25 62.79 61.10 61.29 61.41 61.97 62.39 62.79 63.27 63.16 61.70 60.11 59.68 59.54 59.16 58.87 59.05 58.95 58.41 58.55
37.10 41.34 38.74 37.75 32.71 27.79 27.78 27.51 30.30 33.54 36.58 41.14 43.31 45.04 43.49 43.46 42.76 43.47 44.56 46.77 47.00 47.17 46.71 46.21 45.87 46.14 46.11 46.77 49.04 57.78 59.94 60.62 60.00 60.31 60.75 61.07 61.53 62.30 62.84 63.03 61.67 60.77 59.27 58.66 58.40 57.91 59.72 59.62 59.61
41.66 39.52 38.75 37.86 33.99 26.82 28.54 29.07 27.86 30.76 34.97 36.93 41.94 43.11 43.61 42.68 43.24 44.42 46.28 47.82 47.51 47.39 46.91 47.93 48.51 48.10 47.80 46.05 45.48 47.17 52.90 53.71 52.76 52.19 55.09 57.52 59.44 60.28 60.90 61.17 61.19 61.00 60.47 59.83 59.02 58.28 58.69 59.65 59.26
39.33 34.45 27.58 26.82 27.24 23.83 28.69 28.36 32.79 34.10 35.36 37.13 38.73 40.64 41.08 40.92 42.31 44.27 46.29 46.98 46.82 46.10 46.96 48.21 47.82 47.10 47.66 48.05 47.69 46.52 45.51 45.56 46.52 47.38 49.11 51.75 54.74 56.36 58.75 59.65 59.40 59.17 59.06 59.59 59.53 60.32 59.39 57.68 58.68
34.44 31.86 21.60 17.60 22.70 23.62 28.48 25.15 30.69 35.19 37.37 37.81 38.21 40.47 40.28 40.94 43.09 45.07 45.97 46.23 45.82 45.73 46.26 46.55 46.29 46.57 47.05 47.23 47.38 47.72 48.38 48.58 48.57 48.82 50.78 52.05 54.13 55.94 55.56 56.69 57.98 58.18 58.59 58.54 58.47 59.18 58.47 58.05 57.13
35.85 28.64 33.30 24.22 22.35 17.73 24.42 27.91 32.91 33.56 35.60 35.76 36.70 39.17 40.07 41.35 42.93 44.59 45.28 45.61 44.41 44.12 44.56 44.71 44.99 45.66 46.58 46.65 46.79 46.35 46.86 47.19 47.21 47.46 48.32 48.97 49.96 52.75 53.40 54.33 54.36 54.23 54.38 55.63 55.93 54.03 53.51 51.35 49.98
35.89 37.89 28.59 31.16 13.97 17.28 21.21 22.28 26.83 30.72 34.09 35.24 36.74 37.88 39.58 42.08 43.04 43.60 44.46 43.50 43.31 43.23 43.42 44.12 44.30 44.54 44.39 43.69 44.07 42.71 42.38 43.38 43.64 43.84 43.34 43.94 45.70 48.28 48.30 48.17 48.70 48.99 49.39 49.29 48.78 48.53 49.26 46.43 45.57
35.36 34.04 33.06 29.65 25.69 19.12 17.05 22.82 30.02 31.46 34.72 35.66 37.14 39.43 41.10 42.45 42.94 43.44 43.21 42.35 41.73 41.40 42.02 42.42 43.49 43.68 41.83 40.78 39.36 38.16 37.60 37.83 37.65 37.42 37.50 38.10 39.27 41.00 41.26 41.20 41.67 42.30 44.04 45.18 44.71 44.67 45.31 44.06 42.81
36.27 34.41 33.46 21.47 25.70 25.07 16.93 23.01 32.39 32.16 34.42 38.00 38.70 41.40 41.90 42.65 42.65 42.75 41.89 41.04 39.69 39.77 39.93 40.44 41.62 41.41 40.48 39.50 37.99 37.13 36.95 36.37 35.57 35.27 35.57 36.19 35.89 36.45 36.62 37.09 37.05 37.30 38.10 38.94 40.73 40.25 41.59 40.69 40.41

GFSSGP_sfc_wetblb_084.txt.gz
Wetbulb
64.65 61.35 56.90 51.46 41.88 39.17 34.43 38.69 42.72 42.18 40.91 43.23 46.23 46.05 46.22 49.54 52.27 48.71 62.62 67.78 70.82 72.42 74.09 74.80 76.03 75.74 75.91 75.95 75.57 75.31 75.06 74.87 74.44 73.43 73.19 73.00 72.69 71.84 71.89 70.93 70.49 70.44 69.88 68.92 68.33 68.07 68.26 68.67 68.77
62.46 60.53 53.48 46.56 36.90 32.63 34.60 40.61 42.35 43.82 45.90 46.70 47.00 49.44 52.89 53.16 60.37 63.91 65.98 70.14 71.78 73.02 73.99 74.47 75.68 75.77 76.05 75.82 75.37 75.18 74.85 74.54 74.41 73.71 73.34 73.05 73.06 72.17 72.22 71.16 70.63 70.43 69.37 68.07 67.63 68.03 68.38 68.50 68.64
62.13 59.67 49.22 42.82 35.64 33.46 35.09 41.55 42.19 47.40 48.62 45.31 46.00 52.22 53.95 55.55 62.27 64.55 66.49 71.14 72.47 72.59 73.63 74.26 75.49 75.93 75.92 75.57 75.18 75.05 74.91 74.66 74.35 73.81 72.88 72.13 72.00 72.13 72.36 71.72 70.82 70.22 69.03 67.95 67.52 68.36 69.10 69.06 68.93
57.83 55.18 50.99 41.16 36.43 39.46 40.60 44.36 46.11 47.27 48.63 47.86 45.85 49.47 57.80 61.59 64.11 66.27 70.68 71.65 71.50 72.33 72.60 74.40 75.23 75.69 75.53 75.39 75.23 75.02 74.68 74.08 73.42 73.12 72.62 72.13 71.36 71.03 71.56 72.20 71.72 70.72 69.72 68.18 67.51 68.25 68.81 68.54 68.69
54.20 51.48 44.32 38.90 39.18 41.26 43.89 48.08 47.84 46.44 46.06 47.29 45.60 48.31 55.05 62.22 66.42 70.08 71.00 71.38 70.68 71.81 72.41 73.78 75.11 75.37 75.34 75.26 75.10 74.90 74.63 74.11 73.38 72.71 72.36 71.25 70.34 69.85 70.62 71.84 71.35 70.07 69.31 68.70 67.84 68.28 68.32 68.24 68.24
50.08 48.55 40.34 38.79 40.44 44.90 45.34 49.06 48.62 46.12 46.22 48.43 46.87 52.75 55.55 65.81 67.78 69.48 70.82 70.68 71.28 71.54 72.15 73.40 73.53 74.42 74.76 74.83 74.68 74.49 74.22 73.68 73.46 72.00 70.97 70.20 69.58 68.89 69.70 71.24 70.96 70.07 69.48 69.23 68.06 67.98 68.07 67.89 67.68
45.15 43.45 37.23 37.49 41.21 41.77 46.46 50.37 44.90 47.43 45.24 46.36 46.48 49.69 56.61 64.03 68.43 69.87 70.17 70.27 70.59 71.82 71.62 72.50 72.87 73.00 73.21 73.76 73.82 73.37 72.30 71.59 71.40 70.96 70.68 69.62 69.67 69.57 69.37 70.93 71.25 70.31 69.90 69.52 68.85 67.87 67.67 67.54 67.19
46.54 43.43 38.87 37.52 39.78 40.11 47.96 50.18 49.98 48.28 46.83 50.65 49.92 47.15 49.45 58.60 68.60 69.26 69.64 69.57 70.04 71.21 71.68 72.05 71.89 72.06 71.61 71.67 71.77 71.20 70.68 70.30 70.26 69.60 68.53 68.02 67.75 68.63 70.19 69.97 71.00 71.03 70.82 70.13 69.38 68.47 67.45 67.40 66.87
49.87 43.10 41.06 39.87 39.53 41.98 48.64 47.93 50.68 51.91 50.03 49.37 49.17 53.02 57.97 63.35 67.79 67.99 68.20 68.47 69.05 69.55 70.19 71.10 71.12 70.44 70.38 70.19 69.96 69.69 69.22 68.70 68.39 67.73 66.59 65.74 64.95 65.70 66.66 67.59 69.32 70.07 70.42 69.76 68.93 68.51 68.07 67.00 65.85
47.90 42.58 39.96 44.61 43.21 42.64 46.62 48.53 49.89 49.36 48.93 47.61 48.23 52.95 62.12 66.99 66.75 65.15 66.13 66.02 66.36 67.36 69.22 70.41 70.81 70.21 69.76 70.59 68.59 66.76 66.78 65.79 65.23 64.40 63.47 62.74 63.08 63.35 65.97 65.87 68.16 69.62 69.27 68.85 68.60 68.13 67.74 64.31 60.43
47.31 39.84 43.54 45.13 46.83 48.23 47.55 47.76 52.00 47.56 46.25 48.42 47.27 50.10 54.06 60.11 62.90 64.14 65.25 66.66 65.87 67.01 68.34 69.92 70.09 69.60 69.52 68.97 67.35 65.81 65.01 64.32 63.98 63.10 62.33 61.24 62.36 61.96 63.57 64.25 65.63 65.49 64.92 64.74 65.52 64.54 63.01 60.34 58.31
43.86 46.73 44.82 46.22 48.80 48.04 46.28 48.24 47.31 49.03 49.31 51.11 50.78 51.33 52.16 53.18 58.57 63.03 64.44 64.97 65.86 67.53 67.46 69.17 69.90 69.23 68.21 67.30 67.08 65.52 64.55 63.53 62.87 62.63 62.07 60.22 59.95 60.45 60.51 62.28 62.90 63.15 63.19 62.21 62.04 61.95 61.46 60.06 58.46
44.41 45.70 46.21 46.41 47.79 47.00 47.18 45.12 45.96 48.08 52.46 52.50 53.19 53.49 51.18 51.97 56.72 63.12 65.10 65.74 65.91 66.70 67.40 68.19 69.25 68.00 66.59 65.67 65.52 65.33 64.23 64.25 63.21 62.48 62.08 60.81 59.06 59.26 59.57 59.92 60.72 61.24 61.40 60.76 60.13 60.20 60.49 59.61 58.09
43.71 44.96 44.86 46.29 46.55 47.21 44.80 44.17 45.77 46.63 52.32 52.36 52.09 52.39 51.77 51.44 59.73 60.95 63.25 64.07 64.25 65.07 66.37 67.73 67.51 67.62 66.19 65.53 65.01 65.38 64.90 65.02 63.54 62.56 62.27 61.54 59.65 57.89 59.59 59.31 59.51 60.09 60.48 60.34 59.69 59.42 59.46 59.14 57.59
44.08 40.40 43.24 43.79 45.16 43.00 43.90 40.49 42.57 46.61 51.87 51.63 51.90 50.45 51.63 51.89 58.45 60.94 63.40 63.83 64.64 65.17 65.51 65.93 66.79 66.55 65.71 65.26 64.83 64.62 65.31 65.09 64.13 63.69 62.81 62.08 60.53 58.47 58.44 59.28 59.08 59.75 59.83 59.83 59.09 58.61 58.20 57.78 57.91
40.76 40.42 34.09 43.34 43.19 43.77 42.65 36.28 42.72 48.51 48.84 49.78 51.58 51.35 50.70 51.64 52.18 60.29 62.25 63.79 64.65 65.10 65.00 65.59 67.47 65.86 65.70 65.19 64.43 64.45 64.52 64.61 64.68 64.37 64.13 62.87 61.76 60.09 58.54 58.73 58.97 59.57 59.48 59.31 58.68 58.17 57.37 56.91 56.54
38.17 34.29 35.03 36.92 43.84 41.32 40.02 35.35 42.41 48.73 47.97 48.24 51.20 50.57 50.39 50.35 49.96 55.42 61.50 63.27 63.92 64.01 64.43 64.80 65.50 64.84 64.54 65.02 64.32 63.91 63.78 63.73 64.16 63.62 64.30 63.77 63.01 60.90 59.45 58.96 58.97 58.58 58.36 58.25 58.20 57.29 56.93 55.99 55.96
31.35 33.14 36.07 34.37 39.75 40.96 36.91 35.62 40.30 47.46 47.17 46.85 49.62 49.96 50.02 48.35 49.02 51.65 55.38 61.38 62.81 63.19 63.98 64.55 64.80 65.28 63.85 63.71 63.51 63.55 63.04 62.62 62.59 62.46 62.88 64.07 63.95 61.94 59.73 58.24 58.05 57.83 57.17 56.67 56.52 56.74 55.86 56.08 55.88
34.47 34.25 33.42 36.64 39.64 39.67 35.61 37.50 39.06 42.55 46.26 46.83 48.24 49.05 49.04 48.68 49.32 50.22 49.63 52.53 59.38 60.96 62.09 63.31 63.95 64.54 64.58 63.09 61.98 61.97 63.24 62.74 61.71 61.07 62.35 62.39 63.64 62.41 60.41 59.18 58.01 57.38 57.02 57.17 56.67 55.86 55.58 54.73 54.22
34.91 34.45 33.22 35.99 38.67 37.66 36.34 36.60 40.35 41.08 42.36 45.81 47.66 48.55 49.39 50.07 47.45 47.17 47.94 46.89 49.67 56.44 59.20 60.82 62.38 63.14 64.34 63.89 62.88 62.86 62.30 62.79 63.41 63.09 61.55 61.62 61.00 61.25 60.75 59.91 58.86 58.37 58.08 57.11 56.69 56.14 54.86 54.90 53.93
34.17 33.71 32.34 32.68 36.27 35.54 34.38 33.56 37.21 40.33 41.47 41.93 44.83 48.93 50.10 50.43 49.56 45.43 45.04 46.13 45.52 47.95 50.86 56.68 60.54 62.38 62.95 63.32 63.02 62.15 62.07 61.40 61.27 62.01 62.56 62.25 61.45 60.79 60.26 59.74 59.53 58.74 59.16 58.99 58.50 57.65 56.61 55.67 54.05
32.58 37.79 37.24 34.59 32.33 29.75 33.07 26.33 30.92 37.93 39.86 40.46 42.55 42.88 46.12 47.98 44.10 43.45 43.22 43.98 44.12 44.91 46.39 47.99 48.86 50.65 53.00 61.25 62.00 61.31 61.49 61.04 61.24 61.13 61.76 62.17 62.67 62.16 61.54 60.42 59.39 59.11 58.91 58.74 58.60 58.50 58.31 58.08 58.16
35.74 39.89 37.65 35.09 31.10 28.31 26.99 27.02 29.78 32.57 35.61 41.19 43.21 43.47 44.44 45.18 44.18 43.62 43.36 44.78 45.46 46.05 45.43 45.11 45.94 46.25 46.11 47.24 51.43 59.25 60.40 60.70 60.24 60.29 60.45 60.57 61.27 62.16 62.49 62.19 60.83 59.38 58.59 58.34 58.12 57.36 57.30 57.84 57.62
41.27 38.59 37.84 35.89 31.58 22.88 27.46 27.94 26.40 29.69 34.02 35.21 39.86 43.09 44.91 45.16 44.19 43.66 44.44 46.03 45.74 45.04 45.66 47.10 47.80 47.53 47.44 45.99 45.31 46.14 51.30 55.81 56.29 56.15 56.59 57.84 58.82 59.92 60.54 61.00 61.27 60.86 59.88 58.96 58.52 57.87 57.28 57.36 57.44
39.95 32.74 28.40 27.06 26.66 22.51 27.57 26.75 31.28 32.37 34.85 36.52 37.79 40.32 42.65 43.98 43.30 43.49 45.14 45.33 44.84 45.03 45.80 46.99 47.28 46.84 47.55 47.60 47.36 46.45 44.86 44.66 46.50 48.00 48.78 49.81 52.66 55.43 57.20 58.72 59.21 59.27 59.22 59.12 59.05 58.53 57.84 57.49 58.14
36.72 31.51 21.12 16.18 20.36 22.20 28.32 24.63 30.32 35.20 37.29 38.36 38.79 39.31 39.97 40.77 42.35 43.95 45.67 45.41 44.53 45.28 45.25 45.50 46.17 46.15 46.87 47.17 46.91 47.14 47.82 47.82 47.54 47.80 49.49 51.20 52.90 55.01 56.31 55.91 57.25 57.89 58.57 58.62 58.39 57.68 58.54 57.98 55.86
35.26 31.13 31.06 22.83 20.11 19.31 24.25 26.41 32.81 33.07 34.51 35.22 36.00 37.14 37.82 38.85 41.75 44.31 45.22 44.86 43.89 44.32 44.46 44.67 45.26 45.27 45.66 45.82 46.10 45.62 45.83 46.16 45.87 45.94 46.95 47.58 48.35 52.86 52.95 53.60 54.07 54.28 55.52 57.35 56.32 54.86 52.33 51.01 49.99
36.28 36.93 26.84 27.43 14.91 16.84 20.67 19.83 26.14 30.72 32.80 33.74 35.41 35.83 37.65 39.88 41.92 43.11 44.20 43.27 42.76 42.90 43.02 43.69 44.26 43.68 42.77 42.79 42.38 41.38 41.33 41.97 41.80 41.51 41.25 42.83 44.51 46.28 47.76 48.51 49.12 49.47 49.82 50.19 50.33 49.66 48.33 45.72 46.08
35.23 30.84 32.45 29.25 23.92 18.16 16.60 23.02 29.14 30.50 32.37 32.64 35.01 36.69 38.36 40.71 41.62 42.24 42.05 41.60 41.28 41.51 41.95 42.56 43.48 41.91 40.38 39.39 38.21 37.54 36.89 37.03 37.07 36.86 36.80 37.70 38.47 39.56 39.83 41.10 42.40 44.50 45.72 46.50 46.09 45.82 46.17 44.69 43.69
35.59 33.29 32.03 22.77 23.14 23.49 17.21 23.54 32.26 31.07 32.02 33.55 36.33 38.88 40.05 41.63 41.99 41.75 40.49 39.78 39.64 39.87 40.66 40.98 41.28 40.45 39.17 38.28 37.44 36.68 36.12 35.73 35.28 35.21 35.42 36.06 35.74 36.39 36.86 37.78 38.28 38.82 39.06 39.89 41.02 40.72 41.29 41.62 41.03

GFSSGP_sfc_wetblb_087.txt.gz
Wetbulb
65.20 62.50 59.64 55.60 46.72 44.37 39.99 42.55 46.96 46.08 46.64 49.90 50.00 49.54 50.44 54.39 56.17 54.20 66.41 70.01 71.15 72.84 74.49 75.17 75.58 75.75 75.85 75.83 75.51 75.11 74.83 74.63 74.38 73.80 73.04 72.62 72.12 71.85 71.07 70.86 70.69 70.07 69.51 69.18 69.18 69.67 69.53 69.49 69.28
64.38 61.12 56.28 49.84 42.11 38.20 39.91 44.44 45.05 47.91 50.24 50.88 49.23 54.80 56.74 55.82 63.39 63.72 66.93 70.25 72.21 73.17 74.42 74.89 75.28 75.67 75.85 75.73 75.43 75.22 75.09 74.74 74.40 74.13 73.42 73.00 72.33 72.21 71.30 70.93 70.60 69.33 68.54 68.35 68.86 68.99 68.84 68.80 68.59
63.20 60.77 53.25 47.22 40.68 38.36 40.02 44.53 46.73 49.66 51.01 50.61 50.78 55.06 58.19 59.00 64.54 65.32 68.98 71.49 72.81 73.54 74.46 74.83 75.06 75.49 75.84 75.47 75.34 75.29 74.94 74.81 74.51 74.13 73.83 73.22 72.63 72.67 71.63 71.21 70.44 68.95 68.02 68.32 68.91 69.59 69.66 69.55 69.67
59.51 57.34 52.40 43.97 39.33 42.18 43.78 46.50 49.10 49.85 51.52 51.95 50.07 51.66 61.09 64.67 65.34 67.90 71.23 71.58 72.74 73.41 74.43 74.88 75.09 75.74 75.41 75.10 74.86 75.11 74.86 74.29 73.65 73.58 73.02 72.18 71.99 72.42 72.22 71.24 70.52 69.86 69.15 68.57 69.20 69.51 69.31 69.49 70.49
55.99 53.40 46.35 42.61 41.64 44.05 46.52 49.10 50.15 48.87 50.02 50.93 50.84 52.10 58.81 65.09 69.13 70.77 71.16 71.56 71.38 72.58 74.22 74.92 75.36 75.43 75.41 75.16 75.08 74.97 74.78 74.22 73.10 72.52 72.36 71.53 71.05 71.33 72.30 71.43 70.79 69.85 68.99 68.13 69.00 69.05 69.01 68.96 69.76
50.96 51.13 43.46 40.57 42.80 45.94 48.47 50.62 50.38 49.59 49.92 51.15 50.99 51.42 59.21 67.21 67.90 70.37 71.61 71.88 71.56 72.24 73.81 74.31 73.85 74.55 74.89 75.02 74.83 74.69 74.37 73.89 73.50 73.14 71.66 70.73 69.99 70.30 71.57 71.25 70.86 69.91 69.07 68.27 68.78 68.85 68.66 68.48 69.03
49.34 46.45 42.32 43.19 43.17 45.23 48.54 51.31 49.19 49.57 49.90 50.87 52.45 53.52 56.79 64.49 67.98 70.27 70.99 71.78 71.98 72.86 73.13 73.78 74.01 73.77 73.27 73.77 73.96 73.86 73.47 72.86 72.02 71.49 70.83 69.86 69.62 69.75 70.61 71.71 71.11 70.11 69.85 69.19 68.64 68.34 68.27 68.04 67.87
49.26 47.46 42.20 42.82 42.69 44.14 49.86 50.87 51.19 50.81 50.21 53.55 54.17 50.40 51.90 62.21 69.21 69.61 70.02 69.73 70.69 72.41 72.65 72.95 73.64 73.72 73.62 73.67 72.05 71.51 71.19 70.91 70.76 70.44 69.37 68.30 68.07 68.75 70.04 70.51 70.75 71.06 70.67 69.84 69.35 68.02 67.98 67.59 66.89
50.71 43.95 41.69 42.99 42.58 45.69 49.43 49.33 51.46 53.52 51.69 52.39 54.20 57.28 59.77 65.39 68.70 68.09 68.06 68.98 69.47 70.56 71.54 72.21 72.59 72.99 73.06 72.89 71.24 70.08 69.45 69.05 68.62 68.00 66.63 66.84 68.89 68.85 69.16 68.38 69.58 70.35 70.56 69.81 69.25 68.53 67.73 66.89 66.25
48.18 43.40 43.24 46.32 45.87 46.43 48.76 49.18 50.70 50.64 50.12 49.95 51.50 54.92 58.11 62.90 66.77 65.97 66.39 66.60 67.42 68.15 68.92 70.45 71.29 72.23 72.30 71.74 70.92 69.67 68.74 68.37 67.84 67.82 67.64 67.31 68.17 68.00 68.40 67.09 68.25 69.79 69.60 69.27 69.02 68.55 67.15 64.56 65.44
46.95 41.95 45.78 46.42 47.83 49.00 48.31 49.69 52.44 49.93 48.22 51.37 51.03 52.81 55.81 57.35 59.82 62.84 64.80 66.52 66.46 68.01 68.95 69.76 70.40 71.91 71.55 71.04 69.88 68.57 68.10 67.60 67.34 66.92 66.46 66.49 66.68 67.83 68.30 68.87 69.26 69.51 66.57 68.67 68.33 68.02 67.31 65.30 64.07
43.23 46.71 46.45 47.36 49.39 48.98 47.95 50.43 49.95 50.13 50.77 53.26 53.37 54.48 54.29 54.05 55.12 58.87 63.41 66.37 66.40 66.30 68.58 69.81 70.43 70.85 71.22 70.62 69.47 68.29 67.33 67.09 66.54 66.30 65.49 65.19 65.87 66.52 67.49 68.37 68.70 68.85 68.57 67.70 67.83 67.54 67.06 65.75 63.80
43.99 46.00 47.42 48.18 48.79 48.58 48.97 48.08 49.08 49.95 52.42 53.79 54.30 54.54 53.90 53.93 55.23 59.28 63.46 66.27 66.83 66.51 67.42 69.12 70.05 70.46 70.67 69.79 69.36 68.07 67.24 66.84 66.68 66.07 65.48 64.39 65.06 65.30 66.10 66.86 67.18 67.44 67.41 67.01 66.48 66.45 66.13 65.84 64.94
45.20 45.94 46.78 47.38 46.94 48.13 46.46 46.39 48.40 49.53 52.15 53.08 53.80 53.61 53.94 54.50 54.29 58.04 63.17 65.16 66.32 66.99 67.34 68.49 69.41 69.58 70.05 69.21 68.74 68.12 67.41 67.17 66.45 66.15 65.81 64.82 63.77 64.37 64.70 64.93 65.30 65.80 66.28 66.43 65.81 65.25 65.12 64.93 64.45
45.54 41.43 43.81 45.25 46.54 45.40 46.40 43.19 44.16 49.11 52.13 51.61 52.36 53.82 53.86 54.28 54.97 54.26 61.67 64.90 66.03 66.25 67.02 67.75 68.32 68.89 69.74 69.19 68.63 67.92 67.17 67.14 66.30 66.29 65.95 65.35 64.54 63.29 63.16 64.13 63.96 64.41 64.95 65.15 65.02 64.30 64.02 63.60 63.31
41.99 41.18 37.08 42.87 45.18 46.33 45.36 40.24 44.78 48.66 50.05 49.98 51.87 52.89 53.35 53.57 53.95 54.15 60.24 64.37 65.91 66.41 66.50 67.32 68.05 68.38 68.95 69.10 68.33 67.98 67.74 67.51 67.26 66.85 66.34 65.57 65.14 64.48 62.80 62.22 62.98 63.98 63.88 64.24 63.97 63.70 63.11 62.75 62.40
39.30 34.04 34.89 38.79 44.69 43.47 42.91 39.49 44.72 48.35 49.03 48.49 50.51 52.06 52.68 52.74 53.66 52.62 57.69 64.04 65.62 66.38 66.51 66.52 67.36 67.34 67.93 68.34 68.16 67.88 67.61 67.36 67.59 67.38 67.10 66.66 65.69 64.78 64.11 63.25 63.27 63.26 63.06 63.15 63.04 62.62 62.46 61.86 61.91
31.57 33.94 35.35 36.03 41.98 42.35 39.28 39.33 42.53 47.00 48.21 48.37 49.54 51.63 52.09 52.23 53.05 52.66 54.21 62.02 64.61 65.54 66.21 66.89 66.80 66.73 66.83 67.03 66.72 66.75 66.36 66.74 67.08 67.14 66.99 67.11 66.75 65.74 64.35 63.98 63.73 62.74 62.00 61.56 61.47 61.59 61.32 61.60 61.75
36.75 35.36 35.32 37.72 40.98 41.17 39.73 39.50 41.89 45.87 47.33 46.88 48.81 50.51 50.95 52.13 54.18 52.42 52.60 54.99 61.87 63.43 64.01 65.18 65.71 65.45 64.80 64.73 64.80 65.07 65.35 65.80 65.41 65.48 66.13 66.10 66.83 66.15 64.47 63.92 63.27 62.01 61.52 61.58 61.28 60.88 60.56 60.47 60.36
36.55 34.63 34.79 37.92 40.55 41.26 39.04 39.01 41.84 43.18 46.51 47.49 48.53 49.13 50.56 51.78 52.94 51.24 52.03 50.30 51.43 60.64 62.34 63.53 64.64 65.59 66.04 65.39 64.78 65.02 65.21 65.60 66.97 65.98 64.72 64.92 64.85 65.39 64.81 64.08 63.11 62.37 61.37 60.76 60.60 60.22 59.79 59.81 59.41
34.96 34.34 33.62 34.82 38.38 38.38 38.00 37.00 39.26 42.17 43.67 45.55 47.58 50.23 50.94 52.18 52.12 52.33 50.08 50.73 50.06 51.29 57.07 61.81 63.25 64.44 65.58 65.69 64.93 64.27 64.10 64.04 64.47 65.39 65.42 64.05 63.32 63.40 63.68 63.61 63.35 62.83 62.33 62.36 61.67 60.77 60.03 59.83 58.83
31.48 38.19 37.25 36.24 35.43 31.55 36.62 29.06 34.09 39.86 40.78 42.53 46.02 45.96 49.32 51.04 50.87 47.75 47.51 48.79 49.72 49.30 50.10 52.56 58.94 62.86 64.06 64.87 64.88 64.59 64.50 63.40 64.26 65.08 65.40 65.55 64.40 63.34 63.08 63.08 62.68 62.75 62.50 61.93 62.31 62.01 61.53 60.86 59.99
35.62 39.14 37.75 35.19 32.72 31.83 32.27 31.56 33.53 35.40 38.66 41.53 42.99 43.77 45.69 48.37 49.19 49.20 47.95 47.89 48.45 48.87 49.13 49.28 49.46 50.23 51.31 58.06 63.31 64.31 63.87 64.01 63.76 63.90 63.84 64.09 64.68 65.09 64.64 63.66 62.74 62.05 62.09 62.18 61.84 61.21 60.93 61.08 61.06
36.52 38.40 37.49 36.35 32.40 26.63 29.60 31.15 30.62 32.96 36.34 41.06 45.01 45.15 46.61 47.27 48.04 48.17 47.11 48.04 48.30 48.39 48.02 49.19 49.63 49.37 49.18 49.72 50.51 55.54 59.62 60.80 61.13 61.63 61.46 62.18 62.53 63.39 63.87 64.36 64.55 63.89 62.48 61.88 61.73 61.40 61.00 60.81 60.86
34.13 34.90 28.20 26.06 25.81 22.89 29.13 29.28 33.34 35.88 37.59 39.02 40.89 43.36 45.08 46.99 48.42 47.98 46.29 46.96 48.01 47.49 48.68 49.45 49.91 49.11 49.88 49.86 49.83 49.39 49.20 49.64 51.94 53.02 54.15 54.29 55.75 58.31 59.70 60.61 62.62 63.26 63.72 63.37 62.76 62.15 61.49 60.86 60.72
36.12 32.58 24.95 18.95 21.46 23.90 29.70 27.17 32.78 37.93 39.49 40.02 40.76 41.08 42.01 44.11 45.21 45.74 46.62 47.97 47.44 47.78 48.45 48.67 48.75 48.76 49.53 49.81 49.55 49.99 50.48 50.46 50.57 51.17 52.43 53.81 55.29 56.25 57.23 58.12 59.71 61.09 61.73 62.00 62.13 62.12 61.54 60.86 59.70
35.57 28.55 32.15 24.30 23.17 24.66 27.47 29.76 35.00 36.40 36.93 37.59 37.94 39.09 39.75 40.64 42.61 44.52 46.75 47.29 46.96 47.10 47.43 48.24 48.00 47.97 48.45 48.67 48.75 48.16 48.66 48.97 48.99 49.26 50.63 50.99 51.94 53.72 54.21 55.02 55.93 56.08 57.96 59.74 59.56 57.68 54.35 53.65 52.73
36.69 37.19 28.89 26.38 18.26 20.18 23.94 25.32 30.14 33.89 35.50 36.47 37.46 38.73 39.62 40.77 41.90 44.76 46.08 45.55 46.15 46.52 46.56 47.23 47.62 46.81 46.65 46.23 45.68 44.47 44.41 44.59 44.47 44.88 45.02 46.13 47.13 48.28 49.62 50.25 50.77 50.73 50.98 52.15 52.52 51.03 50.22 49.42 48.70
35.10 34.09 31.38 30.12 26.88 22.11 20.94 26.26 32.90 34.27 34.98 34.41 34.93 37.69 39.36 41.00 42.89 44.36 44.29 44.20 44.42 44.88 45.30 45.73 45.35 44.63 43.56 43.02 42.27 41.96 41.19 40.96 41.16 41.19 41.25 42.06 42.34 43.11 43.98 45.32 46.46 47.02 47.83 48.50 49.83 49.16 48.68 47.26 46.30
37.08 33.68 32.04 25.37 25.25 21.10 22.08 27.52 35.29 34.82 34.81 34.53 35.72 39.24 40.43 42.27 43.47 43.85 43.14 42.60 42.71 42.94 43.73 44.40 43.46 42.95 42.15 41.17 40.67 40.06 39.81 39.83 39.81 39.40 39.46 40.22 40.49 40.58 41.10 42.05 42.37 42.71 43.05 44.80 46.11 45.58 45.51 45.01 44.21

GFSSGP_sfc_wetblb_090.txt.gz
Wetbulb
67.80 66.68 65.04 61.52 49.96 48.99 45.59 46.66 51.43 50.03 50.12 54.03 54.91 53.38 54.06 55.55 59.40 57.60 69.36 71.58 72.85 74.02 74.03 74.72 75.63 75.75 75.84 75.63 75.36 75.12 74.90 74.42 74.24 73.27 72.43 72.29 71.57 71.22 71.06 70.88 70.38 70.08 69.94 70.01 70.33 69.99 69.45 69.04 68.60
67.06 63.74 62.46 57.56 47.06 43.10 45.10 49.27 48.61 51.49 53.52 55.03 54.25 54.38 55.96 55.82 65.03 66.24 68.80 71.56 73.33 74.06 74.33 73.90 75.20 75.53 75.57 75.49 75.27 75.08 74.91 74.66 74.35 74.03 72.94 72.55 71.62 71.17 71.06 70.33 69.42 69.07 69.25 69.64 69.46 69.14 69.05 69.10 69.19
65.97 63.41 56.15 50.93 46.95 44.19 45.58 49.20 50.48 53.05 54.79 54.82 54.15 58.37 59.59 60.66 66.56 67.72 70.84 72.27 73.59 74.19 74.22 74.37 74.97 75.44 75.44 75.18 75.21 75.07 74.82 74.62 74.53 74.31 73.91 73.31 72.15 71.53 71.39 70.16 68.73 68.58 69.31 69.32 69.67 69.82 69.76 69.70 69.48
61.91 59.20 57.39 47.88 45.17 48.60 48.60 50.54 52.36 52.82 54.59 55.59 54.63 56.21 64.32 68.29 67.52 69.81 72.01 72.83 73.25 74.03 74.60 74.22 74.61 75.48 75.39 75.03 75.09 74.84 74.92 74.29 73.66 73.77 73.30 73.29 72.92 71.93 71.43 70.00 68.76 69.33 70.19 69.72 69.81 69.64 70.21 70.79 70.37
59.86 56.66 47.64 46.24 46.94 49.57 50.78 52.82 53.59 52.39 53.86 54.70 55.41 56.55 61.95 67.96 70.70 71.22 71.72 71.66 71.90 73.42 74.71 74.95 74.68 75.46 75.28 75.08 74.90 74.94 74.67 73.88 72.97 72.43 72.16 71.90 72.09 72.60 71.39 70.01 69.16 68.52 69.14 69.58 69.48 69.41 69.68 70.30 70.17
54.06 54.31 45.38 43.82 46.75 49.58 51.36 54.30 53.81 52.93 52.97 54.37 54.84 58.53 62.62 67.80 68.99 70.58 71.51 71.28 72.13 72.23 74.16 74.73 73.94 74.59 74.85 74.88 74.88 74.75 74.40 73.90 73.27 73.09 71.53 70.75 71.00 72.02 71.23 70.30 69.79 68.76 68.59 69.27 69.25 69.09 68.93 69.68 69.69
51.99 49.81 46.47 46.72 47.10 48.34 50.51 54.67 52.77 52.88 52.58 52.97 57.74 56.90 62.34 66.54 69.84 70.98 71.54 71.56 71.90 73.45 73.91 74.55 74.68 74.17 73.38 73.98 74.16 74.12 74.09 73.42 72.76 72.05 71.47 70.39 69.96 70.96 71.78 70.86 70.41 69.51 68.53 68.91 68.92 68.66 68.43 68.61 69.26
53.96 51.38 47.04 47.91 46.34 47.41 52.97 53.55 54.62 53.58 52.80 55.87 56.47 54.75 56.61 63.11 69.83 70.77 71.32 70.88 71.80 72.80 73.00 73.59 74.09 74.24 74.08 74.03 72.48 72.53 72.26 71.59 71.60 70.95 69.63 68.40 68.38 69.16 70.82 70.51 70.59 70.68 69.62 68.93 68.40 68.32 68.11 67.54 67.43
55.16 46.87 44.64 46.72 47.43 49.14 54.25 52.68 55.08 56.34 54.85 55.45 58.58 58.79 63.82 66.82 69.79 69.01 68.76 69.58 70.31 71.59 71.81 72.98 73.52 73.51 73.49 73.03 72.21 70.72 70.06 69.71 69.35 68.71 67.23 67.26 68.05 68.09 69.29 69.36 69.33 70.42 70.39 69.31 68.40 68.00 67.70 66.90 66.36
49.24 45.56 46.65 51.08 51.68 50.84 53.13 53.26 54.29 53.52 53.46 53.57 55.57 58.78 65.69 67.65 68.64 67.36 66.67 67.37 68.33 69.51 70.46 72.13 73.09 73.02 73.08 72.02 72.49 72.02 70.95 70.68 70.37 69.43 68.79 68.00 68.46 68.74 68.01 68.59 68.39 69.94 69.77 69.66 69.11 68.07 66.37 65.37 66.98
48.63 44.07 49.76 50.66 52.13 52.83 52.33 52.31 54.65 52.98 51.47 54.45 54.06 57.18 61.78 59.53 60.76 63.37 65.45 67.70 67.79 69.62 69.59 71.87 71.71 72.73 72.57 72.05 71.71 71.20 71.01 70.54 69.71 68.15 67.08 67.43 68.29 68.25 68.09 69.55 70.30 69.79 67.18 69.32 68.87 68.45 68.57 66.50 65.55
44.26 48.24 48.94 51.14 51.76 51.68 51.07 53.56 52.37 53.39 53.71 56.81 57.25 58.75 60.19 59.93 58.01 57.95 61.54 65.79 67.70 67.99 69.95 70.01 71.19 72.43 72.26 72.11 71.54 71.20 70.52 70.09 69.32 68.52 66.36 66.79 67.50 68.03 67.51 68.48 69.69 69.67 69.45 69.11 69.43 69.28 68.80 67.79 66.59
44.41 46.61 49.47 50.95 50.78 51.80 53.07 51.63 51.98 52.85 55.90 57.26 57.69 57.73 58.47 59.08 59.01 60.87 61.26 65.42 67.66 67.14 68.45 69.78 70.27 71.94 72.09 71.58 71.23 71.10 70.44 69.78 69.62 69.01 67.95 66.25 66.49 67.45 68.51 68.89 69.01 69.41 69.69 69.08 68.56 68.14 67.89 67.58 67.31
46.23 46.78 48.40 49.68 50.15 51.30 49.90 50.82 52.11 53.57 56.32 56.11 56.61 57.17 57.89 58.07 58.73 60.27 63.32 65.48 67.76 67.63 67.98 69.71 70.24 71.21 71.96 71.41 71.31 70.83 70.60 70.23 69.68 69.35 68.85 67.89 66.67 66.53 67.31 67.89 68.02 68.16 68.31 68.24 67.92 67.04 66.31 66.33 66.82
46.26 42.40 46.48 48.24 49.06 48.70 51.43 47.55 48.38 53.89 54.99 54.79 55.67 56.93 57.45 58.10 58.50 58.06 60.32 65.42 68.17 68.71 69.45 68.54 69.97 70.59 71.17 71.31 71.19 71.06 70.96 70.20 69.60 69.46 69.48 68.77 68.10 67.40 66.99 66.15 66.43 66.98 67.13 66.58 67.07 66.64 66.14 65.31 65.15
42.16 43.01 38.63 46.10 48.16 48.90 48.99 42.89 50.02 53.98 53.55 53.44 54.85 55.83 56.94 57.73 58.02 58.20 56.98 64.70 68.29 69.04 68.96 69.79 69.90 70.73 70.53 70.89 71.14 71.18 71.21 70.37 70.02 69.79 69.76 69.10 68.59 68.41 67.44 66.72 65.58 66.10 66.30 66.29 66.23 65.90 65.28 64.91 64.87
39.43 35.33 37.61 41.55 48.20 47.41 47.36 43.14 49.45 53.20 52.72 52.54 53.76 55.09 55.93 57.28 57.84 57.90 57.36 60.72 66.88 68.42 68.72 69.00 69.76 69.37 69.97 71.02 71.10 70.90 70.95 70.58 70.45 70.39 70.08 69.64 69.04 68.56 68.12 67.56 67.20 66.31 65.93 65.67 65.98 65.53 65.09 64.31 64.39
33.93 35.82 38.12 39.21 44.90 46.35 44.57 44.57 47.37 50.85 51.73 52.06 52.78 53.79 54.92 56.46 57.63 58.44 57.34 59.06 66.26 68.29 69.05 69.18 69.17 69.99 69.71 70.31 70.09 70.18 70.18 70.24 70.60 70.37 70.21 70.20 69.68 68.98 68.39 68.28 68.02 67.45 66.30 65.91 65.39 64.79 65.05 64.23 64.23
39.45 37.94 37.23 41.37 45.45 44.30 43.39 43.76 46.51 48.97 50.20 50.69 51.66 52.95 54.22 55.81 58.68 58.83 57.68 56.33 65.35 67.14 68.06 68.45 68.30 68.55 68.85 67.91 66.69 67.02 67.62 68.59 68.83 69.48 69.95 70.15 70.08 69.52 69.05 68.58 68.15 67.78 66.53 66.10 65.79 64.73 63.79 63.79 64.16
37.67 37.22 37.62 40.64 44.16 43.87 43.24 42.74 46.44 48.50 48.89 50.27 51.01 51.86 53.34 55.01 57.31 57.59 57.41 55.36 59.38 65.06 66.92 67.65 67.74 68.06 67.94 68.45 67.67 67.64 67.84 67.88 69.29 69.44 68.68 69.47 69.37 69.52 68.78 68.29 67.84 67.55 66.25 65.75 65.07 64.05 63.31 63.51 64.35
37.22 36.88 38.14 38.10 41.91 43.22 42.55 40.03 42.80 46.88 48.97 50.28 51.73 53.04 53.75 55.12 55.70 56.65 56.59 55.58 55.22 55.96 63.03 64.82 65.96 66.19 67.36 67.57 66.74 66.70 66.74 65.71 66.22 67.30 67.64 67.86 67.73 67.58 67.25 67.62 67.49 67.13 66.42 65.57 65.60 64.91 63.53 62.46 63.47
33.67 40.71 40.39 39.54 37.92 32.81 41.91 32.22 40.98 44.67 45.69 47.90 49.95 51.95 53.39 55.18 56.68 57.07 55.98 54.64 54.52 54.54 56.01 58.97 63.49 65.76 66.16 67.07 66.02 65.48 65.20 64.73 65.77 67.05 68.17 68.47 67.02 66.32 66.44 66.61 66.59 66.69 66.25 65.49 66.13 65.65 64.67 63.66 62.34
35.79 41.20 39.88 39.95 37.97 37.33 37.15 34.64 39.78 42.32 43.14 46.05 48.82 50.98 52.63 54.49 55.15 55.74 54.54 55.14 54.34 54.71 53.95 55.62 57.97 63.44 65.42 66.53 66.27 66.52 65.88 66.84 67.22 66.23 65.95 67.01 67.60 67.94 66.74 65.70 65.39 65.13 65.31 65.11 65.26 64.82 64.36 64.39 63.47
37.81 38.54 39.31 39.56 37.53 29.69 36.17 35.68 36.61 39.18 42.18 45.74 49.00 50.74 51.80 52.90 54.02 55.32 55.91 53.70 53.05 54.40 54.11 53.23 53.87 54.53 55.83 60.70 64.04 65.52 65.56 65.53 64.69 64.93 64.92 66.37 67.06 67.23 67.28 67.13 66.83 66.34 65.58 64.99 65.09 65.09 64.58 64.20 63.79
34.35 35.02 28.98 27.53 28.43 27.97 35.25 34.61 38.07 42.51 43.70 45.67 47.42 49.82 52.01 53.05 53.40 54.04 54.70 52.37 52.32 52.32 53.16 52.97 53.35 51.80 53.09 53.20 52.62 54.29 58.45 60.15 60.91 61.50 61.44 61.74 61.86 62.46 64.03 64.30 64.68 64.63 64.92 65.03 65.36 65.25 64.71 64.24 63.24
33.44 34.45 30.47 22.42 24.89 28.77 34.01 30.89 36.15 44.39 46.66 47.83 47.04 47.55 48.51 51.81 53.23 53.72 54.27 54.26 52.28 51.48 52.56 52.36 53.24 53.09 53.20 53.21 53.56 53.72 53.34 52.86 53.00 53.66 54.37 56.19 57.53 59.17 59.54 60.05 61.39 62.49 62.78 63.61 64.45 64.40 64.11 63.94 63.46
35.35 33.45 36.57 31.33 30.74 29.46 32.87 36.10 41.10 43.40 43.70 44.08 45.03 46.23 46.95 48.31 49.95 52.04 53.70 53.03 52.93 52.69 52.80 52.82 53.03 53.25 53.50 53.74 53.83 53.72 53.95 53.85 53.68 54.05 55.54 55.79 55.81 56.04 57.25 58.14 58.85 59.70 60.77 61.85 62.61 61.93 59.91 59.89 56.84
34.16 38.73 32.61 34.09 25.42 24.54 29.48 31.90 34.89 39.06 41.18 42.25 43.29 45.09 47.29 47.76 48.17 48.96 50.97 51.91 52.30 52.05 51.64 52.56 52.84 52.70 52.66 52.79 52.82 52.08 51.80 51.62 51.46 52.60 52.09 52.24 52.80 53.04 54.15 55.16 55.88 56.23 56.35 56.91 57.35 54.91 53.20 52.13 51.45
34.75 35.20 35.16 35.77 33.02 29.13 26.51 31.87 39.66 39.21 41.20 41.26 42.45 43.39 44.87 46.63 47.45 48.46 50.00 51.10 51.35 50.81 50.66 50.81 51.15 51.12 50.74 50.61 50.38 50.13 49.20 48.79 49.20 49.21 48.94 48.87 49.44 49.80 50.52 50.30 52.24 52.41 52.76 52.52 52.01 51.15 50.89 49.77 48.98
37.49 37.29 36.63 33.14 28.63 29.23 31.23 32.72 39.84 41.47 41.88 42.54 44.22 44.55 45.59 46.29 47.68 48.82 49.26 49.59 49.76 49.93 49.91 49.20 48.78 48.84 48.60 48.08 48.34 47.57 47.60 47.86 48.01 47.15 46.34 47.05 47.00 46.99 47.38 48.35 48.89 48.51 48.69 49.63 50.54 49.19 50.08 50.14 49.46

GFSSGP_sfc_wetblb_093.txt.gz
Wetbulb
68.05 68.57 64.93 61.42 50.60 49.49 46.31 47.83 51.98 50.89 52.48 55.97 56.36 55.57 57.17 58.70 59.83 57.38 70.47 71.19 73.69 73.19 73.41 74.90 75.40 75.58 75.78 75.63 75.22 74.81 74.45 74.16 73.63 72.59 71.89 71.56 71.40 71.33 71.06 70.72 70.68 70.68 70.93 70.53 69.98 69.43 68.97 68.52 68.22
66.47 66.37 62.16 57.05 47.54 43.76 45.83 50.85 49.51 52.08 54.23 55.99 55.85 55.23 55.55 58.38 66.65 67.18 69.06 71.80 73.90 73.21 73.32 74.09 75.17 75.43 75.49 75.19 74.96 74.77 74.47 74.07 73.81 73.22 72.71 71.42 71.24 71.03 70.19 69.83 69.88 70.17 70.19 69.90 69.68 69.74 69.83 69.63 68.92
66.10 65.71 56.13 52.03 48.07 44.73 46.21 51.35 51.35 53.61 55.23 54.95 53.79 57.56 57.94 61.60 67.04 68.80 71.70 72.66 73.86 73.17 73.18 74.03 74.79 75.34 75.28 75.14 75.00 74.48 74.48 74.30 74.08 73.71 73.47 72.49 71.47 71.21 69.82 69.10 69.24 69.79 69.87 69.88 69.78 69.85 69.83 69.78 69.74
62.46 59.48 57.70 47.87 46.28 49.37 50.99 52.33 52.80 53.31 55.10 56.44 55.69 53.87 64.89 69.32 68.40 70.94 71.99 72.93 73.06 73.51 72.54 73.28 74.43 75.21 75.17 75.01 75.03 74.63 74.46 73.93 73.61 73.68 73.65 73.07 71.87 71.27 69.68 68.64 69.79 70.46 70.70 70.13 69.98 70.87 70.94 70.50 70.42
62.12 57.16 48.30 47.35 47.70 51.04 53.25 53.05 53.58 52.90 53.78 54.94 55.89 56.74 62.55 67.88 71.20 71.59 71.57 72.57 72.36 73.63 73.37 73.53 74.57 75.11 75.11 74.99 74.89 74.40 74.40 74.12 73.40 73.00 72.64 72.75 72.17 71.24 69.73 68.67 69.48 70.01 70.07 69.76 69.78 70.35 70.57 70.38 70.37
53.75 54.87 45.74 44.29 47.52 51.71 53.37 54.07 53.71 53.66 54.83 54.94 55.29 57.96 63.56 68.11 69.02 71.20 71.79 72.12 72.60 73.50 73.73 73.47 73.39 74.29 74.61 74.71 74.58 74.35 74.43 73.78 73.31 72.80 71.72 71.62 72.49 71.19 70.16 69.15 69.31 69.42 69.63 69.61 69.46 69.50 70.18 69.89 69.67
51.64 50.01 46.39 47.14 47.42 49.24 51.46 55.22 52.76 53.28 54.22 53.84 58.71 57.04 63.88 66.75 69.93 70.37 71.12 72.44 72.44 73.45 72.91 73.32 73.79 73.49 73.19 73.59 73.99 74.07 73.68 72.98 72.74 72.20 71.55 71.06 71.50 71.64 70.44 70.47 69.80 68.97 69.33 69.32 69.10 68.88 69.46 69.56 68.40
53.31 50.77 46.98 48.25 47.23 47.82 53.16 54.02 55.55 54.02 53.55 57.59 58.20 57.51 59.64 67.58 69.89 71.13 71.71 70.82 71.55 71.96 73.29 72.18 73.21 73.44 73.58 73.29 72.60 72.63 72.35 71.58 71.59 71.10 69.66 68.47 68.68 70.66 71.12 70.22 70.31 69.79 69.31 69.06 68.77 68.55 68.07 68.46 68.06
55.32 45.18 44.19 46.79 47.64 49.72 54.20 52.28 55.43 57.22 55.47 56.26 59.06 60.62 64.40 67.49 69.85 69.99 69.02 69.46 70.40 70.97 71.71 71.74 72.06 72.92 72.93 72.71 72.09 71.42 70.60 70.05 69.42 68.72 67.37 67.00 67.46 69.51 70.19 68.70 69.30 70.03 69.60 68.65 68.26 68.25 67.51 66.99 66.47
49.25 44.52 46.33 51.47 51.94 50.33 52.64 53.46 54.24 53.88 54.32 55.08 56.76 63.35 65.62 67.81 68.16 66.92 67.83 67.46 68.66 69.12 70.00 70.73 72.84 72.21 72.23 71.81 71.83 71.77 71.25 70.73 70.36 69.64 68.42 68.08 66.89 66.94 70.98 68.50 68.28 69.80 69.66 69.34 68.42 67.65 66.75 65.66 66.40
48.97 44.59 50.19 50.77 52.59 52.18 51.71 52.96 55.63 53.82 51.98 54.82 54.93 60.36 64.69 66.95 66.67 66.82 67.13 68.18 68.23 69.09 70.12 70.86 71.51 72.78 71.57 71.83 71.44 70.79 70.55 70.67 70.27 68.99 68.20 67.33 67.63 67.81 69.75 70.15 69.28 69.17 67.05 68.75 68.32 67.23 66.86 66.07 64.75
45.14 48.57 48.67 51.10 51.18 52.02 51.34 52.73 53.27 54.67 55.17 57.60 57.91 60.30 62.95 64.27 64.87 65.43 66.39 68.37 68.38 68.90 70.18 70.85 72.14 71.43 71.33 71.73 71.36 70.31 70.24 70.18 69.23 67.69 66.16 66.89 67.07 66.84 66.66 68.78 69.78 69.33 68.90 68.50 68.72 68.42 67.97 67.38 66.07
45.32 47.57 49.04 50.23 50.68 51.77 52.80 51.97 52.56 53.53 56.65 57.75 58.21 59.00 60.45 61.69 63.22 64.64 64.93 67.52 69.06 68.30 69.52 70.97 71.59 71.91 71.30 70.33 70.60 70.15 70.13 69.87 69.63 68.39 66.25 65.98 66.78 66.89 66.76 67.81 68.78 69.01 69.16 68.98 68.45 67.69 67.40 67.11 66.89
47.05 47.09 47.41 49.36 49.62 50.83 50.32 50.93 51.84 53.21 56.62 56.32 56.95 57.58 58.68 60.04 60.85 62.33 64.47 65.03 67.68 68.26 68.40 70.31 70.71 71.46 70.95 70.15 70.32 69.99 69.52 70.11 70.11 69.18 68.20 66.45 66.15 66.81 67.65 68.02 67.99 68.12 68.34 68.06 67.59 66.77 65.90 65.80 66.30
45.40 42.13 45.45 47.76 48.77 48.36 50.98 47.04 48.82 54.14 55.89 55.12 55.74 56.98 58.28 58.99 59.64 61.51 62.89 64.77 67.23 68.46 69.05 68.80 69.64 70.74 70.87 70.05 70.06 70.14 69.44 69.61 69.53 69.39 69.25 68.52 67.51 66.87 66.91 66.74 66.88 67.11 67.22 66.40 66.58 66.26 65.67 64.63 64.45
40.47 42.30 37.70 44.60 47.76 48.45 49.00 41.87 49.11 53.76 53.88 53.68 54.85 56.04 57.49 58.51 58.90 60.22 64.10 65.94 68.37 68.66 68.44 69.19 69.66 70.46 70.74 70.42 70.02 70.36 69.77 69.73 69.75 69.88 69.79 69.42 68.78 68.32 67.62 66.91 65.51 66.17 66.44 66.17 65.87 65.44 64.87 64.32 64.44
38.22 35.95 37.40 39.61 47.25 46.48 47.04 43.22 49.04 52.89 53.36 52.85 53.97 55.07 56.30 57.59 58.86 59.44 62.57 66.11 67.56 68.13 68.58 69.25 69.50 69.54 70.23 70.68 70.88 70.84 70.07 69.64 70.06 70.02 69.92 69.79 69.04 68.67 68.10 67.49 66.87 65.86 65.92 65.79 65.89 65.27 64.97 64.63 64.53
34.85 35.79 38.04 37.91 44.49 45.77 44.18 44.33 48.24 51.94 52.00 51.88 53.01 54.25 55.41 56.37 57.82 59.50 61.09 64.36 67.03 67.98 68.29 68.85 70.09 69.75 69.65 70.70 70.67 70.45 70.61 70.02 69.98 69.18 68.78 69.19 69.42 69.02 68.36 68.11 67.89 67.12 66.02 65.52 65.89 65.42 65.55 64.57 64.40
37.73 37.70 37.48 40.38 45.60 44.04 43.58 43.71 46.90 49.86 50.93 51.00 51.82 52.95 54.04 55.67 58.56 59.74 59.55 64.27 65.99 67.05 67.54 68.08 68.48 69.49 69.12 69.00 68.94 68.23 67.32 68.63 69.26 70.19 70.25 70.13 69.59 69.29 68.74 68.41 68.26 68.03 66.68 66.26 66.25 65.53 64.54 64.42 64.63
36.24 36.73 37.43 40.86 45.50 44.10 43.15 42.96 46.82 48.75 49.59 51.03 51.38 52.12 53.17 54.78 56.76 58.75 58.87 60.28 65.28 66.14 67.03 67.52 67.46 68.37 69.43 69.06 69.00 69.09 68.91 69.56 69.85 69.95 69.61 69.98 69.85 69.71 68.87 68.68 68.28 68.04 67.36 66.70 66.43 65.67 64.16 63.99 64.91
35.68 36.68 37.88 38.10 42.47 44.43 42.12 40.63 43.59 47.61 49.56 50.90 51.68 52.72 53.43 53.68 55.32 57.25 57.87 57.89 63.72 65.21 66.17 66.68 66.59 67.47 68.39 68.86 68.34 67.75 67.78 67.43 67.60 68.49 68.93 68.68 68.16 69.09 69.17 68.93 68.63 68.34 67.80 66.32 66.49 65.83 64.32 62.78 64.21
33.71 41.52 40.41 39.49 38.07 32.96 42.14 32.57 40.73 44.27 45.81 48.08 50.16 51.21 52.38 53.89 55.75 57.95 57.59 57.41 57.48 58.19 62.51 66.39 66.73 65.94 66.94 67.49 67.06 65.99 65.33 64.81 66.20 67.42 68.37 68.47 68.09 67.38 66.56 66.76 67.05 67.28 67.20 66.46 66.39 66.45 65.46 64.52 62.51
35.83 40.42 39.89 40.08 37.46 36.97 37.60 34.24 39.34 43.83 42.80 45.94 48.76 50.38 52.09 54.09 55.95 56.94 57.66 57.59 57.53 57.70 57.47 59.85 62.82 65.50 66.42 66.93 66.77 65.66 64.82 66.98 66.34 66.47 65.91 66.94 68.36 66.76 65.83 65.85 65.84 65.67 66.12 66.14 65.91 65.98 65.54 64.77 63.59
38.32 39.27 38.71 39.51 37.21 30.22 36.56 35.42 36.24 40.63 43.26 46.33 48.69 50.24 51.77 53.46 55.92 57.61 57.01 57.26 56.80 57.85 57.06 57.48 58.02 60.21 63.14 65.55 65.07 65.18 63.92 64.06 64.85 64.25 64.42 66.30 67.14 67.60 67.22 67.18 66.21 65.75 65.50 65.08 65.17 65.50 65.33 64.72 64.43
35.57 35.58 29.64 27.10 27.42 27.58 37.60 35.17 38.62 43.28 45.02 46.98 48.38 50.13 51.91 53.53 54.82 55.85 56.72 55.26 55.41 55.74 55.98 54.59 55.63 54.93 56.16 59.99 61.78 64.45 65.30 65.78 64.94 64.39 64.40 64.15 65.06 64.62 64.86 65.74 65.13 65.39 65.74 65.50 65.49 65.23 64.87 64.56 63.48
33.76 34.44 30.13 23.48 25.34 29.18 35.85 31.49 37.74 44.84 46.86 47.60 48.55 49.90 51.95 52.82 53.88 54.59 55.85 56.85 55.47 54.86 52.75 53.00 52.75 52.72 54.40 54.39 55.86 55.30 55.10 54.75 56.41 56.16 55.55 57.79 58.61 59.95 61.25 61.11 61.77 63.03 63.65 63.48 64.01 63.96 63.69 63.57 62.86
34.42 31.98 38.45 32.91 34.85 31.24 33.33 36.83 41.88 44.23 44.46 45.69 46.91 47.87 48.55 50.55 52.70 54.08 55.11 55.90 56.30 53.62 53.78 53.38 53.87 54.13 54.23 54.62 54.99 54.49 54.72 54.68 54.30 54.69 55.79 56.20 56.49 57.03 57.54 58.28 58.86 59.91 60.47 61.24 62.04 62.74 62.54 62.05 60.49
34.33 36.58 32.01 34.88 25.40 24.42 30.97 33.03 34.85 39.27 42.25 44.65 45.44 46.81 48.39 49.98 50.44 51.54 53.76 55.32 55.49 55.12 54.41 54.43 53.06 53.92 54.49 54.52 54.56 54.12 53.90 53.47 54.14 54.57 54.01 54.21 54.64 54.94 55.71 56.38 56.93 57.34 57.57 57.73 59.18 56.73 54.84 53.50 51.91
33.93 34.18 36.54 36.72 34.33 28.82 26.66 31.85 41.50 40.90 42.37 42.92 44.19 45.52 47.19 49.12 49.76 50.53 51.22 53.54 54.44 54.23 53.76 53.51 53.39 52.63 52.16 52.28 52.18 51.85 51.29 51.30 51.59 51.24 50.95 51.00 51.36 51.62 52.88 52.86 53.88 54.25 54.68 54.21 53.27 52.83 51.90 50.57 50.52
38.72 36.40 37.85 32.71 30.71 33.07 32.33 32.34 43.04 43.14 43.65 44.67 45.69 46.52 47.67 48.42 49.61 50.32 51.14 52.11 52.37 51.88 52.26 52.22 51.96 51.33 50.97 50.53 51.09 50.09 49.73 50.21 49.96 49.00 48.54 48.86 48.97 49.15 49.18 50.13 50.99 50.73 51.01 52.51 52.03 49.81 50.18 50.04 49.81

GFSSGP_sfc_wetblb_096.txt.gz
Wetbulb
66.40 67.13 65.87 59.06 48.41 45.63 42.02 43.88 48.76 48.08 50.06 53.15 53.48 52.15 53.64 61.34 58.94 54.32 67.89 70.49 72.04 71.96 73.54 74.46 75.41 75.49 75.62 75.51 74.85 74.42 74.07 73.53 73.21 72.48 71.68 71.52 71.44 71.36 71.39 71.46 71.52 71.17 70.51 69.91 69.52 69.07 68.73 68.81 68.65
63.16 64.49 61.68 54.38 44.39 39.41 41.12 47.97 46.52 49.29 51.82 53.27 53.37 52.77 53.95 59.15 64.86 65.03 65.29 71.41 71.61 72.34 72.60 73.47 75.23 75.60 75.68 75.22 74.64 74.44 74.11 73.66 73.41 72.76 72.31 71.27 70.84 70.59 70.55 70.70 70.81 70.53 70.21 70.07 70.16 69.90 69.36 69.69 70.40
62.50 62.88 54.45 48.67 44.78 40.51 42.11 48.35 49.08 51.05 53.49 52.28 50.51 53.75 56.97 60.80 65.77 65.96 68.92 71.64 71.24 71.47 72.13 73.40 74.83 75.43 75.15 74.72 74.55 74.42 74.21 73.92 73.68 72.97 72.60 72.23 70.64 69.71 69.71 70.10 69.93 69.70 69.99 69.78 69.99 70.19 70.15 70.25 70.91
59.51 59.47 56.04 45.63 43.09 46.65 47.49 49.59 50.87 51.47 52.52 52.49 52.64 55.17 64.21 67.02 66.19 68.23 69.84 71.66 70.40 70.73 72.49 73.53 74.53 74.74 74.59 74.51 74.53 74.57 74.42 74.24 73.97 73.26 72.96 72.57 70.60 69.17 69.53 69.71 70.24 70.54 70.09 70.51 71.06 71.13 70.74 70.74 70.92
58.81 55.61 46.25 44.48 44.37 48.53 50.81 52.44 52.59 50.62 51.56 51.97 52.64 55.32 61.31 65.88 69.35 69.16 69.68 71.64 69.73 70.57 71.94 73.34 74.71 74.74 74.64 74.37 74.25 74.12 74.43 74.35 73.95 73.54 73.17 72.05 70.66 69.06 69.35 69.69 70.72 70.55 70.33 70.40 70.99 70.72 70.73 70.64 70.62
52.23 52.96 43.29 40.92 45.01 48.78 51.45 52.44 52.18 51.34 52.19 52.84 50.86 55.63 61.53 66.48 67.31 68.42 69.51 70.52 70.79 70.97 71.39 72.61 73.37 73.96 74.30 74.33 73.89 73.94 74.05 74.04 73.67 73.23 72.77 72.63 70.71 69.45 68.82 69.58 70.26 70.23 69.84 69.82 70.22 70.34 70.24 70.15 69.86
49.94 47.61 43.36 43.82 44.94 47.20 50.29 52.61 49.19 50.58 51.35 51.17 55.06 51.25 62.09 65.79 68.66 68.66 69.06 69.90 71.92 71.68 71.21 71.76 72.65 72.93 73.17 73.45 73.48 73.60 73.51 72.88 72.58 72.34 72.46 72.36 71.04 70.63 69.52 69.72 70.26 69.75 69.63 69.39 69.43 70.10 69.63 69.01 68.18
51.87 49.24 44.33 45.40 44.32 45.59 52.05 51.79 52.28 51.42 50.81 55.59 57.41 55.48 59.62 65.95 69.69 69.00 69.48 70.40 71.52 71.33 71.23 71.12 71.50 72.12 72.31 72.00 72.49 72.23 71.61 71.42 71.51 70.79 69.56 69.39 69.53 69.89 70.47 69.25 69.51 70.19 69.85 69.70 69.54 68.75 69.36 68.67 67.67
53.90 44.89 42.01 44.26 45.82 47.53 52.72 50.42 53.67 54.56 52.50 55.29 57.64 60.40 65.66 68.12 69.73 68.26 67.60 67.71 70.11 70.41 70.47 71.30 70.87 71.15 71.68 71.27 71.06 70.91 70.32 69.85 69.16 68.08 66.94 66.40 68.45 68.92 68.39 67.77 68.42 69.21 69.46 69.35 68.74 68.11 67.66 67.24 66.50
47.51 43.02 43.64 49.55 50.30 48.92 51.35 51.55 52.08 51.58 51.79 52.72 57.84 62.01 66.70 67.24 68.14 66.75 65.64 65.22 66.97 68.37 69.30 70.12 70.58 70.60 71.37 71.22 69.89 69.95 69.32 68.06 67.26 66.73 65.24 65.11 64.06 68.60 69.31 67.10 68.00 69.24 68.69 68.49 68.48 67.99 67.19 65.32 62.53
46.61 42.19 47.46 49.87 51.68 51.71 51.35 51.70 53.69 50.72 49.23 52.81 55.48 60.05 64.31 66.09 66.03 66.22 66.00 66.09 67.34 68.19 68.62 70.32 70.52 71.13 70.45 69.85 69.47 69.77 68.65 68.16 67.34 66.27 65.05 64.43 63.95 66.57 68.79 67.48 67.95 67.21 66.38 66.67 66.73 65.29 63.30 61.03 60.68
42.97 46.26 47.84 50.40 50.52 50.73 49.19 52.07 50.99 51.31 51.14 55.56 58.57 61.73 64.42 64.99 65.09 65.42 66.23 65.49 67.05 67.77 69.08 69.40 70.77 70.45 69.89 70.33 69.79 68.89 67.83 67.85 65.78 64.52 64.14 63.20 63.39 62.68 66.97 67.07 67.05 66.64 66.56 66.93 65.72 64.72 64.20 63.64 62.17
43.63 45.29 47.74 49.31 49.51 50.31 52.03 50.20 50.11 51.20 54.25 55.88 59.30 60.94 60.97 64.13 63.97 65.45 66.75 67.36 66.86 67.36 68.47 69.51 70.27 69.84 69.92 69.57 69.24 68.27 67.73 66.77 65.27 63.20 61.73 63.11 62.78 62.25 61.99 66.61 67.00 66.05 65.82 65.68 64.99 64.59 63.57 63.39 62.71
45.38 45.09 46.68 48.07 48.13 49.48 48.86 49.86 51.34 51.82 54.83 53.14 56.44 55.82 58.32 59.86 63.25 63.06 64.40 65.18 66.43 67.72 67.54 69.32 69.21 69.61 69.70 68.36 68.83 67.64 68.15 66.62 65.90 64.59 62.83 61.79 62.45 62.88 62.61 63.40 65.33 65.02 66.06 65.32 64.18 62.98 62.13 61.81 62.06
44.25 40.62 44.63 44.93 47.58 47.41 49.61 46.13 47.03 52.23 53.33 53.42 53.78 53.59 55.49 58.08 59.91 62.81 63.82 64.32 66.67 67.15 68.14 68.41 68.36 69.62 69.07 68.44 68.38 68.02 67.93 67.90 67.25 65.48 64.91 63.56 62.60 61.86 63.26 63.29 63.37 63.37 63.35 62.80 62.68 61.93 61.33 60.13 60.44
39.62 39.99 36.03 42.42 46.48 48.00 46.73 40.19 48.41 52.10 51.13 50.31 52.59 51.86 53.65 55.73 57.09 59.02 61.13 64.77 66.25 67.12 67.19 68.24 69.71 68.92 68.81 68.21 68.42 68.65 68.18 67.35 67.47 66.41 65.63 65.60 64.86 64.34 63.20 62.66 62.02 62.83 62.42 61.77 61.44 61.16 60.56 59.71 59.34
36.87 32.78 34.89 38.13 45.72 45.45 44.89 40.38 47.46 50.70 49.99 50.30 50.46 50.81 53.24 54.08 55.08 56.58 60.87 63.40 66.31 67.41 67.53 67.55 68.13 68.19 68.42 68.51 68.99 68.33 68.24 67.98 67.84 67.49 66.10 66.62 66.09 65.57 64.27 63.74 62.56 61.63 61.71 61.51 61.92 60.94 60.42 59.68 59.72
30.27 30.82 34.87 35.86 40.90 43.55 41.16 41.34 45.97 48.37 48.47 47.48 49.59 49.55 51.17 53.96 54.71 55.78 59.70 63.44 65.41 66.49 67.54 67.76 67.99 67.99 68.12 68.11 67.63 68.17 68.49 68.14 68.07 67.37 67.07 67.54 67.04 65.81 65.06 64.55 64.05 62.11 61.58 61.27 61.40 61.10 60.96 60.19 59.94
36.21 34.92 34.43 38.28 42.71 40.78 40.52 41.34 44.27 46.96 48.32 46.99 47.98 49.19 49.70 51.51 54.00 56.11 57.63 62.20 64.16 64.58 65.64 66.89 67.20 67.51 68.27 67.99 66.11 65.64 65.07 66.62 67.48 67.52 67.36 67.37 67.37 66.57 65.54 65.18 64.84 64.32 62.54 62.03 61.90 61.62 60.89 60.18 60.57
35.33 35.52 34.58 39.42 42.60 41.32 40.89 40.70 44.56 45.31 46.56 46.74 48.16 48.33 48.97 49.92 52.50 53.81 56.12 59.63 62.48 63.13 64.08 65.89 66.93 67.18 67.67 67.43 67.67 66.39 65.74 65.76 65.74 66.86 67.19 67.74 67.74 67.46 66.55 65.45 65.11 64.87 64.03 63.41 62.92 62.14 60.82 60.82 61.26
34.08 33.38 35.78 35.42 40.72 42.51 40.22 38.10 41.73 45.02 46.28 47.05 48.86 49.04 49.48 49.69 50.38 52.24 53.92 56.07 61.07 62.17 63.37 64.66 65.84 66.62 67.53 67.55 66.43 65.66 65.39 65.28 65.00 65.76 65.91 66.63 67.12 66.81 66.82 66.03 65.03 64.82 64.50 63.51 63.38 62.86 61.40 59.58 60.40
31.39 38.17 36.67 38.15 35.97 32.34 39.98 28.47 37.99 41.40 43.85 45.59 45.41 46.39 46.44 48.18 50.12 52.14 53.62 54.32 59.28 61.84 63.28 63.87 63.69 64.95 66.36 66.42 65.40 63.54 62.94 61.98 62.98 64.11 65.31 65.84 66.17 65.80 65.78 65.66 65.48 64.97 64.60 63.73 63.08 63.76 62.05 61.15 59.76
34.25 38.67 38.60 38.13 36.02 35.02 35.50 31.10 34.94 41.97 40.17 43.07 45.36 46.21 47.46 48.28 49.43 51.31 52.52 54.01 53.84 54.97 56.20 61.42 63.67 63.77 64.81 64.82 64.21 63.52 62.80 62.57 62.56 63.55 64.32 64.84 65.76 65.77 65.15 65.12 64.87 64.54 64.44 64.42 64.13 63.21 63.20 62.51 60.94
39.02 38.24 38.57 37.77 35.34 27.64 32.99 31.46 30.73 35.82 40.27 41.90 45.53 46.76 47.97 48.14 49.59 52.12 54.07 54.38 52.89 52.92 53.07 53.41 59.39 61.98 63.41 63.66 62.38 61.08 61.65 61.38 62.16 62.32 62.32 63.56 64.74 65.24 65.11 65.09 64.60 64.44 64.16 63.91 63.60 63.75 63.27 62.02 61.79
36.07 34.22 27.87 26.57 26.26 26.28 34.80 31.48 32.58 39.69 43.46 44.16 45.17 46.11 47.79 47.79 49.56 51.20 52.25 51.55 51.60 51.69 52.43 53.15 53.53 54.22 58.71 61.16 62.43 62.08 60.29 60.74 60.12 61.24 60.95 59.93 59.59 60.65 63.12 64.03 63.47 63.33 63.99 64.07 64.40 63.52 63.28 63.31 62.79
33.40 33.52 28.03 18.86 20.07 23.84 34.30 29.61 32.48 40.17 42.84 44.11 44.68 45.27 47.29 47.76 49.11 50.96 51.66 51.17 51.03 51.90 51.54 50.87 51.67 50.69 52.91 54.03 55.41 56.46 59.08 58.26 57.02 57.25 57.60 58.44 59.00 58.71 59.08 58.57 58.96 60.01 61.50 62.59 62.93 62.98 63.19 63.00 62.47
33.47 31.13 35.71 29.95 30.00 25.37 28.33 30.06 36.34 40.30 40.68 41.33 41.58 44.47 43.53 44.73 47.94 50.11 50.98 51.39 51.06 50.34 49.93 49.63 50.02 50.86 51.28 51.79 50.82 51.30 51.53 51.33 51.60 52.03 53.25 53.31 53.95 54.59 54.88 56.07 56.40 57.01 57.88 58.37 60.03 60.85 61.65 61.75 61.11
34.58 35.64 30.68 31.58 23.23 23.53 26.16 26.72 31.18 36.20 37.60 40.62 40.25 41.39 42.24 43.66 44.80 46.42 49.20 50.31 51.47 49.98 50.06 50.34 50.42 50.27 51.71 52.18 51.18 51.72 51.16 51.48 51.67 51.42 51.25 51.15 51.81 52.56 53.12 54.08 54.49 54.79 54.89 54.75 55.35 56.42 55.16 55.30 53.51
32.01 30.67 34.28 34.20 30.52 22.74 20.91 25.33 35.43 36.45 39.77 39.81 40.51 42.03 43.58 44.15 45.73 45.90 46.80 48.84 49.87 49.38 49.25 48.84 49.47 50.04 50.35 50.90 50.99 49.91 49.50 48.68 48.05 47.56 47.17 47.18 47.31 48.01 49.59 50.14 50.68 51.24 51.53 51.89 52.56 52.89 52.76 52.30 51.24
37.22 33.44 34.70 29.85 28.58 29.55 28.65 25.73 39.06 39.39 40.94 41.98 42.77 43.76 42.85 44.85 45.37 45.82 45.72 47.36 47.68 47.82 48.31 48.01 48.16 47.88 47.66 48.15 48.66 48.35 47.97 47.80 46.15 45.32 45.01 45.96 45.46 45.75 45.67 46.68 47.69 47.95 47.97 49.14 50.96 49.92 50.54 50.16 49.85

GFSSGP_sfc_wetblb_099.txt.gz
Wetbulb
63.58 64.61 64.25 57.98 47.09 42.48 37.58 40.01 44.38 45.93 46.11 51.43 50.44 58.24 59.05 60.61 58.70 53.82 67.92 71.34 72.10 72.46 73.87 74.36 75.48 75.42 75.41 74.83 74.31 73.81 73.41 72.88 72.76 72.46 71.63 72.17 72.30 72.24 72.28 71.72 71.00 70.49 69.93 69.48 69.25 69.21 68.92 68.74 69.53
61.33 61.77 60.17 51.95 41.92 35.79 36.31 43.52 44.11 46.83 49.47 49.69 52.95 54.02 58.64 58.35 63.43 64.85 67.56 71.60 72.39 72.86 73.26 73.63 74.91 75.23 74.97 74.53 74.16 73.81 73.58 73.06 72.70 72.64 71.84 71.13 71.16 71.32 71.37 71.02 70.65 70.27 70.01 69.64 69.38 69.73 70.08 70.38 71.09
61.33 61.81 53.74 46.48 40.50 37.69 37.51 44.79 47.56 49.70 50.49 50.07 49.30 59.35 60.33 60.13 64.84 65.67 70.26 71.58 72.24 72.03 72.89 73.59 74.73 75.11 74.83 74.35 73.98 73.87 73.65 73.05 72.79 72.46 71.89 70.74 70.33 70.63 70.67 70.25 69.77 69.73 70.12 70.15 70.10 70.58 70.96 71.35 71.43
58.27 57.83 55.64 43.00 40.05 43.80 43.52 46.38 49.66 49.91 49.89 50.57 54.14 59.59 63.13 65.86 65.75 68.11 70.77 71.53 70.58 71.20 72.38 73.92 74.72 74.95 74.29 74.03 74.21 74.11 73.96 73.32 72.92 72.72 71.77 70.52 69.74 70.05 69.80 69.70 70.46 70.70 70.84 70.64 70.73 70.95 71.06 71.02 70.97
57.97 54.06 47.15 42.49 42.00 44.05 46.75 50.64 50.58 49.11 48.96 49.87 50.69 58.27 60.01 65.12 67.77 69.45 70.00 70.67 69.64 70.65 72.04 73.32 74.55 74.32 74.13 74.36 74.02 74.02 73.91 73.63 73.10 72.95 70.99 69.46 69.53 69.64 70.02 70.04 70.45 70.61 71.84 71.03 71.01 70.97 71.00 70.72 70.36
50.84 52.03 42.56 40.25 42.41 46.06 47.19 51.97 50.86 49.33 49.97 50.20 51.82 58.78 58.94 65.74 66.26 68.29 69.71 69.60 71.18 70.62 71.65 72.78 72.84 73.49 73.77 73.87 73.75 73.65 73.66 73.45 73.17 73.12 71.39 69.59 69.15 69.74 69.98 70.00 70.56 70.43 70.58 70.63 70.40 70.65 70.57 70.16 69.37
48.08 46.92 43.31 41.59 42.46 44.32 47.75 52.49 48.71 49.03 49.09 49.95 53.35 56.19 60.58 63.38 66.46 67.40 69.45 70.25 70.73 71.07 71.42 72.14 72.23 72.51 72.69 72.89 73.11 73.41 73.61 73.10 72.94 72.80 71.89 70.62 69.53 69.87 69.78 70.33 70.48 69.82 69.87 70.26 70.20 69.83 69.36 68.64 67.56
50.68 48.95 43.78 42.84 41.71 43.18 50.44 51.41 50.94 49.51 49.23 55.95 57.05 56.53 59.41 64.10 67.26 68.72 69.85 69.56 69.60 70.40 71.22 71.19 71.54 72.28 71.98 71.81 71.95 72.00 71.82 71.43 71.67 71.34 70.31 68.87 68.58 68.72 69.83 69.49 69.85 69.96 69.51 69.51 70.01 69.62 68.72 67.90 66.98
50.92 43.49 41.45 42.79 42.93 46.01 50.66 49.32 51.70 52.39 51.80 57.40 59.58 61.18 64.55 67.49 67.67 68.20 68.62 68.61 68.30 69.63 70.19 70.58 70.77 71.16 71.09 71.30 70.60 70.30 69.86 69.39 68.79 68.26 67.86 67.50 68.16 67.79 66.78 67.02 68.51 69.50 69.66 69.22 68.58 68.53 68.46 67.54 66.57
46.40 42.24 41.23 46.84 47.10 46.07 50.01 50.58 51.77 52.20 51.75 56.20 58.68 64.60 66.91 67.33 66.32 65.71 66.56 67.27 67.37 67.88 69.15 70.10 70.21 70.48 70.36 71.08 69.41 69.26 68.55 66.83 66.05 65.44 65.72 66.27 67.75 67.05 67.56 65.89 67.28 68.86 68.58 68.69 68.53 67.82 67.16 64.87 61.75
44.69 40.76 45.85 46.95 48.95 50.95 49.75 50.74 52.87 50.09 48.33 55.53 57.90 62.61 65.15 66.23 65.67 65.10 64.89 67.20 67.32 67.62 69.10 69.57 69.77 70.37 69.81 69.09 68.83 68.07 67.33 66.20 65.44 64.38 64.05 63.40 65.88 66.47 66.67 65.90 65.87 65.26 65.12 65.58 65.95 64.94 63.18 61.56 61.07
41.16 44.73 46.24 48.59 51.09 50.28 48.92 51.35 50.92 51.02 49.63 57.68 60.20 64.25 64.53 64.90 65.06 64.11 64.86 65.61 66.88 67.57 68.24 69.21 69.89 69.69 68.95 68.76 68.80 67.89 67.07 66.21 65.18 64.65 64.01 61.69 63.36 66.81 67.14 65.91 65.64 65.08 65.15 64.32 64.01 62.90 61.81 61.18 59.86
40.98 43.61 46.23 47.88 49.41 48.91 51.15 49.56 49.50 50.35 53.74 55.28 61.65 63.59 63.56 63.93 64.58 65.71 65.01 66.37 66.86 66.99 68.35 69.01 69.23 69.19 68.80 68.46 69.23 67.66 66.53 66.07 65.52 63.43 61.86 63.05 63.58 64.95 66.08 65.45 65.72 65.11 64.98 65.01 63.99 64.04 63.53 62.09 61.51
43.55 43.64 44.05 46.85 47.96 48.31 48.56 49.51 50.84 52.07 54.13 53.45 59.58 60.74 62.35 63.40 63.54 63.62 65.21 65.23 66.46 66.97 68.00 69.37 68.96 69.29 69.68 68.02 68.58 66.62 66.06 65.22 63.19 61.27 60.12 62.14 62.10 61.32 62.75 65.54 65.55 64.70 64.68 64.84 64.00 63.21 61.60 61.68 61.22
43.02 39.50 43.28 45.59 46.95 47.04 49.68 45.75 47.15 52.27 53.73 52.53 54.92 56.07 59.03 62.42 62.89 63.51 63.86 65.02 66.64 66.79 67.37 68.21 68.44 68.73 67.74 68.11 68.47 66.30 66.19 66.27 63.41 62.48 61.54 60.59 61.44 61.30 61.11 64.11 63.75 63.79 64.30 64.09 62.72 60.91 59.82 58.91 59.21
39.97 39.37 35.01 42.56 45.21 47.28 47.65 39.29 47.99 51.97 51.50 50.79 52.11 50.32 55.47 58.29 61.86 61.99 63.54 63.83 65.95 65.95 66.47 67.44 69.07 68.51 68.22 68.04 68.02 67.60 65.86 65.36 65.13 63.89 63.17 62.73 62.21 62.14 61.40 61.59 61.85 62.14 61.70 60.59 60.36 59.94 59.20 58.52 57.70
35.97 33.24 33.20 38.18 45.13 45.98 44.30 40.47 47.00 51.41 50.65 49.42 49.88 50.54 52.50 53.79 55.20 57.43 62.24 63.85 65.05 66.90 66.16 67.00 68.25 67.92 67.71 67.98 68.21 68.07 68.19 65.66 65.12 64.79 63.87 63.99 63.83 63.66 62.40 62.14 60.90 61.05 60.75 60.24 60.62 59.62 59.18 58.26 57.86
29.91 31.82 34.05 34.91 41.33 44.30 41.28 41.11 45.09 49.55 49.54 48.66 49.60 49.46 49.74 52.29 52.97 55.84 59.00 63.16 65.04 66.05 66.68 66.58 67.12 67.29 67.67 67.46 67.53 68.14 68.04 66.94 66.55 65.48 66.08 65.07 64.73 64.24 63.36 63.05 62.73 60.37 60.29 60.21 60.36 59.78 59.38 59.02 59.00
35.06 33.43 32.73 35.57 41.75 41.63 41.00 41.27 43.07 47.18 48.26 47.76 48.47 50.52 47.28 50.68 53.10 54.73 58.99 61.54 64.30 65.51 65.45 66.46 66.46 66.70 66.93 66.43 65.41 65.10 65.78 66.63 66.79 66.85 66.98 66.64 66.27 64.60 63.95 63.81 63.12 61.22 60.59 60.51 60.83 60.79 60.14 59.31 59.56
34.65 33.36 32.49 36.70 40.87 39.79 39.33 39.67 43.64 44.73 45.43 47.69 47.93 48.29 47.02 47.69 49.83 52.54 57.14 60.35 62.59 63.14 65.31 64.74 66.04 66.78 67.19 67.36 66.06 65.65 64.68 64.90 65.85 67.05 66.87 67.05 66.57 65.63 64.74 64.10 63.83 63.54 61.70 61.13 61.04 60.71 59.88 59.92 60.05
33.39 33.73 32.99 33.73 38.84 39.88 38.26 36.98 40.38 44.68 44.66 46.44 47.55 47.99 47.73 48.31 49.04 52.55 54.58 58.42 60.67 61.26 62.40 65.16 66.01 66.35 66.40 66.60 64.99 64.51 64.23 64.19 64.62 64.43 65.47 65.22 66.19 66.39 65.90 64.93 64.77 64.12 64.05 62.63 62.24 61.66 60.57 58.94 59.32
31.97 37.77 36.37 37.39 35.26 30.64 38.82 28.28 36.92 40.97 42.60 44.25 44.17 44.88 46.34 46.73 48.70 51.98 54.91 56.44 59.33 60.66 62.07 63.91 64.77 65.48 66.25 65.34 65.18 63.30 62.47 61.84 63.55 64.53 64.96 65.25 65.40 65.69 65.93 65.73 65.28 64.84 64.84 63.99 63.15 63.41 62.16 60.70 59.11
34.43 38.52 38.07 36.83 34.13 32.43 34.94 31.89 34.05 40.09 39.52 41.47 44.06 43.89 45.31 45.90 47.08 49.33 51.50 56.98 59.22 60.39 60.03 61.23 62.39 64.17 64.95 64.97 63.61 62.24 61.43 61.03 62.26 62.50 63.25 63.97 64.49 65.14 65.02 64.79 64.64 64.46 64.16 63.95 63.70 63.45 62.71 62.31 61.14
38.88 38.36 38.14 37.28 35.38 25.14 32.34 31.20 28.65 36.30 39.83 39.21 41.54 43.81 45.76 46.72 47.32 49.00 52.75 53.79 53.11 53.73 53.88 57.35 60.41 61.85 62.80 62.65 61.68 60.65 58.69 59.19 60.08 60.87 61.39 61.94 63.52 64.01 64.80 64.26 63.68 63.25 63.42 63.19 63.38 63.47 63.14 63.01 62.56
35.91 33.77 27.48 25.93 26.46 22.35 33.96 30.57 31.62 37.19 41.78 42.83 42.76 43.02 44.84 46.08 47.54 48.45 50.10 49.41 49.87 50.58 51.54 53.64 56.82 58.42 59.93 59.12 58.31 58.60 58.58 58.66 59.35 60.15 60.18 59.02 58.93 59.50 62.95 63.67 63.26 62.64 63.13 63.12 63.29 62.77 62.00 61.95 61.08
33.57 32.79 24.56 21.49 22.17 21.98 33.24 27.16 31.70 38.52 39.62 44.17 43.66 43.89 45.53 45.86 45.43 48.64 50.62 50.24 50.33 49.89 50.17 51.30 53.05 53.41 56.49 58.53 58.46 58.42 58.48 58.05 57.79 57.92 57.05 57.45 57.73 58.29 60.54 60.18 60.52 61.25 62.18 62.64 62.50 61.74 62.05 61.53 61.18
33.76 30.14 35.72 29.79 28.40 22.46 27.36 29.64 34.64 37.50 38.52 40.10 41.06 42.06 42.60 44.57 45.58 48.23 49.86 50.75 49.36 49.56 50.08 49.10 49.98 50.30 51.86 52.41 50.23 50.82 51.82 52.50 51.36 51.60 52.54 53.04 54.02 54.56 54.29 55.46 55.58 55.93 56.75 57.00 57.72 58.31 58.92 59.35 60.14
34.88 35.79 29.85 29.19 21.62 20.84 22.39 23.90 27.08 32.14 35.72 39.52 40.24 41.39 42.35 43.44 45.30 47.42 50.75 50.12 49.42 49.81 48.80 48.44 48.80 48.73 49.35 49.80 49.84 49.99 49.97 50.41 50.55 51.18 51.05 51.31 51.96 52.33 52.98 53.30 53.46 53.44 53.42 53.18 53.84 54.15 53.98 55.66 55.02
30.12 28.75 33.34 33.38 27.24 22.10 18.53 23.02 33.99 33.64 36.11 36.77 37.56 40.87 42.39 42.81 43.84 44.63 46.22 47.81 48.53 47.80 47.36 47.11 48.05 48.41 48.62 48.64 48.48 48.63 49.69 49.00 48.64 47.86 47.98 48.28 47.69 48.65 48.90 49.46 50.04 50.04 50.28 51.10 50.98 51.35 52.37 53.19 52.53
33.83 31.61 35.25 25.03 26.35 24.47 20.69 23.85 37.03 37.24 38.47 40.12 40.53 42.20 42.25 43.85 43.53 43.75 45.62 46.29 46.73 46.46 46.39 46.90 47.35 47.75 47.66 47.44 47.39 47.39 48.34 48.26 46.98 46.54 45.99 46.14 44.97 45.32 45.73 46.33 46.96 46.93 47.02 47.63 49.22 49.06 49.27 51.24 51.05

GFSSGP_sfc_wetblb_102.txt.gz
Wetbulb
61.52 62.78 62.02 58.76 46.18 41.96 37.05 40.22 43.70 44.86 46.20 50.57 50.47 56.55 56.33 58.03 55.82 52.29 68.26 70.39 72.16 72.80 74.07 74.31 75.33 75.13 74.72 73.96 73.27 73.06 72.65 72.64 73.05 73.15 73.63 73.69 73.44 72.73 72.06 71.31 70.66 70.24 69.80 69.59 69.41 69.53 70.20 71.29 71.72
60.29 60.82 59.69 52.27 41.00 34.74 35.82 41.12 42.92 46.55 47.91 49.99 58.78 57.98 57.77 57.86 63.78 67.07 68.36 71.14 72.35 72.92 73.53 73.86 74.82 74.89 74.41 73.97 73.22 72.93 72.77 72.52 72.51 72.42 72.59 72.55 72.33 71.82 71.10 70.58 69.95 69.48 69.34 69.25 69.23 69.77 71.20 71.54 71.68
61.63 60.80 53.55 46.00 40.20 36.90 36.63 42.57 46.23 48.09 50.52 48.84 54.20 61.62 59.98 59.65 66.54 67.41 70.59 71.67 72.18 72.05 72.70 73.42 74.58 74.37 74.19 73.78 73.50 73.15 72.63 72.50 72.03 72.07 72.08 72.34 71.69 71.08 70.63 70.31 69.91 69.89 69.75 69.95 70.43 71.34 71.51 71.55 71.54
58.54 56.39 54.25 43.78 39.75 42.81 41.28 44.39 47.52 48.13 50.40 50.89 56.24 58.85 62.98 65.04 64.92 69.64 71.38 71.70 71.27 71.45 72.09 73.32 74.04 74.17 73.81 73.63 73.58 73.13 72.92 72.03 70.76 70.78 71.37 71.68 70.72 70.21 69.80 69.69 70.08 70.86 70.89 70.90 71.01 71.35 71.23 70.90 70.87
55.40 53.25 44.91 42.76 41.67 43.03 44.69 49.10 49.74 48.14 48.27 49.58 57.30 58.04 60.21 64.41 67.92 70.56 70.91 71.20 70.74 71.27 72.07 72.86 74.08 73.77 73.89 73.86 73.70 73.16 72.77 72.40 70.72 69.80 69.87 70.05 69.82 69.67 69.52 69.75 70.33 70.87 71.57 71.04 71.14 71.07 70.88 70.24 70.34
46.91 51.24 43.40 40.04 41.43 45.76 44.75 50.41 50.15 48.91 48.59 48.53 58.24 58.31 59.47 65.53 68.52 70.04 70.35 70.18 71.14 71.17 71.86 72.51 72.75 72.99 73.54 73.62 73.63 73.25 72.88 72.92 72.00 70.53 69.56 69.62 69.81 69.71 69.80 70.44 71.42 71.43 70.87 70.89 70.89 70.76 70.43 69.46 68.94
43.73 45.27 41.40 42.95 42.08 43.35 45.70 50.98 49.13 48.22 48.65 49.17 58.26 55.87 60.45 64.19 67.92 69.57 69.28 70.32 70.69 71.16 71.07 71.68 71.62 72.04 72.19 72.58 72.72 72.85 72.64 72.55 71.95 70.83 70.13 69.98 70.06 70.18 69.81 70.23 70.84 70.83 70.44 70.31 70.37 70.10 69.45 68.23 67.74
46.30 44.75 41.99 43.42 41.70 41.82 48.23 50.54 52.30 50.88 49.21 54.71 60.25 56.13 58.78 63.30 67.39 68.29 69.76 69.56 69.88 70.43 70.86 70.56 70.80 71.12 71.22 71.62 71.89 71.98 71.88 71.45 71.45 70.23 68.96 68.23 68.24 69.07 70.03 69.49 69.74 70.25 70.59 70.18 69.74 68.94 68.16 67.51 67.43
48.65 41.41 37.32 41.75 43.19 44.01 50.09 49.53 50.55 53.07 52.39 57.62 58.78 59.82 63.46 66.13 66.68 67.75 67.91 68.31 68.80 69.82 70.29 70.42 70.46 70.64 70.59 70.82 70.76 70.67 70.26 69.98 69.85 68.60 67.04 66.44 66.21 66.80 66.92 67.32 68.57 69.42 69.67 69.84 69.55 68.85 68.10 66.94 65.96
43.97 38.90 40.15 45.60 46.78 45.89 49.86 50.69 50.81 54.07 54.95 56.94 61.37 64.13 65.66 66.46 66.09 66.02 66.25 66.38 67.31 68.24 69.30 70.05 70.25 70.13 70.25 70.60 68.94 67.63 67.87 67.12 67.42 67.45 66.57 66.73 65.71 65.25 66.41 65.93 67.52 69.09 68.83 68.70 68.50 68.08 67.29 64.33 60.85
43.16 37.68 43.71 46.97 48.02 49.45 49.58 49.90 53.23 53.03 51.14 56.02 59.32 62.69 64.16 65.18 65.46 65.72 65.75 66.57 67.06 68.34 69.08 69.66 69.69 69.93 69.66 68.50 67.91 66.76 65.79 64.93 64.76 65.49 65.54 66.07 65.89 65.02 64.58 64.09 64.79 64.14 64.43 64.96 65.74 64.50 62.53 60.74 60.41
39.07 43.43 44.59 47.42 49.94 50.20 48.66 50.99 50.66 51.17 49.27 55.06 62.81 64.15 64.65 63.38 65.01 65.96 66.13 66.26 67.05 67.73 68.58 69.40 69.80 69.35 68.73 68.29 67.23 66.28 65.35 64.53 63.83 63.54 64.15 63.89 64.50 64.75 63.92 63.56 63.55 63.19 63.44 62.70 62.15 61.01 60.08 59.42 59.51
39.85 41.62 44.79 47.31 48.80 49.13 50.56 49.50 50.54 50.49 53.16 53.83 60.11 63.41 62.88 63.40 64.13 65.16 66.69 67.34 67.14 67.31 68.07 68.86 69.61 68.75 67.96 67.71 67.28 66.49 65.51 65.35 64.78 63.67 63.60 62.12 65.04 65.51 64.87 64.11 63.84 63.50 63.43 63.01 62.37 62.36 62.02 61.50 60.58
41.90 42.82 43.25 45.57 47.15 48.26 46.89 49.23 50.48 51.28 53.42 52.44 56.53 60.06 62.21 62.95 63.36 63.35 64.36 66.09 66.56 67.46 67.68 68.90 69.20 68.50 67.94 67.85 67.34 66.68 66.30 66.05 64.68 62.72 63.15 62.00 64.96 65.99 65.33 64.39 64.23 63.58 63.76 63.85 63.38 63.01 63.07 62.32 60.74
41.25 39.49 41.69 43.60 45.86 45.74 47.68 45.82 47.21 52.01 52.71 50.90 50.52 53.03 59.89 61.61 62.68 63.39 64.63 66.28 66.78 67.32 68.07 68.18 68.78 68.54 67.70 67.95 67.32 66.49 66.41 65.31 64.19 61.85 61.52 62.27 63.15 64.14 64.32 64.52 63.96 64.14 63.84 63.92 63.45 62.49 60.04 59.19 58.95
39.48 39.51 33.84 42.44 44.99 46.67 45.86 38.23 48.07 51.95 51.51 50.06 49.69 49.46 52.86 60.22 61.81 61.98 63.93 64.76 65.90 66.20 66.97 68.23 69.07 68.22 67.95 67.67 66.97 66.24 65.75 63.62 63.15 61.51 61.00 61.03 61.81 61.22 60.53 63.48 63.57 63.72 63.08 62.74 61.61 59.45 58.21 57.67 56.96
36.62 32.03 32.77 37.84 45.37 44.36 42.49 40.04 46.89 51.46 51.18 49.06 49.46 48.85 50.17 56.04 59.15 60.78 62.56 63.97 65.49 66.41 66.79 67.47 67.94 67.57 67.76 67.72 67.42 66.93 65.77 64.06 63.43 62.37 61.60 60.94 60.92 61.45 61.08 61.18 62.32 61.71 60.84 59.81 59.81 58.79 58.64 57.73 57.08
29.31 31.26 32.57 34.49 41.51 43.61 40.00 40.26 45.03 49.84 49.82 49.10 49.02 48.68 49.05 52.45 56.62 58.37 61.51 63.23 64.67 65.46 66.93 67.62 67.92 67.77 66.74 66.44 66.54 66.17 65.79 64.56 64.13 63.21 62.66 62.85 62.44 62.38 61.35 61.51 60.42 60.05 59.72 59.28 59.46 58.90 58.55 58.27 58.12
33.24 32.91 32.29 35.17 42.15 41.71 40.16 40.55 44.95 48.41 48.65 47.67 48.88 49.05 49.79 50.15 54.45 55.61 59.05 62.42 63.95 64.43 65.14 66.00 66.37 66.41 67.14 66.54 65.32 65.05 64.33 65.37 65.60 65.70 64.50 64.36 64.18 63.20 62.38 62.16 61.95 59.56 59.52 59.67 59.81 59.89 59.27 58.62 58.77
34.08 31.48 32.11 36.40 40.54 41.04 39.92 39.34 42.84 46.85 46.65 47.35 47.96 48.26 49.50 50.49 50.58 52.45 57.15 60.24 63.07 64.22 65.05 64.45 65.48 66.49 67.06 66.89 66.10 65.24 64.54 64.75 65.97 66.70 66.44 66.06 65.58 64.84 63.36 62.68 62.30 61.53 59.96 59.93 60.08 60.09 59.54 59.66 59.54
33.21 31.61 32.57 33.27 38.67 39.52 38.63 36.87 40.22 43.65 46.57 47.61 48.39 48.79 49.77 49.17 49.60 49.92 54.86 58.59 61.04 62.13 63.69 64.63 65.37 66.08 66.68 66.38 64.83 64.16 64.44 64.01 63.91 64.70 65.79 66.08 66.33 65.91 65.18 63.65 63.64 63.52 62.23 61.09 61.04 61.05 60.30 59.12 59.42
29.27 36.45 35.41 34.72 33.89 30.48 38.24 27.83 35.67 39.42 41.76 43.69 45.99 47.82 48.58 48.84 48.04 50.20 53.23 57.16 59.14 61.47 62.44 63.82 64.66 65.32 65.73 65.31 65.28 64.18 64.04 62.37 63.70 64.29 63.95 64.75 65.75 65.60 65.01 64.76 64.86 64.65 64.13 63.17 62.65 63.07 61.94 60.79 59.20
33.59 39.32 36.19 35.59 32.95 32.26 34.65 30.19 32.54 38.46 38.55 41.74 44.24 45.38 47.07 46.07 46.23 49.60 52.73 57.92 59.90 59.48 61.31 62.15 63.09 63.72 63.86 64.46 64.01 62.86 61.34 61.94 62.40 63.07 63.13 63.35 64.26 64.72 64.49 64.74 64.35 64.26 64.18 63.97 63.59 63.03 62.50 62.10 60.85
38.84 37.89 37.78 37.08 33.96 24.43 32.17 31.43 29.82 35.71 38.49 42.01 43.47 44.27 45.93 45.68 45.31 47.99 51.69 55.55 57.08 56.86 57.81 59.72 61.03 62.15 63.06 62.78 61.35 61.42 60.22 59.51 60.18 59.92 60.56 62.08 62.77 63.50 63.86 63.96 63.67 63.48 63.10 62.73 62.84 62.61 62.34 62.32 61.86
35.83 33.96 26.88 25.87 25.81 20.77 33.30 32.49 32.90 36.81 41.72 43.82 43.66 43.48 45.43 46.35 45.23 47.21 49.25 52.84 53.71 54.17 55.33 58.29 59.85 59.92 60.02 60.49 60.37 59.42 59.29 59.43 59.66 60.09 60.02 59.35 59.20 59.24 62.28 63.10 62.64 61.79 62.72 62.62 61.95 62.04 61.89 61.61 61.09
33.11 32.22 26.84 21.51 19.08 24.84 34.13 27.91 31.84 37.87 40.59 44.25 45.15 44.39 45.31 44.74 45.11 47.22 48.90 51.18 52.59 52.83 52.64 55.73 57.66 58.74 57.99 57.66 57.57 57.15 57.30 57.66 57.74 58.40 58.48 58.09 57.19 57.09 59.06 60.79 59.65 59.41 59.21 60.64 60.25 60.17 61.24 61.47 60.79
32.79 29.72 35.28 26.98 25.75 22.49 27.42 30.19 34.63 37.32 37.68 39.22 41.87 42.28 42.29 43.59 44.27 47.30 48.67 50.51 49.52 49.49 51.36 54.09 55.32 55.46 56.70 56.87 56.31 55.96 55.73 55.39 54.18 53.05 53.63 53.72 54.09 55.16 55.93 56.40 56.45 56.74 57.09 57.03 57.12 57.01 56.84 57.08 58.16
33.89 35.88 26.15 26.63 21.46 17.96 22.68 23.43 27.19 31.80 34.30 36.51 38.42 39.93 40.81 42.42 43.09 45.63 48.76 49.94 49.17 49.24 49.37 49.12 51.70 52.84 53.74 53.59 53.31 53.21 53.02 52.07 50.94 51.21 51.04 51.11 51.25 52.09 52.65 52.75 52.91 53.73 54.20 53.22 53.33 53.39 53.32 52.35 53.40
31.57 30.57 31.64 32.72 24.99 19.10 17.24 22.05 31.26 32.31 34.57 36.33 36.16 38.48 39.19 40.19 42.00 44.91 47.31 47.88 48.46 48.00 47.98 47.57 47.89 48.40 49.21 49.27 48.96 49.47 49.10 49.38 49.62 49.48 49.18 49.11 49.58 49.90 49.33 50.44 50.48 50.24 50.03 49.74 50.38 51.02 51.25 51.41 51.81
32.82 30.35 32.46 21.06 23.53 20.98 17.53 23.43 34.26 33.82 36.17 37.95 38.23 40.28 40.89 41.26 41.19 42.73 45.78 46.33 46.63 46.87 46.30 46.77 46.61 47.06 47.11 46.90 47.05 46.83 46.90 46.74 46.39 45.99 46.18 45.62 44.80 44.91 46.21 45.99 46.23 46.07 46.07 46.43 47.57 48.56 48.43 48.82 51.71

GFSSGP_sfc_wetblb_105.txt.gz
Wetbulb
60.62 61.32 61.08 57.37 45.81 40.67 36.41 40.32 42.54 43.92 45.30 52.00 50.94 55.90 54.73 55.60 54.34 49.57 67.28 69.49 71.51 72.04 73.36 73.47 74.80 74.53 73.70 73.05 71.90 72.05 72.56 73.54 73.97 74.22 73.96 73.84 73.53 73.07 71.98 71.34 70.63 70.31 70.20 70.71 71.27 71.69 71.93 71.98 71.53
59.78 59.40 59.40 51.34 42.61 34.72 36.79 40.57 42.62 47.33 48.35 54.28 58.87 58.69 56.64 56.62 63.71 66.52 67.68 71.06 72.04 72.62 72.96 73.06 74.44 74.28 73.56 72.17 71.84 71.91 72.16 73.29 73.77 73.77 73.75 73.40 72.62 71.64 70.99 70.47 69.92 69.60 69.33 69.79 71.04 71.72 71.79 71.23 70.59
59.79 59.31 52.84 47.83 40.66 36.81 36.26 40.33 45.23 47.21 48.97 49.65 56.96 61.36 58.67 58.70 65.30 66.93 70.01 71.49 72.17 72.18 72.66 73.00 74.08 74.02 73.46 72.72 72.52 72.49 72.32 72.51 73.08 73.40 73.35 72.19 71.47 70.97 70.30 69.71 69.41 69.69 70.26 71.08 71.51 71.63 70.88 70.88 71.16
55.36 54.24 52.61 44.74 40.40 42.53 39.08 41.51 46.38 46.36 48.67 49.30 56.60 58.48 60.98 64.39 66.60 68.80 71.22 71.74 71.46 71.76 72.30 72.98 73.55 73.76 73.28 72.82 72.58 72.33 71.64 71.35 71.59 72.48 72.60 72.23 70.78 70.52 69.98 69.63 70.02 70.68 71.14 71.78 71.43 71.23 70.18 71.15 70.70
53.47 49.60 43.34 41.40 41.55 44.34 45.13 45.45 47.10 46.53 47.26 48.02 58.75 57.94 59.82 63.87 68.53 70.26 70.61 71.11 70.45 70.89 71.97 72.37 73.39 73.49 73.31 73.02 72.67 72.32 71.54 70.72 70.68 71.30 71.15 70.67 70.05 69.78 69.76 69.77 70.38 70.71 71.30 71.50 71.22 70.73 69.81 70.76 69.94
47.62 46.32 40.16 38.54 41.50 44.70 44.31 48.22 47.67 48.33 48.81 50.36 57.39 57.88 59.15 66.39 68.93 70.01 70.85 70.43 70.87 70.42 70.97 71.61 71.91 72.67 73.13 72.93 72.54 72.13 71.50 70.87 70.47 71.11 70.71 69.74 69.46 69.40 69.90 70.16 70.90 70.97 71.01 71.08 70.99 70.46 69.43 69.42 69.28
43.89 40.15 36.36 40.48 40.21 42.76 45.02 48.34 46.10 48.05 48.25 46.58 58.47 55.28 60.76 66.45 69.26 70.31 70.50 70.68 70.53 70.75 70.48 70.72 70.90 71.69 71.93 72.19 71.90 72.12 71.72 70.78 70.47 70.50 70.27 69.90 69.65 70.28 71.18 71.32 71.34 70.90 70.93 70.87 70.61 70.13 68.90 68.84 68.97
46.67 42.58 36.81 39.44 40.78 40.82 47.62 48.80 49.52 48.90 48.31 52.90 59.76 55.54 59.33 66.25 69.09 69.57 70.09 70.16 70.40 70.12 69.98 70.00 70.58 71.00 70.98 71.16 71.20 71.39 71.14 70.13 69.65 69.51 69.08 68.30 68.10 69.05 70.26 69.91 70.31 70.61 70.58 70.29 69.93 69.16 68.11 68.31 68.12
49.50 39.09 34.95 36.64 40.73 43.80 49.10 47.74 50.90 52.77 51.73 53.58 56.39 58.89 62.85 67.34 68.37 68.22 67.75 68.19 68.76 69.18 69.83 69.75 69.75 70.16 70.40 70.53 70.31 70.51 70.35 69.39 68.55 67.91 66.94 66.37 66.10 66.77 66.62 67.13 68.69 70.00 70.13 69.51 68.98 68.29 67.77 66.62 66.24
40.93 37.81 37.85 41.80 43.46 45.38 48.62 49.46 50.14 50.73 53.83 56.39 58.48 63.16 65.59 66.28 66.61 65.25 65.42 65.56 66.59 67.63 69.08 69.47 69.44 69.36 69.81 70.51 69.83 68.83 69.48 68.31 66.54 65.28 64.86 64.75 64.36 64.88 66.38 65.86 67.58 69.16 69.16 69.26 69.12 68.36 66.95 62.95 59.92
39.80 36.59 41.07 42.70 46.43 48.67 47.59 48.98 51.98 51.24 50.12 54.49 57.08 61.90 64.57 64.71 65.03 65.18 64.77 65.46 66.10 67.57 69.00 69.48 69.04 69.32 69.17 68.44 67.45 66.53 67.11 67.23 66.41 65.23 64.88 64.25 63.94 63.43 63.91 63.90 64.80 64.37 64.63 64.37 64.85 63.36 61.29 59.37 59.36
37.61 40.54 41.58 43.37 48.12 48.11 46.29 50.67 49.80 51.51 49.38 52.15 54.09 63.28 63.41 64.20 64.59 64.43 64.41 65.23 66.38 67.58 68.35 69.24 69.06 69.07 68.30 67.94 66.56 64.75 64.99 64.84 65.01 65.24 64.81 64.56 63.33 62.45 61.91 62.08 62.15 61.69 61.93 61.14 60.35 59.92 59.57 59.11 58.78
37.88 39.52 42.10 44.60 46.94 47.81 48.35 48.61 49.64 49.59 51.82 54.41 56.60 63.02 63.05 63.93 64.19 65.15 65.89 66.67 66.91 67.10 68.20 68.77 69.12 68.93 67.61 66.88 65.96 64.62 64.00 64.08 63.96 64.22 64.23 64.42 64.05 63.40 62.55 62.09 61.87 61.62 61.88 61.29 60.51 59.79 59.35 59.54 60.02
39.93 41.24 41.25 43.42 45.78 45.66 44.15 46.66 50.17 50.61 52.44 52.08 56.23 59.92 62.26 63.39 64.40 65.61 65.44 66.09 66.73 67.46 68.20 69.00 68.73 68.62 67.53 66.67 65.75 64.68 64.66 64.58 63.91 63.12 64.13 63.36 65.08 64.70 63.50 62.81 62.63 62.23 62.43 62.45 61.93 61.80 61.68 61.45 60.98
39.88 37.40 41.07 42.14 43.85 43.76 44.97 41.27 47.32 51.68 51.94 50.33 50.29 51.36 56.26 61.82 64.83 65.12 65.02 65.70 66.84 67.57 68.35 68.64 68.66 68.28 67.12 66.64 66.02 65.56 65.24 65.35 64.13 62.85 62.95 62.99 65.07 65.21 64.53 63.18 62.67 62.92 62.89 62.76 62.52 62.01 61.11 59.85 59.98
36.93 38.22 33.13 40.04 43.30 44.71 41.61 34.83 45.81 51.77 50.47 48.65 49.22 48.98 50.83 54.64 62.46 64.92 65.34 65.99 67.04 67.17 67.69 68.76 69.02 67.78 67.22 67.05 66.46 65.99 65.67 65.01 64.43 63.06 61.82 62.34 62.82 64.70 63.86 63.19 62.87 63.39 62.96 62.62 62.09 61.05 59.37 57.64 56.69
35.49 27.67 32.83 36.77 44.00 43.93 40.72 35.80 43.99 51.43 51.14 48.50 48.07 47.80 49.55 50.88 56.43 61.50 64.56 65.52 66.60 67.42 67.11 67.61 68.17 67.29 66.96 67.23 66.76 65.85 65.46 64.26 63.42 61.76 60.63 61.39 61.68 62.25 62.83 63.36 63.25 62.98 62.32 61.64 61.11 59.39 58.12 57.15 56.89
29.18 30.63 30.98 33.94 41.03 42.41 38.96 38.63 42.89 46.80 50.03 48.81 48.22 46.96 48.04 49.20 51.85 59.87 62.72 64.59 65.25 66.45 67.13 67.84 67.99 67.53 67.08 66.93 65.79 65.11 64.68 63.20 61.99 61.22 60.40 60.20 60.60 60.86 60.87 60.46 61.46 61.94 60.68 59.79 58.94 58.38 58.06 57.89 57.68
32.53 32.07 30.00 34.86 41.91 40.27 38.43 38.58 40.55 44.15 44.48 48.06 47.48 46.41 47.33 48.64 50.75 53.52 61.13 63.71 64.20 64.49 65.98 67.03 66.31 66.96 66.96 66.09 65.24 64.28 63.43 62.84 63.18 62.42 62.16 61.60 61.55 61.59 60.92 60.95 60.16 59.82 59.45 59.12 58.72 58.64 58.13 57.97 58.15
32.55 31.70 30.64 35.67 40.10 40.90 39.15 38.12 42.13 43.41 43.98 47.71 47.70 46.94 46.97 48.11 49.35 50.20 55.97 60.99 64.33 64.39 64.80 65.21 65.95 65.89 66.41 66.62 66.26 64.98 64.83 64.37 64.40 64.46 64.40 63.49 63.04 62.36 61.65 61.34 60.97 59.16 58.88 58.89 58.89 59.30 59.10 59.47 59.09
31.97 31.55 31.51 33.45 39.08 40.02 39.46 37.28 40.29 43.97 45.88 47.33 48.32 48.83 48.18 48.03 48.02 48.18 51.52 58.12 60.98 62.22 63.19 64.86 65.07 66.07 66.59 66.12 64.65 64.36 64.05 63.60 63.70 63.82 64.42 64.48 64.70 64.43 64.23 63.55 63.13 61.73 60.16 59.34 59.70 60.13 60.10 59.00 59.31
28.90 35.67 35.50 34.82 34.81 30.86 38.19 28.59 36.91 40.23 42.52 44.76 46.43 47.29 47.33 47.79 48.53 47.72 50.37 55.69 58.93 61.36 63.41 64.27 64.32 65.55 65.16 65.00 64.45 63.73 63.81 62.83 63.74 63.78 64.09 64.36 65.53 65.16 64.98 63.99 63.90 63.51 63.23 62.27 61.61 62.34 61.40 60.60 59.23
33.16 37.98 35.01 34.53 34.49 33.99 33.99 29.43 32.35 39.20 38.80 41.47 43.71 46.51 48.75 49.32 48.80 48.86 49.24 55.79 58.49 60.04 61.29 62.22 63.27 63.39 63.22 64.38 63.95 62.74 61.61 62.42 62.38 62.84 63.15 63.32 63.89 64.33 64.84 64.62 63.58 63.66 63.94 63.94 63.70 62.96 62.47 61.53 60.30
36.91 36.83 35.53 36.07 34.21 23.59 31.78 30.21 29.68 34.63 37.77 39.75 43.24 46.25 48.59 49.42 50.02 49.21 48.88 54.01 56.39 57.01 58.64 60.08 61.22 62.11 62.64 63.08 62.51 61.92 60.74 60.17 60.31 60.58 61.32 61.20 62.64 63.35 63.84 63.51 63.24 63.37 63.39 63.15 63.03 63.24 62.56 62.25 61.85
33.89 32.52 26.21 24.10 24.02 21.29 33.40 30.95 31.77 37.34 40.30 41.64 42.40 44.50 48.08 49.53 46.61 46.46 49.44 53.29 55.15 56.50 57.11 58.07 59.43 60.01 61.69 60.92 60.73 60.60 59.96 59.90 59.92 59.67 59.56 59.43 59.68 60.29 61.85 62.46 62.07 61.44 61.13 60.82 60.35 59.47 58.56 60.06 60.44
32.28 32.50 19.60 18.19 19.44 24.34 33.50 27.29 32.35 37.36 40.15 42.63 44.47 45.86 46.25 46.59 46.18 46.37 48.64 51.74 54.20 55.25 55.79 57.39 58.00 59.59 60.84 59.87 59.05 58.49 58.95 59.42 59.41 59.50 58.97 58.73 58.39 57.53 58.81 59.20 58.75 58.78 59.05 59.66 58.46 57.74 58.08 58.88 59.60
32.12 29.21 35.10 24.06 23.62 23.12 27.71 30.01 34.27 36.51 37.71 38.13 41.60 43.09 43.16 43.70 43.83 45.33 47.53 50.32 52.80 52.98 53.60 55.95 56.93 58.83 58.29 57.42 56.88 56.84 56.60 56.97 56.37 55.92 55.81 55.53 55.02 55.81 56.53 57.14 56.91 56.40 56.65 56.69 56.90 56.86 56.50 56.70 57.87
34.45 35.96 29.50 22.09 14.31 19.63 23.25 22.86 26.25 31.52 34.25 37.77 39.11 40.41 42.22 43.30 43.73 44.42 47.75 49.53 51.18 52.49 51.75 53.08 54.50 55.33 55.54 55.15 55.21 55.31 54.98 54.34 53.09 52.65 52.72 52.40 51.98 52.83 53.32 53.03 53.13 52.95 53.04 52.57 52.47 52.43 52.54 52.24 52.41
30.08 27.02 32.17 31.69 23.56 19.21 18.84 22.74 31.25 32.27 34.04 36.42 37.56 39.65 40.26 41.66 42.48 43.51 47.51 48.19 48.26 48.42 48.93 49.55 51.44 52.21 53.09 52.91 51.13 51.75 51.19 50.63 50.12 50.39 49.74 49.58 49.27 49.95 50.18 50.31 50.25 50.18 49.16 49.77 49.22 49.51 49.58 49.27 49.48
32.23 29.63 31.11 22.67 22.57 22.98 16.93 24.48 34.58 33.70 36.50 38.11 38.69 40.20 40.65 41.17 41.35 42.89 46.75 47.09 46.71 46.87 46.49 46.94 47.56 49.19 49.45 49.09 49.32 48.75 48.09 47.88 46.96 46.34 45.76 46.27 45.74 46.66 46.04 46.48 46.13 45.62 45.43 45.57 45.20 45.86 47.11 47.68 48.64

GFSSGP_sfc_wetblb_108.txt.gz
Wetbulb
60.18 59.59 60.59 56.49 45.37 44.58 38.33 39.44 42.02 41.35 44.65 50.31 51.37 52.29 53.20 55.97 53.26 48.00 65.67 68.44 70.76 71.76 72.89 73.16 74.42 73.59 73.40 72.24 72.31 73.58 74.00 74.78 74.95 75.04 74.67 73.94 73.68 73.12 72.21 71.28 71.06 70.82 71.84 71.48 71.80 72.26 71.96 71.63 70.95
59.38 59.19 59.01 52.56 42.81 37.07 37.47 40.02 42.23 45.21 47.31 51.18 53.90 57.17 55.56 54.61 62.37 65.92 67.15 70.47 71.24 72.07 72.51 72.70 73.93 73.41 72.90 71.96 72.05 73.38 73.69 74.11 74.37 74.39 74.35 74.00 73.13 72.06 71.26 70.67 70.37 70.75 71.76 71.96 71.99 71.95 71.23 71.26 70.88
57.48 58.50 50.07 46.98 43.09 37.03 36.66 40.33 44.53 46.67 49.39 50.34 53.26 58.81 58.30 57.63 63.92 66.26 69.32 71.09 71.82 71.79 72.24 72.68 73.55 73.39 72.88 72.31 72.29 73.04 73.43 73.63 73.64 73.70 73.66 73.28 71.96 71.28 70.51 69.98 70.40 71.19 71.86 72.30 71.75 71.29 70.83 70.28 69.78
54.29 51.08 49.36 42.50 40.93 41.58 41.22 40.15 42.64 44.19 47.72 47.92 53.78 53.69 58.35 64.71 66.07 68.63 70.68 71.46 71.21 71.44 71.90 72.96 73.36 73.30 72.83 72.54 72.53 72.66 73.05 73.12 73.21 73.42 72.95 72.46 71.00 70.38 69.90 69.80 70.54 71.15 72.03 71.93 70.81 70.74 70.78 69.90 68.85
53.09 48.46 38.41 37.51 40.25 43.49 45.83 43.80 43.61 44.40 45.01 46.65 55.99 51.96 55.63 65.33 68.48 70.46 70.74 71.03 69.98 71.10 71.90 72.07 73.34 73.25 72.83 72.74 72.36 72.40 72.66 72.51 73.07 72.92 72.32 71.21 70.51 69.94 69.67 69.67 70.68 71.49 72.11 71.31 70.32 70.60 70.44 69.68 68.33
47.33 47.90 37.28 31.96 37.28 44.22 45.57 46.14 46.03 44.37 46.69 51.57 55.12 55.09 56.68 66.58 68.20 70.01 70.77 70.14 70.42 70.49 70.97 71.52 71.84 72.30 72.39 72.14 71.94 71.82 71.97 72.14 72.41 72.22 71.08 70.55 69.99 69.64 69.58 70.03 71.03 71.83 71.46 70.90 70.04 70.09 70.06 69.34 68.28
42.20 42.11 35.84 35.08 35.66 39.61 43.33 48.42 45.12 46.56 45.53 47.63 56.28 55.38 61.64 66.63 68.75 70.13 70.19 70.07 70.62 70.65 70.16 70.19 70.71 71.06 71.19 71.48 71.21 70.94 71.03 71.09 71.02 70.97 70.60 69.91 69.73 70.19 70.25 70.85 71.42 71.73 71.55 71.23 70.46 69.54 69.60 69.26 68.36
42.85 41.29 37.50 35.81 34.61 37.09 46.43 47.58 49.68 48.89 47.10 55.84 57.81 54.00 58.94 66.59 68.93 69.87 69.61 69.67 69.34 69.37 69.44 69.15 69.91 70.62 69.85 69.82 70.53 70.01 69.79 69.80 69.93 69.62 68.90 68.20 68.53 69.68 70.96 70.25 70.75 71.41 71.25 70.91 70.51 69.55 69.00 69.02 68.32
45.00 37.02 33.18 36.16 36.46 38.62 48.32 47.24 50.53 53.03 49.85 52.86 57.52 56.92 61.95 68.68 68.82 67.93 67.39 68.22 68.36 68.44 68.65 69.14 69.43 69.78 69.68 69.30 69.67 69.70 69.03 68.79 68.57 67.99 66.71 66.22 65.96 66.75 66.65 67.68 68.90 70.11 70.50 69.94 69.25 68.53 67.99 67.39 66.69
40.01 34.46 35.23 40.14 40.86 39.64 45.28 47.77 49.02 49.75 49.54 52.18 58.34 62.54 66.88 67.63 67.46 65.96 65.36 65.73 66.74 66.93 68.21 68.89 69.06 69.27 69.29 69.77 69.15 68.72 67.59 66.54 65.65 65.10 64.63 64.81 64.51 64.89 66.24 66.09 68.12 69.70 69.26 69.05 68.79 67.78 65.65 62.08 59.31
38.39 34.32 38.49 40.38 43.29 44.78 44.39 47.22 50.31 48.71 47.72 51.00 54.86 61.39 65.53 65.86 66.35 65.59 65.61 66.04 66.31 67.09 68.18 68.91 68.58 69.19 68.58 68.91 69.04 69.03 67.50 65.17 63.72 63.35 63.99 63.78 63.93 63.80 63.92 64.16 64.50 64.49 64.12 64.23 63.84 62.03 60.08 58.67 58.46
35.02 38.73 39.52 41.48 44.14 43.47 44.15 48.66 47.20 48.28 49.30 53.98 52.27 62.45 64.67 63.73 63.92 64.92 65.18 65.80 66.02 66.52 67.61 68.64 68.50 68.47 67.44 68.03 67.47 67.25 67.14 65.06 63.75 63.74 63.17 62.86 62.66 61.94 61.81 62.17 62.12 62.06 61.77 61.12 60.19 59.45 58.75 58.64 58.32
37.48 37.36 40.15 41.67 42.80 43.09 46.30 45.81 46.10 46.76 49.70 53.44 54.78 59.57 62.00 62.67 63.53 64.42 65.10 65.55 65.95 65.40 67.23 68.34 68.37 68.02 67.33 66.94 65.47 64.95 65.90 65.15 64.55 63.99 63.93 63.19 62.15 61.18 60.93 60.74 60.63 60.27 60.22 59.55 58.69 58.13 58.10 58.22 58.90
38.87 39.18 39.40 40.82 41.75 43.57 43.32 43.93 45.30 47.23 51.30 51.99 56.68 59.37 61.13 62.80 63.03 63.64 63.43 63.11 64.50 65.95 67.25 68.63 67.98 68.29 67.32 66.44 64.48 63.81 64.37 64.71 64.62 64.41 64.32 63.67 63.59 62.29 61.49 60.74 60.72 60.53 61.12 61.00 60.24 59.49 59.71 60.46 60.47
39.03 34.84 37.90 39.56 40.01 40.53 45.12 40.55 40.51 46.13 48.90 50.69 52.88 54.87 58.87 62.62 63.26 63.06 64.06 63.58 62.09 64.57 67.50 68.15 67.99 68.34 66.99 66.00 64.55 63.35 63.50 64.29 64.16 64.41 64.08 64.22 64.67 63.56 62.60 61.91 61.51 61.55 61.64 61.70 61.38 61.05 60.86 60.17 60.20
35.08 35.16 31.06 37.76 39.48 39.95 42.17 34.73 41.64 46.55 45.76 48.38 49.00 49.98 53.63 57.56 62.22 63.92 65.02 64.32 64.90 66.51 67.46 68.09 68.33 68.13 67.18 66.47 65.32 64.24 64.02 63.97 63.38 62.87 64.04 64.01 64.90 64.78 63.24 62.63 62.25 62.51 62.26 61.98 61.45 60.77 59.68 58.37 57.39
32.71 28.56 30.30 34.42 39.85 39.78 40.05 36.81 41.96 45.07 44.65 48.18 47.81 47.13 50.71 52.89 58.42 62.61 64.90 65.61 66.27 67.09 67.68 67.70 67.78 67.53 66.86 66.34 65.84 65.06 64.62 64.00 63.74 62.13 61.94 62.49 63.14 64.72 64.15 63.39 62.62 62.69 62.25 61.77 61.36 59.77 58.66 57.41 56.69
24.26 28.62 31.11 31.94 36.55 38.77 38.00 37.71 42.26 43.26 42.86 44.59 48.52 46.83 49.40 50.93 53.05 58.95 62.76 65.08 66.59 67.27 68.02 67.94 67.75 67.73 67.05 66.42 65.91 64.94 63.83 63.09 62.13 61.99 61.02 61.13 61.47 62.36 63.14 62.78 62.66 62.46 61.78 60.99 59.90 59.39 58.09 57.56 57.41
31.72 29.22 29.37 34.49 40.25 38.24 38.22 37.64 40.11 43.47 41.01 43.07 47.34 46.83 48.38 50.85 52.53 55.76 62.04 63.58 64.08 65.97 66.57 67.63 67.40 67.48 66.55 65.91 64.72 63.90 63.33 61.29 60.68 60.44 60.69 60.38 60.81 60.96 61.64 61.81 61.50 61.76 61.43 61.26 59.85 58.46 57.74 57.12 57.43
31.94 29.51 31.26 35.50 39.25 39.46 38.38 37.18 41.31 41.19 41.73 43.31 46.36 46.40 47.49 49.80 51.00 51.87 59.41 62.71 63.33 63.63 65.47 65.77 66.85 66.80 66.60 66.20 65.83 64.70 64.34 63.19 63.42 62.74 61.75 61.27 61.03 61.16 61.13 60.38 59.70 59.74 59.47 59.12 58.63 58.52 57.82 58.02 58.14
31.50 30.47 31.95 33.24 39.09 40.68 38.58 36.66 39.19 42.24 44.44 45.56 46.60 47.83 47.87 48.81 49.26 49.91 55.25 60.29 62.26 63.05 63.73 64.87 65.44 65.93 66.04 65.74 64.74 63.95 63.53 63.23 62.64 62.60 62.23 62.92 62.86 61.69 61.44 61.18 60.81 59.35 59.12 59.02 58.34 58.57 58.78 58.12 58.76
26.25 34.75 36.37 36.23 33.58 31.00 36.71 28.35 37.25 40.37 41.43 43.82 45.87 46.72 46.45 47.29 47.96 47.84 49.64 56.06 60.48 62.51 63.62 64.95 65.11 65.77 66.19 66.04 65.35 63.84 63.24 62.13 62.73 63.21 63.75 63.96 64.03 63.36 63.05 63.39 62.96 61.89 61.34 61.28 60.65 61.42 60.86 60.58 59.03
32.70 37.15 35.59 35.49 32.39 34.55 33.10 28.67 33.66 40.03 38.52 40.98 43.22 45.49 47.62 47.70 47.66 47.21 47.60 52.88 57.95 61.13 62.68 62.99 63.68 64.51 65.18 65.46 65.00 63.07 63.39 64.25 63.98 63.30 63.48 63.82 64.13 64.54 64.14 63.82 62.98 62.76 63.22 63.27 63.27 62.31 61.62 61.26 60.69
36.14 36.31 35.50 34.92 31.83 23.80 31.77 29.32 29.20 35.95 38.30 40.33 42.20 45.73 46.50 47.87 48.28 47.48 46.24 48.44 55.87 58.34 60.64 62.48 63.62 63.36 63.87 64.38 63.89 63.52 62.79 62.53 62.44 62.28 62.98 63.40 62.57 62.93 63.75 64.18 64.18 63.88 63.67 63.45 63.15 62.94 62.26 61.86 61.27
32.52 27.51 22.70 19.48 19.29 22.96 31.84 28.92 30.23 38.07 40.65 42.16 42.48 44.32 47.07 48.80 49.09 47.07 44.43 49.94 54.81 56.95 57.96 59.80 61.05 61.26 62.44 63.19 62.57 62.22 61.64 61.84 61.68 61.47 61.88 61.43 61.35 61.60 62.23 62.08 61.56 61.34 61.52 61.46 61.17 60.77 60.06 59.72 60.26
31.80 27.63 20.48 18.37 21.03 25.17 33.16 26.98 31.00 35.81 41.04 43.55 44.83 44.94 46.97 48.07 49.34 46.07 45.10 47.86 52.28 55.43 56.39 58.18 58.82 59.75 61.29 60.94 60.50 60.90 60.53 60.03 59.77 59.84 60.32 59.96 59.30 59.24 60.50 60.00 59.64 59.23 59.50 58.86 57.82 57.15 57.49 58.76 58.33
32.44 28.99 34.09 25.27 22.64 19.95 25.18 27.88 33.31 36.34 36.40 36.68 40.46 43.65 44.38 46.75 45.40 45.48 45.93 48.07 52.07 54.29 55.94 57.31 57.33 59.45 59.79 59.88 57.75 58.14 57.64 57.85 58.07 57.62 57.42 56.56 56.18 56.79 58.14 57.82 57.36 56.45 56.48 56.29 56.23 55.94 55.57 56.87 57.78
34.68 36.34 25.48 24.57 17.93 20.68 23.54 23.33 25.47 31.11 33.36 35.61 37.58 41.24 42.63 42.96 44.65 45.36 46.22 47.52 51.49 53.88 53.67 54.80 56.29 58.30 57.47 55.39 55.66 55.50 55.51 55.55 54.96 54.77 54.14 53.73 53.08 53.70 53.88 53.49 53.37 52.78 52.08 51.70 51.68 50.79 50.61 50.38 50.19
31.87 30.19 30.65 29.17 24.83 20.54 19.31 23.30 31.41 31.90 33.39 35.18 37.07 39.09 39.94 41.29 42.91 43.82 45.33 47.44 48.65 49.93 50.84 51.93 53.12 53.90 53.99 53.03 52.63 53.06 52.10 51.51 51.54 51.15 50.27 49.73 49.57 50.00 49.98 50.03 49.81 49.38 48.70 48.29 48.70 48.85 48.96 49.93 49.79
32.33 30.02 31.64 21.61 22.88 21.52 19.52 24.61 34.23 33.51 36.42 37.98 38.10 40.01 40.31 40.52 42.77 43.10 43.42 46.96 46.95 47.93 48.58 49.78 49.68 51.30 50.47 50.03 50.44 49.49 48.96 48.87 48.19 47.04 46.66 47.22 46.09 46.33 46.65 46.52 45.67 44.74 44.16 43.82 43.96 44.26 44.98 45.51 46.18

GFSSGP_sfc_wetblb_111.txt.gz
Wetbulb
61.89 61.40 61.18 58.86 47.53 46.04 41.02 42.60 46.59 45.20 47.30 52.87 55.68 56.41 57.00 58.18 55.30 52.90 67.93 70.07 71.17 72.02 73.42 73.76 74.29 74.23 74.03 73.95 74.49 74.37 74.36 75.07 74.94 74.96 74.57 74.20 74.06 73.27 72.51 73.21 73.23 72.78 72.88 72.85 72.80 72.24 71.10 71.55 71.68
60.05 61.12 59.13 53.13 44.40 37.78 39.05 45.57 44.17 48.05 49.43 52.71 55.23 58.45 57.31 55.17 63.86 65.68 66.85 70.51 71.75 72.54 73.41 73.27 73.75 73.94 73.72 73.86 74.22 74.85 75.04 75.21 74.90 74.69 74.51 74.85 73.64 72.43 72.21 72.44 72.91 72.87 73.15 72.61 72.33 71.91 71.43 70.56 70.58
59.06 58.83 51.40 46.59 43.49 38.88 39.58 45.45 47.30 49.02 50.79 51.28 52.59 59.99 59.36 59.39 65.26 66.61 69.95 71.43 72.17 72.50 73.26 72.89 73.17 73.53 73.25 73.78 74.49 74.60 74.96 75.05 74.37 73.99 73.90 74.08 73.25 71.71 71.14 72.16 72.64 72.45 72.90 72.65 71.81 71.36 70.91 70.07 69.58
56.27 54.64 50.79 41.47 39.62 44.39 44.88 46.79 46.57 48.12 50.54 50.72 53.00 52.54 61.79 66.59 66.45 68.93 70.77 71.77 71.46 71.96 73.04 72.88 73.00 73.16 72.95 73.49 74.23 74.41 74.43 74.16 73.90 73.54 73.36 73.07 72.49 70.95 71.09 71.81 71.78 72.46 72.35 71.98 71.79 70.51 69.96 68.89 68.06
55.28 50.32 40.25 37.10 37.99 45.01 47.55 49.28 48.31 46.12 48.69 49.48 54.30 52.89 57.14 65.32 69.34 70.58 70.63 71.43 70.57 71.22 72.66 72.42 73.05 73.02 72.89 73.25 73.94 73.97 73.99 73.80 73.56 73.40 72.89 72.02 71.47 70.68 70.47 71.18 71.91 72.39 71.81 71.43 71.15 70.43 69.54 68.01 67.46
47.92 48.63 37.48 34.15 36.64 41.74 46.88 49.72 48.32 48.76 49.18 48.87 54.95 55.20 57.04 67.40 69.03 70.26 71.20 70.04 70.97 71.16 71.94 72.13 71.76 72.21 72.52 72.77 73.37 73.32 73.48 73.43 73.27 72.91 72.31 71.34 70.79 70.39 70.12 71.34 72.16 72.21 71.19 71.24 71.20 70.09 69.30 67.90 67.34
42.61 42.09 36.75 37.22 36.84 38.26 44.06 49.57 47.88 48.45 48.64 49.21 55.96 55.22 59.68 65.92 69.51 70.95 70.61 70.10 70.62 71.31 71.40 71.67 71.35 71.14 71.09 71.48 72.04 72.47 72.67 72.61 72.46 72.15 71.55 70.64 69.98 70.15 70.30 71.55 72.15 71.99 71.22 70.99 71.05 70.44 69.39 68.15 67.25
44.58 41.99 35.92 38.13 36.61 37.39 44.01 46.57 50.18 48.72 48.48 54.37 59.60 53.39 56.64 64.71 69.88 70.46 69.64 69.41 69.65 70.47 70.93 70.69 70.71 70.42 70.46 70.52 70.43 70.78 71.07 71.03 70.95 70.26 69.34 68.36 68.25 69.04 70.50 70.43 71.05 71.47 71.23 70.45 70.40 70.31 69.76 68.61 67.32
47.23 36.38 32.55 35.00 37.12 39.42 45.38 43.67 50.05 53.02 50.64 52.23 54.65 58.69 62.40 67.36 68.88 67.75 67.49 67.82 68.28 69.22 69.77 70.37 70.08 70.15 69.94 69.35 69.03 69.39 69.33 69.04 68.75 68.17 66.91 67.24 68.98 69.71 69.44 68.53 69.33 70.39 70.78 70.15 69.82 69.17 68.82 68.20 67.26
40.95 35.15 34.45 39.72 41.07 40.51 43.62 44.31 47.36 47.77 49.42 50.66 52.43 60.01 65.21 67.43 67.21 65.97 65.12 65.22 66.16 67.30 68.45 69.71 69.67 69.29 69.62 69.14 69.04 68.73 68.72 68.73 68.34 67.96 68.10 69.35 69.90 69.91 69.09 67.60 68.33 69.79 69.42 68.98 68.59 67.42 65.70 64.80 65.65
40.28 34.37 38.11 39.86 42.00 43.97 43.52 45.01 47.76 47.23 46.15 50.18 50.78 52.56 61.85 66.28 65.24 65.24 65.34 65.30 65.83 67.24 68.15 68.81 68.99 68.84 69.03 68.73 69.00 68.33 67.76 67.49 67.42 67.39 67.77 68.74 68.65 68.99 69.13 69.38 69.44 69.32 66.44 68.04 66.78 64.97 64.32 64.09 64.29
35.87 39.48 39.87 40.00 42.15 42.68 42.15 45.50 45.16 47.52 48.05 51.59 51.80 52.84 53.22 63.71 64.96 64.80 64.64 65.43 65.61 66.66 67.68 68.44 69.09 68.30 68.86 69.46 68.16 67.78 67.09 66.59 66.53 66.71 67.21 67.39 67.11 67.46 67.69 67.79 68.06 67.69 67.20 66.31 65.36 64.14 63.64 63.65 63.61
36.16 37.82 39.78 41.39 42.30 42.38 43.90 42.00 43.08 46.48 51.20 51.10 51.56 53.17 53.56 55.19 63.54 64.60 63.25 65.52 66.24 66.16 67.27 68.05 68.85 68.52 68.18 67.21 67.70 67.91 66.36 66.16 66.31 66.43 66.70 66.68 66.14 65.96 66.29 66.26 66.17 65.95 65.61 65.10 63.94 63.35 63.14 63.01 63.54
38.67 38.74 38.67 40.26 40.72 42.02 40.42 41.64 43.46 47.25 50.65 49.94 50.38 50.56 53.36 55.72 61.53 63.58 63.30 61.89 61.81 65.70 67.36 68.10 68.19 68.78 68.10 66.65 66.24 66.63 65.82 65.69 65.93 66.13 66.27 66.16 65.97 65.40 65.09 64.55 64.38 64.34 64.15 63.63 63.02 62.52 62.96 64.23 65.29
38.06 34.50 36.18 37.61 39.61 39.41 42.68 38.36 39.04 46.39 47.95 48.08 48.45 48.92 50.55 55.93 61.37 63.01 64.06 63.51 64.10 66.32 67.83 67.30 68.13 68.42 67.84 67.05 66.94 65.99 65.70 65.70 65.10 65.31 65.71 65.40 65.43 64.87 64.57 63.88 63.32 63.51 64.09 64.20 64.33 64.13 64.94 65.34 65.22
33.23 33.27 28.86 36.25 38.01 40.47 40.95 32.58 42.56 47.38 46.39 46.63 47.28 46.37 50.14 54.72 59.95 63.41 65.06 65.47 65.71 66.49 67.27 67.66 68.25 67.66 67.55 66.76 66.39 66.27 67.00 66.63 66.06 65.53 65.35 65.06 65.10 64.98 64.10 63.65 63.64 64.59 65.12 65.42 65.10 64.77 64.63 64.56 63.56
30.54 24.38 27.88 31.36 39.64 38.91 38.38 34.12 42.59 45.43 46.56 45.71 43.82 42.67 50.07 54.13 59.82 62.15 64.11 64.43 64.08 66.36 67.45 67.36 67.85 67.32 67.17 66.58 65.92 65.75 65.96 66.43 66.48 66.28 65.95 65.69 65.89 65.69 65.02 64.67 65.10 65.16 64.93 64.88 64.74 64.37 64.34 63.58 63.10
20.27 25.35 28.94 28.00 36.45 37.60 35.42 35.47 41.68 45.06 46.06 43.94 41.45 42.50 48.38 51.57 58.24 61.59 63.73 64.46 64.05 66.05 67.83 67.96 67.70 67.35 67.27 66.70 66.48 66.28 65.59 65.32 65.64 65.38 65.76 65.91 65.91 66.51 66.34 65.65 65.21 65.25 64.75 64.50 64.19 64.06 63.01 63.13 61.97
29.57 28.66 27.35 30.80 35.33 35.69 34.72 34.97 39.73 43.19 42.49 39.86 40.84 43.04 46.09 50.23 52.50 56.96 63.60 64.36 64.62 66.72 67.51 67.46 67.21 67.38 66.86 65.98 64.96 64.29 63.83 64.62 64.72 64.44 63.92 64.53 65.33 65.70 66.33 66.19 65.77 65.01 64.58 64.49 63.99 63.22 62.67 61.55 61.44
29.50 29.33 28.80 32.88 36.41 36.28 35.72 35.41 40.29 40.80 40.13 40.77 42.29 44.22 45.65 48.89 51.06 55.29 62.28 63.13 63.79 64.96 67.10 67.04 66.84 66.93 66.78 66.83 66.26 66.11 65.65 64.70 64.73 64.12 63.19 63.22 63.49 63.79 64.16 64.53 64.13 64.48 63.93 63.38 63.17 62.51 61.00 61.29 61.27
29.42 29.51 29.69 31.60 37.01 38.63 36.70 34.98 38.83 40.92 42.17 43.32 45.01 46.46 47.15 48.84 50.10 51.97 60.03 62.41 62.77 63.11 65.32 66.75 66.76 66.83 66.74 66.58 65.98 65.63 65.40 65.14 64.40 63.85 63.72 63.01 62.74 62.99 62.92 62.93 63.43 63.00 63.20 63.03 62.64 62.12 62.05 61.00 61.25
28.00 35.12 34.89 34.97 33.96 29.83 36.81 28.45 36.44 39.40 39.54 42.20 44.58 45.54 46.99 49.15 49.91 50.38 56.03 60.54 61.91 62.19 64.39 64.99 64.89 64.46 65.80 65.66 64.90 64.17 63.76 63.17 64.73 64.34 64.19 63.84 63.50 63.09 63.36 63.43 63.45 62.51 62.93 62.40 62.19 62.23 61.71 61.00 60.26
32.30 33.97 35.29 36.35 34.71 32.87 33.46 30.42 34.55 39.46 37.27 40.63 44.15 45.99 47.37 49.26 49.75 49.76 52.43 57.00 59.54 63.07 63.53 64.68 64.39 63.82 64.09 64.98 64.73 62.95 61.70 63.24 63.68 64.01 63.82 63.52 63.83 64.29 64.00 64.23 64.46 63.70 63.45 62.84 62.45 61.71 61.77 62.43 62.15
36.17 35.73 35.19 35.44 32.88 26.76 31.73 30.28 31.13 35.88 38.07 40.84 43.47 45.81 47.84 48.37 49.89 50.00 50.16 51.12 57.26 61.12 62.66 63.13 62.84 63.06 64.46 64.15 64.22 61.98 61.04 62.40 64.39 64.04 63.78 63.49 64.43 64.20 64.74 64.19 64.58 64.82 64.20 63.89 63.86 63.45 62.92 63.08 62.65
34.22 28.27 21.92 23.37 23.09 24.19 32.74 30.53 31.73 37.80 41.01 42.71 43.06 45.15 47.00 48.49 49.53 48.13 49.35 51.88 57.01 59.31 61.44 61.96 62.85 62.68 63.46 62.62 62.25 63.71 62.20 63.08 63.00 62.79 63.07 63.29 62.93 63.22 63.46 64.18 64.15 63.96 64.06 64.33 63.82 63.48 62.71 63.00 61.44
31.89 28.65 23.97 17.90 20.63 25.57 32.90 27.20 30.01 36.34 38.40 43.63 44.93 45.86 47.41 48.71 49.15 48.17 47.96 50.78 55.27 58.13 59.79 60.73 61.82 61.60 63.06 63.53 62.90 62.51 62.96 62.57 63.13 63.01 63.09 63.20 62.68 62.77 63.21 62.78 62.69 62.82 63.06 62.86 62.31 61.25 60.79 61.25 61.25
32.42 27.91 34.33 25.99 25.64 25.03 26.81 29.73 34.60 37.66 37.14 38.00 40.69 45.01 45.86 46.62 45.94 47.36 47.96 50.20 53.45 56.51 58.74 60.33 60.82 61.06 61.97 62.43 62.14 62.28 62.81 61.95 60.95 61.76 61.38 60.59 60.79 61.17 61.58 61.37 60.05 60.41 59.87 59.54 59.51 59.04 58.60 59.38 59.07
33.73 36.57 26.98 26.60 19.28 21.18 24.12 25.08 27.00 31.96 33.66 36.46 39.28 41.49 45.22 44.93 45.94 47.22 46.72 49.23 52.49 55.27 56.83 58.24 59.60 59.68 59.81 59.77 59.75 59.26 59.21 59.69 59.34 59.57 57.99 57.32 57.75 59.08 58.31 57.33 56.59 55.14 55.14 55.71 55.48 54.84 53.98 53.82 53.35
31.36 31.28 31.50 29.31 25.30 23.03 21.35 25.76 33.79 32.33 33.91 35.86 38.04 39.62 42.69 43.07 43.50 46.16 45.90 48.86 51.14 53.32 55.22 56.26 57.43 57.21 56.64 56.75 56.90 57.27 56.65 56.48 56.62 55.85 54.45 53.80 54.71 54.92 54.59 54.24 53.41 52.03 50.94 51.36 51.83 51.90 51.83 51.83 52.12
33.56 30.97 31.30 24.15 24.68 22.18 24.84 26.75 35.18 34.69 36.86 38.34 38.60 40.61 41.19 42.93 44.51 45.31 45.91 47.31 49.00 51.35 53.32 54.56 55.30 55.13 54.75 54.48 54.59 54.15 53.81 53.81 52.81 51.78 51.59 51.87 51.10 51.46 51.17 50.28 48.86 47.86 47.15 47.70 48.05 47.62 48.21 49.04 49.49

GFSSGP_sfc_wetblb_114.txt.gz
Wetbulb
63.38 63.20 63.52 61.19 50.53 49.10 44.95 47.22 52.00 50.67 50.66 56.44 57.71 57.46 57.96 60.86 58.84 57.12 69.85 72.10 73.11 72.64 74.07 74.69 74.34 73.24 74.59 74.79 74.88 75.41 75.43 75.34 75.41 75.48 75.11 74.09 73.90 73.79 73.66 73.96 73.46 73.80 73.82 72.71 72.36 72.32 72.62 72.25 71.96
63.50 61.18 60.29 56.28 45.88 41.69 43.65 50.07 48.82 51.57 53.62 54.99 56.05 57.22 57.63 57.65 64.32 66.56 68.08 71.59 72.89 73.01 73.45 73.87 73.94 74.23 74.60 74.68 74.51 75.09 75.37 75.23 75.18 75.26 75.06 74.45 74.19 73.73 73.63 73.60 73.07 73.76 73.35 73.36 72.06 71.46 71.61 71.34 71.28
61.34 60.27 51.86 47.45 44.30 41.27 43.10 49.64 50.89 52.81 54.91 53.93 53.57 58.01 58.37 58.09 65.90 68.08 71.05 72.29 72.93 72.63 73.21 73.16 73.91 74.18 74.36 74.67 74.42 74.62 75.34 75.15 75.03 74.59 74.15 74.17 73.89 73.42 73.25 73.40 73.02 73.64 73.24 72.86 72.32 70.72 70.50 70.54 70.51
58.92 57.01 52.59 43.59 39.97 44.70 46.01 49.84 51.79 52.06 53.91 54.92 54.40 53.39 60.03 66.74 67.84 70.25 72.13 72.60 72.17 71.91 72.86 73.15 73.52 73.90 74.12 74.56 74.50 74.79 75.26 75.14 74.37 73.94 73.78 73.56 73.29 72.95 73.09 72.98 73.09 72.74 72.30 72.22 71.17 70.39 69.72 69.05 69.14
58.35 53.47 43.39 40.31 39.85 43.82 47.33 50.60 52.72 50.77 52.38 53.25 54.11 52.10 55.80 66.80 70.39 70.86 70.80 72.45 71.52 71.77 72.81 72.90 73.40 73.59 74.20 74.69 74.57 74.78 74.80 74.33 73.86 73.67 73.74 73.21 72.71 72.62 72.64 72.62 72.69 72.39 72.32 71.47 70.37 69.18 68.15 67.73 67.58
49.04 49.15 39.31 37.02 39.95 44.00 46.41 49.95 52.42 51.82 52.68 52.79 52.16 52.63 55.32 68.23 69.47 69.86 71.20 71.85 71.66 71.53 72.28 72.31 72.06 72.59 73.69 74.36 74.20 74.03 73.93 73.84 73.71 73.44 73.14 72.55 72.14 72.05 71.94 72.63 72.29 72.02 71.91 71.18 69.98 68.52 68.00 67.59 67.33
45.53 43.32 38.61 39.19 39.39 41.65 44.94 49.09 50.21 51.06 52.07 52.57 54.72 51.07 56.34 66.32 70.11 71.02 70.85 71.24 71.44 71.92 72.24 72.09 72.29 71.77 72.02 73.05 73.12 73.29 73.24 72.85 72.77 72.44 71.89 71.13 70.62 70.91 71.47 72.40 71.95 71.77 71.88 71.29 70.68 68.93 67.85 67.40 67.08
47.66 42.99 37.93 39.39 38.17 39.40 46.18 47.78 49.70 50.76 51.51 57.08 56.77 51.55 53.13 64.11 70.47 69.86 70.32 70.44 70.98 71.04 71.68 71.38 70.87 70.55 72.75 73.16 71.56 71.83 71.89 71.72 71.63 70.86 69.88 68.73 68.55 69.34 71.17 70.92 70.98 71.18 71.22 71.01 70.67 69.68 68.04 67.29 66.75
48.78 38.76 34.30 36.57 37.84 40.71 47.04 45.63 49.45 52.05 51.51 54.06 55.86 57.17 58.89 61.52 69.24 69.49 67.85 68.30 68.89 69.73 70.98 71.47 70.29 69.75 70.02 72.56 71.01 70.59 70.35 69.99 69.33 68.62 67.19 67.43 68.87 70.20 70.78 69.04 69.59 70.16 70.45 70.66 70.65 69.90 68.54 67.65 66.89
42.67 37.09 37.01 41.85 42.54 41.83 44.78 46.13 47.57 48.06 47.92 49.86 52.97 56.91 59.52 61.29 65.91 67.00 66.55 64.99 66.83 67.50 69.60 70.46 69.35 68.74 68.93 70.31 70.70 71.07 70.54 70.82 69.97 68.94 69.15 67.89 68.16 69.68 70.52 68.35 68.35 69.85 69.24 69.35 69.33 68.52 67.61 67.18 67.95
42.25 37.04 41.12 41.80 43.38 44.18 43.20 44.37 47.65 45.23 44.03 49.79 50.02 54.52 58.06 58.31 63.84 66.93 67.28 67.36 66.30 67.10 69.75 69.77 68.71 69.28 68.69 68.04 70.99 70.80 69.66 69.62 69.63 69.86 67.80 67.79 68.20 69.26 70.23 69.57 69.02 69.55 66.45 68.04 67.60 66.71 67.38 67.48 67.46
37.28 41.01 41.59 42.28 43.42 42.51 41.69 45.28 44.09 46.60 48.00 52.03 52.97 55.97 57.37 56.32 56.85 58.51 66.24 67.17 65.92 66.56 68.16 69.07 68.72 68.59 67.77 68.04 67.46 69.12 69.91 69.69 68.52 67.77 67.58 67.77 68.00 68.32 68.53 68.26 69.11 67.99 68.97 67.82 67.16 66.89 66.96 66.98 66.91
37.92 39.28 40.96 42.29 42.85 43.02 43.78 41.68 43.35 45.06 49.66 51.81 53.01 53.12 55.45 55.94 56.63 58.26 59.08 67.32 63.41 64.41 67.35 67.95 68.55 67.93 67.76 67.03 66.70 66.64 66.71 67.10 67.06 66.97 68.14 68.10 68.09 68.10 69.10 69.04 69.55 68.69 68.53 67.50 65.92 65.73 65.98 66.09 66.17
40.12 39.60 40.23 41.59 41.27 42.15 40.96 42.00 42.83 45.07 49.63 50.87 51.74 51.95 53.24 54.90 55.03 55.30 56.56 64.28 64.36 64.53 67.05 68.29 68.30 67.56 68.62 67.69 66.87 66.05 66.28 66.43 66.61 66.55 68.17 68.96 68.66 67.84 67.73 67.78 67.71 67.50 67.22 66.24 65.56 64.93 64.80 65.15 66.10
39.97 35.12 37.83 39.04 40.40 39.85 42.34 38.44 39.61 44.69 47.58 48.11 49.97 52.00 53.11 54.37 54.79 55.55 58.18 64.22 62.39 60.94 67.44 68.27 68.48 68.10 68.28 67.48 67.86 66.63 65.76 65.84 66.09 66.23 67.14 68.21 68.29 67.76 67.13 66.47 66.14 66.07 66.05 65.31 64.71 64.34 65.27 66.22 67.00
35.23 34.70 29.92 37.14 40.04 41.07 40.62 33.80 41.24 45.44 45.18 45.04 48.59 51.33 51.28 53.61 54.06 56.53 59.44 59.35 62.48 60.77 66.36 68.92 68.80 68.03 67.73 67.40 67.13 67.07 66.37 65.32 65.65 66.34 66.75 66.97 66.99 66.81 66.15 65.46 65.00 65.21 65.06 64.75 64.47 64.27 65.10 67.03 67.06
31.11 26.31 29.71 33.03 39.91 39.68 38.82 35.62 42.58 46.71 45.78 44.40 47.92 50.05 49.01 51.67 52.71 54.99 59.79 59.57 61.61 60.82 64.35 67.45 68.27 68.04 68.01 68.26 67.77 67.57 67.73 66.75 65.52 65.16 65.48 66.21 65.96 66.03 65.42 64.43 64.34 65.24 65.99 66.29 66.24 66.31 66.64 66.10 66.26
26.09 26.49 30.04 30.66 36.55 38.83 36.83 37.25 42.12 45.87 46.63 46.38 48.49 49.11 47.71 49.26 50.71 53.49 58.97 60.86 62.71 62.24 64.73 67.90 67.83 68.03 68.39 68.66 68.58 68.15 68.38 68.57 68.28 66.91 65.89 65.44 65.54 65.41 65.23 65.42 66.11 66.77 66.58 66.41 66.35 66.00 66.55 66.82 66.14
30.46 28.68 28.12 32.54 36.80 35.42 35.39 37.75 40.71 44.44 45.69 46.19 47.37 47.27 47.21 48.59 51.24 53.39 55.53 58.10 62.12 63.85 65.85 66.83 67.27 67.66 67.48 66.78 65.99 66.03 65.81 66.57 67.40 68.65 68.71 67.91 67.63 67.56 67.32 67.23 67.00 67.33 66.72 66.61 66.71 66.53 65.68 65.04 64.77
31.18 28.34 28.63 32.60 37.45 36.71 36.42 36.62 40.56 43.15 44.65 46.08 46.24 46.12 46.80 48.32 50.28 51.61 54.72 60.84 60.06 64.15 65.12 66.84 67.10 66.67 67.07 67.68 67.04 66.68 66.26 66.76 66.88 67.44 67.42 67.74 67.87 68.07 67.81 67.68 67.20 67.15 66.76 66.64 66.19 65.55 63.94 65.17 65.30
30.84 29.27 29.23 30.05 35.27 37.87 37.14 33.77 37.50 41.66 43.47 44.36 46.17 47.82 46.69 47.72 49.32 50.96 53.32 61.16 61.26 62.34 64.28 65.66 66.32 66.61 66.97 67.47 67.27 66.79 67.00 66.44 65.61 66.27 66.09 66.11 66.56 66.72 67.15 67.09 67.03 66.83 66.41 65.48 66.11 66.30 65.78 64.06 64.31
28.60 34.00 34.50 34.01 30.80 29.08 37.78 26.87 34.53 37.63 39.28 42.58 45.70 47.20 47.73 48.91 50.37 51.22 53.34 60.40 61.33 62.40 64.80 65.42 66.24 66.32 66.77 68.19 66.46 65.57 64.79 64.12 64.91 66.08 66.58 65.52 64.97 65.03 65.51 64.90 65.22 65.89 66.25 65.58 65.56 65.80 65.47 62.04 60.56
32.97 35.17 33.68 35.06 32.31 32.97 32.74 32.35 33.04 38.62 37.74 40.86 44.92 47.21 48.64 49.63 49.14 50.94 53.80 60.77 62.05 62.45 61.31 64.25 64.64 65.12 65.53 67.27 65.93 64.97 65.66 66.57 66.90 66.64 65.73 65.35 64.80 65.24 64.84 65.12 65.81 65.13 65.31 64.11 62.76 61.93 61.82 63.08 63.04
36.63 35.19 35.43 34.35 33.05 28.78 32.80 33.33 32.80 36.64 38.81 42.29 44.88 46.20 47.93 49.64 49.88 51.90 57.32 61.08 60.96 61.06 61.12 62.57 63.42 63.16 64.19 64.09 64.33 63.94 63.16 63.01 63.48 64.73 64.72 64.60 64.40 64.31 64.38 64.55 64.77 64.52 64.13 63.54 63.82 64.37 63.60 63.35 63.78
34.90 32.97 27.94 26.01 27.11 26.29 34.65 31.47 31.39 37.94 41.42 42.99 44.07 45.61 47.93 48.46 50.13 50.44 53.25 58.53 61.21 60.70 60.81 62.11 61.94 61.52 61.87 62.59 63.28 62.47 62.04 61.91 62.49 63.90 63.82 64.25 64.16 64.38 64.14 64.36 63.90 64.10 63.82 64.90 64.21 64.42 64.24 63.48 63.24
32.02 32.58 27.80 21.24 23.92 27.29 33.99 27.96 30.27 39.44 41.36 43.20 46.85 45.84 47.13 48.09 49.06 49.29 54.26 57.15 59.90 61.42 61.90 61.56 61.36 61.04 61.56 61.81 62.12 62.50 61.91 61.66 62.04 62.18 62.79 62.32 62.90 63.72 64.38 63.81 63.98 64.34 64.17 64.40 64.33 63.75 63.19 63.92 63.64
33.24 31.72 35.20 29.81 29.76 28.26 29.49 32.70 38.63 40.45 40.65 42.11 44.96 44.42 45.61 47.84 46.90 48.60 52.69 56.08 59.93 60.65 61.11 61.56 60.93 61.22 61.46 61.70 61.54 61.16 62.54 58.95 61.52 61.75 62.81 62.52 62.86 62.78 63.36 63.58 63.31 63.54 64.13 64.17 64.04 62.83 62.17 62.62 61.57
35.95 36.41 31.42 32.83 24.47 23.26 26.65 29.47 29.23 35.07 36.46 39.67 42.64 42.80 45.85 47.41 47.13 49.59 51.87 53.99 56.67 60.28 60.27 61.02 62.07 61.27 61.98 61.63 61.31 61.00 60.13 59.16 60.75 61.04 61.74 61.43 60.97 61.66 62.35 61.81 62.22 61.61 61.32 61.42 61.62 60.90 60.11 60.13 59.13
33.91 32.43 33.62 33.04 30.06 27.13 24.94 28.13 35.01 36.03 38.29 39.16 41.54 44.62 45.44 46.00 45.95 48.35 49.12 52.94 55.72 58.64 59.94 59.93 60.29 60.55 60.23 61.46 61.87 61.46 61.05 60.80 61.05 60.77 60.16 59.95 60.25 60.59 60.12 59.51 58.71 57.57 57.74 58.28 58.01 56.89 56.26 55.81 55.40
36.39 34.28 33.90 31.10 27.96 29.08 30.73 28.09 39.02 40.03 41.03 41.80 41.34 43.86 45.61 45.81 46.00 48.22 49.14 50.77 54.14 56.76 58.36 57.51 58.18 58.22 59.51 59.46 59.39 59.56 58.82 58.81 58.77 57.61 57.66 58.16 57.96 58.04 56.99 56.47 55.36 54.94 54.91 55.55 55.35 53.50 53.98 53.80 53.43

GFSSGP_sfc_wetblb_117.txt.gz
Wetbulb
64.00 63.23 61.87 60.50 50.19 48.69 44.49 46.96 52.03 51.61 52.47 56.24 58.05 58.21 57.82 60.06 57.82 55.42 70.14 72.54 72.72 73.21 73.22 73.72 74.76 75.02 75.10 75.83 75.87 75.77 75.61 75.59 75.39 74.87 74.78 74.12 73.83 73.53 73.83 73.87 73.81 73.81 72.99 72.35 72.88 72.83 72.59 72.47 72.19
63.33 60.83 59.06 53.63 44.68 41.42 43.53 48.91 49.18 51.86 54.83 56.46 56.35 57.65 57.04 57.35 64.02 66.99 68.62 72.04 73.09 73.49 73.23 72.99 74.07 74.82 75.05 75.28 75.87 75.64 75.52 75.49 75.29 74.94 74.45 74.49 74.25 74.10 73.72 74.30 74.41 74.05 73.52 73.03 72.44 72.29 72.19 71.88 71.27
61.77 60.49 52.38 46.89 44.68 41.51 43.12 49.28 50.59 53.07 55.64 55.45 54.15 57.28 57.59 58.15 63.65 67.73 71.48 72.48 73.12 73.18 73.20 73.00 73.72 74.21 74.87 74.88 75.46 75.56 75.25 75.21 75.14 74.71 74.25 74.13 74.23 73.88 73.85 73.62 73.31 72.92 72.85 72.26 71.52 71.47 71.39 71.06 70.19
58.00 56.38 52.92 43.14 40.40 45.12 46.43 48.47 50.62 52.69 55.20 55.96 55.24 53.16 57.61 61.34 63.29 69.17 71.23 72.19 72.52 72.56 72.79 72.89 73.57 73.79 74.39 74.33 74.82 75.39 75.14 74.89 74.66 74.13 73.80 73.57 73.81 73.80 73.46 73.35 72.93 72.43 72.63 71.84 70.61 70.31 70.32 69.99 69.83
56.84 52.78 43.85 40.79 40.70 44.68 47.73 49.03 50.39 50.19 53.29 53.88 54.88 52.42 54.77 61.46 70.78 71.51 71.28 72.05 71.97 71.91 72.50 72.95 73.74 73.94 74.41 74.40 74.21 74.80 74.84 74.55 74.29 73.99 73.67 73.64 73.56 73.49 73.38 73.05 72.60 72.42 72.14 71.12 70.12 69.14 68.85 68.30 67.78
49.07 49.34 40.00 37.68 41.10 45.04 47.14 48.36 48.16 49.28 51.93 53.21 52.80 53.50 54.64 60.85 68.89 70.88 71.78 71.87 72.39 71.36 72.41 72.94 72.40 73.02 73.81 74.15 73.89 74.65 74.32 74.00 73.68 73.39 73.28 73.32 72.88 73.01 73.14 72.70 72.47 72.16 71.36 69.90 68.68 68.10 67.94 67.65 67.30
45.94 44.29 39.33 39.76 40.02 42.29 45.54 49.40 47.30 47.32 49.67 51.50 54.71 51.33 55.30 58.21 67.89 71.34 71.09 71.50 71.64 72.03 71.73 72.45 72.53 72.21 72.69 73.22 73.54 73.87 73.72 73.17 72.58 72.68 72.46 71.76 71.62 72.00 72.66 72.17 72.07 72.13 71.35 70.22 69.30 68.09 67.67 67.38 67.03
48.12 44.53 39.03 40.35 38.92 40.09 46.40 47.55 49.15 48.20 47.56 54.29 55.36 50.78 52.61 57.42 65.17 70.68 71.22 71.38 70.28 71.46 70.89 71.83 71.65 71.50 72.02 73.27 71.99 72.14 72.20 71.74 71.48 71.20 70.09 69.13 69.14 70.30 71.61 70.63 71.12 71.42 70.99 70.29 69.20 68.64 67.56 67.12 66.69
49.23 39.59 36.11 37.73 38.78 41.07 46.06 44.94 48.94 50.80 48.98 50.44 53.16 53.71 57.66 61.22 63.26 66.82 68.16 69.68 68.60 69.92 70.01 71.19 70.42 70.18 71.02 72.38 71.78 70.76 70.74 70.25 69.59 68.59 67.21 67.61 68.92 69.81 70.35 68.58 69.43 70.44 70.68 70.45 69.67 68.79 67.80 67.38 66.62
43.29 38.21 38.05 42.94 43.58 42.20 44.29 44.59 45.64 46.59 47.54 47.75 49.82 53.81 58.49 59.50 61.10 63.10 65.49 66.21 67.36 68.38 68.71 70.12 69.83 68.96 70.30 71.72 71.96 71.90 71.51 70.72 69.47 68.88 68.46 67.91 67.81 70.05 70.25 68.02 68.26 69.87 69.85 69.91 69.78 68.46 67.47 66.27 65.75
42.88 37.43 42.54 43.44 44.64 44.96 43.50 43.66 46.54 45.42 44.15 47.98 48.14 50.61 54.75 57.68 59.87 60.18 65.39 66.64 64.03 67.02 68.09 69.61 69.72 68.63 69.65 70.85 71.67 71.24 71.02 69.96 69.00 68.45 68.66 66.33 67.65 69.80 69.69 68.91 68.45 68.64 66.62 68.24 68.01 66.98 67.14 67.75 67.09
38.81 42.44 42.87 43.27 44.40 43.51 42.19 44.85 43.05 44.40 45.46 49.30 51.26 52.91 53.60 55.39 58.14 58.32 58.48 63.12 65.92 63.95 66.74 68.75 68.89 68.13 68.65 70.43 70.63 70.30 70.15 69.14 68.15 68.21 66.94 66.66 67.49 69.71 68.77 68.49 67.86 67.50 67.68 66.98 66.79 66.36 66.84 66.76 66.62
39.18 40.53 42.26 43.07 42.75 42.55 43.26 41.64 42.18 43.15 47.04 49.32 50.52 52.23 52.73 53.64 55.41 58.80 57.38 58.97 58.31 64.19 64.96 67.34 67.53 67.81 67.63 69.09 70.18 70.02 68.73 68.36 69.47 69.46 66.27 67.31 67.85 68.26 68.16 67.70 67.98 67.62 68.04 66.91 66.32 66.18 65.96 65.80 65.72
40.99 40.70 40.74 41.75 41.72 42.60 40.64 41.10 42.51 43.91 46.92 46.80 48.67 49.96 51.56 53.63 53.21 55.96 57.53 57.56 58.44 62.52 65.58 64.26 67.32 67.98 67.23 66.71 69.29 69.92 68.91 68.45 68.21 67.44 67.36 67.82 68.05 68.28 68.09 67.31 68.67 68.09 67.93 67.03 65.55 65.03 65.07 65.05 65.24
40.19 35.83 38.53 39.49 40.13 39.36 41.66 37.13 38.33 44.27 46.07 45.02 46.83 49.05 51.20 53.50 54.72 55.66 57.65 57.32 59.26 59.17 66.53 65.49 66.67 66.63 66.23 65.50 65.77 66.91 68.64 68.24 66.75 66.68 67.82 67.34 68.13 68.17 68.69 68.22 68.00 67.52 67.27 65.79 65.10 64.46 64.66 64.75 65.34
35.54 35.71 30.38 37.91 39.16 39.94 39.36 31.50 41.16 45.27 44.81 44.16 45.28 48.82 50.45 52.29 53.38 56.32 58.67 57.75 60.64 61.31 65.17 66.49 66.61 66.25 66.04 65.80 65.84 65.46 66.06 66.15 66.03 66.44 67.98 68.15 67.71 68.13 67.52 67.17 66.65 66.58 65.61 64.85 64.08 63.63 64.02 65.44 66.17
33.51 26.87 29.54 32.67 38.70 38.50 38.16 34.70 41.61 45.09 44.85 43.59 44.87 45.99 48.66 50.80 52.79 53.69 57.12 58.18 60.91 59.24 63.94 65.66 66.54 65.82 67.05 67.53 66.83 65.49 64.90 65.42 65.60 65.93 66.73 67.28 67.05 67.04 66.53 65.96 65.73 65.25 64.46 64.01 64.08 64.00 64.88 65.74 65.66
26.59 27.37 29.85 29.86 35.52 37.56 35.33 35.57 40.83 44.21 44.80 44.14 44.63 46.41 47.65 49.87 51.01 54.11 55.28 59.43 60.91 61.88 61.76 64.30 66.37 66.39 67.16 67.18 66.16 66.33 64.18 64.24 65.62 65.67 65.93 66.24 66.03 65.98 65.62 65.02 64.34 64.37 64.93 65.32 65.89 65.49 66.35 65.89 65.68
32.23 29.90 28.35 32.48 36.51 34.79 33.79 34.73 38.92 43.30 44.92 44.73 45.84 47.72 48.59 50.93 52.28 53.73 55.59 59.39 60.51 61.62 61.37 64.25 65.99 66.27 66.72 65.56 65.09 65.47 64.85 64.71 64.44 64.67 64.46 64.81 64.89 64.99 64.58 64.46 64.97 65.64 65.62 65.63 65.76 65.75 65.20 65.16 65.80
31.39 28.61 28.40 33.03 36.21 34.55 34.84 35.07 39.73 42.52 44.06 45.75 46.40 47.27 48.77 50.15 51.10 52.71 54.36 57.71 58.06 60.95 60.75 61.51 65.48 66.33 66.48 65.72 65.95 66.75 67.58 67.47 67.12 66.27 65.26 64.58 65.01 65.30 65.22 66.14 65.96 66.13 66.07 65.46 66.03 66.08 65.26 65.54 66.15
30.28 28.48 29.04 29.00 33.71 36.37 34.83 34.12 36.16 41.84 44.47 45.85 47.23 48.57 49.76 49.73 50.38 51.80 53.50 56.24 58.77 57.24 61.12 61.40 63.19 65.85 66.35 66.50 66.96 67.10 66.99 67.31 66.66 66.80 67.32 67.05 67.50 67.68 67.51 67.15 66.56 66.93 66.81 66.12 66.71 66.29 65.75 63.96 65.61
27.94 34.30 32.93 31.24 29.80 26.85 36.33 27.50 35.16 39.13 40.51 43.36 45.44 47.01 48.53 49.71 51.02 51.93 52.83 54.81 58.41 58.36 59.20 62.93 62.81 65.13 66.40 67.06 65.77 65.18 64.20 63.65 65.13 65.76 66.24 66.15 67.18 67.74 67.93 67.78 67.48 67.28 67.08 66.67 66.24 66.71 66.83 66.03 62.46
31.01 35.10 34.11 34.28 31.37 30.84 32.43 28.35 33.67 39.60 37.03 39.78 43.53 46.81 48.93 50.62 51.14 50.98 52.74 55.39 60.25 60.59 60.97 62.77 63.44 64.81 66.18 66.09 66.14 65.72 64.66 64.74 65.09 66.14 65.21 65.48 66.01 66.35 66.59 66.16 65.63 65.47 66.56 66.97 66.58 65.34 63.36 63.13 63.08
37.21 34.63 34.21 32.86 31.85 26.88 32.28 29.51 30.99 34.01 37.52 40.79 44.18 46.66 48.12 49.71 51.21 51.64 53.69 56.17 60.76 60.93 61.31 62.35 61.80 63.40 65.26 65.74 65.22 65.14 65.40 65.55 64.43 64.92 64.61 64.51 64.79 64.89 64.96 65.43 65.41 65.63 65.82 64.92 63.97 62.83 63.64 63.74 64.00
35.50 32.48 28.16 25.96 25.14 26.66 33.96 30.45 32.44 36.18 38.65 42.67 43.18 44.55 47.66 49.24 50.02 51.53 53.23 57.99 60.14 60.56 60.37 59.85 60.97 62.07 62.84 63.83 64.07 62.87 62.69 63.63 65.37 65.12 65.15 63.97 63.33 63.59 63.96 64.21 64.43 64.72 64.61 64.53 63.77 63.14 63.45 64.06 63.88
31.85 33.02 27.93 21.87 24.55 27.58 35.12 28.83 31.88 39.32 42.43 44.09 43.98 45.26 47.75 47.71 47.79 49.19 54.35 58.63 60.37 59.76 59.85 59.87 59.80 59.96 61.18 60.85 61.62 61.96 61.84 62.56 62.86 62.96 64.37 64.05 63.82 64.50 64.58 63.95 64.46 63.31 63.51 63.77 63.78 63.37 63.84 63.60 63.22
33.96 32.55 35.91 29.61 30.82 28.35 30.87 33.57 37.42 40.35 42.34 41.56 41.99 44.64 45.85 46.13 46.25 48.57 53.33 58.74 59.47 59.26 59.26 59.93 60.48 60.15 60.66 60.93 60.50 61.50 60.73 61.53 61.06 61.65 62.51 61.94 62.69 63.56 64.17 64.01 63.61 63.69 63.62 63.42 63.52 63.12 62.27 62.68 63.36
36.62 37.85 31.02 33.23 25.14 23.75 28.50 28.70 27.96 35.02 37.97 40.12 40.85 43.92 45.30 46.09 46.68 47.65 53.54 59.13 60.29 60.44 60.86 61.60 61.42 60.60 60.67 61.12 61.09 60.73 61.03 61.34 61.74 61.28 60.87 61.48 62.03 62.41 62.82 62.87 63.05 62.98 62.99 62.95 63.10 61.56 61.54 60.50 60.51
34.85 32.87 33.63 33.85 30.52 26.52 25.03 27.05 36.74 37.10 38.62 40.79 41.66 44.51 44.97 45.10 46.07 47.16 52.30 58.87 59.65 60.30 60.57 60.85 61.25 60.67 60.59 60.88 60.55 60.53 60.56 60.46 60.58 60.19 60.96 61.03 61.00 61.87 61.91 61.91 61.40 60.95 60.46 61.06 60.49 59.44 59.19 58.87 56.74
37.08 35.25 34.55 31.74 29.16 32.13 30.08 28.07 40.64 41.30 41.18 42.08 42.48 44.37 45.20 45.65 46.08 48.30 51.45 56.88 57.89 58.02 58.41 58.33 59.29 59.93 60.53 60.94 60.59 60.47 59.79 59.66 59.58 60.10 60.80 61.12 60.87 61.28 60.89 60.17 58.97 58.40 58.68 58.56 57.95 56.51 56.01 55.65 54.82